int(0) Sven Lombaerts - 2021-05-12 17:16:45 - Van Laer - T3796
Michel Vileyn - 2021-05-12 16:53:31 - Juwelier Vileyn - C4338
Michel Vileyn - 2021-05-12 16:52:44 - Juwelier Vileyn - C3658
Marc Bosmans - 2021-05-12 14:57:32 - Marc Bosmans - P4559
Marc Bosmans - 2021-05-12 14:54:44 - Marc Bosmans - P292A19G
N. Baurens - 2021-05-11 13:51:17 - Baurens - C9045-003
N. Baurens - 2021-05-11 13:49:17 - Baurens - C9045-004
Evelyne Coppens - 2021-05-08 14:54:26 - Paul - U4686
Marc Bosmans - 2021-05-08 12:13:26 - Marc Bosmans - M308B01G
Alain Van Vlierden - 2021-05-08 09:43:12 - Van Vlierden - 698B00
Alain Van Vlierden - 2021-05-08 09:38:26 - Van Vlierden - C503B00G
Marc Bosmans - 2021-05-08 09:17:38 - Marc Bosmans - F5003
Marc Bosmans - 2021-05-07 16:52:42 - Marc Bosmans - P295A23G
Bosmans Halle - 2021-05-07 16:15:00 - Bosmans Halle - V7001-003
Bosmans Halle - 2021-05-07 16:14:58 - Bosmans Halle - V7001-003
Evy Uyttenhove - 2021-05-05 19:00:37 - Evy d Or - V7014-003
Pierre-Louis - 2021-05-05 16:19:46 - Pierre-Louis - C5083
Evelyne Coppens - 2021-05-05 16:19:41 - Paul - T4225
Evelyne Coppens - 2021-05-05 16:19:00 - Paul - C3768
Evi Vandeweyer - 2021-05-05 11:22:39 - Vandeweyer - C5076
N. Baurens - 2021-05-05 10:00:30 - Baurens - A3028-001
Martine Oversteyns - 2021-05-04 14:35:46 - Oversteyns Martine - P238A06G
Amelie Berard - 2021-05-03 11:25:10 - Pronuptia - P238A12G
Amelie Berard - 2021-05-03 11:19:20 - Pronuptia - T486B04G
Davman - 2021-04-30 17:52:43 - Davman - P292A20G
Juwelen Coppens - 2021-04-30 15:27:10 - Juwelen Coppens - M514B00G
Juwelen Coppens - 2021-04-30 15:25:10 - Juwelen Coppens - M514B01G
Dries - 2021-04-30 14:58:19 - Dries - X3778-001
Juwelen Coppens - 2021-04-28 13:49:15 - Juwelen Coppens - T483B01G
Juwelen Coppens - 2021-04-28 13:47:26 - Juwelen Coppens - P483B00G
Catherine Abeele - 2021-04-27 17:48:58 - Abeele - F2263
Frédéric Pirson - 2021-04-26 14:58:39 - Pirson - 716B01
Frédéric Pirson - 2021-04-26 14:57:01 - Pirson - 716B00
Frédéric Pirson - 2021-04-26 14:54:24 - Pirson - F5203
Frédéric Pirson - 2021-04-26 14:52:57 - Pirson - F5203
Frédéric Pirson - 2021-04-26 14:51:02 - Pirson - F1137
Sandra Van Sweeveldt - 2021-04-26 08:30:06 - sandra - 725B01
Jan Schoubben - 2021-04-24 16:20:11 - Schoubben - A3028-001
Jan Schoubben - 2021-04-24 16:15:16 - Schoubben - A3028-001
Marie Paul & Christine Reyntjens - 2021-04-24 14:22:56 - Reyntjens - V7001-003
Marie Paul & Christine Reyntjens - 2021-04-24 14:19:55 - Reyntjens - P7001-007
Marc Bosmans - 2021-04-24 10:22:44 - Marc Bosmans - C9045-004
Marc Bosmans - 2021-04-24 10:15:48 - Marc Bosmans - F3731
Christine & Marjolein - 2021-04-23 14:53:49 - Yolande - C7046-002
Ilse Vercammen - 2021-04-23 11:59:26 - Ilse Vercammen - M311B00G
Catherine Abeele - 2021-04-22 13:32:16 - Abeele - C2863
Catherine Abeele - 2021-04-22 13:08:04 - Abeele - C3801
Heidi Stroeckx - 2021-04-17 15:18:19 - heidistroeckx - C510B01G
N. Baurens - 2021-04-15 13:31:16 - Baurens - T3797
N. Baurens - 2021-04-15 13:27:14 - Baurens - C2427
De Greeve - 2021-04-14 10:27:53 - De Greeve - T5082
De Greeve - 2021-04-14 10:27:16 - De Greeve - C5066
Kurt De Block - 2021-04-14 09:29:15 - Kortrijkse Goudcentrale - C9054-002
Kurt De Block - 2021-04-14 09:27:55 - Kortrijkse Goudcentrale - C9054-003
Bosmans Halle - 2021-04-11 13:41:03 - Bosmans Halle - F9021-001
Catherine Abeele - 2021-04-10 17:45:35 - Abeele - F2263
Nadia Souverijns - 2021-04-10 10:14:33 - Tibax - F4130
Nadia Souverijns - 2021-04-10 10:12:37 - Tibax - F4130
Sofie - 2021-04-09 09:48:52 - Jema Design - P499B00G
Sofie - 2021-04-09 09:47:35 - Jema Design - P499B00G
Evelyne Coppens - 2021-04-08 14:43:17 - Paul - P292A21G
Marc Bosmans - 2021-04-07 15:49:22 - Marc Bosmans - 725B01
Nadia Souverijns - 2021-04-07 15:06:45 - Tibax - V7026-003
Marc Bosmans - 2021-04-07 14:30:12 - Marc Bosmans - P295A22G
Marc Bosmans - 2021-04-07 14:24:34 - Marc Bosmans - P292A18G
Evelyne Coppens - 2021-04-07 11:22:30 - Paul - V4202
jan Van Brusselen - 2021-04-06 17:23:13 - Perles d Amour - 566B00
jan Van Brusselen - 2021-04-06 17:20:05 - Perles d Amour - 566B01
Dries - 2021-04-06 16:05:18 - Dries - U4686
Dries - 2021-04-06 16:03:10 - Dries - U4686
Alain Van Vlierden - 2021-04-03 15:46:43 - Van Vlierden - V4202
Alain Van Vlierden - 2021-04-03 15:43:26 - Van Vlierden - 709B02
Pierre-Louis - 2021-04-03 13:55:41 - Pierre-Louis - C5083
De Greeve - 2021-04-03 11:27:49 - De Greeve - C3953
Alain Van Vlierden - 2021-04-03 09:02:02 - Van Vlierden - F5104
Alain Van Vlierden - 2021-04-03 08:55:54 - Van Vlierden - F5105
Peeters-Engelen - 2021-04-02 10:32:30 - Peeters-Engelen - P292A19G
Peeters-Engelen - 2021-04-02 10:10:02 - Peeters-Engelen - P295A23G
Marc Bosmans - 2021-04-02 09:54:32 - Marc Bosmans - P238A09G
Marc Bosmans - 2021-04-02 09:50:40 - Marc Bosmans - M514B01G
Bosmans Halle - 2021-04-02 09:44:35 - Bosmans Halle - V7001-003
Dries - 2021-04-01 10:15:08 - Dries - B5052
Dries - 2021-04-01 09:57:14 - Dries - B5062
Heidi Stroeckx - 2021-04-01 09:36:44 - heidistroeckx - T473B00G
Heidi Stroeckx - 2021-04-01 09:35:24 - heidistroeckx - C9045-003
Sandra Van Sweeveldt - 2021-03-29 08:17:00 - sandra - P560A03G
Heidi Stroeckx - 2021-03-28 10:56:32 - heidistroeckx - T9163-016
Heidi Stroeckx - 2021-03-28 10:53:14 - heidistroeckx - C513B01G
De Greeve - 2021-03-27 16:22:31 - De Greeve - X4782
Vanhoutteghem - 2021-03-27 10:20:46 - Van Houtteghem - X3692
De Greeve - 2021-03-26 22:06:46 - De Greeve - F4130
De Greeve - 2021-03-26 22:05:24 - De Greeve - C4148
Team De Wilde - 2021-03-26 10:52:53 - De Wilde - C187B00G
N. Baurens - 2021-03-25 18:02:55 - Baurens - P238A10G
Fabienne Yannick - 2021-03-25 15:39:50 - Juwelen Yannick 2 - 553B01
Fabienne Yannick - 2021-03-25 15:38:22 - Juwelen Yannick 2 - 553B00
Pierre-Louis - 2021-03-25 13:00:57 - Pierre-Louis - V5047
Sandra Van Sweeveldt - 2021-03-25 09:17:41 - sandra - P318A03G
Buntinx - 2021-03-24 15:44:00 - Buntinx - 716B00
Sarah Roelandt - 2021-03-24 10:29:09 - Roelandt Sarah - P294A04G
Annick Gysemberg - 2021-03-23 18:11:06 - gysembergannick - C5919-006
Annick Gysemberg - 2021-03-23 18:08:09 - gysembergannick - C5919-007
N. Baurens - 2021-03-23 14:44:23 - Baurens - U4686
N. Baurens - 2021-03-23 14:41:49 - Baurens - C3953
Pierre-Louis - 2021-03-23 10:33:52 - Pierre-Louis - V5080
Eversen - 2021-03-23 10:32:47 - - V5080
Sandra Van Sweeveldt - 2021-03-23 10:26:41 - sandra - P560A03G
Sandra Van Sweeveldt - 2021-03-23 10:24:38 - sandra - P560A03G
De Tandt bvba - 2021-03-18 17:31:09 - De Tandt bvba - C9054-003
De Tandt bvba - 2021-03-18 17:29:48 - De Tandt bvba - C9054-002
Peeters-Engelen - 2021-03-16 11:25:36 - Peeters-Engelen - C477B01G
Peeters-Engelen - 2021-03-16 11:23:58 - Peeters-Engelen - C477B00G
Femke De Wolf - 2021-03-16 09:23:17 - De Koker - C9163-007
Femke De Wolf - 2021-03-16 09:19:49 - De Koker - T9163-006
Kristina Cuvelier - 2021-03-15 17:24:32 - Cuvelier - V4202
Bosmans Halle - 2021-03-15 12:37:55 - Bosmans Halle - F9021-001
Sarah Roelandt - 2021-03-15 11:36:26 - Roelandt Sarah - P560A09G
Laurent Vanstechelman - 2021-03-13 16:17:10 - Tempo d Oro - U4686
Martine Oversteyns - 2021-03-12 17:44:13 - Oversteyns Martine - X3634
Martine Oversteyns - 2021-03-12 17:42:22 - Oversteyns Martine - C3658
Juwelen Coppens - 2021-03-12 17:03:31 - Juwelen Coppens - 433B00
Peeters-Engelen - 2021-03-11 17:47:00 - Peeters-Engelen - P560A09G
Peeters-Engelen - 2021-03-11 17:44:43 - Peeters-Engelen - C4148
N. Baurens - 2021-03-11 14:30:02 - Baurens - A3028-001
N. Baurens - 2021-03-11 14:27:08 - Baurens - V7013-002
Christine & Marjolein - 2021-03-11 13:31:49 - Yolande - V5080
Juwelier - uurwerkmaker Devick Francis - 2021-03-10 16:03:50 - Juwelier - uurwerkmaker Devick Francis - V7007-003
Juwelier - uurwerkmaker Devick Francis - 2021-03-10 16:02:23 - Juwelier - uurwerkmaker Devick Francis - V7007-003
Frederik Bongaerts - 2021-03-10 10:26:42 - Bongaerts - M514B00G
Danny De Roover - 2021-03-09 19:46:38 - Danny De Roover - V5138
Danny De Roover - 2021-03-09 19:45:01 - Danny De Roover - C4957
Frédéric Pirson - 2021-03-09 11:54:10 - Pirson - P295A22G
Frédéric Pirson - 2021-03-09 11:49:24 - Pirson - P295A23G
Frederik Bongaerts - 2021-03-08 17:59:31 - Bongaerts - M306B00G
Frederik Bongaerts - 2021-03-08 17:51:48 - Bongaerts - M305B01G
Frederik Bongaerts - 2021-03-08 11:08:33 - Bongaerts - M312B00G
Frederik Bongaerts - 2021-03-08 11:07:05 - Bongaerts - M312B02
Frederik Bongaerts - 2021-03-07 14:51:48 - Bongaerts - M310B00G
Frederik Bongaerts - 2021-03-07 14:44:23 - Bongaerts - M310B00G
Frederik Bongaerts - 2021-03-07 13:56:31 - Bongaerts - M311B01G
Verena - 2021-03-06 18:00:16 - Verena - C9042-001
Verena - 2021-03-06 17:58:08 - Verena - F9042
Frederik Bongaerts - 2021-03-06 15:09:51 - Bongaerts - P499B00G
Marc Bosmans - 2021-03-06 15:06:28 - Marc Bosmans - P291A21G
Frederik Bongaerts - 2021-03-06 15:04:59 - Bongaerts - C499B01G
Pierre-Louis - 2021-03-06 12:51:55 - Pierre-Louis - V5080
Pierre-Louis - 2021-03-06 12:50:06 - Pierre-Louis - C5076
Marc Bosmans - 2021-03-06 12:41:02 - Marc Bosmans - C487B00G
Marc Bosmans - 2021-03-06 12:33:34 - Marc Bosmans - T496B02G
Evelyne Coppens - 2021-03-06 10:58:57 - Paul - C9045-003
Marc Bosmans - 2021-03-05 17:48:50 - Marc Bosmans - P292A20G
Marc Bosmans - 2021-03-05 17:40:37 - Marc Bosmans - P292A18G
Frederik Bongaerts - 2021-03-05 16:02:24 - Bongaerts - X3778-001
Frederik Bongaerts - 2021-03-05 15:58:23 - Bongaerts - C4166
Jan Schoubben - 2021-03-03 11:16:53 - Schoubben - P292A22G
Davman - 2021-03-02 17:56:01 - Davman - P292A21G
Sandra Van Sweeveldt - 2021-03-01 12:05:05 - sandra - 553B01
Sandra Van Sweeveldt - 2021-03-01 12:03:55 - sandra - P238A07G
Marc Bosmans - 2021-02-27 11:10:04 - Marc Bosmans - P496B00G
Moens Tongeren - 2021-02-26 13:27:55 - Moens Tongeren - V4540
De Tandt bvba - 2021-02-25 15:40:49 - De Tandt bvba - T489B01G
De Tandt bvba - 2021-02-25 15:39:29 - De Tandt bvba - C489B00G
Michel Vileyn - 2021-02-25 15:05:23 - Juwelier Vileyn - M305B00G
Michel Vileyn - 2021-02-25 15:04:25 - Juwelier Vileyn - M305B01G
Sven Lombaerts - 2021-02-25 11:46:02 - Van Laer - C4338
Sven Lombaerts - 2021-02-25 11:45:05 - Van Laer - C3658
N. Baurens - 2021-02-23 17:09:00 - Baurens - V1289
N. Baurens - 2021-02-23 17:03:44 - Baurens - V1289
Stephan Siemon - 2021-02-23 16:22:38 - Top Watch - V1289
Stephan Siemon - 2021-02-23 16:21:22 - Top Watch - U1485
Fabienne Yannick - 2021-02-23 10:27:19 - Juwelen Yannick 2 - M387A02G
Davman - 2021-02-20 17:21:42 - Davman - 566B01
N. Baurens - 2021-02-20 16:37:01 - Baurens - U4686
N. Baurens - 2021-02-20 16:35:04 - Baurens - U4686
Marc Bosmans - 2021-02-20 14:16:17 - Marc Bosmans - F4995
Vanhoutteghem - 2021-02-20 14:02:35 - Van Houtteghem - X3692
Marc Bosmans - 2021-02-20 11:53:17 - Marc Bosmans - X2574
Marc Bosmans - 2021-02-19 15:48:21 - Marc Bosmans - 709B00
Marc Bosmans - 2021-02-19 15:39:49 - Marc Bosmans - P291A20G
Evelyne Coppens - 2021-02-16 17:59:43 - Paul - F5105
Christine & Marjolein - 2021-02-16 13:22:46 - Yolande - T7027-003
Stephan Siemon - 2021-02-16 12:57:23 - Top Watch - F1137
Stephan Siemon - 2021-02-16 12:54:44 - Top Watch - F1137
Sandra Van Sweeveldt - 2021-02-15 10:40:32 - sandra - P292A18G
Bosmans Halle - 2021-02-15 09:01:19 - Bosmans Halle - C4338
Marc Bosmans - 2021-02-13 14:16:22 - Marc Bosmans - T487B02G
Marc Bosmans - 2021-02-13 14:02:30 - Marc Bosmans - C487B00G
De Greeve - 2021-02-12 14:46:27 - De Greeve - P560A09G
Evelyne Coppens - 2021-02-12 10:17:54 - Paul - F4130
Evelyne Coppens - 2021-02-12 10:16:42 - Paul - C4148
Marc Bosmans - 2021-02-11 14:40:49 - Marc Bosmans - P293A18G
Catherine Abeele - 2021-02-11 14:37:52 - Abeele - V4202
Sarah Roelandt - 2021-02-07 18:06:44 - Roelandt Sarah - P238A07G
Sven Lombaerts - 2021-02-07 09:58:34 - Van Laer - C3953
Sven Lombaerts - 2021-02-07 09:57:40 - Van Laer - C518B00G
Catherine Abeele - 2021-02-06 17:15:48 - Abeele - C2864
Catherine Abeele - 2021-02-06 17:12:19 - Abeele - C2863
Evelyne Coppens - 2021-02-06 16:11:32 - Paul - V4202
Stephan Siemon - 2021-02-06 15:24:50 - Top Watch - F3966
Marc Bosmans - 2021-02-06 14:44:42 - Marc Bosmans - C2843
Marc Bosmans - 2021-02-06 14:41:15 - Marc Bosmans - C2843
Vanhoutteghem - 2021-02-06 14:01:58 - Van Houtteghem - A3028-001
Vanhoutteghem - 2021-02-06 14:01:03 - Van Houtteghem - C9052
Marc Bosmans - 2021-02-05 15:54:53 - Marc Bosmans - P291A21G
Marc Bosmans - 2021-02-05 15:52:03 - Marc Bosmans - C518B01G
Marc Bosmans - 2021-02-05 14:33:19 - Marc Bosmans - P238A07G
Martine - 2021-02-04 15:06:40 - Toermalijn - 422B01
Nadia Souverijns - 2021-02-04 13:57:44 - Tibax - C5895-002
Alain Van Vlierden - 2021-01-30 15:55:51 - Van Vlierden - C3801
Sofie - 2021-01-30 14:09:02 - Jema Design - C3658
Annik De Mey - 2021-01-30 14:02:08 - Annik De Mey - V5049
Sofie - 2021-01-30 13:59:06 - Jema Design - P499B00G
Marie-Christine Hermans - 2021-01-29 18:13:39 - Juwelen Marie-Christine - X4198
Marie-Christine Hermans - 2021-01-29 18:13:39 - Juwelen Marie-Christine - X4198
Marie-Christine Hermans - 2021-01-29 18:10:37 - Juwelen Marie-Christine - C4197
Dhr. Richard - 2021-01-29 12:16:54 - Richard - P291A21G
Evi Vandeweyer - 2021-01-29 11:46:23 - Vandeweyer - C5076
Juwelen Coppens - 2021-01-28 17:06:36 - Juwelen Coppens - C2885
Juwelen Coppens - 2021-01-28 17:03:47 - Juwelen Coppens - C2886
Ilse Vercammen - 2021-01-28 10:57:25 - Ilse Vercammen - B4980-001
Evelyne Coppens - 2021-01-28 10:23:48 - Paul - C4224
Evelyne Coppens - 2021-01-28 10:23:02 - Paul - C4223
Marc Bosmans - 2021-01-27 14:47:21 - Marc Bosmans - P295A23G
Alain Van Vlierden - 2021-01-26 16:47:34 - Van Vlierden - C503B03G
Alain Van Vlierden - 2021-01-26 16:44:51 - Van Vlierden - F4785
Catherine Abeele - 2021-01-26 15:20:24 - Abeele - C5067
Marc Bosmans - 2021-01-26 14:42:35 - Marc Bosmans - C9045-004
Marc Bosmans - 2021-01-26 14:40:14 - Marc Bosmans - M514B00G
Lepla - Dries - 2021-01-25 15:27:18 - Lepla - Dries - C231B04G
Lepla - Dries - 2021-01-25 15:24:58 - Lepla - Dries - C231B05G
Katrien en Hildegarde Huysman - 2021-01-25 14:58:51 - Huysman - V5118
Alain Van Vlierden - 2021-01-23 17:01:41 - Van Vlierden - 422B00
Alain Van Vlierden - 2021-01-23 16:59:42 - Van Vlierden - 422B01
Davman - 2021-01-23 16:40:15 - Davman - P294A08G
Marc Bosmans - 2021-01-23 15:23:24 - Marc Bosmans - P292A19G
Evy Uyttenhove - 2021-01-22 16:08:18 - Evy d Or - V7014-003
Laurent Vanstechelman - 2021-01-22 15:40:21 - Tempo d Oro - X4198
Marc Bosmans - 2021-01-22 12:03:58 - Marc Bosmans - 725B01
De Greeve - 2021-01-21 17:37:10 - De Greeve - X3774
De Greeve - 2021-01-21 17:27:31 - De Greeve - X3774
Michel Vileyn - 2021-01-20 10:46:33 - Juwelier Vileyn - C5061
Dries - 2021-01-20 09:45:23 - Dries - P3974
Katrien en Hildegarde Huysman - 2021-01-16 16:13:54 - Huysman - V7001-003
De Greeve - 2021-01-16 15:36:00 - De Greeve - V5079
De Greeve - 2021-01-16 15:35:05 - De Greeve - C5060
Annick Gysemberg - 2021-01-16 10:50:28 - gysembergannick - C4338
Annick Gysemberg - 2021-01-16 10:43:48 - gysembergannick - C3658
Dries - 2021-01-14 13:56:36 - Dries - C5060
Dries - 2021-01-14 13:55:37 - Dries - V5079
Catherine Abeele - 2021-01-12 17:19:37 - Abeele - V5080
Martine Oversteyns - 2021-01-11 10:33:49 - Oversteyns Martine - P292A21G
Martine Oversteyns - 2021-01-11 10:32:27 - Oversteyns Martine - C3953
Schotte - 2021-01-09 18:14:45 - Schotte - P293A19G
Schotte - 2021-01-09 18:13:28 - Schotte - P293A19G
Belle et Beau - 2021-01-09 16:56:36 - Belle et Beau - M312B00G
Belle et Beau - 2021-01-09 16:54:58 - Belle et Beau - M312B00G
Evelyne Coppens - 2021-01-09 16:42:59 - Paul - P292A19G
Katrien en Hildegarde Huysman - 2021-01-09 16:41:58 - Huysman - F9042
Stephan Siemon - 2021-01-09 16:29:14 - Top Watch - V1289
Stephan Siemon - 2021-01-09 16:27:58 - Top Watch - V1289
Katrien en Hildegarde Huysman - 2021-01-09 16:03:25 - Huysman - F9042
Katrien en Hildegarde Huysman - 2021-01-09 16:00:52 - Huysman - X2167-001
Team De Wilde - 2021-01-09 15:45:20 - De Wilde - 207B00
Team De Wilde - 2021-01-09 15:42:37 - De Wilde - 207B01
Marc Bosmans - 2021-01-09 14:54:07 - Marc Bosmans - P292A22G
Alain Van Vlierden - 2021-01-09 11:02:36 - Van Vlierden - V4202
Alain Van Vlierden - 2021-01-09 10:57:53 - Van Vlierden - C3963
Evelyne Coppens - 2021-01-08 17:09:44 - Paul - P238A11G
Stephan Siemon - 2021-01-08 15:30:00 - Top Watch - C3732
Stephan Siemon - 2021-01-08 15:28:31 - Top Watch - F3731
N. Baurens - 2021-01-07 17:18:45 - Baurens - U1678
N. Baurens - 2021-01-07 17:16:56 - Baurens - U1678
Marc Bosmans - 2021-01-07 14:20:37 - Marc Bosmans - P295A21G
Marc Bosmans - 2021-01-07 14:17:28 - Marc Bosmans - F3738
jan Van Brusselen - 2021-01-07 12:33:25 - Perles d Amour - M313B00G
jan Van Brusselen - 2021-01-07 12:31:01 - Perles d Amour - M313B01G
jan Van Brusselen - 2021-01-07 12:27:39 - Perles d Amour - C5636
jan Van Brusselen - 2021-01-07 12:26:05 - Perles d Amour - C5636-001
jan Van Brusselen - 2021-01-07 12:22:02 - Perles d Amour - X2167-001
jan Van Brusselen - 2021-01-07 12:20:21 - Perles d Amour - E4480-001
Mathias Michelsanti - 2021-01-07 11:58:33 - Impormatex - V5827
Ferri-Merlier - 2021-01-06 13:41:12 - Ferri-Merlier - X1681
Ferri-Merlier - 2021-01-06 13:38:30 - Ferri-Merlier - X1683
Catherine Abeele - 2021-01-05 16:35:06 - Abeele - C5067
Catherine Abeele - 2021-01-05 16:33:45 - Abeele - C5081
Catherine Abeele - 2021-01-05 15:01:49 - Abeele - C5071
Katrien en Hildegarde Huysman - 2021-01-02 16:55:50 - Huysman - C3953
Katrien en Hildegarde Huysman - 2021-01-02 16:54:13 - Huysman - C5299
Evelyne Coppens - 2021-01-02 16:51:13 - Paul - C4385
Evelyne Coppens - 2021-01-02 16:49:09 - Paul - C4384
Kristina Cuvelier - 2021-01-02 13:30:36 - Cuvelier - C4223
Evelyne Coppens - 2020-12-31 16:59:02 - Paul - M387A02G
N. Baurens - 2020-12-30 16:51:07 - Baurens - V7013-002
N. Baurens - 2020-12-30 16:38:15 - Baurens - U4686
N. Baurens - 2020-12-30 16:33:20 - Baurens - C3953
Sarah Roelandt - 2020-12-30 14:47:54 - Roelandt Sarah - C240B04G
Sofie - 2020-12-29 18:05:03 - Jema Design - M312B02
Sofie - 2020-12-29 18:03:21 - Jema Design - M312B00G
Evelyne Coppens - 2020-12-29 17:27:21 - Paul - U4686
De Greeve - 2020-12-29 14:39:56 - De Greeve - A3028-001
Bart Bourgois - 2020-12-29 11:46:32 - Bourgois - P292A20G
Ilse Vercammen - 2020-12-29 11:23:56 - Ilse Vercammen - C4211
Sarah Roelandt - 2020-12-28 15:41:52 - Roelandt Sarah - P7006-007
Sarah Roelandt - 2020-12-28 15:40:06 - Roelandt Sarah - V7006-003
Eric De Waele - 2020-12-28 14:12:16 - De Waele - C5077
Eric De Waele - 2020-12-28 14:10:28 - De Waele - C5077
Christine & Marjolein - 2020-12-28 10:57:33 - Yolande - V5053
Christine & Marjolein - 2020-12-28 10:57:01 - Yolande - C5064
Amelie Berard - 2020-12-28 09:36:12 - Pronuptia - P292A19G
Amelie Berard - 2020-12-28 09:34:22 - Pronuptia - A4979
Sven Lombaerts - 2020-12-24 09:23:22 - Van Laer - V4202
Sven Lombaerts - 2020-12-24 09:22:14 - Van Laer - C4809
Stephan Siemon - 2020-12-23 13:38:21 - Top Watch - C9045-004
Laurent Vanstechelman - 2020-12-22 16:41:06 - Tempo d Oro - C5075
Marie-Christine Hermans - 2020-12-21 15:45:36 - Juwelen Marie-Christine - U4686
Marc Bosmans - 2020-12-19 11:08:31 - Marc Bosmans - T496B02G
Marc Bosmans - 2020-12-19 10:59:47 - Marc Bosmans - P496B00G
Bosmans Halle - 2020-12-18 14:17:22 - Bosmans Halle - V7001-003
Bosmans Halle - 2020-12-18 14:16:53 - Bosmans Halle - P7001-007
Sandra Van Sweeveldt - 2020-12-18 09:33:29 - sandra - V5048
Laurent Vanstechelman - 2020-12-17 14:34:16 - Tempo d Oro - V5048
Eric De Waele - 2020-12-17 10:18:55 - De Waele - C5078
Eric De Waele - 2020-12-17 10:16:58 - De Waele - F5086
Christine & Marjolein - 2020-12-16 13:53:37 - Yolande - C5077
Christine & Marjolein - 2020-12-16 13:53:06 - Yolande - C5077
De Tandt bvba - 2020-12-16 11:45:35 - De Tandt bvba - P292A18G
De Tandt bvba - 2020-12-16 11:44:29 - De Tandt bvba - P292A20G
Frederik Bongaerts - 2020-12-15 17:28:36 - Bongaerts - C5065
Frederik Bongaerts - 2020-12-15 17:26:56 - Bongaerts - V5050
Bosmans Halle - 2020-12-15 12:27:29 - Bosmans Halle - C9045-003
Bosmans Halle - 2020-12-15 12:26:51 - Bosmans Halle - C9045-004
Bosmans Halle - 2020-12-15 12:25:35 - Bosmans Halle - C9045-003
Frederik Bongaerts - 2020-12-12 15:43:56 - Bongaerts - X4782
Frederik Bongaerts - 2020-12-12 15:38:47 - Bongaerts - C3658
N. Baurens - 2020-12-11 15:32:59 - Baurens - V1289
Frédéric Pirson - 2020-12-10 13:32:17 - Pirson - P295A22G
Frédéric Pirson - 2020-12-10 13:30:35 - Pirson - P295A23G
Frédéric Pirson - 2020-12-10 13:28:23 - Pirson - P293A17G
N. Baurens - 2020-12-09 16:40:14 - Baurens - P295A23G
Michel Vileyn - 2020-12-09 12:01:38 - Juwelier Vileyn - C4338
Michel Vileyn - 2020-12-09 12:00:45 - Juwelier Vileyn - C3658
Alain Van Vlierden - 2020-12-08 17:09:26 - Van Vlierden - V4202
Sandra Van Sweeveldt - 2020-12-08 16:07:19 - sandra - E2829
N. Baurens - 2020-12-08 15:58:41 - Baurens - 380B00
Martine - 2020-12-08 15:57:32 - Toermalijn - B7052-002
N. Baurens - 2020-12-08 15:53:32 - Baurens - 380B01
Martine - 2020-12-08 15:52:44 - Toermalijn - B7052-002
Kristina Cuvelier - 2020-12-07 16:15:24 - Cuvelier - X2167-001
Kristina Cuvelier - 2020-12-07 16:12:13 - Cuvelier - P408A001
Kristina Cuvelier - 2020-12-05 16:11:36 - Cuvelier - C4223
Kristina Cuvelier - 2020-12-05 16:10:00 - Cuvelier - C4223
Annick Gysemberg - 2020-12-05 15:15:27 - gysembergannick - P504B00G
Annick Gysemberg - 2020-12-05 15:09:07 - gysembergannick - T504B02G
Filip Simoens - 2020-12-05 14:18:12 - Simoens - P295A18G
Sven Lombaerts - 2020-12-05 11:20:22 - Van Laer - 393B00
Sven Lombaerts - 2020-12-05 11:19:30 - Van Laer - 393B01
Peeters-Engelen - 2020-12-04 15:05:02 - Peeters-Engelen - 566B01
Peeters-Engelen - 2020-12-04 15:03:15 - Peeters-Engelen - 566B00
Filip Simoens - 2020-12-03 15:18:46 - Simoens - P295A22G
Dhr. Richard - 2020-12-03 12:21:09 - Richard - P293A24G
Dhr. Richard - 2020-12-03 12:18:03 - Richard - P293A25G
De Greeve - 2020-12-02 16:59:49 - De Greeve - X3692
Moens - 2020-12-02 10:37:52 - Moens - C9054-002
Moens - 2020-12-02 10:03:33 - Moens - C9054-003
Marc Bosmans - 2020-11-28 11:43:19 - Marc Bosmans - P496B00G
Marc Bosmans - 2020-11-28 11:14:32 - Marc Bosmans - T496B02G
Mathias Michelsanti - 2020-11-27 11:03:23 - Impormatex - B9056-002
Mathias Michelsanti - 2020-11-27 10:58:30 - Impormatex - B9056-003
N. Baurens - 2020-11-26 11:03:59 - Baurens - V7004-002
N. Baurens - 2020-11-26 11:01:57 - Baurens - P7004-007
Marc & Hilde Jehaes - 2020-11-21 12:33:52 - Jehaes - C9052
Marc & Hilde Jehaes - 2020-11-21 12:26:38 - Jehaes - C9052-001
Laurent Vanstechelman - 2020-11-18 09:30:03 - Tempo d Oro - C491B01G
Laurent Vanstechelman - 2020-11-18 09:29:23 - Tempo d Oro - P491B00G
N. Baurens - 2020-11-17 16:44:45 - Baurens - C503B02G
Martine - 2020-11-13 12:21:15 - Toermalijn - C9048-001
Martine - 2020-11-13 12:16:37 - Toermalijn - C9048
Patrick Peeters - 2020-11-05 17:05:26 - Peeters - F9021-001
Sandra Van Sweeveldt - 2020-11-04 12:16:46 - sandra - C503B00G
Sandra Van Sweeveldt - 2020-11-03 12:19:46 - sandra - F4785
Sandra Van Sweeveldt - 2020-11-03 12:18:53 - sandra - F5175
Stephan Siemon - 2020-10-31 16:48:48 - Top Watch - V1289
Dries - 2020-10-31 15:48:53 - Dries - C5064
Paul Soens - 2020-10-31 12:01:54 - Juwelen Soens - C478B01G
Paul Soens - 2020-10-31 12:00:10 - Juwelen Soens - P478B00G
Dries - 2020-10-29 14:47:06 - Dries - C5076
N. Baurens - 2020-10-29 12:13:57 - Baurens - C503B02G
Jan Schoubben - 2020-10-27 11:23:44 - Schoubben - F3012
Jan Schoubben - 2020-10-27 11:21:57 - Schoubben - C3011
Sandra Van Sweeveldt - 2020-10-26 16:27:17 - sandra - 118B02
Sandra Van Sweeveldt - 2020-10-26 16:26:42 - sandra - 319A02
Sandra Van Sweeveldt - 2020-10-26 16:26:05 - sandra - 700B00
Sandra Van Sweeveldt - 2020-10-26 16:04:19 - sandra - 744A01
Sandra Van Sweeveldt - 2020-10-26 16:02:51 - sandra - 744A01
Sandra Van Sweeveldt - 2020-10-26 12:15:13 - sandra - 118B02
Marc Bosmans - 2020-10-23 13:49:25 - Marc Bosmans - C477B01G
Marc Bosmans - 2020-10-23 13:45:17 - Marc Bosmans - C477B00G
Sandra Van Sweeveldt - 2020-10-21 08:56:02 - sandra - X3778-001
N. Baurens - 2020-10-20 16:25:53 - Baurens - V7004-002
Celine Vanstechelman - 2020-10-20 15:40:28 - Eye-C - V7004-002
Celine Vanstechelman - 2020-10-20 15:39:13 - Eye-C - P7002-007
Ilse Vercammen - 2020-10-19 09:11:31 - Ilse Vercammen - X2167-001
Marc Buseyne - 2020-10-16 08:58:04 - Busseyne - C3801
Sandra Van Sweeveldt - 2020-10-13 08:39:29 - sandra - T509B02G
Ferri-Merlier - 2020-10-12 17:51:30 - Ferri-Merlier - 427B00
Ferri-Merlier - 2020-10-12 17:47:13 - Ferri-Merlier - 553B01
Mik & Veronique Vander Avort - 2020-10-12 15:44:11 - Vander Avort - F4785-005
Sarah Roelandt - 2020-10-09 11:54:30 - Roelandt Sarah - P292A20G
Schotte - 2020-10-08 16:04:12 - Schotte - W5333
Sarah Roelandt - 2020-10-07 15:57:00 - Roelandt Sarah - V4206
Sarah Roelandt - 2020-10-07 15:53:12 - Roelandt Sarah - C4166
Dries - 2020-10-06 15:32:32 - Dries - C5057
Christine & Marjolein - 2020-10-06 09:06:18 - Yolande - A9093 – 0.13ct.
Eric De Waele - 2020-10-06 07:56:15 - De Waele - V5080
Sarah Roelandt - 2020-10-05 16:14:13 - Roelandt Sarah - T484B02G
Bosmans Halle - 2020-10-05 10:18:19 - Bosmans Halle - P501B00G
Bosmans Halle - 2020-10-05 10:17:26 - Bosmans Halle - C536B00G
Martine - 2020-10-02 10:38:53 - Toermalijn - T7039-003
Martine - 2020-10-02 10:35:45 - Toermalijn - T7039-001
Frederik Bongaerts - 2020-10-01 12:52:34 - Bongaerts - V5080
Frederik Bongaerts - 2020-10-01 12:35:12 - Bongaerts - C5061
Frederik Bongaerts - 2020-10-01 12:29:26 - Bongaerts - V5047
De Greeve - 2020-09-30 16:38:20 - De Greeve - B5052
Moens - 2020-09-30 16:29:13 - Moens - M306B00G
Moens - 2020-09-30 16:26:44 - Moens - M306B01G
Mathias Michelsanti - 2020-09-30 09:26:47 - Impormatex - A4799
Mathias Michelsanti - 2020-09-30 09:25:05 - Impormatex - A4799
Catherine Abeele - 2020-09-29 13:13:57 - Abeele - C5061
Catherine Abeele - 2020-09-29 13:12:33 - Abeele - C5081
Belle et Beau - 2020-09-29 09:50:32 - Belle et Beau - C4806
Ilse Vercammen - 2020-09-26 15:34:21 - Ilse Vercammen - M305B00G
Ilse Vercammen - 2020-09-26 15:32:11 - Ilse Vercammen - M311B00G
Ilse Vercammen - 2020-09-26 13:17:14 - Ilse Vercammen - M307B01G
Ilse Vercammen - 2020-09-26 11:19:23 - Ilse Vercammen - C784A04G
Frederik Bongaerts - 2020-09-26 10:22:48 - Bongaerts - P7002-007
Ilse Vercammen - 2020-09-23 14:27:52 - Ilse Vercammen - T489B02G
Ilse Vercammen - 2020-09-23 14:24:37 - Ilse Vercammen - C489B00G
Moens - 2020-09-23 09:53:59 - Moens - P491B00G
Sandra Van Sweeveldt - 2020-09-22 09:45:01 - sandra - P295A23G
Dhr. Richard - 2020-09-21 11:30:52 - Richard - P238A12G
Dhr. Richard - 2020-09-21 11:27:53 - Richard - P238A12G
Sandra Van Sweeveldt - 2020-09-21 07:51:54 - sandra - M312B02
Ilse Vercammen - 2020-09-20 15:46:23 - Ilse Vercammen - M312B02
Ilse Vercammen - 2020-09-20 15:43:10 - Ilse Vercammen - M312B00G
Amelie Berard - 2020-09-19 11:31:17 - Pronuptia - V4212
Amelie Berard - 2020-09-19 11:27:04 - Pronuptia - B4980-001
Marc Bosmans - 2020-09-18 10:39:28 - Marc Bosmans - 716B01
Alain Van Vlierden - 2020-09-17 12:29:47 - Van Vlierden - C503B00G
Evy Uyttenhove - 2020-09-16 17:10:57 - Evy d Or - X4782
Evy Uyttenhove - 2020-09-16 17:09:40 - Evy d Or - C4790
Evelyne Coppens - 2020-09-16 17:07:57 - Paul - M312B00G
Sandra Van Sweeveldt - 2020-09-14 11:14:19 - sandra - M312B02
Sandra Van Sweeveldt - 2020-09-14 09:17:15 - sandra - C5071
De Tandt bvba - 2020-09-12 16:15:06 - De Tandt bvba - P291A22G
Annick Gysemberg - 2020-09-12 15:19:46 - gysembergannick - P291A20G
Annick Gysemberg - 2020-09-12 15:07:30 - gysembergannick - B4308
Frederik Bongaerts - 2020-09-11 13:32:22 - Bongaerts - C5083
Frederik Bongaerts - 2020-09-11 13:06:49 - Bongaerts - P484B00G
Pierre-Louis - 2020-09-10 12:13:21 - Pierre-Louis - C5083
Amelie Berard - 2020-09-10 12:10:28 - Pronuptia - P295A23G
Amelie Berard - 2020-09-10 12:04:28 - Pronuptia - M306B00G
Peeters-Engelen - 2020-09-10 10:39:46 - Peeters-Engelen - P291A18G
Peeters-Engelen - 2020-09-10 10:36:14 - Peeters-Engelen - P291A18G
Christine & Marjolein - 2020-09-09 13:13:16 - Yolande - C9045-003
Christine & Marjolein - 2020-09-09 13:09:22 - Yolande - C4148
Support WP Experts - 2020-09-08 13:59:15 - support.wpexperts - 727B00 half
Sandra Van Sweeveldt - 2020-09-08 12:04:30 - sandra - C5083
Marc & Hilde Jehaes - 2020-09-07 13:52:22 - Jehaes - C9045-003
Marc & Hilde Jehaes - 2020-09-07 13:50:32 - Jehaes - C9045-004
Bosmans Halle - 2020-09-07 09:54:41 - Bosmans Halle - C501B01G
Bosmans Halle - 2020-09-07 09:53:36 - Bosmans Halle - C487B00G
Anne De Peuter - 2020-09-05 19:53:57 - Goethals - X4782
Anne De Peuter - 2020-09-05 19:52:03 - Goethals - C3658
Catherine Abeele - 2020-09-05 16:12:12 - Abeele - C5055
Catherine Abeele - 2020-09-05 16:11:01 - Abeele - C5073
Davman - 2020-09-05 15:55:39 - Davman - 566B01
Davman - 2020-09-05 15:50:44 - Davman - 566B00
Marc Bosmans - 2020-09-05 09:19:31 - Marc Bosmans - V3802
Bart Bourgois - 2020-09-04 17:29:14 - Bourgois - P238A09G
Sven Lombaerts - 2020-09-02 13:05:29 - Van Laer - V7001-003
Sven Lombaerts - 2020-09-02 13:04:23 - Van Laer - P7001-007
Sven Lombaerts - 2020-09-02 11:03:26 - Van Laer - V5502-002
Sven Lombaerts - 2020-09-02 10:53:54 - Van Laer - C3953
Marc Bosmans - 2020-09-01 16:50:11 - Marc Bosmans - 727B01
Marc Bosmans - 2020-09-01 16:44:01 - Marc Bosmans - 727B00 half
Frédéric Pirson - 2020-09-01 16:28:50 - Pirson - F5229
Celine Vanstechelman - 2020-09-01 09:11:23 - Eye-C - V4202
Celine Vanstechelman - 2020-09-01 09:10:01 - Eye-C - V4202
Celine Vanstechelman - 2020-09-01 09:09:58 - Eye-C - V4202
Verena - 2020-08-29 16:07:39 - Verena - C503B00G
Juwelen Coppens - 2020-08-29 12:13:43 - Juwelen Coppens - M306B00G
Juwelen Coppens - 2020-08-29 12:10:42 - Juwelen Coppens - M306B00G
Dirk Van Schoenwinkel - 2020-08-28 19:02:22 - Juweliers Van Schoenwinkel - C9045-003
Dirk Van Schoenwinkel - 2020-08-28 19:00:22 - Juweliers Van Schoenwinkel - C9045-004
Stephan Siemon - 2020-08-27 14:36:40 - Top Watch - V1289
Nadia Souverijns - 2020-08-26 14:23:49 - Tibax - T5082
Nadia Souverijns - 2020-08-26 14:22:11 - Tibax - T5082
jan Van Brusselen - 2020-08-26 12:03:26 - Perles d Amour - H1377
jan Van Brusselen - 2020-08-26 12:01:14 - Perles d Amour - H1377
jan Van Brusselen - 2020-08-26 11:54:21 - Perles d Amour - C231B04G
jan Van Brusselen - 2020-08-26 11:50:26 - Perles d Amour - 471B00
jan Van Brusselen - 2020-08-26 11:48:26 - Perles d Amour - 471B01
Frédéric Pirson - 2020-08-25 17:44:43 - Pirson - U4686
Frédéric Pirson - 2020-08-25 17:42:25 - Pirson - C3953
Frédéric Pirson - 2020-08-25 17:39:31 - Pirson - V4202
Frédéric Pirson - 2020-08-25 17:37:34 - Pirson - A3028-001
Fabienne Yannick - 2020-08-25 15:33:39 - Juwelen Yannick 2 - 553B01
Stephan Siemon - 2020-08-25 10:15:39 - Top Watch - V1289
Stephan Siemon - 2020-08-25 10:14:20 - Top Watch - U1485
Sandra Van Sweeveldt - 2020-08-24 09:15:41 - sandra - C5919-006
Pierre-Louis - 2020-08-22 14:25:06 - Pierre-Louis - X5085
Pierre-Louis - 2020-08-22 14:23:05 - Pierre-Louis - C5070
Moens - 2020-08-22 12:54:39 - Moens - P501B00G
Alain Van Vlierden - 2020-08-21 16:12:09 - Van Vlierden - M306B00G
Lepla - Dries - 2020-08-20 16:54:10 - Lepla - Dries - 717B01
Pierre-Louis - 2020-08-20 12:06:51 - Pierre-Louis - C5055
Pierre-Louis - 2020-08-20 12:05:08 - Pierre-Louis - C5073
Ilse Vercammen - 2020-08-19 10:20:04 - Ilse Vercammen - 207B00
Sandra Van Sweeveldt - 2020-08-19 10:07:07 - sandra - F4784
Sandra Van Sweeveldt - 2020-08-18 15:50:45 - sandra - T476B02G
Moens - 2020-08-18 15:43:08 - Moens - P476B00G
Bosmans Halle - 2020-08-18 15:10:40 - Bosmans Halle - P484B00G
Mathias Michelsanti - 2020-08-13 10:14:20 - Impormatex - V7013-002
Buntinx - 2020-08-13 08:26:56 - Buntinx - 455B00
Pierre-Louis - 2020-08-11 16:07:51 - Pierre-Louis - V5050
Pierre-Louis - 2020-08-11 16:06:33 - Pierre-Louis - C5065
Sandra Van Sweeveldt - 2020-08-10 15:10:21 - sandra - C4806
Sandra Van Sweeveldt - 2020-08-10 13:53:12 - sandra - C3953
Sarah Roelandt - 2020-08-09 14:37:04 - Roelandt Sarah - P560A08G
Anne De Peuter - 2020-08-08 15:37:45 - Goethals - V4202
Marc Bosmans - 2020-08-08 11:38:16 - Marc Bosmans - C240B04G
Evy Uyttenhove - 2020-08-06 14:43:50 - Evy d Or - V7014-003
Vanhoutteghem - 2020-08-05 16:58:43 - Van Houtteghem - C5083
De Tandt bvba - 2020-08-05 09:56:06 - De Tandt bvba - P292A20G
De Tandt bvba - 2020-08-05 09:54:26 - De Tandt bvba - P292A20G
Sandra Van Sweeveldt - 2020-08-03 12:58:41 - sandra - C5083
Sarah Roelandt - 2020-08-03 10:10:17 - Roelandt Sarah - X4198
Sarah Roelandt - 2020-08-03 10:07:24 - Roelandt Sarah - C3953
De Greeve - 2020-08-01 14:47:13 - De Greeve - T5082
Nadia Souverijns - 2020-08-01 12:38:46 - Tibax - X2663
Nadia Souverijns - 2020-08-01 12:36:26 - Tibax - E2662
Marc Drexeler - 2020-08-01 09:31:21 - Drexeler - M514B01G
Marc Drexeler - 2020-08-01 09:28:17 - Drexeler - M514B01G
Ferri-Merlier - 2020-07-31 08:51:17 - Ferri-Merlier - M312B00G
Ferri-Merlier - 2020-07-31 08:49:47 - Ferri-Merlier - M312B00G
Sandra Van Sweeveldt - 2020-07-30 13:40:23 - sandra - C4163
Sandra Van Sweeveldt - 2020-07-30 13:39:23 - sandra - X4198
Marc Bosmans - 2020-07-29 16:01:25 - Marc Bosmans - C4172
Marc Bosmans - 2020-07-29 15:53:47 - Marc Bosmans - X2889
N. Baurens - 2020-07-29 10:44:17 - Baurens - C4338
N. Baurens - 2020-07-29 10:39:38 - Baurens - C2863
N. Baurens - 2020-07-29 10:32:44 - Baurens - X4782
Nadia Souverijns - 2020-07-29 10:29:16 - Tibax - C5066
Nadia Souverijns - 2020-07-29 10:23:05 - Tibax - T5082
N. Baurens - 2020-07-29 09:58:36 - Baurens - N4266
Marc Bosmans - 2020-07-28 16:44:07 - Marc Bosmans - F5103
Bart Bourgois - 2020-07-28 10:44:05 - Bourgois - P292A19G
Bart Bourgois - 2020-07-28 10:40:46 - Bourgois - P292A20G
Sandra Van Sweeveldt - 2020-07-27 08:55:59 - sandra - C9052-001
Kurt De Block - 2020-07-25 15:02:54 - Kortrijkse Goudcentrale - W5335
Marc Bosmans - 2020-07-25 13:39:57 - Marc Bosmans - X3634
Marc Bosmans - 2020-07-25 13:33:07 - Marc Bosmans - C3633
Laurent Vanstechelman - 2020-07-24 16:18:04 - Tempo d Oro - C4806
Sandra Van Sweeveldt - 2020-07-23 10:27:43 - sandra - T4225
Sandra Van Sweeveldt - 2020-07-23 10:26:54 - sandra - T4225
Catherine Abeele - 2020-07-18 18:53:10 - Abeele - V4206
Catherine Abeele - 2020-07-18 18:51:33 - Abeele - C4166
Marc Bosmans - 2020-07-18 15:43:44 - Marc Bosmans - P292A20G
Nadia Souverijns - 2020-07-18 15:03:56 - Tibax - V5050
Nadia Souverijns - 2020-07-18 15:03:16 - Tibax - C5065
Verena - 2020-07-18 14:32:45 - Verena - C240B04G
Catherine Abeele - 2020-07-18 10:20:18 - Abeele - X2822
Catherine Abeele - 2020-07-17 11:18:08 - Abeele - C9045-003
Catherine Abeele - 2020-07-17 11:13:53 - Abeele - C9045-004
Frédéric Pirson - 2020-07-17 11:06:21 - Pirson - 716B01
Frédéric Pirson - 2020-07-17 11:04:11 - Pirson - 716B00
Christine & Marjolein - 2020-07-17 10:45:07 - Yolande - T7020-003
Christine & Marjolein - 2020-07-17 10:42:49 - Yolande - T7020-003
Eric De Waele - 2020-07-16 13:49:48 - De Waele - C3755
Evelyne Coppens - 2020-07-15 16:44:23 - Paul - P292A20G
Annik De Mey - 2020-07-15 15:25:46 - Annik De Mey - X5085
Annik De Mey - 2020-07-15 15:24:43 - Annik De Mey - C5070
Frederik Bongaerts - 2020-07-15 13:57:44 - Bongaerts - C3953
Frederik Bongaerts - 2020-07-15 13:55:13 - Bongaerts - V4206
Ver Eecke - 2020-07-14 14:00:14 - Vereecke - E1718
Ver Eecke - 2020-07-14 13:58:20 - Vereecke - E1736
Eric De Waele - 2020-07-14 09:56:16 - De Waele - C5055
Eric De Waele - 2020-07-14 09:55:47 - De Waele - C5073
Bosmans Halle - 2020-07-13 09:32:23 - Bosmans Halle - P501B00G
Bosmans Halle - 2020-07-13 09:31:00 - Bosmans Halle - T487B02G
Sofie - 2020-07-13 08:36:34 - Jema Design - X4198
Eversen - 2020-07-13 08:23:09 - - X4198
Schotte - 2020-07-11 11:13:38 - Schotte - P291A22G
Marc Drexeler - 2020-07-11 11:07:24 - Drexeler - C4338
Marc Drexeler - 2020-07-11 11:05:05 - Drexeler - C3658
Amelie Berard - 2020-07-10 15:56:30 - Pronuptia - P294A12G
Amelie Berard - 2020-07-10 15:53:34 - Pronuptia - P238A06G
Anne De Peuter - 2020-07-09 16:41:46 - Goethals - V3802
Anne De Peuter - 2020-07-09 16:39:55 - Goethals - C3801
Sarah Roelandt - 2020-07-09 12:36:55 - Roelandt Sarah - P295A32G
Sarah Roelandt - 2020-07-09 12:34:19 - Roelandt Sarah - P295A34G
Peter De Leus - 2020-07-09 12:00:38 - De Leus - F5003
Peter De Leus - 2020-07-09 11:58:52 - De Leus - V5171
Sandra Van Sweeveldt - 2020-07-09 10:15:03 - sandra - P318A03G
Marc Bosmans - 2020-07-08 13:59:40 - Marc Bosmans - P292A21G
Michel Vileyn - 2020-07-08 13:44:19 - Juwelier Vileyn - M387A02G
Michel Vileyn - 2020-07-08 13:42:06 - Juwelier Vileyn - M387A02G
Christine & Marjolein - 2020-07-08 09:22:53 - Yolande - B7031-002
Bart Bourgois - 2020-07-07 15:10:24 - Bourgois - P238A09G
Sandra Van Sweeveldt - 2020-07-07 09:12:44 - sandra - C5636
Anne De Peuter - 2020-07-04 17:55:18 - Goethals - V4206
Anne De Peuter - 2020-07-04 16:47:15 - Goethals - F4785
Anne De Peuter - 2020-07-04 16:40:06 - Goethals - P4789
Frederik Bongaerts - 2020-07-04 15:39:59 - Bongaerts - C5081
Frederik Bongaerts - 2020-07-04 15:36:57 - Bongaerts - C5063
Anne De Peuter - 2020-07-04 14:29:58 - Goethals - U4686
Anne De Peuter - 2020-07-04 14:26:22 - Goethals - C3953
Bosmans Halle - 2020-07-04 13:53:51 - Bosmans Halle - V7014-003
Marc Bosmans - 2020-07-04 13:17:05 - Marc Bosmans - C5636
Marc Bosmans - 2020-07-04 13:04:29 - Marc Bosmans - C5636-001
Jan Schoubben - 2020-07-04 10:33:42 - Schoubben - P1523
Jan Schoubben - 2020-07-04 10:31:46 - Schoubben - P3975
Marc Bosmans - 2020-07-04 10:24:48 - Marc Bosmans - 717B01
Dhr. Richard - 2020-07-03 16:38:39 - Richard - P238A10G
Buntinx - 2020-07-03 16:28:01 - Buntinx - M312B00G
Buntinx - 2020-07-03 16:26:16 - Buntinx - M312B01G
Annick Gysemberg - 2020-07-03 13:15:53 - gysembergannick - C3777-001
Annick Gysemberg - 2020-07-03 13:06:51 - gysembergannick - X3778-001
N. Baurens - 2020-07-02 15:32:30 - Baurens - C3755
N. Baurens - 2020-07-02 14:57:37 - Baurens - C2863
Sandra Van Sweeveldt - 2020-07-02 12:33:30 - sandra - C187B01G
De Greeve - 2020-07-01 14:52:39 - De Greeve - V7001-003
De Greeve - 2020-07-01 14:52:13 - De Greeve - V7001-003
Sandra Van Sweeveldt - 2020-07-01 09:01:56 - sandra - C4163
Tim & Sandra Hendrickx - 2020-07-01 08:37:07 - Hendrickx - P7006-007
Tim & Sandra Hendrickx - 2020-07-01 08:35:21 - Hendrickx - V7006-003
Christine & Marjolein - 2020-06-30 15:41:39 - Yolande - E4480-001
Christine & Marjolein - 2020-06-30 15:40:04 - Yolande - X2167-001
Jan Schoubben - 2020-06-30 12:35:38 - Schoubben - P291A19G
Jan Schoubben - 2020-06-30 12:34:43 - Schoubben - P291A19G
Jan Schoubben - 2020-06-29 14:29:00 - Schoubben - P291A23G
Sarah Roelandt - 2020-06-28 15:42:39 - Roelandt Sarah - C9045-003
Sarah Roelandt - 2020-06-28 15:41:23 - Roelandt Sarah - C9045-004
Wissam Hallal - 2020-06-27 15:45:58 - Jenni-Partners - X2167-001
Wissam Hallal - 2020-06-27 15:44:02 - Jenni-Partners - 553B01
Evelyne Coppens - 2020-06-27 11:52:24 - Paul - X4782
Evelyne Coppens - 2020-06-27 11:51:13 - Paul - C4788
Alain Van Vlierden - 2020-06-27 11:43:03 - Van Vlierden - X3778-001
Anne De Peuter - 2020-06-25 17:09:39 - Goethals - C3658
Martine Oversteyns - 2020-06-25 14:28:56 - Oversteyns Martine - P292A20G
Sandra Van Sweeveldt - 2020-06-24 15:58:34 - sandra - 723B00
Juwelier - uurwerkmaker Devick Francis - 2020-06-24 10:56:01 - Juwelier - uurwerkmaker Devick Francis - C2828
Juwelier - uurwerkmaker Devick Francis - 2020-06-24 10:54:39 - Juwelier - uurwerkmaker Devick Francis - E2829
Anne De Peuter - 2020-06-23 17:05:06 - Goethals - F4785
Anne De Peuter - 2020-06-23 17:01:27 - Goethals - F4785
Frédéric Pirson - 2020-06-23 15:23:18 - Pirson - P292A20G
Ilse Vercammen - 2020-06-23 11:01:13 - Ilse Vercammen - C4338
Marc Buseyne - 2020-06-22 14:22:54 - Busseyne - C3953
Kurt De Block - 2020-06-22 13:56:23 - Kortrijkse Goudcentrale - C3801
Kurt De Block - 2020-06-22 13:54:43 - Kortrijkse Goudcentrale - V3802
Annik De Mey - 2020-06-22 11:34:40 - Annik De Mey - V5080
Michel Vileyn - 2020-06-22 09:29:34 - Juwelier Vileyn - P295A32G
Michel Vileyn - 2020-06-22 09:26:47 - Juwelier Vileyn - P295A33G
Paul Soens - 2020-06-20 14:30:21 - Juwelen Soens - P496B00G
Paul Soens - 2020-06-20 14:28:26 - Juwelen Soens - P476B00G
Sofie - 2020-06-19 16:33:32 - Jema Design - C4791
Sofie - 2020-06-19 16:24:46 - Jema Design - F4786
N. Baurens - 2020-06-19 15:05:19 - Baurens - V7004-002
N. Baurens - 2020-06-19 15:02:17 - Baurens - P7004-007
Frédéric Pirson - 2020-06-19 12:45:47 - Pirson - P292A20G
Frédéric Pirson - 2020-06-19 12:33:49 - Pirson - C5617-005
Frédéric Pirson - 2020-06-19 12:31:00 - Pirson - C5617-004
Christine & Marjolein - 2020-06-19 10:24:03 - Yolande - V5047
Christine & Marjolein - 2020-06-19 10:22:28 - Yolande - C5061
Paul Soens - 2020-06-19 10:00:03 - Juwelen Soens - P478B00G
Bosmans Halle - 2020-06-18 14:35:24 - Bosmans Halle - P476B00G
Marc Bosmans - 2020-06-18 11:06:37 - Marc Bosmans - C501B01G
Marc Bosmans - 2020-06-18 11:00:47 - Marc Bosmans - V7013-002
Evy Uyttenhove - 2020-06-18 08:57:54 - Evy d Or - E1718
Bosmans Halle - 2020-06-17 16:06:26 - Bosmans Halle - V7011-002
Bosmans Halle - 2020-06-17 16:03:50 - Bosmans Halle - P7011-007
Dries - 2020-06-17 13:35:01 - Dries - F4130
Dries - 2020-06-17 13:33:34 - Dries - C4148
Bosmans Halle - 2020-06-17 13:21:43 - Bosmans Halle - C487B00G
Anne De Peuter - 2020-06-17 11:47:23 - Goethals - V5049
De Tandt bvba - 2020-06-17 08:16:02 - De Tandt bvba - C9045-003
De Tandt bvba - 2020-06-17 08:12:22 - De Tandt bvba - C9045-003
Catherine Abeele - 2020-06-16 16:37:17 - Abeele - P7013-007
N. Baurens - 2020-06-16 15:33:46 - Baurens - N4266
N. Baurens - 2020-06-16 13:48:14 - Baurens - P238A06G
Sandra Van Sweeveldt - 2020-06-16 10:54:02 - sandra - T7036-002
Anne De Peuter - 2020-06-15 17:02:12 - Goethals - F9042
Anne De Peuter - 2020-06-15 17:00:23 - Goethals - C3633
Frederik Bongaerts - 2020-06-15 15:41:37 - Bongaerts - B5059
Frederik Bongaerts - 2020-06-15 15:38:28 - Bongaerts - B5052
Marc Bosmans - 2020-06-15 13:52:55 - Marc Bosmans - C513B00G
Marc Bosmans - 2020-06-15 13:41:09 - Marc Bosmans - C513B01G
Dhr. Richard - 2020-06-14 16:16:00 - Richard - P291A22G
Catherine Abeele - 2020-06-13 16:49:02 - Abeele - T5082
Annick Gysemberg - 2020-06-13 15:47:10 - gysembergannick - P295A23G
Annick Gysemberg - 2020-06-13 15:42:30 - gysembergannick - P295A22G
Mathias Michelsanti - 2020-06-13 15:39:03 - Impormatex - V7013-002
Mathias Michelsanti - 2020-06-13 15:37:01 - Impormatex - C3963
Evelyne Coppens - 2020-06-13 14:59:47 - Paul - C3658
Evelyne Coppens - 2020-06-13 14:58:04 - Paul - C4338
De Greeve - 2020-06-13 13:54:16 - De Greeve - C9045-003
De Greeve - 2020-06-13 13:53:14 - De Greeve - C9045-004
jan Van Brusselen - 2020-06-13 11:27:24 - Perles d Amour - 566B00
jan Van Brusselen - 2020-06-13 11:25:40 - Perles d Amour - 566B00
Ilse Vercammen - 2020-06-13 11:24:08 - Ilse Vercammen - C4156
jan Van Brusselen - 2020-06-12 15:45:22 - Perles d Amour - D1599
jan Van Brusselen - 2020-06-12 15:43:19 - Perles d Amour - D1599
jan Van Brusselen - 2020-06-12 15:43:19 - Perles d Amour - D1599
Mathias Michelsanti - 2020-06-12 15:09:49 - Impormatex - C5925-006
Mathias Michelsanti - 2020-06-12 15:06:20 - Impormatex - C5925-007
Peeters-Engelen - 2020-06-12 09:25:58 - Peeters-Engelen - P560A09G
Alain Van Vlierden - 2020-06-11 09:30:30 - Van Vlierden - X2167-001
Jan Schoubben - 2020-06-10 14:15:44 - Schoubben - P293A18G
Jan Schoubben - 2020-06-10 14:13:54 - Schoubben - P293A18G
Ilse Vercammen - 2020-06-10 14:03:17 - Ilse Vercammen - C784A06G
Marie-Christine Hermans - 2020-06-09 19:42:01 - Juwelen Marie-Christine - U4686
Marie-Christine Hermans - 2020-06-09 19:34:34 - Juwelen Marie-Christine - U4686
Martine Peeters - 2020-06-09 15:03:54 - KD Peeters - W5335
Martine Peeters - 2020-06-09 14:55:43 - KD Peeters - C187B01G
Moens Tongeren - 2020-06-09 14:38:43 - Moens Tongeren - V5502-003
Moens Tongeren - 2020-06-09 14:35:58 - Moens Tongeren - V5502
Amelie Berard - 2020-06-09 09:11:56 - Pronuptia - P293A23G
Amelie Berard - 2020-06-09 09:11:56 - Pronuptia - P293A23G
Amelie Berard - 2020-06-09 09:11:55 - Pronuptia - P293A23G
Vanhoutteghem - 2020-06-09 09:11:40 - Van Houtteghem - C4338
Amelie Berard - 2020-06-09 09:10:16 - Pronuptia - P293A23G
Vanhoutteghem - 2020-06-09 09:08:28 - Van Houtteghem - C3658
Amelie Berard - 2020-06-09 09:08:25 - Pronuptia - P293A22G
Sven Lombaerts - 2020-06-09 08:21:20 - Van Laer - V5046
Marc Bosmans - 2020-06-08 13:06:49 - Marc Bosmans - 698B02
Sarah Roelandt - 2020-06-06 17:20:54 - Roelandt Sarah - P295A19G
Evelyne Coppens - 2020-06-06 11:56:32 - Paul - X4782
Bosmans Halle - 2020-06-06 10:47:08 - Bosmans Halle - T476B02G
Anne De Peuter - 2020-06-06 10:06:59 - Goethals - F2334
Paul Soens - 2020-06-05 13:52:29 - Juwelen Soens - C240B02G
Paul Soens - 2020-06-05 13:49:27 - Juwelen Soens - C3953
Catherine Abeele - 2020-06-04 19:01:32 - Abeele - V7011-002
Catherine Abeele - 2020-06-04 18:56:43 - Abeele - V7011-002
Anne De Peuter - 2020-06-04 14:14:11 - Goethals - C3801
Anne De Peuter - 2020-06-04 14:12:18 - Goethals - C3801
Catherine Abeele - 2020-06-04 10:39:12 - Abeele - C5060
Catherine Abeele - 2020-06-04 10:38:04 - Abeele - V5079
Jan Schoubben - 2020-06-04 08:08:29 - Schoubben - X2822
Jan Schoubben - 2020-06-04 08:05:56 - Schoubben - C2821
Mathias Michelsanti - 2020-06-03 16:29:48 - Impormatex - W5337
Sandra Van Sweeveldt - 2020-06-03 11:08:39 - sandra - C503B02G
Sandra Van Sweeveldt - 2020-06-03 11:05:57 - sandra - C3953
Heidi Stroeckx - 2020-06-02 09:02:41 - heidistroeckx - C5919-006
Heidi Stroeckx - 2020-06-02 09:00:58 - heidistroeckx - C5919-007
Ferri-Merlier - 2020-06-01 08:25:29 - Ferri-Merlier - 393B00
Ferri-Merlier - 2020-06-01 08:23:11 - Ferri-Merlier - 295A33
Vanhoutteghem - 2020-05-30 16:58:25 - Van Houtteghem - V5079
Laurent Vanstechelman - 2020-05-30 16:39:30 - Tempo d Oro - P7001-007
Marc Bosmans - 2020-05-30 14:16:36 - Marc Bosmans - P491B00G
Marc Bosmans - 2020-05-30 14:08:57 - Marc Bosmans - C491B01G
Buntinx - 2020-05-30 13:40:53 - Buntinx - M312B01G
Buntinx - 2020-05-30 13:36:00 - Buntinx - C487B00G
Frederik Bongaerts - 2020-05-30 09:47:21 - Bongaerts - C9045-004
Frederik Bongaerts - 2020-05-30 09:44:52 - Bongaerts - C9045-003
Frederik Bongaerts - 2020-05-30 09:44:52 - Bongaerts - C9045-003
Catherine Abeele - 2020-05-29 17:20:31 - Abeele - X5085
Catherine Abeele - 2020-05-29 17:18:57 - Abeele - C5070
Catherine Abeele - 2020-05-29 17:11:55 - Abeele - V5050
Catherine Abeele - 2020-05-29 17:10:47 - Abeele - C5065
Catherine Abeele - 2020-05-29 17:09:49 - Abeele - C5070
Catherine Abeele - 2020-05-29 17:09:21 - Abeele - X5085
Catherine Abeele - 2020-05-29 17:06:34 - Abeele - B5059
Catherine Abeele - 2020-05-29 17:05:50 - Abeele - C5077
Catherine Abeele - 2020-05-29 17:05:18 - Abeele - B5056
Catherine Abeele - 2020-05-29 17:03:51 - Abeele - C5066
Catherine Abeele - 2020-05-29 17:02:54 - Abeele - T5082
Catherine Abeele - 2020-05-29 17:01:49 - Abeele - V5047
Catherine Abeele - 2020-05-29 17:00:59 - Abeele - C5061
Catherine Abeele - 2020-05-29 16:59:48 - Abeele - C5074
Catherine Abeele - 2020-05-29 16:41:37 - Abeele - B5056
Catherine Abeele - 2020-05-29 16:40:25 - Abeele - C5077
Sandra Van Sweeveldt - 2020-05-28 10:58:38 - sandra - P316B02
Schotte - 2020-05-28 09:28:50 - Schotte - B9056-002
Catherine Abeele - 2020-05-26 16:54:52 - Abeele - C3760
Nadia Souverijns - 2020-05-26 16:28:40 - Tibax - T7022
Nadia Souverijns - 2020-05-26 16:25:57 - Tibax - T7022
Ilse Vercammen - 2020-05-26 14:35:34 - Ilse Vercammen - M305B00G
Ilse Vercammen - 2020-05-26 14:33:38 - Ilse Vercammen - M305B01G
Celine Vanstechelman - 2020-05-26 13:48:49 - Eye-C - C5066
Celine Vanstechelman - 2020-05-26 13:47:11 - Eye-C - T5082
Dries - 2020-05-26 09:31:33 - Dries - C5919-006
Dries - 2020-05-26 09:29:46 - Dries - 387A05
Sarah Roelandt - 2020-05-25 17:07:35 - Roelandt Sarah - C3953
Michel Vileyn - 2020-05-25 17:01:11 - Juwelier Vileyn - X4198
Michel Vileyn - 2020-05-25 16:59:38 - Juwelier Vileyn - X4198
Marc Bosmans - 2020-05-23 14:36:15 - Marc Bosmans - P4559
Marc Bosmans - 2020-05-23 14:32:32 - Marc Bosmans - F3738
Jan Jacob - 2020-05-23 12:29:35 - Jacob - C9054-002
Ilse Vercammen - 2020-05-22 15:41:13 - Ilse Vercammen - T504B02G
Ilse Vercammen - 2020-05-22 15:29:24 - Ilse Vercammen - P504B00G
Anne De Peuter - 2020-05-22 12:47:00 - Goethals - C3658
Anne De Peuter - 2020-05-22 12:44:50 - Goethals - C4338
Annik De Mey - 2020-05-20 13:52:23 - Annik De Mey - C5083
Michel Vileyn - 2020-05-20 10:20:29 - Juwelier Vileyn - B9056-003
Michel Vileyn - 2020-05-20 10:18:13 - Juwelier Vileyn - B9056-003
Frederik Bongaerts - 2020-05-20 09:41:05 - Bongaerts - C3953
Peeters-Engelen - 2020-05-19 10:20:11 - Peeters-Engelen - P295A19G
Peeters-Engelen - 2020-05-19 10:18:28 - Peeters-Engelen - P295A18G
Marc Bosmans - 2020-05-18 14:25:49 - Marc Bosmans - P292A20G
Bosmans Halle - 2020-05-18 09:30:52 - Bosmans Halle - X3692
Bosmans Halle - 2020-05-18 09:30:12 - Bosmans Halle - C543B01G
Frederik Bongaerts - 2020-05-18 09:26:09 - Bongaerts - C5078
Frederik Bongaerts - 2020-05-18 09:23:26 - Bongaerts - B5059
Sandra Van Sweeveldt - 2020-05-18 09:15:15 - sandra - A3028-001
Frédéric Pirson - 2020-05-18 09:09:56 - Pirson - P295A22G
Frédéric Pirson - 2020-05-18 09:08:08 - Pirson - C9021
Fabienne Yannick - 2020-05-16 16:00:29 - Juwelen Yannick 2 - C518B00G
Fabienne Yannick - 2020-05-16 15:59:09 - Juwelen Yannick 2 - C518B01G
Christine & Marjolein - 2020-05-16 09:27:16 - Yolande - V5050
Bosmans Halle - 2020-05-14 14:19:04 - Bosmans Halle - C536B00G
Bosmans Halle - 2020-05-14 14:18:38 - Bosmans Halle - C536B01G
Evelyne Coppens - 2020-05-14 13:25:07 - Paul - P408A001
Anne De Peuter - 2020-05-13 17:30:34 - Goethals - F4130
Anne De Peuter - 2020-05-13 17:28:52 - Goethals - C4148
Anneleen Eyckmans - 2020-05-13 16:37:41 - Anneleen Eyckmans - C4813
N. Baurens - 2020-05-13 16:26:43 - Baurens - P238A07G
Peeters-Engelen - 2020-05-12 18:46:46 - Peeters-Engelen - X3778-001
Peeters-Engelen - 2020-05-12 18:44:44 - Peeters-Engelen - C3777-001
Juwelen Coppens - 2020-05-12 16:58:26 - Juwelen Coppens - P483B00G
Juwelen Coppens - 2020-05-12 16:54:48 - Juwelen Coppens - T496B02G
Jan Jacob - 2020-05-12 16:47:28 - Jacob - V7013-002
Jan Jacob - 2020-05-12 16:46:04 - Jacob - V7013-002
Marc Bosmans - 2020-05-11 15:43:07 - Marc Bosmans - P238A08G
Sandra Van Sweeveldt - 2020-05-11 09:56:40 - sandra - P496B00G
Sandra Van Sweeveldt - 2020-05-11 09:55:14 - sandra - P496B00G
Sandra Van Sweeveldt - 2020-05-11 09:34:51 - sandra - C4790
Sandra Van Sweeveldt - 2020-05-11 09:34:16 - sandra - C4790
Anne De Peuter - 2020-05-07 09:57:16 - Goethals - X4782
Anne De Peuter - 2020-05-07 09:56:04 - Goethals - C3658
Frederik Bongaerts - 2020-05-05 18:21:26 - Bongaerts - F3731
Martine Peeters - 2020-04-10 11:17:26 - KD Peeters - C4148
Martine Peeters - 2020-04-10 11:13:53 - KD Peeters - C4148
De Tandt bvba - 2020-03-18 12:25:52 - De Tandt bvba - 553B01
De Tandt bvba - 2020-03-18 12:23:01 - De Tandt bvba - C503B00G
De Tandt bvba - 2020-03-18 12:20:51 - De Tandt bvba - 566B01
Anne De Peuter - 2020-03-17 15:51:44 - Goethals - C4790
Anne De Peuter - 2020-03-17 15:49:54 - Goethals - C4790
Femke De Wolf - 2020-03-17 09:20:11 - De Koker - M306B00G
Femke De Wolf - 2020-03-17 09:19:19 - De Koker - M306B01G
Marie Paul & Christine Reyntjens - 2020-03-11 16:00:26 - Reyntjens - P7001-007
Marie Paul & Christine Reyntjens - 2020-03-11 15:58:24 - Reyntjens - T321A01G
Michel Vileyn - 2020-03-11 10:09:46 - Juwelier Vileyn - 553B01
Marc Drexeler - 2020-03-11 10:08:38 - Drexeler - C3658
Marc Drexeler - 2020-03-11 10:06:37 - Drexeler - C4338
Pierre-Louis - 2020-03-10 15:13:22 - Pierre-Louis - F2334
Evy Uyttenhove - 2020-03-09 17:48:08 - Evy d Or - V4206
Mathias Michelsanti - 2020-03-09 17:08:34 - Impormatex - 393B01
Mathias Michelsanti - 2020-03-09 17:05:18 - Impormatex - 393B00
Sandra Van Sweeveldt - 2020-03-09 12:40:19 - sandra - T159B00G
Sandra Van Sweeveldt - 2020-03-09 12:39:17 - sandra - P295A22G
Anne De Peuter - 2020-03-07 18:53:36 - Goethals - X3778-001
Marc Bosmans - 2020-03-07 17:15:49 - Marc Bosmans - P291A22G
Marc Bosmans - 2020-03-07 17:10:25 - Marc Bosmans - P291A21G
Team De Wilde - 2020-03-07 16:51:28 - De Wilde - C4809
Evelyne Coppens - 2020-03-07 16:28:36 - Paul - C4338
Verena - 2020-03-07 15:52:04 - Verena - V4513
Juwelen Coppens - 2020-03-07 12:33:10 - Juwelen Coppens - C487B00G
Frederik Bongaerts - 2020-03-07 12:19:57 - Bongaerts - T489B02G
Frederik Bongaerts - 2020-03-07 12:17:14 - Bongaerts - P560A09G
Filip Simoens - 2020-03-07 10:42:24 - Simoens - B9056-003
Filip Simoens - 2020-03-07 10:40:22 - Simoens - B5052
Anne De Peuter - 2020-03-06 18:24:12 - Goethals - C4148
Mik & Veronique Vander Avort - 2020-03-06 15:50:38 - Vander Avort - C9052
Frederik Bongaerts - 2020-03-06 13:38:21 - Bongaerts - X3778-001
Frederik Bongaerts - 2020-03-06 10:45:36 - Bongaerts - C5063
Marie-Christine Hermans - 2020-03-06 09:17:45 - Juwelen Marie-Christine - N3663
Frederik Bongaerts - 2020-03-05 17:26:16 - Bongaerts - 553B01
Frederik Bongaerts - 2020-03-05 17:21:57 - Bongaerts - X3778-001
Jan Schoubben - 2020-03-04 15:53:37 - Schoubben - P294A14G
Filip Simoens - 2020-03-04 15:36:28 - Simoens - P293A17G
Filip Simoens - 2020-03-04 15:29:41 - Simoens - P293A16G
Evi Vandeweyer - 2020-03-03 16:19:06 - Vandeweyer - C5083
Celine Vanstechelman - 2020-03-03 15:09:33 - Eye-C - F1137
Celine Vanstechelman - 2020-03-03 15:08:14 - Eye-C - C3238
Ilse Vercammen - 2020-03-02 16:24:25 - Ilse Vercammen - V4212
Ilse Vercammen - 2020-03-02 16:18:38 - Ilse Vercammen - C3953
Michel Vileyn - 2020-03-02 14:53:52 - Juwelier Vileyn - C4338
Michel Vileyn - 2020-03-02 14:52:53 - Juwelier Vileyn - C3658
De Greeve - 2020-02-29 15:39:05 - De Greeve - F2870
Bart Bourgois - 2020-02-29 14:30:10 - Bourgois - P238A06G
Moens - 2020-02-29 11:51:36 - Moens - T476B02G
Moens - 2020-02-29 11:50:05 - Moens - P476B00G
Mathias Michelsanti - 2020-02-29 11:02:03 - Impormatex - 400B00
Mathias Michelsanti - 2020-02-29 10:52:43 - Impormatex - 400B01
Dries - 2020-02-29 10:41:38 - Dries - X3778-001
Dries - 2020-02-29 10:39:08 - Dries - X5085
Marc Bosmans - 2020-02-29 09:54:15 - Marc Bosmans - P292A20G
Buntinx - 2020-02-28 15:23:31 - Buntinx - C9052
Dries - 2020-02-27 17:02:44 - Dries - X5085
Dries - 2020-02-27 15:31:19 - Dries - T5082
Anne De Peuter - 2020-02-26 18:04:35 - Goethals - C5919-006
Anne De Peuter - 2020-02-26 18:02:26 - Goethals - C5919-007
Jan Jacob - 2020-02-26 16:50:57 - Jacob - C4338
Jan Jacob - 2020-02-26 16:48:17 - Jacob - C3658
Dries - 2020-02-26 15:38:15 - Dries - X5085
Annik De Mey - 2020-02-26 15:22:03 - Annik De Mey - F5086
Annik De Mey - 2020-02-26 15:20:54 - Annik De Mey - C5071
Devina - 2020-02-26 12:27:11 - Devina - T487B02G
Danny De Roover - 2020-02-26 10:41:59 - Danny De Roover - C513B00G
Danny De Roover - 2020-02-26 10:40:24 - Danny De Roover - C513B01G
Buntinx - 2020-02-25 15:09:11 - Buntinx - C9054-002
Buntinx - 2020-02-25 15:07:28 - Buntinx - C9054-002
Annik De Mey - 2020-02-25 13:01:39 - Annik De Mey - C5078
Annik De Mey - 2020-02-25 13:00:46 - Annik De Mey - B5059
Schotte - 2020-02-25 11:35:10 - Schotte - P293A16G
Michel Vileyn - 2020-02-24 15:13:35 - Juwelier Vileyn - C5925-006
Michel Vileyn - 2020-02-24 15:10:34 - Juwelier Vileyn - C5925-007
Dhr. Richard - 2020-02-22 19:39:31 - Richard - B4980
Dhr. Richard - 2020-02-22 19:34:48 - Richard - 455B00
Dhr. Richard - 2020-02-22 19:26:39 - Richard - P291A19G
Dhr. Richard - 2020-02-22 19:22:15 - Richard - P291A22G
Stephan Siemon - 2020-02-22 17:46:08 - Top Watch - C2940
Stephan Siemon - 2020-02-22 17:44:07 - Top Watch - F2334
Team De Wilde - 2020-02-22 14:25:44 - De Wilde - C489B00G
Team De Wilde - 2020-02-22 14:18:35 - De Wilde - C489B00G
Dries - 2020-02-22 14:00:57 - Dries - V5079
Dries - 2020-02-22 13:59:42 - Dries - C5060
Bosmans Halle - 2020-02-22 13:56:55 - Bosmans Halle - M514B01G
Bosmans Halle - 2020-02-22 13:49:28 - Bosmans Halle - M514B00G
Marc Bosmans - 2020-02-22 12:13:25 - Marc Bosmans - P292A20G
Marc Bosmans - 2020-02-22 12:10:40 - Marc Bosmans - P292A19G
Marc Bosmans - 2020-02-22 11:00:23 - Marc Bosmans - P560A09G
Ilse Vercammen - 2020-02-22 10:36:24 - Ilse Vercammen - M387A02G
Ingrid Aertssens - 2020-02-21 09:30:04 - Ingrid Aertssens - X3634
Evelyne Coppens - 2020-02-20 17:40:45 - Paul - X4782
Evy Uyttenhove - 2020-02-19 18:24:24 - Evy d Or - C3963
Christine & Marjolein - 2020-02-19 15:48:28 - Yolande - C5064
Esthel Rams - 2020-02-19 13:41:15 - Juwelen Rams - V4513
Christine & Marjolein - 2020-02-19 10:46:26 - Yolande - B7032-002
Nadia Souverijns - 2020-02-18 17:58:30 - Tibax - X3634
Nadia Souverijns - 2020-02-18 17:56:02 - Tibax - C3633
Catherine Abeele - 2020-02-18 15:03:01 - Abeele - C5077
Catherine Abeele - 2020-02-18 14:47:00 - Abeele - B5056
Sandra Van Sweeveldt - 2020-02-18 14:37:55 - sandra - C5925-007
Sandra Van Sweeveldt - 2020-02-18 14:36:54 - sandra - C5925-006
Ver Eecke - 2020-02-18 11:30:33 - Vereecke - U4686
Ver Eecke - 2020-02-18 11:28:45 - Vereecke - P295A34G
Sandra Van Sweeveldt - 2020-02-18 11:15:20 - sandra - P295A22G
Marc Bosmans - 2020-02-17 17:31:23 - Marc Bosmans - P295A18G
Marc Bosmans - 2020-02-17 17:29:24 - Marc Bosmans - P476B00G
Martine Peeters - 2020-02-17 16:57:09 - KD Peeters - C5948-004
Martine Peeters - 2020-02-17 16:55:02 - KD Peeters - C5948-005
Marc Bosmans - 2020-02-17 14:06:57 - Marc Bosmans - P295A23G
Marc Bosmans - 2020-02-17 14:03:25 - Marc Bosmans - P295A23G
Sandra Van Sweeveldt - 2020-02-17 12:27:02 - sandra - 698B00
Sarah Roelandt - 2020-02-17 11:49:19 - Roelandt Sarah - P238A11G
Verena - 2020-02-15 17:35:58 - Verena - 393B01
Kurt De Block - 2020-02-15 17:32:54 - Kortrijkse Goudcentrale - C9055-007
Kurt De Block - 2020-02-15 17:31:17 - Kortrijkse Goudcentrale - C9055-006
Evelyne Coppens - 2020-02-15 17:22:35 - Paul - T318A02G
Peeters-Engelen - 2020-02-15 16:03:37 - Peeters-Engelen - P293A23G
Mevr. Vanderostyne - 2020-02-15 16:01:02 - Vanderostyne Els - P560A09G
Peeters-Engelen - 2020-02-15 15:59:31 - Peeters-Engelen - P293A25G
Team De Wilde - 2020-02-15 15:16:09 - De Wilde - F9040
Peter De Leus - 2020-02-15 14:29:57 - De Leus - F5003
Peter De Leus - 2020-02-15 14:28:42 - De Leus - V5171
Team De Wilde - 2020-02-15 13:57:33 - De Wilde - A3028-001
Team De Wilde - 2020-02-15 13:55:46 - De Wilde - C4338
Buntinx - 2020-02-15 13:42:58 - Buntinx - 455B00
Buntinx - 2020-02-15 13:41:12 - Buntinx - T486B04G
Moens - 2020-02-14 20:17:34 - Moens - P476B00G
Moens - 2020-02-14 20:17:33 - Moens - P476B00G
Marc Bosmans - 2020-02-14 11:20:28 - Marc Bosmans - F3738
Marc Bosmans - 2020-02-14 10:51:22 - Marc Bosmans - C5919-006
Marc Bosmans - 2020-02-14 10:39:56 - Marc Bosmans - 387A05
Yves Vanbeveren - 2020-02-14 10:27:48 - Vanbeveren - C3963
Sarah Roelandt - 2020-02-13 16:57:06 - Roelandt Sarah - P292A20G
Michel Vileyn - 2020-02-12 12:18:06 - Juwelier Vileyn - C515B00G
Devina - 2020-02-11 15:15:08 - Devina - T4225
Devina - 2020-02-11 15:14:02 - Devina - C3768
Ilse Vercammen - 2020-02-11 14:36:53 - Ilse Vercammen - X4782
Marc Bosmans - 2020-02-11 14:30:57 - Marc Bosmans - C2947
Bosmans Halle - 2020-02-10 16:59:59 - Bosmans Halle - T479B02G
Filip Simoens - 2020-02-10 15:26:31 - Simoens - P292A20G
Marie-Christine Hermans - 2020-02-10 11:29:14 - Juwelen Marie-Christine - C4166
Ilse Vercammen - 2020-02-10 11:26:31 - Ilse Vercammen - M305B01G
Ilse Vercammen - 2020-02-10 11:24:45 - Ilse Vercammen - M305B00G
Dries - 2020-02-09 16:29:13 - Dries - M514B00G
Dries - 2020-02-09 16:26:05 - Dries - M514B01G
Evelyne Coppens - 2020-02-09 15:25:21 - Paul - C5919-007
Evelyne Coppens - 2020-02-09 15:23:50 - Paul - C5919-006
Evelyne Coppens - 2020-02-09 15:22:32 - Paul - V5147
Evelyne Coppens - 2020-02-09 15:20:10 - Paul - V4202
Evelyne Coppens - 2020-02-09 15:08:18 - Paul - T509B02G
Marc Bosmans - 2020-02-08 17:04:17 - Marc Bosmans - P292A23G
Marc Bosmans - 2020-02-08 17:03:09 - Marc Bosmans - P292A22G
Marc Bosmans - 2020-02-08 16:13:11 - Marc Bosmans - C9045-004
Marc Bosmans - 2020-02-08 16:09:00 - Marc Bosmans - C9045-003
Bosmans Halle - 2020-02-08 15:26:11 - Bosmans Halle - M313B01G
Marc Bosmans - 2020-02-08 15:22:14 - Marc Bosmans - T504B02G
Marc Bosmans - 2020-02-08 15:19:30 - Marc Bosmans - V7002-003
Evelyne Coppens - 2020-02-08 13:57:37 - Paul - X3634
Fabienne Yannick - 2020-02-08 12:29:44 - Juwelen Yannick 2 - B9056-002
Fabienne Yannick - 2020-02-08 12:25:50 - Juwelen Yannick 2 - B9056-003
Marc Bosmans - 2020-02-08 11:52:40 - Marc Bosmans - V4227
Marc Bosmans - 2020-02-08 11:44:36 - Marc Bosmans - C3658
Ilse Vercammen - 2020-02-07 19:05:36 - Ilse Vercammen - V7004-002
Ilse Vercammen - 2020-02-07 18:34:58 - Ilse Vercammen - C784A06G
Marc Bosmans - 2020-02-07 17:20:07 - Marc Bosmans - P496B00G
Marc Bosmans - 2020-02-07 17:10:29 - Marc Bosmans - T476B02G
Marc Bosmans - 2020-02-07 15:20:06 - Marc Bosmans - F5003
Marc Bosmans - 2020-02-07 12:37:16 - Marc Bosmans - C503B00G
Ilse Vercammen - 2020-02-07 11:18:11 - Ilse Vercammen - C784A06G
Evelyne Coppens - 2020-02-07 10:35:59 - Paul - F5105
Marc Bosmans - 2020-02-07 09:38:12 - Marc Bosmans - B4980-001
Marc Bosmans - 2020-02-07 09:35:31 - Marc Bosmans - B4980-001
Sandra Van Sweeveldt - 2020-02-07 08:52:14 - sandra - C3953
Evelyne Coppens - 2020-02-06 17:35:24 - Paul - P291A20G
Bosmans Halle - 2020-02-06 16:30:36 - Bosmans Halle - C503B00G
Marc Bosmans - 2020-02-06 16:15:57 - Marc Bosmans - F3738
Marc Bosmans - 2020-02-06 16:10:46 - Marc Bosmans - C4821
Marc Bosmans - 2020-02-05 11:35:52 - Marc Bosmans - V5171
Marc Bosmans - 2020-02-05 11:29:54 - Marc Bosmans - F5003
Evelyne Coppens - 2020-02-05 09:32:26 - Paul - F5104
Anne De Peuter - 2020-02-04 17:26:16 - Goethals - C3760
Anne De Peuter - 2020-02-04 17:15:52 - Goethals - C3755
Bosmans Halle - 2020-02-04 16:30:53 - Bosmans Halle - V4206
Bosmans Halle - 2020-02-04 16:27:17 - Bosmans Halle - C4166
Marc Bosmans - 2020-02-04 16:10:58 - Marc Bosmans - C822A02G
Marc Bosmans - 2020-02-04 16:05:52 - Marc Bosmans - C822A02G
Marc Bosmans - 2020-02-03 17:41:12 - Marc Bosmans - F4785
Marc Bosmans - 2020-02-03 17:33:17 - Marc Bosmans - C3863
Marc Bosmans - 2020-02-03 12:47:31 - Marc Bosmans - P238A07G
Marc Bosmans - 2020-02-03 12:27:32 - Marc Bosmans - C4808
Bosmans Halle - 2020-02-03 11:27:01 - Bosmans Halle - V7014-003
Bosmans Halle - 2020-02-03 11:08:54 - Bosmans Halle - F5003
Marie-Christine Hermans - 2020-02-02 12:32:18 - Juwelen Marie-Christine - E1153
Bosmans Halle - 2020-02-01 18:19:59 - Bosmans Halle - X4782
Marc Bosmans - 2020-02-01 17:51:38 - Marc Bosmans - P238A07G
Marc Bosmans - 2020-02-01 17:17:43 - Marc Bosmans - X3692
Marc Bosmans - 2020-02-01 17:13:20 - Marc Bosmans - C501B01G
Marc Bosmans - 2020-02-01 16:37:19 - Marc Bosmans - C489B00G
Bosmans Halle - 2020-02-01 16:35:50 - Bosmans Halle - C7009-003
Marc Bosmans - 2020-02-01 16:30:10 - Marc Bosmans - T486B04G
Bosmans Halle - 2020-02-01 15:41:06 - Bosmans Halle - F5003
Marc Bosmans - 2020-02-01 15:15:33 - Marc Bosmans - T484B02G
Marc Bosmans - 2020-02-01 15:06:11 - Marc Bosmans - P291A21G
Bosmans Halle - 2020-02-01 15:02:52 - Bosmans Halle - P476B00G
Bosmans Halle - 2020-02-01 14:04:58 - Bosmans Halle - X4198
Marc Bosmans - 2020-02-01 13:38:54 - Marc Bosmans - C503B00G
Bosmans Halle - 2020-02-01 11:55:44 - Bosmans Halle - 553B01
Bosmans Halle - 2020-02-01 11:50:58 - Bosmans Halle - X4782
Bosmans Halle - 2020-01-31 18:05:43 - Bosmans Halle - V7013-002
Bosmans Halle - 2020-01-31 18:01:38 - Bosmans Halle - P7013-007
Laurent Vanstechelman - 2020-01-31 16:28:09 - Tempo d Oro - A4787
Marc Bosmans - 2020-01-31 12:32:46 - Marc Bosmans - C477B01G
Marc Bosmans - 2020-01-31 12:24:15 - Marc Bosmans - V4212
Marie-Christine Hermans - 2020-01-30 20:53:42 - Juwelen Marie-Christine - V4512
Kristina Cuvelier - 2020-01-30 16:37:10 - Cuvelier - X3778-001
Wissam Hallal - 2020-01-29 11:45:14 - Jenni-Partners - T4225
Wissam Hallal - 2020-01-29 11:44:08 - Jenni-Partners - T4225
Sandra Van Sweeveldt - 2020-01-29 11:31:10 - sandra - T4225
Sandra Van Sweeveldt - 2020-01-29 11:30:49 - sandra - T4225
Bosmans Halle - 2020-01-28 17:17:10 - Bosmans Halle - X4782
Bosmans Halle - 2020-01-28 17:10:25 - Bosmans Halle - C4788
Pierre-Louis - 2020-01-28 13:16:46 - Pierre-Louis - V5080
Pierre-Louis - 2020-01-28 13:16:20 - Pierre-Louis - V5080
jan Van Brusselen - 2020-01-28 13:12:42 - Perles d Amour - B9056-003
Catherine Abeele - 2020-01-28 11:08:32 - Abeele - C5078
Catherine Abeele - 2020-01-28 11:06:11 - Abeele - P7013-007
Catherine Abeele - 2020-01-28 11:03:41 - Abeele - X3962
Bosmans Halle - 2020-01-28 10:20:18 - Bosmans Halle - M514B01G
Bosmans Halle - 2020-01-28 10:11:43 - Bosmans Halle - M514B00G
Sandra Van Sweeveldt - 2020-01-27 09:45:20 - sandra - P238A05G
Sandra Van Sweeveldt - 2020-01-27 09:44:16 - sandra - P238A06G
Evelyne Coppens - 2020-01-25 17:24:14 - Paul - X4782
Anne De Peuter - 2020-01-25 15:32:36 - Goethals - X3778-001
Anne De Peuter - 2020-01-25 15:30:47 - Goethals - P408A001
Marie-Christine Hermans - 2020-01-25 15:18:09 - Juwelen Marie-Christine - V1680
Peeters-Engelen - 2020-01-25 14:41:14 - Peeters-Engelen - C9045-003
Peeters-Engelen - 2020-01-25 14:39:26 - Peeters-Engelen - C9045-004
Bosmans Halle - 2020-01-24 16:24:39 - Bosmans Halle - C503B00G
Peeters-Engelen - 2020-01-24 14:16:40 - Peeters-Engelen - M305B00G
Sandra Van Sweeveldt - 2020-01-23 15:38:30 - sandra - P318B01
jan Van Brusselen - 2020-01-22 19:50:22 - Perles d Amour - D5122
jan Van Brusselen - 2020-01-22 19:45:10 - Perles d Amour - F5105
jan Van Brusselen - 2020-01-22 19:41:58 - Perles d Amour - F5104
jan Van Brusselen - 2020-01-22 19:38:05 - Perles d Amour - M308B00G
jan Van Brusselen - 2020-01-22 19:36:08 - Perles d Amour - M308B01G
Anne De Peuter - 2020-01-22 17:28:12 - Goethals - T3758
Anne De Peuter - 2020-01-22 17:25:59 - Goethals - P408A001
Evelyne Coppens - 2020-01-21 18:39:52 - Paul - C5636-001
Evelyne Coppens - 2020-01-21 18:37:01 - Paul - X4782
Evelyne Coppens - 2020-01-21 12:11:31 - Paul - C5925-006
Evelyne Coppens - 2020-01-21 12:09:55 - Paul - C5925-007
Evelyne Coppens - 2020-01-21 11:44:31 - Paul - C4338
N. Baurens - 2020-01-21 11:42:58 - Baurens - T3797
Evelyne Coppens - 2020-01-21 11:41:39 - Paul - C3658
N. Baurens - 2020-01-21 11:40:13 - Baurens - C2427
Evelyne Coppens - 2020-01-21 11:40:02 - Paul - X4782
Evelyne Coppens - 2020-01-21 11:32:14 - Paul - C4788
Marc Bosmans - 2020-01-20 14:51:10 - Marc Bosmans - P238A08G
Sarah Roelandt - 2020-01-18 17:08:22 - Roelandt Sarah - P238A06G
Davman - 2020-01-18 16:25:38 - Davman - P292A20G
Mathias Michelsanti - 2020-01-18 15:16:13 - Impormatex - C231B04G
Mathias Michelsanti - 2020-01-18 15:11:28 - Impormatex - C231B05G
Annik De Mey - 2020-01-18 14:47:02 - Annik De Mey - C3953
Marc Bosmans - 2020-01-17 16:03:57 - Marc Bosmans - F2870
Verena - 2020-01-15 17:20:18 - Verena - 471B00
Stephan Siemon - 2020-01-15 10:24:59 - Top Watch - F3731
Stephan Siemon - 2020-01-15 10:23:27 - Top Watch - C3732
Filip Simoens - 2020-01-14 16:17:59 - Simoens - B5052
Filip Simoens - 2020-01-14 16:15:10 - Simoens - C4156
Catherine Abeele - 2020-01-14 12:24:48 - Abeele - X5085
Catherine Abeele - 2020-01-14 12:22:14 - Abeele - X5085
N. Baurens - 2020-01-14 12:14:03 - Baurens - F4689
N. Baurens - 2020-01-14 12:10:43 - Baurens - C3408
Buntinx - 2020-01-14 09:08:03 - Buntinx - T486B04G
Buntinx - 2020-01-14 09:04:04 - Buntinx - 455B00
Katrien en Hildegarde Huysman - 2020-01-13 11:39:09 - Huysman - C9045-003
Vanhoutteghem - 2020-01-11 17:44:26 - Van Houtteghem - V5046
Vanhoutteghem - 2020-01-11 17:41:08 - Van Houtteghem - C5066
Evy Uyttenhove - 2020-01-11 10:48:59 - Evy d Or - V4206
Laurent Vanstechelman - 2020-01-10 17:26:24 - Tempo d Oro - C5061
Laurent Vanstechelman - 2020-01-10 17:25:17 - Tempo d Oro - C5061
Laurent Vanstechelman - 2020-01-10 17:24:01 - Tempo d Oro - C2832
Sofie - 2020-01-07 15:31:38 - Jema Design - P4789
Sofie - 2020-01-07 15:29:33 - Jema Design - F4785
Marc Bosmans - 2020-01-07 15:28:56 - Marc Bosmans - F5100
Marc Bosmans - 2020-01-07 15:22:17 - Marc Bosmans - F5101
Ilse Vercammen - 2020-01-07 12:32:37 - Ilse Vercammen - C4223
Tim & Sandra Hendrickx - 2020-01-07 10:01:43 - Hendrickx - X4782
Tim & Sandra Hendrickx - 2020-01-07 10:00:49 - Hendrickx - C4788
Christine & Marjolein - 2020-01-04 17:26:51 - Yolande - C5066
Christine & Marjolein - 2020-01-04 17:25:53 - Yolande - T5082
Vanhoutteghem - 2020-01-04 13:53:29 - Van Houtteghem - V5079
Vanhoutteghem - 2020-01-04 13:52:17 - Van Houtteghem - C5060
Bosmans Halle - 2020-01-04 12:16:10 - Bosmans Halle - P501B00G
Mathias Michelsanti - 2020-01-04 11:03:12 - Impormatex - 427B00
Mathias Michelsanti - 2020-01-04 11:01:22 - Impormatex - 427B01
Mik & Veronique Vander Avort - 2020-01-04 10:43:12 - Vander Avort - C9054-003
Mik & Veronique Vander Avort - 2020-01-04 10:42:20 - Vander Avort - C9054-002
Anne De Peuter - 2020-01-03 18:43:36 - Goethals - F1137
Anne De Peuter - 2020-01-03 18:34:45 - Goethals - C2899
Mathias Michelsanti - 2020-01-03 15:10:53 - Impormatex - C3953
Mathias Michelsanti - 2020-01-03 15:03:38 - Impormatex - F4786
Anne De Peuter - 2020-01-03 14:26:03 - Goethals - X4782
Anne De Peuter - 2020-01-03 14:20:43 - Goethals - C546B01G
Ilse Vercammen - 2020-01-02 16:17:07 - Ilse Vercammen - C784A06G
Ilse Vercammen - 2020-01-02 16:15:35 - Ilse Vercammen - X4782
Bosmans Halle - 2020-01-02 11:41:57 - Bosmans Halle - C487B00G
De Greeve - 2019-12-31 14:32:24 - De Greeve - X5085
Sandra Van Sweeveldt - 2019-12-30 12:27:51 - sandra - F4130
Sandra Van Sweeveldt - 2019-12-30 12:26:55 - sandra - C4148
Ilse Vercammen - 2019-12-30 12:07:12 - Ilse Vercammen - C4788
Catherine Abeele - 2019-12-30 10:45:09 - Abeele - C4211
Catherine Abeele - 2019-12-30 10:43:29 - Abeele - V4212
Sofie - 2019-12-29 13:24:51 - Jema Design - V4683
Sofie - 2019-12-29 13:22:58 - Jema Design - V4683
Mathias Michelsanti - 2019-12-28 16:24:15 - Impormatex - C5617-005
Mathias Michelsanti - 2019-12-28 16:22:46 - Impormatex - C5617-004
Tim & Sandra Hendrickx - 2019-12-28 12:47:41 - Hendrickx - C3658
Pierre-Louis - 2019-12-27 18:11:35 - Pierre-Louis - T4685
Pierre-Louis - 2019-12-27 18:10:35 - Pierre-Louis - C3645
Dhr. Richard - 2019-12-27 16:41:53 - Richard - M387A02G
Dhr. Richard - 2019-12-27 16:40:16 - Richard - C5919-006
Frederik Bongaerts - 2019-12-27 15:19:42 - Bongaerts - C3658
Nadia Souverijns - 2019-12-27 15:07:20 - Tibax - C2002-002
Nadia Souverijns - 2019-12-27 15:06:19 - Tibax - C4197
Thomas De Graeve - 2019-12-26 12:59:15 - De Baere - F5003
Thomas De Graeve - 2019-12-26 12:57:11 - De Baere - V5171
Ilse Vercammen - 2019-12-26 10:41:23 - Ilse Vercammen - V7005-002
Christine & Marjolein - 2019-12-24 09:41:43 - Yolande - C2863
Bosmans Halle - 2019-12-23 16:52:55 - Bosmans Halle - V7001-003
Marc Bosmans - 2019-12-21 15:11:57 - Marc Bosmans - P292A19G
Marc Bosmans - 2019-12-21 15:05:59 - Marc Bosmans - P292A21G
Katrien en Hildegarde Huysman - 2019-12-18 10:27:10 - Huysman - F5104
Katrien en Hildegarde Huysman - 2019-12-18 10:26:04 - Huysman - F5105
Heidi Stroeckx - 2019-12-18 09:56:24 - heidistroeckx - U5504-005
Paul Soens - 2019-12-16 11:53:18 - Juwelen Soens - T3796
Evelyne Coppens - 2019-12-12 15:44:16 - Paul - P292A19G
Christine & Marjolein - 2019-12-12 15:15:06 - Yolande - C2863
Christine & Marjolein - 2019-12-12 15:13:43 - Yolande - C2864
Sandra Van Sweeveldt - 2019-12-12 09:14:09 - sandra - P407A001- 0.05ct
Davman - 2019-12-07 16:57:11 - Davman - P560A09G
Davman - 2019-12-07 16:54:32 - Davman - P560A09G
Marc Bosmans - 2019-12-07 16:29:58 - Marc Bosmans - F5105
Marc Bosmans - 2019-12-07 16:18:39 - Marc Bosmans - F5104
Marc Bosmans - 2019-12-06 18:31:41 - Marc Bosmans - P292A22G
Marc Bosmans - 2019-12-06 18:30:00 - Marc Bosmans - P292A22G
Marc Bosmans - 2019-12-06 16:32:23 - Marc Bosmans - P292A19G
Fabienne Yannick - 2019-12-04 16:49:17 - Juwelen Yannick 2 - T559A01G – 0.07ct.
Juwelier - uurwerkmaker Devick Francis - 2019-12-03 11:54:36 - Juwelier - uurwerkmaker Devick Francis - C5081
Juwelier - uurwerkmaker Devick Francis - 2019-12-03 11:53:14 - Juwelier - uurwerkmaker Devick Francis - C5063
Catherine Abeele - 2019-12-03 11:14:30 - Abeele - C4224
Catherine Abeele - 2019-12-03 11:12:28 - Abeele - A3028-001
Ilse Vercammen - 2019-12-02 15:18:37 - Ilse Vercammen - X3634
Marc Bosmans - 2019-12-02 14:08:01 - Marc Bosmans - P292A22G
Christine & Marjolein - 2019-12-02 12:49:57 - Yolande - V5080
Christine & Marjolein - 2019-12-02 12:48:33 - Yolande - C5076
Anne De Peuter - 2019-12-02 12:27:08 - Goethals - X3634
Anne De Peuter - 2019-12-02 12:25:10 - Goethals - X3634
Sandra Van Sweeveldt - 2019-12-02 11:33:46 - sandra - C5952-002
Sandra Van Sweeveldt - 2019-12-02 11:32:55 - sandra - C5952-001
Christine & Marjolein - 2019-11-29 16:59:52 - Yolande - V5080
Christine & Marjolein - 2019-11-29 16:58:50 - Yolande - C4166
Vanhoutteghem - 2019-11-29 11:10:09 - Van Houtteghem - C5081
Vanhoutteghem - 2019-11-29 11:08:46 - Van Houtteghem - C5063
Team De Wilde - 2019-11-27 17:14:21 - De Wilde - M387A02G
Team De Wilde - 2019-11-27 17:13:11 - De Wilde - C5919-006
jan Van Brusselen - 2019-11-26 19:56:07 - Perles d Amour - C5617-004
jan Van Brusselen - 2019-11-26 19:54:28 - Perles d Amour - C5617-005
jan Van Brusselen - 2019-11-26 19:49:46 - Perles d Amour - F5103
jan Van Brusselen - 2019-11-26 19:47:10 - Perles d Amour - T489B02G
jan Van Brusselen - 2019-11-26 19:42:44 - Perles d Amour - C5636
Ilse Vercammen - 2019-11-26 16:32:49 - Ilse Vercammen - 207B00
De Greeve - 2019-11-23 17:16:24 - De Greeve - V7001-003
De Greeve - 2019-11-23 17:15:50 - De Greeve - P7001-007
Peter De Leus - 2019-11-23 16:13:01 - De Leus - P406A001
Jan Schoubben - 2019-11-23 12:17:36 - Schoubben - P291A20G
Jan Schoubben - 2019-11-23 12:15:39 - Schoubben - P291A19G
Alain Van Vlierden - 2019-11-20 15:45:30 - Van Vlierden - F4784
Alain Van Vlierden - 2019-11-20 15:43:24 - Van Vlierden - P4792
Sandra Van Sweeveldt - 2019-11-20 12:14:51 - sandra - P295A22G
Buntinx - 2019-11-19 11:48:12 - Buntinx - 455B00
Buntinx - 2019-11-19 11:46:49 - Buntinx - T486B04G
Anne De Peuter - 2019-11-16 18:13:31 - Goethals - V4206
Anne De Peuter - 2019-11-16 18:07:28 - Goethals - V4206
Christine & Marjolein - 2019-11-15 16:12:11 - Yolande - C9045-004
Sandra Van Sweeveldt - 2019-11-15 09:10:25 - sandra - C4166
Buntinx - 2019-11-14 17:43:22 - Buntinx - 455B00
Fabienne Yannick - 2019-11-14 16:20:49 - Juwelen Yannick 2 - C784A06G
Fabienne Yannick - 2019-11-14 16:16:48 - Juwelen Yannick 2 - C784A04G
Mathias Michelsanti - 2019-11-13 14:54:34 - Impormatex - C3807
Mathias Michelsanti - 2019-11-13 14:51:45 - Impormatex - V5827
Evy Uyttenhove - 2019-11-12 17:40:30 - Evy d Or - T4208
Evelyne Coppens - 2019-11-12 11:51:38 - Paul - V4202
Marc Bosmans - 2019-11-09 15:05:58 - Marc Bosmans - F5101
Marc Bosmans - 2019-11-09 14:52:49 - Marc Bosmans - F5100
Marc Bosmans - 2019-11-09 12:43:02 - Marc Bosmans - M514B01G
Marc Bosmans - 2019-11-09 12:39:06 - Marc Bosmans - M514B00G
Ilse Vercammen - 2019-11-08 17:43:04 - Ilse Vercammen - V4206
Ilse Vercammen - 2019-11-08 17:35:31 - Ilse Vercammen - C4156
Sandra Van Sweeveldt - 2019-11-08 13:20:34 - sandra - T486B04G
Christine & Marjolein - 2019-11-06 12:55:30 - Yolande - C3953
Mathias Michelsanti - 2019-11-06 11:19:38 - Impormatex - F5086
Mathias Michelsanti - 2019-11-06 11:13:52 - Impormatex - N3941
Martine Oversteyns - 2019-11-05 10:30:26 - Oversteyns Martine - F5203
Martine Oversteyns - 2019-11-05 10:29:26 - Oversteyns Martine - C5204
Alain Van Vlierden - 2019-11-02 15:36:31 - Van Vlierden - V5048
Kurt De Block - 2019-11-02 11:24:44 - Kortrijkse Goudcentrale - C9055-006
Bosmans Halle - 2019-11-02 10:45:40 - Bosmans Halle - P483B00G
Marc Bosmans - 2019-10-31 17:33:37 - Marc Bosmans - C487B00G
Marc Bosmans - 2019-10-31 17:20:23 - Marc Bosmans - T487B02G
Sandra Van Sweeveldt - 2019-10-31 12:02:38 - sandra - M309B01G
Buntinx - 2019-10-30 16:01:22 - Buntinx - T496B02G
Ferri-Merlier - 2019-10-29 11:02:51 - Ferri-Merlier - C5925-006
Anne De Peuter - 2019-10-26 12:10:23 - Goethals - F4130
De Greeve - 2019-10-25 16:10:58 - De Greeve - P3964
Celine Vanstechelman - 2019-10-25 13:58:51 - Eye-C - C5064
Celine Vanstechelman - 2019-10-25 13:57:11 - Eye-C - B5052
Sarah Roelandt - 2019-10-24 16:50:55 - Roelandt Sarah - C4793
Sarah Roelandt - 2019-10-24 16:48:56 - Roelandt Sarah - E4783
Dries - 2019-10-24 16:43:00 - Dries - T5082
Dries - 2019-10-24 16:41:39 - Dries - C5066
Sarah Roelandt - 2019-10-24 11:27:45 - Roelandt Sarah - 387A05
Sandra Van Sweeveldt - 2019-10-23 08:35:45 - sandra - M309B01G
Sandra Van Sweeveldt - 2019-10-22 13:49:25 - sandra - F4130
Sandra Van Sweeveldt - 2019-10-22 13:48:33 - sandra - C4148
Evy Uyttenhove - 2019-10-22 13:04:33 - Evy d Or - X4782
N. Baurens - 2019-10-22 12:42:30 - Baurens - T4225
N. Baurens - 2019-10-22 12:39:46 - Baurens - C4809
Marc Bosmans - 2019-10-22 11:34:25 - Marc Bosmans - F4995
Marc Bosmans - 2019-10-22 11:30:17 - Marc Bosmans - F4995
Vanhoutteghem - 2019-10-19 17:20:21 - Van Houtteghem - C4338
Mathias Michelsanti - 2019-10-19 10:02:37 - Impormatex - M514B01G
Sofie - 2019-10-18 17:26:13 - Jema Design - T476B02G
Sofie - 2019-10-18 17:25:02 - Jema Design - P476B00G
Devina - 2019-10-17 13:28:23 - Devina - C5919-006
Sandra Van Sweeveldt - 2019-10-17 09:11:04 - sandra - X5501-001
Sandra Van Sweeveldt - 2019-10-15 09:35:32 - sandra - T484B02G
Heidi Stroeckx - 2019-10-12 15:27:15 - heidistroeckx - M307B01G
De Greeve - 2019-10-12 12:29:54 - De Greeve - C3801
Christine & Marjolein - 2019-10-11 10:17:32 - Yolande - B7032-002
Christine & Marjolein - 2019-10-11 10:16:35 - Yolande - B7032
Sarah Roelandt - 2019-10-10 16:24:00 - Roelandt Sarah - P295A23G
Marc Buseyne - 2019-10-10 16:17:07 - Busseyne - C3755
jan Van Brusselen - 2019-10-09 10:02:06 - Perles d Amour - T9163-006
jan Van Brusselen - 2019-10-09 09:58:52 - Perles d Amour - C9163-007
Pierre-Louis - 2019-10-09 09:52:38 - Pierre-Louis - C5071
De Greeve - 2019-10-08 09:56:52 - De Greeve - P408A001
Sandra Van Sweeveldt - 2019-10-07 12:54:43 - sandra - P408A001
Marc Bosmans - 2019-10-07 08:57:47 - Marc Bosmans - C487B00G
Marc Bosmans - 2019-10-05 16:22:21 - Marc Bosmans - C509B00G
Marc Bosmans - 2019-10-05 16:17:48 - Marc Bosmans - C515B01G
De Greeve - 2019-10-05 14:59:53 - De Greeve - V3802
Marc Bosmans - 2019-10-05 13:58:34 - Marc Bosmans - M309B00G
Marc Bosmans - 2019-10-05 13:46:17 - Marc Bosmans - M309B00G
Anne De Peuter - 2019-10-05 10:55:06 - Goethals - V4202
Filip Simoens - 2019-10-04 14:30:06 - Simoens - P292A20G
Laurent Vanstechelman - 2019-10-04 10:05:22 - Tempo d Oro - C2951
Bosmans Halle - 2019-10-03 22:06:00 - Bosmans Halle - P483B00G
Sandra Van Sweeveldt - 2019-10-01 15:11:56 - sandra - C9045-003
Sandra Van Sweeveldt - 2019-10-01 15:11:22 - sandra - C9045-004
Evi Vandeweyer - 2019-10-01 09:43:33 - Vandeweyer - V5046
Amelie Berard - 2019-10-01 08:43:29 - Pronuptia - P292A19G
Marc Bosmans - 2019-09-30 10:33:00 - Marc Bosmans - P295A21G
Thomas De Graeve - 2019-09-29 17:54:19 - De Baere - V5171
Thomas De Graeve - 2019-09-29 17:53:03 - De Baere - F5003
Peter De Leus - 2019-09-28 15:37:29 - De Leus - V4202
Evelyne Coppens - 2019-09-28 15:37:01 - Paul - C4338
Yves Vanbeveren - 2019-09-28 12:26:19 - Vanbeveren - C4338
Mevr. Vanderostyne - 2019-09-28 09:33:48 - Vanderostyne Els - P238A06G
Michel Vileyn - 2019-09-27 16:44:09 - Juwelier Vileyn - C9055-007
Esthel Rams - 2019-09-27 14:01:00 - Juwelen Rams - V4512
Esthel Rams - 2019-09-27 13:59:29 - Juwelen Rams - V4512
Annick Gysemberg - 2019-09-27 12:44:59 - gysembergannick - X2167-001
Annick Gysemberg - 2019-09-27 12:39:30 - gysembergannick - C3953
Schotte - 2019-09-27 10:51:24 - Schotte - C9045-003
Team De Wilde - 2019-09-27 10:06:10 - De Wilde - C187B00G
Team De Wilde - 2019-09-27 10:02:21 - De Wilde - C187B01G
Sandra Van Sweeveldt - 2019-09-27 08:52:40 - sandra - T486B04G
Kurt De Block - 2019-09-27 08:12:26 - Kortrijkse Goudcentrale - M306B00G
Kurt De Block - 2019-09-27 08:10:30 - Kortrijkse Goudcentrale - M306B01G
Buntinx - 2019-09-26 14:25:10 - Buntinx - T486B04G
Laurent Vanstechelman - 2019-09-25 09:35:58 - Tempo d Oro - F2870
Laurent Vanstechelman - 2019-09-25 09:32:38 - Tempo d Oro - T484B02G
Ilse Vercammen - 2019-09-22 15:57:09 - Ilse Vercammen - V4513
Sarah Roelandt - 2019-09-22 10:44:12 - Roelandt Sarah - C510B00G
Moens - 2019-09-21 15:20:09 - Moens - C5636
Moens - 2019-09-21 15:15:31 - Moens - C5636-001
Nadia Souverijns - 2019-09-21 12:43:05 - Tibax - C5569-001
Moens - 2019-09-20 18:58:04 - Moens - T486B04G
Moens - 2019-09-20 18:05:44 - Moens - C3953
Moens - 2019-09-19 17:08:51 - Moens - C9045-003
Moens - 2019-09-19 17:08:17 - Moens - C9045-004
Vanhoutteghem - 2019-09-19 16:55:12 - Van Houtteghem - V5046
Ilse Vercammen - 2019-09-19 08:38:55 - Ilse Vercammen - C4338
De Tandt bvba - 2019-09-18 13:38:29 - De Tandt bvba - C503B00G
Moens - 2019-09-17 18:22:48 - Moens - T476B02G
Moens - 2019-09-17 18:12:14 - Moens - P476B00G
Moens - 2019-09-17 18:10:55 - Moens - M305B01G
Moens - 2019-09-17 18:08:15 - Moens - C2859-005
Catherine Abeele - 2019-09-17 17:06:38 - Abeele - 553B01
Anne De Peuter - 2019-09-17 16:24:38 - Goethals - V4202
Anne De Peuter - 2019-09-17 16:20:10 - Goethals - V4202
Verena - 2019-09-17 14:04:22 - Verena - 393B00
Sandra Van Sweeveldt - 2019-09-17 11:05:36 - sandra - U4688
Sandra Van Sweeveldt - 2019-09-17 08:33:13 - sandra - F4785
Sandra Van Sweeveldt - 2019-09-17 08:32:15 - sandra - P4789
Marie-Christine Hermans - 2019-09-16 13:52:52 - Juwelen Marie-Christine - M313B01G
Marie-Christine Hermans - 2019-09-16 13:50:36 - Juwelen Marie-Christine - M313B00G
Bosmans Halle - 2019-09-16 10:05:12 - Bosmans Halle - C487B00G
Dhr. Richard - 2019-09-14 15:55:38 - Richard - C231B04G
Dhr. Richard - 2019-09-14 15:52:45 - Richard - C515B01G
Marc Bosmans - 2019-09-14 11:54:06 - Marc Bosmans - P295A18G
Marc Bosmans - 2019-09-14 11:42:41 - Marc Bosmans - P560A09G
Annik De Mey - 2019-09-14 11:15:16 - Annik De Mey - V5050
Christine & Marjolein - 2019-09-13 14:19:28 - Yolande - V5048
Mik & Veronique Vander Avort - 2019-09-11 16:28:45 - Vander Avort - C9052
Bosmans Halle - 2019-09-11 09:37:49 - Bosmans Halle - C240B04G
Catherine Abeele - 2019-09-10 10:55:19 - Abeele - C5077
Catherine Abeele - 2019-09-10 10:53:54 - Abeele - B5056
Sandra Van Sweeveldt - 2019-09-09 08:43:42 - sandra - C9054-003
Sandra Van Sweeveldt - 2019-09-09 08:42:50 - sandra - C9054-003
Frédéric Pirson - 2019-09-08 11:23:38 - Pirson - P292A20G
Frédéric Pirson - 2019-09-08 11:21:06 - Pirson - P292A19G
Frédéric Pirson - 2019-09-08 11:18:09 - Pirson - P292A19G
Evy Uyttenhove - 2019-09-07 09:01:59 - Evy d Or - C4211
Evy Uyttenhove - 2019-09-07 09:00:06 - Evy d Or - X3634
Ilse Vercammen - 2019-09-06 13:42:32 - Ilse Vercammen - C4166
Ilse Vercammen - 2019-09-06 13:40:17 - Ilse Vercammen - V7004-002
Sandra Van Sweeveldt - 2019-09-06 09:21:43 - sandra - P483B00G
Davman - 2019-09-05 16:36:16 - Davman - 566B00
Davman - 2019-09-05 16:26:29 - Davman - 566B00
Kristina Cuvelier - 2019-09-05 12:10:06 - Cuvelier - P408A001
Kristina Cuvelier - 2019-09-05 12:03:18 - Cuvelier - V7013-002
Peter De Leus - 2019-09-04 16:36:48 - De Leus - X4782
Peter De Leus - 2019-09-04 16:35:42 - De Leus - C4788
Pierre-Louis - 2019-09-04 15:42:57 - Pierre-Louis - T5082
Pierre-Louis - 2019-09-04 15:41:51 - Pierre-Louis - C5066
Amelie Berard - 2019-09-04 13:37:48 - Pronuptia - P560A09G
Amelie Berard - 2019-09-04 13:30:04 - Pronuptia - T486B04G
Mik & Veronique Vander Avort - 2019-09-04 12:21:20 - Vander Avort - C4338
Sandra Van Sweeveldt - 2019-09-03 15:36:43 - sandra - V7012-003
Anne De Peuter - 2019-09-02 15:39:35 - Goethals - X3778-001
Frederik Bongaerts - 2019-09-02 09:06:06 - Bongaerts - C4385
Frederik Bongaerts - 2019-09-02 09:04:20 - Bongaerts - C4384
Verena - 2019-08-31 16:26:08 - Verena - C503B00G
Evelyne Coppens - 2019-08-30 16:23:12 - Paul - V4202
Bart Bourgois - 2019-08-30 10:26:19 - Bourgois - P238A06G
Peeters-Engelen - 2019-08-29 13:58:31 - Peeters-Engelen - P292A21G
Fabienne Yannick - 2019-08-28 16:56:37 - Juwelen Yannick 2 - V7001-003
Fabienne Yannick - 2019-08-28 16:55:14 - Juwelen Yannick 2 - P7001-007
Marc Bosmans - 2019-08-28 16:03:10 - Marc Bosmans - P292A19G
Frederik Bongaerts - 2019-08-28 10:02:40 - Bongaerts - M387A02G
Catherine Abeele - 2019-08-27 15:28:08 - Abeele - V5050
Catherine Abeele - 2019-08-27 15:26:38 - Abeele - C5065
Sandra Van Sweeveldt - 2019-08-27 10:17:55 - sandra - U4510
Sandra Van Sweeveldt - 2019-08-27 10:17:18 - sandra - U4510
Evy Uyttenhove - 2019-08-27 09:55:49 - Evy d Or - P7014-007
Evy Uyttenhove - 2019-08-27 09:49:54 - Evy d Or - X4782
Dries - 2019-08-27 09:31:09 - Dries - M306B00G
Mathias Michelsanti - 2019-08-26 14:13:38 - Impormatex - M514B00G
Mathias Michelsanti - 2019-08-26 14:09:32 - Impormatex - M514B01G
Bosmans Halle - 2019-08-26 13:00:34 - Bosmans Halle - P7014-007
Sofie - 2019-08-26 05:10:18 - Jema Design - X5501-001
Sofie - 2019-08-26 05:08:25 - Jema Design - X5501-001
Sarah Roelandt - 2019-08-24 16:41:22 - Roelandt Sarah - V7012-003
Anne De Peuter - 2019-08-24 16:20:17 - Goethals - V5080
Anne De Peuter - 2019-08-24 15:32:53 - Goethals - V4202
Davman - 2019-08-24 11:52:20 - Davman - M312B01G
Davman - 2019-08-24 11:48:13 - Davman - M312B00G
Jo De Peuter - 2019-08-20 16:57:29 - Jo Juwelen - P182B01G
Jo De Peuter - 2019-08-20 16:56:00 - Jo Juwelen - W5927-001
Jo De Peuter - 2019-08-20 16:35:06 - Jo Juwelen - F2644
Bosmans Halle - 2019-08-20 15:44:56 - Bosmans Halle - C503B00G
Bosmans Halle - 2019-08-20 15:40:51 - Bosmans Halle - C503B02G
Marc Bosmans - 2019-08-20 14:59:13 - Marc Bosmans - V3802
Marc Bosmans - 2019-08-20 14:54:25 - Marc Bosmans - 9045-004
Bosmans Halle - 2019-08-20 14:07:38 - Bosmans Halle - C9045-003
Bosmans Halle - 2019-08-20 14:06:50 - Bosmans Halle - C9045-004
Sandra Van Sweeveldt - 2019-08-20 13:37:15 - sandra - P486B00G
Sandra Van Sweeveldt - 2019-08-20 13:37:15 - sandra - P486B00G
Sandra Van Sweeveldt - 2019-08-20 13:36:07 - sandra - P486B00G
Bosmans Halle - 2019-08-20 12:32:23 - Bosmans Halle - P543B00G
Bosmans Halle - 2019-08-20 12:29:15 - Bosmans Halle - X3778-001
Bosmans Halle - 2019-08-20 11:08:02 - Bosmans Halle - C489B00G
Bosmans Halle - 2019-08-20 11:02:44 - Bosmans Halle - C489B00G
Sandra Van Sweeveldt - 2019-08-20 09:19:08 - sandra - P499B00G
De Tandt bvba - 2019-08-20 08:52:26 - De Tandt bvba - 422B00
De Tandt bvba - 2019-08-20 08:51:01 - De Tandt bvba - 422B01
De Tandt bvba - 2019-08-20 08:44:11 - De Tandt bvba - 553B01
De Tandt bvba - 2019-08-20 08:42:23 - De Tandt bvba - X3778-001
Frédéric Pirson - 2019-08-19 19:13:46 - Pirson - P292A18G
Frédéric Pirson - 2019-08-19 19:11:40 - Pirson - P292A18G
Mathias Michelsanti - 2019-08-17 14:17:24 - Impormatex - C231B04G
Mathias Michelsanti - 2019-08-17 14:15:06 - Impormatex - C231B05G
Christine & Marjolein - 2019-08-17 13:12:26 - Yolande - T3796
Evelyne Coppens - 2019-08-17 11:45:13 - Paul - C4338
Evelyne Coppens - 2019-08-17 11:41:56 - Paul - C3658
Alain Van Vlierden - 2019-08-16 13:51:36 - Van Vlierden - C4338
Alain Van Vlierden - 2019-08-16 13:49:00 - Van Vlierden - C3658
Anne De Peuter - 2019-08-16 09:28:09 - Goethals - V4206
Laurent Vanstechelman - 2019-08-16 09:20:31 - Tempo d Oro - B5056
Laurent Vanstechelman - 2019-08-16 09:18:44 - Tempo d Oro - C5077
Mathias Michelsanti - 2019-08-14 15:32:03 - Impormatex - 400B01
Moens - 2019-08-14 14:38:13 - Moens - 393B00
Moens - 2019-08-14 14:36:52 - Moens - 393B01
De Greeve - 2019-08-14 08:45:54 - De Greeve - C9045-003
De Greeve - 2019-08-14 08:45:01 - De Greeve - C9045-004
Annik De Mey - 2019-08-13 09:58:35 - Annik De Mey - C4338
Annik De Mey - 2019-08-13 09:57:08 - Annik De Mey - P7001-007
Marc Bosmans - 2019-08-12 16:20:33 - Marc Bosmans - P295A25G
Celine Vanstechelman - 2019-08-11 13:54:50 - Eye-C - F5111
Juwelier - uurwerkmaker Devick Francis - 2019-08-10 15:43:29 - Juwelier - uurwerkmaker Devick Francis - C7023-002
Katrien en Hildegarde Huysman - 2019-08-10 15:39:20 - Huysman - X3778-001
Sven Lombaerts - 2019-08-10 15:01:22 - Van Laer - 553B00
Sven Lombaerts - 2019-08-10 15:00:15 - Van Laer - 553B00
Pierre-Louis - 2019-08-10 14:42:35 - Pierre-Louis - T5084
Pierre-Louis - 2019-08-10 14:41:42 - Pierre-Louis - T5084
Dries - 2019-08-10 13:41:04 - Dries - V5053
Anne De Peuter - 2019-08-10 13:11:59 - Goethals - X3634
Dries - 2019-08-10 12:40:38 - Dries - C518B00G
Sandra Van Sweeveldt - 2019-08-09 09:35:39 - sandra - V7013-002
Sandra Van Sweeveldt - 2019-08-09 09:34:40 - sandra - P7013-007
Bosmans Halle - 2019-08-07 13:02:37 - Bosmans Halle - F5020
Ilse Vercammen - 2019-08-05 13:56:45 - Ilse Vercammen - X2167-001
Ilse Vercammen - 2019-08-05 13:53:50 - Ilse Vercammen - A3028-001
Ilse Vercammen - 2019-08-03 09:43:16 - Ilse Vercammen - X3778-001
Ilse Vercammen - 2019-08-03 09:38:01 - Ilse Vercammen - C3777-001
Martine Oversteyns - 2019-08-02 10:13:47 - Oversteyns Martine - X3778-001
S en D Boetiek bvba - 2019-08-01 10:49:27 - S en D Boetiek bvba - P499B00G
Evelyne Coppens - 2019-07-31 16:28:47 - Paul - C4224
Evelyne Coppens - 2019-07-31 16:27:45 - Paul - C4223
Nadia Souverijns - 2019-07-31 16:15:10 - Tibax - C9052
Nadia Souverijns - 2019-07-31 16:13:00 - Tibax - C9052
Martine - 2019-07-31 14:22:01 - Toermalijn - 411B01
Ilse Vercammen - 2019-07-27 14:14:23 - Ilse Vercammen - C240B05G
Ilse Vercammen - 2019-07-27 14:12:21 - Ilse Vercammen - X3778-001
Evelyne Coppens - 2019-07-27 12:05:39 - Paul - F5105
Evelyne Coppens - 2019-07-27 12:04:01 - Paul - C3658
Amelie Berard - 2019-07-27 10:49:09 - Pronuptia - 466B01
Amelie Berard - 2019-07-27 10:45:20 - Pronuptia - 466B00
Annik De Mey - 2019-07-27 10:44:55 - Annik De Mey - P4789
Annik De Mey - 2019-07-27 10:43:18 - Annik De Mey - F4785
Bart Bourgois - 2019-07-26 14:52:57 - Bourgois - X5501-004
Jan Van Goethem - 2019-07-26 14:45:32 - Van Goethem - C9052
Bart Bourgois - 2019-07-26 14:44:56 - Bourgois - X5501-003
Jan Van Goethem - 2019-07-26 14:39:58 - Van Goethem - C9052-001
Moens Tongeren - 2019-07-26 13:33:38 - Moens Tongeren - X3778-001
Moens Tongeren - 2019-07-26 13:24:30 - Moens Tongeren - C4806
Devina - 2019-07-25 14:14:11 - Devina - C9055-007
Devina - 2019-07-25 14:12:20 - Devina - C9055-006
Evelyne Coppens - 2019-07-25 10:03:37 - Paul - F9042
Evelyne Coppens - 2019-07-25 09:58:13 - Paul - F9042
De Greeve - 2019-07-24 16:49:24 - De Greeve - V7001-003
De Greeve - 2019-07-24 16:47:15 - De Greeve - B5059
Sarah Roelandt - 2019-07-24 15:12:13 - Roelandt Sarah - P560A09G
Evy Uyttenhove - 2019-07-24 15:00:54 - Evy d Or - X4782
Evelyne Coppens - 2019-07-24 14:19:59 - Paul - V4202
Paul Soens - 2019-07-24 13:14:30 - Juwelen Soens - X5501-005
Paul Soens - 2019-07-24 13:11:15 - Juwelen Soens - C4211
Juwelier - uurwerkmaker Devick Francis - 2019-07-23 08:01:41 - Juwelier - uurwerkmaker Devick Francis - C4338
Evelyne Coppens - 2019-07-20 15:58:10 - Paul - C4148
Stephan Siemon - 2019-07-20 14:32:36 - Top Watch - C4338
Stephan Siemon - 2019-07-20 14:30:19 - Top Watch - C3658
Heidi Stroeckx - 2019-07-20 13:30:34 - heidistroeckx - P292A21G
Heidi Stroeckx - 2019-07-20 13:28:17 - heidistroeckx - P292A20G
Heidi Stroeckx - 2019-07-20 12:53:42 - heidistroeckx - C513B00G
Heidi Stroeckx - 2019-07-20 12:52:03 - heidistroeckx - C513B00G
Sofie - 2019-07-19 15:52:20 - Jema Design - P476B00G
Sofie - 2019-07-19 15:28:55 - Jema Design - T476B01G
Anneleen Eyckmans - 2019-07-19 10:02:27 - Anneleen Eyckmans - M306B00G
Anneleen Eyckmans - 2019-07-19 10:01:53 - Anneleen Eyckmans - M310B00G
Anneleen Eyckmans - 2019-07-19 10:01:25 - Anneleen Eyckmans - M309B00G
Anneleen Eyckmans - 2019-07-19 09:55:58 - Anneleen Eyckmans - B4988-001
Sarah Roelandt - 2019-07-18 16:02:24 - Roelandt Sarah - C187B00G
Sarah Roelandt - 2019-07-18 16:00:53 - Roelandt Sarah - C187B01G
N. Baurens - 2019-07-18 13:47:28 - Baurens - T496B02G
Martine Oversteyns - 2019-07-18 12:04:31 - Oversteyns Martine - C231B04G
Sandra Van Sweeveldt - 2019-07-17 13:31:37 - sandra - M838A00G
Marc Bosmans - 2019-07-16 15:57:58 - Marc Bosmans - P238A12G
Marc Bosmans - 2019-07-16 15:55:46 - Marc Bosmans - P238A13G
N. Baurens - 2019-07-16 14:22:10 - Baurens - P295A25G
Sandra Van Sweeveldt - 2019-07-15 10:42:16 - sandra - B5052
Sandra Van Sweeveldt - 2019-07-15 09:09:46 - sandra - C784A04G
Anne De Peuter - 2019-07-13 16:39:50 - Goethals - V5080
Anne De Peuter - 2019-07-13 16:37:59 - Goethals - C5066
Anne De Peuter - 2019-07-13 14:45:32 - Goethals - V5048
Anne De Peuter - 2019-07-13 14:41:13 - Goethals - C5066
Frederik Bongaerts - 2019-07-13 14:33:35 - Bongaerts - B5052
Christine & Marjolein - 2019-07-13 12:51:34 - Yolande - V7003-002
Christine & Marjolein - 2019-07-13 12:49:39 - Yolande - P7003-007
Bijouterie Claire - 2019-07-13 12:49:20 - Bijouterie Claire - B9056-002
Bijouterie Claire - 2019-07-13 12:47:36 - Bijouterie Claire - B9056-003
Katrien en Hildegarde Huysman - 2019-07-13 10:01:27 - Huysman - X3778-001
Katrien en Hildegarde Huysman - 2019-07-13 10:00:04 - Huysman - C3777-001
Annick Gysemberg - 2019-07-12 16:58:47 - gysembergannick - 387A05
Alain Van Vlierden - 2019-07-12 10:52:58 - Van Vlierden - C503B00G
Evy Uyttenhove - 2019-07-10 14:19:04 - Evy d Or - T3758
Bosmans Halle - 2019-07-09 13:08:32 - Bosmans Halle - P501B00G
Sarah Roelandt - 2019-07-08 17:36:49 - Roelandt Sarah - P238A06G
Marc Bosmans - 2019-07-06 15:09:37 - Marc Bosmans - P294A12G
Kurt De Block - 2019-07-06 14:23:31 - Kortrijkse Goudcentrale - V7006-003
Anne De Peuter - 2019-07-06 12:36:05 - Goethals - X3962
Anne De Peuter - 2019-07-06 12:31:49 - Goethals - X3962
Marc Bosmans - 2019-07-05 15:48:03 - Marc Bosmans - P292A20G
Mevr. Vanderostyne - 2019-07-05 14:06:38 - Vanderostyne Els - T486B04G
Mathias Michelsanti - 2019-07-05 14:05:59 - Impormatex - P316B02
Amelie Berard - 2019-07-04 09:15:15 - Pronuptia - P292A19G
Amelie Berard - 2019-07-04 09:12:33 - Pronuptia - P293A16G
Marc Bosmans - 2019-07-03 16:47:58 - Marc Bosmans - F5016
Sofie - 2019-07-03 14:35:08 - Jema Design - U4686
Sofie - 2019-07-03 14:33:03 - Jema Design - U4686
Christine & Marjolein - 2019-07-03 13:31:45 - Yolande - P7011-007
Christine & Marjolein - 2019-07-03 13:30:42 - Yolande - V7011-002
N. Baurens - 2019-07-03 10:24:07 - Baurens - C2864
N. Baurens - 2019-07-03 10:20:28 - Baurens - C2863
Marie Paul & Christine Reyntjens - 2019-07-02 14:36:09 - Reyntjens - 422B01
Annik De Mey - 2019-07-02 11:42:40 - Annik De Mey - C5081
Bosmans Halle - 2019-06-30 14:53:47 - Bosmans Halle - V7014-003
Katrien en Hildegarde Huysman - 2019-06-29 13:55:26 - Huysman - T4225
- 2019-06-28 13:15:45 - De Goudvis - P501B00G
Mathias Michelsanti - 2019-06-28 09:54:42 - Impormatex - 400B00
Mathias Michelsanti - 2019-06-28 09:45:43 - Impormatex - 400B00
Frédéric Pirson - 2019-06-27 14:39:20 - Pirson - P292A23G
Frédéric Pirson - 2019-06-27 14:37:44 - Pirson - C3953
Frédéric Pirson - 2019-06-27 14:35:57 - Pirson - V4202
Frederik Bongaerts - 2019-06-27 14:11:50 - Bongaerts - C5076
Frederik Bongaerts - 2019-06-27 14:11:12 - Bongaerts - V5080
Frédéric Pirson - 2019-06-27 12:10:23 - Pirson - F3738
Frédéric Pirson - 2019-06-27 12:08:17 - Pirson - P4559
Bosmans Halle - 2019-06-27 09:56:49 - Bosmans Halle - F4786
Bosmans Halle - 2019-06-27 09:53:51 - Bosmans Halle - C4791
Evelyne Coppens - 2019-06-25 10:28:22 - Paul - C4224
Anne De Peuter - 2019-06-24 09:29:51 - Goethals - E2829
Eric De Waele - 2019-06-23 16:17:24 - De Waele - C3777-001
Katrien en Hildegarde Huysman - 2019-06-22 14:44:58 - Huysman - X3778-001
Katrien en Hildegarde Huysman - 2019-06-22 14:43:23 - Huysman - C3953
Anne De Peuter - 2019-06-22 13:55:58 - Goethals - X3634
Frederik Bongaerts - 2019-06-22 12:40:59 - Bongaerts - C5919-006
Frederik Bongaerts - 2019-06-22 12:39:05 - Bongaerts - M387A02G
Marc Bosmans - 2019-06-22 09:53:49 - Marc Bosmans - P292A20G
Marc Bosmans - 2019-06-22 09:44:29 - Marc Bosmans - C3732
jan Van Brusselen - 2019-06-21 11:24:53 - Perles d Amour - 566B00
jan Van Brusselen - 2019-06-21 11:22:30 - Perles d Amour - 566B01
jan Van Brusselen - 2019-06-21 11:18:41 - Perles d Amour - C5617-004
jan Van Brusselen - 2019-06-21 11:13:55 - Perles d Amour - C5617-005
jan Van Brusselen - 2019-06-21 11:07:56 - Perles d Amour - F1966
jan Van Brusselen - 2019-06-21 11:06:14 - Perles d Amour - F3967
jan Van Brusselen - 2019-06-21 11:02:35 - Perles d Amour - C5948-004
jan Van Brusselen - 2019-06-21 10:59:45 - Perles d Amour - C5948-005
Marc & Hilde Jehaes - 2019-06-20 17:39:28 - Jehaes - V4202
Marc & Hilde Jehaes - 2019-06-20 17:37:31 - Jehaes - C4163
Mevr. Vanderostyne - 2019-06-20 16:47:57 - Vanderostyne Els - P291A22G
Dries - 2019-06-20 16:12:55 - Dries - F5003
Martine Peeters - 2019-06-20 15:47:23 - KD Peeters - V1679
Martine Peeters - 2019-06-20 15:45:57 - KD Peeters - V1679
Dries - 2019-06-20 15:35:27 - Dries - F5086
Dries - 2019-06-20 14:54:40 - Dries - C5074
Dries - 2019-06-20 14:53:28 - Dries - F5086
Dries - 2019-06-20 14:51:33 - Dries - C3658
Dries - 2019-06-20 14:01:59 - Dries - C5065
Dries - 2019-06-20 14:00:56 - Dries - V5050
Dries - 2019-06-20 13:58:26 - Dries - C518B00G
Dries - 2019-06-20 13:26:26 - Dries - V7001-003
Frederik Bongaerts - 2019-06-20 11:06:37 - Bongaerts - U4686
Frederik Bongaerts - 2019-06-20 11:00:49 - Bongaerts - C3953
Vanhoutteghem - 2019-06-19 10:00:40 - Van Houtteghem - F5086
Mevr. Vanderostyne - 2019-06-18 14:53:50 - Vanderostyne Els - P292A20G
Catherine Abeele - 2019-06-18 10:49:53 - Abeele - C5066
Catherine Abeele - 2019-06-18 10:46:50 - Abeele - T5082
Evelyne Coppens - 2019-06-18 10:15:54 - Paul - F5105
Stephan Siemon - 2019-06-18 08:32:52 - Top Watch - F3731
Stephan Siemon - 2019-06-18 08:31:39 - Top Watch - F3731
Stephan Siemon - 2019-06-18 08:25:57 - Top Watch - C5113
Stephan Siemon - 2019-06-18 08:24:26 - Top Watch - C5112
Sarah Roelandt - 2019-06-17 16:10:34 - Roelandt Sarah - V4227
Marc Bosmans - 2019-06-17 11:12:06 - Marc Bosmans - C5919-006
Sandra Van Sweeveldt - 2019-06-17 09:27:26 - sandra - X3745
Sarah Roelandt - 2019-06-16 17:18:58 - Roelandt Sarah - P293A17G
Sarah Roelandt - 2019-06-16 15:58:10 - Roelandt Sarah - T479B02G
Verena - 2019-06-15 15:04:19 - Verena - 471B00
Anne De Peuter - 2019-06-15 13:42:26 - Goethals - T3796
De Greeve - 2019-06-15 13:09:02 - De Greeve - V5049
Sandra Van Sweeveldt - 2019-06-14 14:37:19 - sandra - X3778-001
Anne De Peuter - 2019-06-14 14:12:31 - Goethals - V4202
Anne De Peuter - 2019-06-14 14:07:32 - Goethals - C7033
Martine Peeters - 2019-06-13 20:06:11 - KD Peeters - C5919-006
Anne De Peuter - 2019-06-13 14:29:01 - Goethals - C7009-003
Anne De Peuter - 2019-06-13 14:25:36 - Goethals - T504B02G
Christine & Marjolein - 2019-06-13 09:49:57 - Yolande - V4206
Christine & Marjolein - 2019-06-13 09:47:46 - Yolande - C4166
Dries - 2019-06-11 12:51:31 - Dries - X5085
Frédéric Pirson - 2019-06-11 09:19:51 - Pirson - F1137
Frédéric Pirson - 2019-06-11 09:18:51 - Pirson - C2899
Mevr. Vanderostyne - 2019-06-08 16:16:10 - Vanderostyne Els - E4480-001
Mevr. Vanderostyne - 2019-06-08 16:13:01 - Vanderostyne Els - X2167-001
Pierre-Louis - 2019-06-08 16:00:32 - Pierre-Louis - X5085
Moens Tongeren - 2019-06-08 13:59:55 - Moens Tongeren - V1290
Moens Tongeren - 2019-06-08 13:56:06 - Moens Tongeren - V1290
Alain Van Vlierden - 2019-06-08 11:08:53 - Van Vlierden - T9163-006
Marc Bosmans - 2019-06-08 11:06:25 - Marc Bosmans - C5919-006
Alain Van Vlierden - 2019-06-08 11:04:34 - Van Vlierden - C9163-007
Marc Bosmans - 2019-06-08 11:01:10 - Marc Bosmans - C5919-006
Marie-Christine Hermans - 2019-06-08 10:30:34 - Juwelen Marie-Christine - C231B04G
Marie-Christine Hermans - 2019-06-08 10:28:28 - Juwelen Marie-Christine - C231B05G
Laurent Vanstechelman - 2019-06-07 16:50:43 - Tempo d Oro - V5047
Laurent Vanstechelman - 2019-06-07 16:48:43 - Tempo d Oro - C5061
Marc Bosmans - 2019-06-07 13:58:53 - Marc Bosmans - P295A24G
Marc Bosmans - 2019-06-07 13:52:48 - Marc Bosmans - P295A23G
Bosmans Halle - 2019-06-07 13:40:30 - Bosmans Halle - C536B00G
Support WP Experts - 2019-06-07 12:23:17 - support.wpexperts - 433B01
Sofie - 2019-06-07 11:05:37 - Jema Design - C5919-007
Sofie - 2019-06-07 10:58:14 - Jema Design - C5919-006
Sandra Van Sweeveldt - 2019-06-06 14:03:11 - sandra - P291A19G
Marc Bosmans - 2019-06-06 10:05:55 - Marc Bosmans - P501B00G
Dries - 2019-06-05 16:38:32 - Dries - T5082
Dries - 2019-06-05 16:37:13 - Dries - C5066
Moens - 2019-06-05 15:59:31 - Moens - M312B01G
Sandra Van Sweeveldt - 2019-06-05 14:45:41 - sandra - C3953
Anneleen Eyckmans - 2019-06-05 11:54:01 - Anneleen Eyckmans - U5504-001
Anneleen Eyckmans - 2019-06-05 11:51:26 - Anneleen Eyckmans - V4536
Celine Vanstechelman - 2019-06-05 10:20:24 - Eye-C - C4172
Celine Vanstechelman - 2019-06-05 10:19:22 - Eye-C - V7008-003
Sven Lombaerts - 2019-06-05 08:56:44 - Van Laer - T489B02G
jan Van Brusselen - 2019-06-04 14:39:33 - Perles d Amour - M312B02
Buntinx - 2019-06-04 10:05:21 - Buntinx - C9045-003
Buntinx - 2019-06-04 10:02:33 - Buntinx - C9045-004
Marc Bosmans - 2019-06-03 10:49:40 - Marc Bosmans - C4197
Marc Bosmans - 2019-06-03 10:48:07 - Marc Bosmans - P501B00G
Amelie Berard - 2019-06-01 13:39:12 - Pronuptia - V4212
Amelie Berard - 2019-06-01 13:36:30 - Pronuptia - P293A22G
Marc Bosmans - 2019-06-01 11:24:54 - Marc Bosmans - V1722
Anne De Peuter - 2019-06-01 11:13:38 - Goethals - X4782
Anne De Peuter - 2019-06-01 11:06:36 - Goethals - C4790
Amelie Berard - 2019-06-01 10:20:38 - Pronuptia - X3778-001
Amelie Berard - 2019-06-01 10:14:47 - Pronuptia - C3953
Marc Bosmans - 2019-06-01 09:33:50 - Marc Bosmans - C4557-001
Marc Bosmans - 2019-06-01 09:29:08 - Marc Bosmans - A3028-001
Marie-Christine Hermans - 2019-06-01 09:23:26 - Juwelen Marie-Christine - U4510
Nadia Souverijns - 2019-05-31 11:39:40 - Tibax - C5636-001
Nadia Souverijns - 2019-05-31 11:15:58 - Tibax - C5636
Marie-Christine Hermans - 2019-05-30 16:15:26 - Juwelen Marie-Christine - X2167-001
N. Baurens - 2019-05-29 16:35:24 - Baurens - F9021-001
N. Baurens - 2019-05-29 16:33:23 - Baurens - C9021
Anne De Peuter - 2019-05-29 16:04:54 - Goethals - C546B01G
Bart Bourgois - 2019-05-28 13:26:33 - Bourgois - P292A20G
Jan Jacob - 2019-05-28 09:06:49 - Jacob - X3634
Sandra Van Sweeveldt - 2019-05-28 08:04:56 - sandra - C5066
Sandra Van Sweeveldt - 2019-05-28 08:04:06 - sandra - C5066
Sandra Van Sweeveldt - 2019-05-27 11:29:52 - sandra - P560A08G
Sandra Van Sweeveldt - 2019-05-27 11:29:14 - sandra - P560A08G
Sandra Van Sweeveldt - 2019-05-27 09:33:00 - sandra - T509B02G
Dhr. Richard - 2019-05-27 09:17:37 - Richard - P560A09G
Dhr. Richard - 2019-05-27 09:14:48 - Richard - P560A08G
Sarah Roelandt - 2019-05-26 10:20:10 - Roelandt Sarah - P292A18G
Anne De Peuter - 2019-05-25 17:17:59 - Goethals - V4206
De Greeve - 2019-05-25 15:25:23 - De Greeve - C5074
Mik & Veronique Vander Avort - 2019-05-25 14:36:47 - Vander Avort - C9052
Mik & Veronique Vander Avort - 2019-05-25 14:36:08 - Vander Avort - C9052
Vanhoutteghem - 2019-05-25 14:03:29 - Van Houtteghem - P3746
Anne De Peuter - 2019-05-25 12:41:30 - Goethals - P4789
Anne De Peuter - 2019-05-25 12:37:48 - Goethals - C4785-006
Amelie Berard - 2019-05-25 11:32:12 - Pronuptia - P291A20G
Amelie Berard - 2019-05-25 11:29:07 - Pronuptia - P291A20G
Amelie Berard - 2019-05-25 11:26:17 - Pronuptia - P293A16G
Marc Bosmans - 2019-05-25 10:34:46 - Marc Bosmans - C513B01G
Marc Bosmans - 2019-05-25 10:23:29 - Marc Bosmans - X3692
Alain Van Vlierden - 2019-05-25 09:32:36 - Van Vlierden - V4202
Evy Uyttenhove - 2019-05-24 19:40:43 - Evy d Or - X4782
Lepla - Dries - 2019-05-24 15:42:07 - Lepla - Dries - 553B00
Lepla - Dries - 2019-05-24 15:39:46 - Lepla - Dries - 553B01
Frédéric Pirson - 2019-05-24 11:56:53 - Pirson - T479B01G
Frédéric Pirson - 2019-05-24 11:54:02 - Pirson - V4202
Marc Bosmans - 2019-05-24 11:23:08 - Marc Bosmans - C5919-006
Marc Bosmans - 2019-05-24 11:18:29 - Marc Bosmans - 387A05
Anne De Peuter - 2019-05-23 16:59:08 - Goethals - X3778-001
Team De Wilde - 2019-05-23 13:21:03 - De Wilde - C187B00G
Team De Wilde - 2019-05-23 13:13:28 - De Wilde - C187B01G
Buntinx - 2019-05-23 13:03:20 - Buntinx - C9054-002
Bosmans Halle - 2019-05-23 10:45:34 - Bosmans Halle - A3028-001
Bosmans Halle - 2019-05-23 10:40:24 - Bosmans Halle - V4206
Kurt De Block - 2019-05-23 09:43:08 - Kortrijkse Goudcentrale - C784A04G
Dries - 2019-05-23 08:33:16 - Dries - C5071
Dries - 2019-05-23 08:31:37 - Dries - F5086
N. Baurens - 2019-05-22 15:43:44 - Baurens - F4786
N. Baurens - 2019-05-22 15:41:58 - Baurens - C4791
Stephan Siemon - 2019-05-22 15:07:27 - Top Watch - F4130
Stephan Siemon - 2019-05-22 15:05:40 - Top Watch - C4148
Stephan Siemon - 2019-05-22 15:02:08 - Top Watch - F3731
Dries - 2019-05-22 15:01:31 - Dries - B9056-002
Stephan Siemon - 2019-05-22 15:00:31 - Top Watch - C3732
Dries - 2019-05-22 14:58:43 - Dries - B9056-003
Marc Bosmans - 2019-05-22 12:34:30 - Marc Bosmans - C5919-006
Marc Bosmans - 2019-05-22 12:27:12 - Marc Bosmans - C5919-007
Lepla - Dries - 2019-05-22 10:52:14 - Lepla - Dries - C538B00G
Lepla - Dries - 2019-05-22 10:49:09 - Lepla - Dries - C538B01G
Anne De Peuter - 2019-05-22 09:39:07 - Goethals - E2829
Moens - 2019-05-21 16:15:49 - Moens - M306B00G
Anne De Peuter - 2019-05-21 16:12:49 - Goethals - V4202
Sofie - 2019-05-21 15:56:54 - Jema Design - P4789
Sofie - 2019-05-21 15:50:04 - Jema Design - F4785
Evelyne Coppens - 2019-05-21 13:57:20 - Paul - V4206
Evelyne Coppens - 2019-05-21 13:56:18 - Paul - C9021
Sandra Van Sweeveldt - 2019-05-21 11:34:39 - sandra - P3746
Sandra Van Sweeveldt - 2019-05-21 11:21:44 - sandra - C518B00G
Sandra Van Sweeveldt - 2019-05-21 11:20:55 - sandra - C784A06G
Sandra Van Sweeveldt - 2019-05-21 09:52:46 - sandra - V4202
Sandra Van Sweeveldt - 2019-05-21 09:51:50 - sandra - V4202
Davman - 2019-05-18 18:01:10 - Davman - P292A20G
Celine Vanstechelman - 2019-05-18 17:02:44 - Eye-C - P7012-007
Celine Vanstechelman - 2019-05-18 17:01:13 - Eye-C - V7012-003
Anneleen Eyckmans - 2019-05-18 16:22:30 - Anneleen Eyckmans - U4510
Alain Van Vlierden - 2019-05-18 15:48:48 - Van Vlierden - 422B01
Alain Van Vlierden - 2019-05-18 15:44:14 - Van Vlierden - 422B00
De Greeve - 2019-05-18 15:04:49 - De Greeve - V5049
De Greeve - 2019-05-18 15:04:18 - De Greeve - C5068
Evelyne Coppens - 2019-05-18 14:01:54 - Paul - C4224
Evelyne Coppens - 2019-05-18 14:00:11 - Paul - C4223
Marc Bosmans - 2019-05-18 13:49:46 - Marc Bosmans - P499B00G
Marc Bosmans - 2019-05-18 13:43:53 - Marc Bosmans - C499B01G
Davman - 2019-05-18 13:27:14 - Davman - P295A22G
Bosmans Halle - 2019-05-18 09:57:53 - Bosmans Halle - P484B00G
Bosmans Halle - 2019-05-18 09:52:58 - Bosmans Halle - C543B01G
Buntinx - 2019-05-17 16:21:21 - Buntinx - C503B00G
Buntinx - 2019-05-17 16:20:03 - Buntinx - C503B02G
Anneleen Eyckmans - 2019-05-16 15:46:09 - Anneleen Eyckmans - B4988-001
Bosmans Halle - 2019-05-13 11:47:09 - Bosmans Halle - P501B00G
Frédéric Pirson - 2019-05-12 19:41:04 - Pirson - C9045-004
Frédéric Pirson - 2019-05-12 19:37:56 - Pirson - C9045-003
Frédéric Pirson - 2019-05-12 19:34:41 - Pirson - P292A19G
Frédéric Pirson - 2019-05-12 19:32:03 - Pirson - P291A18G
De Greeve - 2019-05-11 17:59:52 - De Greeve - C4338
De Greeve - 2019-05-11 17:58:52 - De Greeve - C3658
Evelyne Coppens - 2019-05-11 16:51:28 - Paul - C4338
Paul Soens - 2019-05-11 14:36:02 - Juwelen Soens - V1289
De Greeve - 2019-05-11 12:46:32 - De Greeve - X4782
Esthel Rams - 2019-05-11 12:31:37 - Juwelen Rams - X4514
Esthel Rams - 2019-05-11 12:29:21 - Juwelen Rams - X4514
Heidi Stroeckx - 2019-05-11 10:46:57 - heidistroeckx - M307B01G
Sandra Van Sweeveldt - 2019-05-10 13:38:31 - sandra - B4980-001
Sandra Van Sweeveldt - 2019-05-10 13:36:14 - sandra - V7005-002
Sandra Van Sweeveldt - 2019-05-10 12:13:04 - sandra - P560A07G
Sandra Van Sweeveldt - 2019-05-10 12:11:50 - sandra - P501B00G
Sandra Van Sweeveldt - 2019-05-10 12:10:50 - sandra - P501B00G
Sandra Van Sweeveldt - 2019-05-10 11:34:00 - sandra - P501B00G
Sandra Van Sweeveldt - 2019-05-10 11:32:18 - sandra - V4138-003
Evelyne Coppens - 2019-05-10 09:27:21 - Paul - V4138-003
Sandra Van Sweeveldt - 2019-05-09 15:25:24 - sandra - P501B00G
Christine & Marjolein - 2019-05-09 15:11:48 - Yolande - B5052
Sandra Van Sweeveldt - 2019-05-09 11:41:06 - sandra - P560A07G
Schotte - 2019-05-09 10:53:37 - Schotte - P560A07G
Schotte - 2019-05-09 10:49:52 - Schotte - P560A09G
Tim & Sandra Hendrickx - 2019-05-09 10:15:46 - Hendrickx - P501B00G
Sarah Roelandt - 2019-05-08 16:55:03 - Roelandt Sarah - P293A17G
Sarah Roelandt - 2019-05-08 16:46:20 - Roelandt Sarah - P292A18G
Dries - 2019-05-08 16:42:59 - Dries - F5086
Dries - 2019-05-08 16:41:10 - Dries - C5071
Sandra Van Sweeveldt - 2019-05-08 14:11:49 - sandra - P501B00G
Annik De Mey - 2019-05-08 13:09:09 - Annik De Mey - P501B00G
Annik De Mey - 2019-05-08 13:07:11 - Annik De Mey - P501B00G
Bosmans Halle - 2019-05-07 15:52:56 - Bosmans Halle - P501B00G
Celine Vanstechelman - 2019-05-07 13:10:22 - Eye-C - C4172
Celine Vanstechelman - 2019-05-07 13:09:21 - Eye-C - X3962
Sandra Van Sweeveldt - 2019-05-07 10:45:07 - sandra - 553B00
Sandra Van Sweeveldt - 2019-05-07 10:44:45 - sandra - 553B00
Sandra Van Sweeveldt - 2019-05-07 10:37:20 - sandra - V3802
Sandra Van Sweeveldt - 2019-05-07 10:34:54 - sandra - 9045-004
Sandra Van Sweeveldt - 2019-05-06 15:12:20 - sandra - F3738
Ilse Vercammen - 2019-05-06 10:18:27 - Ilse Vercammen - B4980-001
Ilse Vercammen - 2019-05-06 10:13:37 - Ilse Vercammen - V7005-002
Frederik Bongaerts - 2019-05-04 17:03:50 - Bongaerts - X3778-001
Tim & Sandra Hendrickx - 2019-05-04 12:15:15 - Hendrickx - V7006-003
Marc Bosmans - 2019-05-04 10:43:07 - Marc Bosmans - F3738
Marc Bosmans - 2019-05-04 10:35:36 - Marc Bosmans - P560A09G
Vanhoutteghem - 2019-05-03 15:20:18 - Van Houtteghem - F4130
Katrien en Hildegarde Huysman - 2019-05-03 10:26:59 - Huysman - X2167-001
Katrien en Hildegarde Huysman - 2019-05-03 10:25:55 - Huysman - P406A001
Celine Vanstechelman - 2019-05-03 08:44:59 - Eye-C - V7008-003
Celine Vanstechelman - 2019-05-03 08:36:01 - Eye-C - C7008-007
Evy Uyttenhove - 2019-05-02 15:38:23 - Evy d Or - V4206
Martine Peeters - 2019-05-02 15:34:02 - KD Peeters - P496B00G
De Greeve - 2019-05-02 13:57:03 - De Greeve - X3774
Frédéric Pirson - 2019-05-02 08:37:00 - Pirson - P292A19G
Frédéric Pirson - 2019-05-02 08:29:23 - Pirson - P292A19G
Frédéric Pirson - 2019-05-02 08:27:08 - Pirson - P292A19G
Sofie - 2019-05-01 07:13:31 - Jema Design - M306B00G
Sofie - 2019-05-01 07:10:49 - Jema Design - M306B01G
Anne De Peuter - 2019-04-30 19:33:32 - Goethals - C479B00G
Anne De Peuter - 2019-04-30 19:33:32 - Goethals - C479B00G
Anne De Peuter - 2019-04-30 19:28:29 - Goethals - V4202
Anne De Peuter - 2019-04-30 17:37:17 - Goethals - V4202
Anne De Peuter - 2019-04-30 17:02:08 - Goethals - C3755
Anne De Peuter - 2019-04-30 16:55:33 - Goethals - C3760
Sandra Van Sweeveldt - 2019-04-30 14:30:08 - sandra - T476B02G
Sandra Van Sweeveldt - 2019-04-30 14:29:20 - sandra - P476B00G
Sandra Van Sweeveldt - 2019-04-30 14:27:56 - sandra - M387A02G
Sandra Van Sweeveldt - 2019-04-30 12:48:27 - sandra - P292A21G
Sandra Van Sweeveldt - 2019-04-30 12:46:50 - sandra - P295A24G
Dries - 2019-04-30 08:55:58 - Dries - M313B01G
Dries - 2019-04-30 08:50:11 - Dries - V5050
Sandra Van Sweeveldt - 2019-04-29 13:37:29 - sandra - P292A20G
Sandra Van Sweeveldt - 2019-04-29 13:36:14 - sandra - P292A21G
Sandra Van Sweeveldt - 2019-04-29 13:34:03 - sandra - C4163
Frédéric Pirson - 2019-04-29 13:26:37 - Pirson - P292A20G
Frédéric Pirson - 2019-04-29 13:24:40 - Pirson - C4163
Frédéric Pirson - 2019-04-29 13:22:08 - Pirson - P292A21G
Frédéric Pirson - 2019-04-29 13:20:05 - Pirson - P291A18G
Frédéric Pirson - 2019-04-29 13:17:42 - Pirson - P292A19G
Sandra Van Sweeveldt - 2019-04-29 12:54:01 - sandra - P476B00G
Sandra Van Sweeveldt - 2019-04-29 11:15:23 - sandra - V7014-003
Sandra Van Sweeveldt - 2019-04-29 09:56:34 - sandra - X3745
Sandra Van Sweeveldt - 2019-04-29 09:16:13 - sandra - U1678
Frédéric Pirson - 2019-04-28 13:57:35 - Pirson - P292A20G
Frédéric Pirson - 2019-04-28 13:54:32 - Pirson - C4163
Frédéric Pirson - 2019-04-28 13:50:53 - Pirson - P292A19G
Frédéric Pirson - 2019-04-28 13:49:14 - Pirson - P291A18G
Frédéric Pirson - 2019-04-28 13:46:00 - Pirson - P292A21G
Anne De Peuter - 2019-04-27 16:26:37 - Goethals - P3964
Anne De Peuter - 2019-04-27 16:21:46 - Goethals - X3745
Stephan Siemon - 2019-04-27 15:23:29 - Top Watch - C5113
Stephan Siemon - 2019-04-27 15:19:00 - Top Watch - C5112
Stephan Siemon - 2019-04-27 15:15:33 - Top Watch - F3731
Stephan Siemon - 2019-04-27 15:12:11 - Top Watch - F3731
Bosmans Halle - 2019-04-27 13:35:22 - Bosmans Halle - P476B00G
De Greeve - 2019-04-27 12:36:57 - De Greeve - 553B00
De Greeve - 2019-04-27 11:26:47 - De Greeve - X3745
Bijouterie Claire - 2019-04-27 10:18:29 - Bijouterie Claire - M387A02G
Bosmans Halle - 2019-04-27 10:11:59 - Bosmans Halle - V7014-003
Sandra Van Sweeveldt - 2019-04-25 15:46:02 - sandra - V3802
Sandra Van Sweeveldt - 2019-04-25 15:44:24 - sandra - 9045-004
Anne De Peuter - 2019-04-25 14:03:53 - Goethals - V3802
Anne De Peuter - 2019-04-25 13:59:06 - Goethals - 9045-004
Vicky Coens - 2019-04-24 15:18:12 - Coens Brugge - C4338
Moens Tongeren - 2019-04-24 13:20:34 - Moens Tongeren - M307B00G
Moens Tongeren - 2019-04-24 13:18:40 - Moens Tongeren - M307B00G
Schotte - 2019-04-24 09:56:33 - Schotte - C4338
Schotte - 2019-04-24 09:54:44 - Schotte - C9045-004
Pierre-Louis - 2019-04-24 08:52:01 - Pierre-Louis - V5080
Fabienne Yannick - 2019-04-23 09:14:03 - Juwelen Yannick 2 - X2167-001
Fabienne Yannick - 2019-04-23 09:12:13 - Juwelen Yannick 2 - X2167-001
Bosmans Halle - 2019-04-20 16:12:40 - Bosmans Halle - C503B00G
Bosmans Halle - 2019-04-20 16:07:31 - Bosmans Halle - C240B05G
Marc Bosmans - 2019-04-20 14:37:00 - Marc Bosmans - P292A24G
Marc Bosmans - 2019-04-20 14:34:10 - Marc Bosmans - M308B01G
Marc Bosmans - 2019-04-20 13:44:59 - Marc Bosmans - M308B01G
Evi Vandeweyer - 2019-04-20 08:33:56 - Vandeweyer - C5063
Evi Vandeweyer - 2019-04-20 08:32:59 - Vandeweyer - C5081
Schotte - 2019-04-19 15:31:12 - Schotte - P560A09G
Schotte - 2019-04-19 15:28:17 - Schotte - P560A07G
Kurt De Block - 2019-04-18 18:10:58 - Kortrijkse Goudcentrale - X4198
Vanhoutteghem - 2019-04-18 08:47:37 - Van Houtteghem - X5085
Esthel Rams - 2019-04-17 16:59:13 - Juwelen Rams - T9163-006
Esthel Rams - 2019-04-17 16:58:00 - Juwelen Rams - C9163-007
Christiaan Picard - 2019-04-17 16:40:10 - Christiaan Picard - C9055-006
Christiaan Picard - 2019-04-17 16:38:13 - Christiaan Picard - C9055-007
Sven Lombaerts - 2019-04-16 14:29:17 - Van Laer - T3796
Sven Lombaerts - 2019-04-16 14:27:46 - Van Laer - 553B01
Buntinx - 2019-04-16 13:20:12 - Buntinx - C5925-004
Buntinx - 2019-04-16 13:14:10 - Buntinx - C5925-004
Buntinx - 2019-04-16 13:13:11 - Buntinx - C5925-005
Buntinx - 2019-04-16 13:10:33 - Buntinx - C5925-004
Buntinx - 2019-04-16 13:08:40 - Buntinx - C5925-004
Dhr/Mevr - 2019-04-16 11:05:30 - Dekock - C3777-001
Sandra Van Sweeveldt - 2019-04-16 10:59:46 - sandra - F4995
Sandra Van Sweeveldt - 2019-04-16 10:58:36 - sandra - F5169
Anne De Peuter - 2019-04-16 10:30:32 - Goethals - V7003-002
Anne De Peuter - 2019-04-16 10:28:05 - Goethals - C2928
Sandra Van Sweeveldt - 2019-04-16 09:47:39 - sandra - C2859-005
Sandra Van Sweeveldt - 2019-04-16 09:46:38 - sandra - C2859-004
Thomas De Graeve - 2019-04-16 09:21:16 - De Baere - V7013-002
Thomas De Graeve - 2019-04-16 09:19:54 - De Baere - P7013-007
Dries - 2019-04-16 08:46:42 - Dries - F5086
Marc Bosmans - 2019-04-15 14:14:57 - Marc Bosmans - X3692
Sarah Roelandt - 2019-04-14 16:36:23 - Roelandt Sarah - T496B02G
Eversen - 2019-04-13 15:46:32 - Eversen - C515B00G
Eversen - 2019-04-13 15:44:12 - Eversen - C515B01G
Juwelen Coppens - 2019-04-13 14:39:45 - Juwelen Coppens - 411B01
Juwelen Coppens - 2019-04-13 14:36:44 - Juwelen Coppens - 411B00
Evelyne Coppens - 2019-04-13 14:32:58 - Paul - U4509
Evelyne Coppens - 2019-04-13 14:29:35 - Paul - B4980-001 ROSE
Laurent Vanstechelman - 2019-04-13 13:50:37 - Tempo d Oro - C4338
Laurent Vanstechelman - 2019-04-13 13:49:04 - Tempo d Oro - P3746
Anneleen Eyckmans - 2019-04-13 12:19:33 - Anneleen Eyckmans - V4537
Christine & Marjolein - 2019-04-12 15:39:51 - Yolande - C3953
Anneleen Eyckmans - 2019-04-12 15:25:30 - Anneleen Eyckmans - U4508
Dhr/Mevr - 2019-04-12 13:42:06 - Dekock - C160B00G
Dhr/Mevr - 2019-04-12 13:38:04 - Dekock - V5147
Dhr/Mevr - 2019-04-10 16:35:13 - Dekock - X3962
Sandra Van Sweeveldt - 2019-04-10 15:15:49 - sandra - F5169
Sandra Van Sweeveldt - 2019-04-10 15:14:28 - sandra - A2578
Sandra Van Sweeveldt - 2019-04-10 15:13:28 - sandra - A3339
Eric De Waele - 2019-04-09 15:40:58 - De Waele - F5086
Eric De Waele - 2019-04-09 15:40:21 - De Waele - C5061
Eric De Waele - 2019-04-09 15:39:47 - De Waele - V5047
Bosmans Halle - 2019-04-09 14:35:11 - Bosmans Halle - M514B00G
Schotte - 2019-04-09 13:46:16 - Schotte - B9056-002
Roger Borremans - 2019-04-09 13:30:21 - La coquille d Or - F4130
Roger Borremans - 2019-04-09 13:26:56 - La coquille d Or - C4148
Sandra Van Sweeveldt - 2019-04-09 11:47:44 - sandra - C4148
Roger Borremans - 2019-04-08 16:04:37 - La coquille d Or - C4148
Ilse Vercammen - 2019-04-08 11:32:44 - Ilse Vercammen - 207B00
Evy Uyttenhove - 2019-04-06 16:35:46 - Evy d Or - X3634
Evy Uyttenhove - 2019-04-06 16:34:03 - Evy d Or - X4782
Evelyne Coppens - 2019-04-06 15:49:25 - Paul - P182B00G
Stephan Siemon - 2019-04-06 14:17:43 - Top Watch - U1485
Paul Soens - 2019-04-06 12:46:34 - Juwelen Soens - P478B00G
Bosmans Halle - 2019-04-06 12:09:26 - Bosmans Halle - C240B04G
Alain Van Vlierden - 2019-04-05 15:41:51 - Van Vlierden - C3953
Alain Van Vlierden - 2019-04-05 15:38:12 - Van Vlierden - U1678
Alain Van Vlierden - 2019-04-04 09:56:41 - Van Vlierden - C503B00G
Alain Van Vlierden - 2019-04-04 09:51:24 - Van Vlierden - C3963
Evelyne Coppens - 2019-04-03 13:05:43 - Paul - V4206
Evelyne Coppens - 2019-04-03 13:04:08 - Paul - V4206
Evelyne Coppens - 2019-04-03 11:14:23 - Paul - C4338
Evelyne Coppens - 2019-04-03 11:12:03 - Paul - C4338
Katrien en Hildegarde Huysman - 2019-04-02 15:58:45 - Huysman - X2167-001
De Greeve - 2019-04-02 15:50:34 - De Greeve - X4782
Annik De Mey - 2019-04-02 08:48:29 - Annik De Mey - C5075
Annik De Mey - 2019-04-02 08:47:48 - Annik De Mey - V5048
De Tandt bvba - 2019-04-02 08:30:05 - De Tandt bvba - C5925-006
De Tandt bvba - 2019-04-02 08:24:58 - De Tandt bvba - C5925-007
Frédéric Pirson - 2019-04-01 11:51:23 - Pirson - F3738
Frédéric Pirson - 2019-04-01 11:49:41 - Pirson - P4559
Frédéric Pirson - 2019-04-01 11:47:08 - Pirson - P294A00G
Marc Drexeler - 2019-04-01 11:25:35 - Drexeler - C4385
Marc Drexeler - 2019-04-01 11:24:22 - Drexeler - C4384
Sarah Roelandt - 2019-04-01 11:17:25 - Roelandt Sarah - P491B00G
Sandra Van Sweeveldt - 2019-04-01 09:08:47 - sandra - V4683
Sandra Van Sweeveldt - 2019-04-01 09:06:56 - sandra - P318A03G
De Greeve - 2019-03-30 16:25:23 - De Greeve - P292A20G
Sandra Van Sweeveldt - 2019-03-29 13:24:05 - sandra - U4686
Sofie - 2019-03-29 10:09:08 - Jema Design - X5501-001
Sofie - 2019-03-29 10:09:07 - Jema Design - X5501-001
Stephan Siemon - 2019-03-28 15:37:04 - Top Watch - C4338
Stephan Siemon - 2019-03-28 15:34:39 - Top Watch - C3658
Stephan Siemon - 2019-03-28 15:32:31 - Top Watch - F3731
Stephan Siemon - 2019-03-28 15:30:58 - Top Watch - C3732
Sandra Van Sweeveldt - 2019-03-28 12:30:23 - sandra - P291A21G
Sandra Van Sweeveldt - 2019-03-28 12:28:01 - sandra - P291A20G
Martine Oversteyns - 2019-03-27 16:19:52 - Oversteyns Martine - V4202
Martine Oversteyns - 2019-03-27 16:19:01 - Oversteyns Martine - V4202
Marc Bosmans - 2019-03-27 15:33:29 - Marc Bosmans - P295A23G
Sandra Van Sweeveldt - 2019-03-27 14:23:42 - sandra - C4811
Sandra Van Sweeveldt - 2019-03-27 14:23:26 - sandra - C4810
Sandra Van Sweeveldt - 2019-03-27 14:23:03 - sandra - C4809
Buntinx - 2019-03-27 10:29:12 - Buntinx - V7004-002
Marie-Christine Hermans - 2019-03-26 17:40:24 - Juwelen Marie-Christine - C4148
Marie-Christine Hermans - 2019-03-26 17:35:25 - Juwelen Marie-Christine - F4130
Sandra Van Sweeveldt - 2019-03-26 10:27:22 - sandra - T476B01G
Sandra Van Sweeveldt - 2019-03-26 10:26:08 - sandra - P476B00G
Peeters-Engelen - 2019-03-25 15:38:05 - Peeters-Engelen - P408A001
Peeters-Engelen - 2019-03-25 15:36:02 - Peeters-Engelen - 411B01
Peeters-Engelen - 2019-03-25 15:32:45 - Peeters-Engelen - P292A20G
Evelyne Coppens - 2019-03-23 16:31:32 - Paul - T3796
Bart Bourgois - 2019-03-23 16:23:27 - Bourgois - P238A12G
Team De Wilde - 2019-03-23 15:19:33 - De Wilde - B4988-001
Evelyne Coppens - 2019-03-23 14:42:02 - Paul - C515B01G
Laurent Vanstechelman - 2019-03-23 11:20:07 - Tempo d Oro - C487B00G
Davman - 2019-03-22 18:34:29 - Davman - P295A24G
Verena - 2019-03-22 17:40:35 - Verena - P182B00G
Davman - 2019-03-22 17:28:51 - Davman - P295A23G
Mevr. Vanderostyne - 2019-03-22 16:48:44 - Vanderostyne Els - X2167-001
Mevr. Vanderostyne - 2019-03-22 16:21:41 - Vanderostyne Els - X2167-001
Mevr. Vanderostyne - 2019-03-22 16:21:41 - Vanderostyne Els - X2167-001
Marc Bosmans - 2019-03-21 14:42:38 - Marc Bosmans - P291A20G
Bosmans Halle - 2019-03-21 10:10:37 - Bosmans Halle - C489B00G
Bosmans Halle - 2019-03-21 10:09:09 - Bosmans Halle - T489B02G
Bosmans Halle - 2019-03-21 10:04:19 - Bosmans Halle - V7014-003
Juwelier - uurwerkmaker Devick Francis - 2019-03-20 17:12:11 - Juwelier - uurwerkmaker Devick Francis - X5085
Jan Jacob - 2019-03-20 17:08:58 - Jacob - C3953
Evelyne Coppens - 2019-03-19 14:08:01 - Paul - C784A04G
Marc Bosmans - 2019-03-19 13:53:03 - Marc Bosmans - P501B00G
Marc Bosmans - 2019-03-19 11:08:58 - Marc Bosmans - C491B01G
Sandra Van Sweeveldt - 2019-03-19 10:52:11 - sandra - X2167-001
Sandra Van Sweeveldt - 2019-03-19 10:51:57 - sandra - X2167-001
Sandra Van Sweeveldt - 2019-03-19 10:51:40 - sandra - X2167-001
Sandra Van Sweeveldt - 2019-03-19 10:51:24 - sandra - X2167-001
Sandra Van Sweeveldt - 2019-03-19 10:51:04 - sandra - X2167-001
Sandra Van Sweeveldt - 2019-03-19 10:50:44 - sandra - X2167-001
Sandra Van Sweeveldt - 2019-03-19 09:50:57 - sandra - P295A18G
Sandra Van Sweeveldt - 2019-03-19 09:49:56 - sandra - P295A18G
Marc Bosmans - 2019-03-18 17:02:39 - Marc Bosmans - F5003
Marc Bosmans - 2019-03-18 14:03:05 - Marc Bosmans - F5169
Marc Bosmans - 2019-03-18 14:00:41 - Marc Bosmans - F4995
Sandra Van Sweeveldt - 2019-03-18 13:58:28 - sandra - 411B01
Frederik Bongaerts - 2019-03-18 10:43:38 - Bongaerts - F4785-005
jan Van Brusselen - 2019-03-17 20:47:10 - Perles d Amour - H1377
Frederik Bongaerts - 2019-03-17 16:49:56 - Bongaerts - V5171
Frederik Bongaerts - 2019-03-17 16:48:22 - Bongaerts - F5003
Frederik Bongaerts - 2019-03-17 16:25:30 - Bongaerts - F4785-005
Frederik Bongaerts - 2019-03-17 16:14:51 - Bongaerts - 553B01
Frederik Bongaerts - 2019-03-16 17:47:13 - Bongaerts - P292A19G
Frederik Bongaerts - 2019-03-16 17:43:13 - Bongaerts - P292A20G
De Greeve - 2019-03-16 15:22:07 - De Greeve - C5075
Marie Paul & Christine Reyntjens - 2019-03-16 12:42:18 - Reyntjens - U5504-003
Ingrid Aertssens - 2019-03-15 22:09:27 - Ingrid Aertssens - V5080
Evelyne Coppens - 2019-03-15 17:58:57 - Paul - P293A21G
Evelyne Coppens - 2019-03-15 17:56:35 - Paul - P292A21G
Amelie Berard - 2019-03-15 17:30:39 - Pronuptia - 466B00
Amelie Berard - 2019-03-15 17:25:07 - Pronuptia - P293A16G
Christine & Marjolein - 2019-03-15 16:01:00 - Yolande - V5050
Christine & Marjolein - 2019-03-15 16:00:03 - Yolande - C5065
Evelyne Coppens - 2019-03-15 13:17:53 - Paul - M306B00G
Amelie Berard - 2019-03-15 12:39:41 - Pronuptia - C822A03G
Roger Borremans - 2019-03-15 12:35:00 - La coquille d Or - C3953
Sandra Van Sweeveldt - 2019-03-15 11:22:01 - sandra - M312B00G
Nadia Souverijns - 2019-03-15 11:00:36 - Tibax - M387A02G
Evelyne Coppens - 2019-03-14 18:06:42 - Paul - M312B00G
Evelyne Coppens - 2019-03-14 18:05:45 - Paul - M312B02
Catherine Abeele - 2019-03-14 17:53:43 - Abeele - F4130
Catherine Abeele - 2019-03-14 17:52:14 - Abeele - C4148
Frederik Bongaerts - 2019-03-14 12:26:50 - Bongaerts - X3634
Sandra Van Sweeveldt - 2019-03-14 10:34:46 - sandra - V7006-003
Belle et Beau - 2019-03-13 17:13:35 - Belle et Beau - M305B01G
Belle et Beau - 2019-03-13 15:55:33 - Belle et Beau - M305B01G
Belle et Beau - 2019-03-13 15:51:38 - Belle et Beau - M305B00G
Bosmans Halle - 2019-03-13 14:42:20 - Bosmans Halle - M514B00G
Marc & Hilde Jehaes - 2019-03-13 14:03:19 - Jehaes - C2863
Marc & Hilde Jehaes - 2019-03-13 14:01:33 - Jehaes - C2864
N. Baurens - 2019-03-13 10:49:05 - Baurens - V7004-002
N. Baurens - 2019-03-13 10:42:40 - Baurens - C3658
N. Baurens - 2019-03-13 10:35:46 - Baurens - P238A07G
Sandra Van Sweeveldt - 2019-03-12 16:28:48 - sandra - M307B01G
Sandra Van Sweeveldt - 2019-03-12 16:26:59 - sandra - M307B00G
Sandra Van Sweeveldt - 2019-03-12 16:25:43 - sandra - M307B01G
Sandra Van Sweeveldt - 2019-03-12 16:24:46 - sandra - M307B00G
Sandra Van Sweeveldt - 2019-03-12 14:25:19 - sandra - T318A02G
Mik & Veronique Vander Avort - 2019-03-12 13:16:10 - Vander Avort - X3692
Mik & Veronique Vander Avort - 2019-03-12 13:16:05 - Vander Avort - X3692
Marc Bosmans - 2019-03-11 16:21:29 - Marc Bosmans - P294A12G
Marc Bosmans - 2019-03-11 16:19:19 - Marc Bosmans - P294A14G
Marc Bosmans - 2019-03-11 16:16:26 - Marc Bosmans - P484B00G
Sandra Van Sweeveldt - 2019-03-11 15:51:59 - sandra - P293A17G
Sandra Van Sweeveldt - 2019-03-11 15:25:52 - sandra - P293A17G
Sofie - 2019-03-10 09:38:45 - Jema Design - F4784
Sofie - 2019-03-10 09:37:27 - Jema Design - P4792
Peeters-Engelen - 2019-03-09 18:43:03 - Peeters-Engelen - C9052
Peeters-Engelen - 2019-03-09 18:41:45 - Peeters-Engelen - C9052-001
Team De Wilde - 2019-03-09 17:01:07 - De Wilde - C5919-006
Evelyne Coppens - 2019-03-09 15:39:23 - Paul - C4224
Anne De Peuter - 2019-03-09 13:33:27 - Goethals - X3634
Anne De Peuter - 2019-03-09 13:30:10 - Goethals - T504B02G
Anne De Peuter - 2019-03-09 12:54:37 - Goethals - V7003-002
Anne De Peuter - 2019-03-09 12:51:44 - Goethals - C2928
Paul Soens - 2019-03-09 09:47:18 - Juwelen Soens - T496B02G
Anne De Peuter - 2019-03-08 17:49:20 - Goethals - C479B00G
Anne De Peuter - 2019-03-08 17:46:53 - Goethals - C4338
Pierre-Louis - 2019-03-08 16:54:40 - Pierre-Louis - C9052
Pierre-Louis - 2019-03-08 16:52:42 - Pierre-Louis - C9052-001
Fabienne Yannick - 2019-03-08 14:20:20 - Juwelen Yannick 2 - X4782
Anne De Peuter - 2019-03-08 12:50:57 - Goethals - X3634
Jan Jacob - 2019-03-07 17:42:49 - Jacob - C3768
Jan Jacob - 2019-03-07 17:40:05 - Jacob - T4225
Anne De Peuter - 2019-03-07 17:15:00 - Goethals - F4784
Anne De Peuter - 2019-03-07 17:12:13 - Goethals - F4784
Christine & Marjolein - 2019-03-07 13:13:25 - Yolande - C5083
Sandra Van Sweeveldt - 2019-03-07 11:43:51 - sandra - P295A32G
N. Baurens - 2019-03-06 16:09:48 - Baurens - V1289
N. Baurens - 2019-03-06 16:07:01 - Baurens - C9021
Sandra Van Sweeveldt - 2019-03-05 11:12:01 - sandra - P292A20G
jan Van Brusselen - 2019-03-03 16:37:51 - Perles d Amour - F5105
jan Van Brusselen - 2019-03-03 16:35:19 - Perles d Amour - F5104
Verena - 2019-03-02 19:01:11 - Verena - C5925-004
Verena - 2019-03-02 18:59:27 - Verena - C5925-004
Anne De Peuter - 2019-03-02 17:06:19 - Goethals - V4206
Verena - 2019-03-02 16:26:43 - Verena - C503B00G
Bijouterie Claire - 2019-03-02 16:20:05 - Bijouterie Claire - C2886
Bijouterie Claire - 2019-03-02 16:18:07 - Bijouterie Claire - C3777-001
Team De Wilde - 2019-03-02 15:13:50 - De Wilde - U4980-002
Anne De Peuter - 2019-03-02 15:08:31 - Goethals - C231B04G
Anne De Peuter - 2019-03-02 15:05:24 - Goethals - C231B05G
Anne De Peuter - 2019-03-02 12:37:35 - Goethals - V4206
Anne De Peuter - 2019-03-02 12:34:55 - Goethals - 9045-004
Amelie Berard - 2019-03-02 12:02:56 - Pronuptia - P295A20G
Amelie Berard - 2019-03-02 11:56:51 - Pronuptia - P496B00G
Martine Peeters - 2019-03-01 17:59:23 - KD Peeters - T9163-018
Martine Peeters - 2019-03-01 17:50:13 - KD Peeters - T9163-018
Martine Peeters - 2019-03-01 17:46:46 - KD Peeters - T9163-018
Marc Bosmans - 2019-03-01 12:20:40 - Marc Bosmans - F3401
Marc Bosmans - 2019-03-01 12:09:01 - Marc Bosmans - F5102
Peeters-Engelen - 2019-02-28 18:16:20 - Peeters-Engelen - 411B00
Christine & Marjolein - 2019-02-27 12:54:32 - Yolande - C5078
Christine & Marjolein - 2019-02-27 12:53:33 - Yolande - B5059
N. Baurens - 2019-02-27 10:27:03 - Baurens - C9055-007
N. Baurens - 2019-02-27 10:24:42 - Baurens - T3797
N. Baurens - 2019-02-27 10:21:21 - Baurens - T3797
N. Baurens - 2019-02-27 10:17:36 - Baurens - C9055-007
Vanhoutteghem - 2019-02-27 09:36:36 - Van Houtteghem - X4782
Bosmans Halle - 2019-02-26 14:24:00 - Bosmans Halle - X4782
Ingrid Aertssens - 2019-02-25 17:36:27 - Ingrid Aertssens - E4997
Sandra Van Sweeveldt - 2019-02-25 13:34:53 - sandra - F9042
Sandra Van Sweeveldt - 2019-02-25 13:33:59 - sandra - F9042
Ilse Vercammen - 2019-02-25 10:56:34 - Ilse Vercammen - P484B00G
Evi Vandeweyer - 2019-02-24 18:32:33 - Vandeweyer - C3777-001
Evi Vandeweyer - 2019-02-24 18:31:43 - Vandeweyer - C5066
Kristina Cuvelier - 2019-02-24 17:07:16 - Cuvelier - C4166
Kristina Cuvelier - 2019-02-24 17:05:25 - Cuvelier - V4206
Sarah Roelandt - 2019-02-24 16:41:30 - Roelandt Sarah - C5636
Sarah Roelandt - 2019-02-24 16:40:55 - Roelandt Sarah - C5636-001
Christine & Marjolein - 2019-02-23 16:47:39 - Yolande - U4980-002
Christine & Marjolein - 2019-02-23 16:46:39 - Yolande - B4980
Thomas De Graeve - 2019-02-23 16:14:17 - De Baere - C5919-006
Bosmans Halle - 2019-02-23 16:05:27 - Bosmans Halle - C3953
Sarah Roelandt - 2019-02-23 16:01:09 - Roelandt Sarah - F4992
Ilse Vercammen - 2019-02-23 15:49:14 - Ilse Vercammen - V7005-002
Annick Gysemberg - 2019-02-23 15:45:19 - gysembergannick - M313B00G
Annick Gysemberg - 2019-02-23 15:41:53 - gysembergannick - M313B01G
Bosmans Halle - 2019-02-23 15:20:37 - Bosmans Halle - C231B04G
Bosmans Halle - 2019-02-23 15:11:10 - Bosmans Halle - 209B00
Bosmans Halle - 2019-02-23 15:06:38 - Bosmans Halle - 209B01
Bosmans Halle - 2019-02-23 14:39:15 - Bosmans Halle - V5053
Marie-Christine Hermans - 2019-02-23 14:19:41 - Juwelen Marie-Christine - M306B00G
Frédéric Pirson - 2019-02-23 14:11:04 - Pirson - P292A20G
Frédéric Pirson - 2019-02-23 14:09:05 - Pirson - P295A22G
Frédéric Pirson - 2019-02-23 14:05:56 - Pirson - P295A23G
Bosmans Halle - 2019-02-23 11:34:13 - Bosmans Halle - T7043-002
Bosmans Halle - 2019-02-23 11:31:37 - Bosmans Halle - T7043
Ilse Vercammen - 2019-02-23 11:21:55 - Ilse Vercammen - V7005-002
Ilse Vercammen - 2019-02-23 11:19:41 - Ilse Vercammen - C784A06G
Bosmans Halle - 2019-02-22 16:23:44 - Bosmans Halle - V7014-003
Evelyne Coppens - 2019-02-22 14:45:32 - Paul - V4138-003
Evelyne Coppens - 2019-02-22 14:43:55 - Paul - P182B00G
Bosmans Halle - 2019-02-22 10:44:30 - Bosmans Halle - X4782
Annick Gysemberg - 2019-02-21 17:15:13 - gysembergannick - P491B00G
Annick Gysemberg - 2019-02-21 17:13:35 - gysembergannick - C491B01G
Sandra Van Sweeveldt - 2019-02-21 16:04:28 - sandra - F4995
Sandra Van Sweeveldt - 2019-02-21 16:03:43 - sandra - F4995
Bosmans Halle - 2019-02-21 11:20:42 - Bosmans Halle - C536B00G
Bosmans Halle - 2019-02-20 17:35:05 - Bosmans Halle - C489B00G
Bosmans Halle - 2019-02-20 17:26:12 - Bosmans Halle - T489B02G
Bosmans Halle - 2019-02-20 15:55:25 - Bosmans Halle - X4782
Marc Bosmans - 2019-02-20 09:59:36 - Marc Bosmans - P292A24G
Ilse Vercammen - 2019-02-19 17:21:17 - Ilse Vercammen - X2822
Katrien en Hildegarde Huysman - 2019-02-19 17:15:14 - Huysman - A3028-001
Katrien en Hildegarde Huysman - 2019-02-19 17:13:51 - Huysman - C240B02G
Sandra Van Sweeveldt - 2019-02-19 12:36:59 - sandra - C9045-004
Bosmans Halle - 2019-02-19 12:00:39 - Bosmans Halle - P491B00G
Bosmans Halle - 2019-02-19 11:56:35 - Bosmans Halle - C491B01G
Viola Vetters - 2019-02-19 11:20:20 - Orion - X2822
Paul Soens - 2019-02-19 11:15:28 - Juwelen Soens - C536B00G
Paul Soens - 2019-02-19 11:11:09 - Juwelen Soens - C3658
Eric De Waele - 2019-02-19 11:09:47 - De Waele - C5081
Fabienne Yannick - 2019-02-19 09:20:17 - Juwelen Yannick 2 - X3634
Fabienne Yannick - 2019-02-19 09:17:12 - Juwelen Yannick 2 - 553B01
jan Van Brusselen - 2019-02-18 17:54:43 - Perles d Amour - F5103
jan Van Brusselen - 2019-02-18 17:51:19 - Perles d Amour - F5102
Kristina Cuvelier - 2019-02-18 17:39:59 - Cuvelier - X2167-001
Marc Bosmans - 2019-02-18 16:54:44 - Marc Bosmans - F2870
Ilse Vercammen - 2019-02-18 14:18:00 - Ilse Vercammen - X4782
Ilse Vercammen - 2019-02-18 14:14:38 - Ilse Vercammen - C4790
Sandra Van Sweeveldt - 2019-02-18 10:25:24 - sandra - C9045-003
Vanhoutteghem - 2019-02-17 17:15:28 - Van Houtteghem - C9052
Vanhoutteghem - 2019-02-17 17:07:32 - Van Houtteghem - C240B04G
Annik De Mey - 2019-02-16 17:56:15 - Annik De Mey - T4225
Annik De Mey - 2019-02-16 17:55:04 - Annik De Mey - C3768
Verena - 2019-02-16 17:49:17 - Verena - V4513
Evelyne Coppens - 2019-02-16 16:11:08 - Paul - C9052
Katrien en Hildegarde Huysman - 2019-02-16 16:10:41 - Huysman - C4338
Moens Tongeren - 2019-02-16 15:30:49 - Moens Tongeren - F4785-005
Moens Tongeren - 2019-02-16 15:30:15 - Moens Tongeren - F4785-005
Marc Bosmans - 2019-02-16 14:30:08 - Marc Bosmans - C4338
Mik & Veronique Vander Avort - 2019-02-16 14:24:58 - Vander Avort - C9045-004
Mik & Veronique Vander Avort - 2019-02-16 14:24:33 - Vander Avort - C9045-003
Ilse Vercammen - 2019-02-16 13:48:21 - Ilse Vercammen - P408A001
Pierre-Louis - 2019-02-16 13:06:49 - Pierre-Louis - T5082
Marc Drexeler - 2019-02-16 12:45:38 - Drexeler - X4782
Sandra Van Sweeveldt - 2019-02-16 11:47:21 - sandra - 4925
Sandra Van Sweeveldt - 2019-02-16 11:46:17 - sandra - C4818
Catherine Abeele - 2019-02-16 11:24:59 - Abeele - V4202
Catherine Abeele - 2019-02-16 11:12:49 - Abeele - V4202
Evy Uyttenhove - 2019-02-15 16:44:38 - Evy d Or - V5147
Kristina Cuvelier - 2019-02-15 16:07:01 - Cuvelier - C3953
Kristina Cuvelier - 2019-02-15 16:05:17 - Cuvelier - U4686
Christine & Marjolein - 2019-02-15 13:20:56 - Yolande - B5062
Christine & Marjolein - 2019-02-15 13:19:46 - Yolande - B5052
Christine & Marjolein - 2019-02-15 12:05:25 - Yolande - X4198
Christine & Marjolein - 2019-02-15 12:03:51 - Yolande - C4197
Evy Uyttenhove - 2019-02-14 22:11:14 - Evy d Or - X4782
Moens - 2019-02-14 17:48:10 - Moens - C5569-002
Moens - 2019-02-14 17:47:30 - Moens - C5569-001
Ilse Vercammen - 2019-02-14 17:34:19 - Ilse Vercammen - F5105
Ilse Vercammen - 2019-02-14 17:31:53 - Ilse Vercammen - F5105
N. Baurens - 2019-02-14 16:13:20 - Baurens - C9054-002
N. Baurens - 2019-02-14 16:11:04 - Baurens - C9054-003
Ilse Vercammen - 2019-02-14 15:47:18 - Ilse Vercammen - P484B00G
Ilse Vercammen - 2019-02-14 15:45:42 - Ilse Vercammen - T484B02G
N. Baurens - 2019-02-14 12:13:32 - Baurens - C4338
Evy Uyttenhove - 2019-02-14 11:37:22 - Evy d Or - C3963
Evy Uyttenhove - 2019-02-14 11:34:55 - Evy d Or - V4206
Katrien en Hildegarde Huysman - 2019-02-14 11:33:18 - Huysman - C5299
Katrien en Hildegarde Huysman - 2019-02-14 11:32:26 - Huysman - C3658
Amelie Berard - 2019-02-14 10:44:05 - Pronuptia - P238A06G
Amelie Berard - 2019-02-14 10:39:11 - Pronuptia - C4811
Dries - 2019-02-14 10:31:01 - Dries - C5077
Dries - 2019-02-14 10:29:47 - Dries - B5056
Bosmans Halle - 2019-02-13 12:55:35 - Bosmans Halle - P3746
Bosmans Halle - 2019-02-13 12:51:49 - Bosmans Halle - X3692
Marc Bosmans - 2019-02-13 12:15:59 - Marc Bosmans - F5105
Marc Bosmans - 2019-02-13 11:41:54 - Marc Bosmans - F5104
Moens - 2019-02-13 09:55:18 - Moens - T7044-001
Moens - 2019-02-13 09:54:52 - Moens - T7044-003
Moens - 2019-02-13 09:54:20 - Moens - M839A01G
Moens - 2019-02-13 09:53:53 - Moens - M839A00G
Moens - 2019-02-13 09:53:21 - Moens - P476B00G
Moens - 2019-02-13 09:52:51 - Moens - P476B00G
De Greeve - 2019-02-12 21:00:45 - De Greeve - E4480-001
Evelyne Coppens - 2019-02-12 17:09:43 - Paul - C3658
Evelyne Coppens - 2019-02-12 17:08:40 - Paul - C4338
Sandra Van Sweeveldt - 2019-02-12 14:49:20 - sandra - V5827
Sandra Van Sweeveldt - 2019-02-12 14:48:38 - sandra - V5827
Dries - 2019-02-12 14:45:15 - Dries - C518B00G
Evi Vandeweyer - 2019-02-12 11:54:18 - Vandeweyer - C5067
Katrien en Hildegarde Huysman - 2019-02-11 15:02:34 - Huysman - P295A19G
Eversen - 2019-02-11 14:24:35 - - P295A19G
Sandra Van Sweeveldt - 2019-02-11 14:02:04 - sandra - F5100
Sandra Van Sweeveldt - 2019-02-11 13:58:45 - sandra - F5100
Marc & Hilde Jehaes - 2019-02-11 13:38:58 - Jehaes - 387A05
Marc Bosmans - 2019-02-09 17:12:18 - Marc Bosmans - P238A14G
Pierre-Louis - 2019-02-09 17:04:20 - Pierre-Louis - C5055
Pierre-Louis - 2019-02-09 17:02:37 - Pierre-Louis - C5073
De Greeve - 2019-02-09 16:52:28 - De Greeve - C3953
Suzan Broothaerts - 2019-02-09 16:24:51 - Juwelier Vissers - X3778-001
Anne De Peuter - 2019-02-09 16:22:02 - Goethals - X3634
Marc Bosmans - 2019-02-09 15:06:06 - Marc Bosmans - C4338
Marc Bosmans - 2019-02-09 14:33:58 - Marc Bosmans - F5100
Katrien en Hildegarde Huysman - 2019-02-09 14:33:05 - Huysman - C4338
Catherine Abeele - 2019-02-09 14:28:51 - Abeele - C3238
Catherine Abeele - 2019-02-09 14:26:41 - Abeele - X3962
Amelie Berard - 2019-02-09 13:18:43 - Pronuptia - C4808
Pierre-Louis - 2019-02-09 12:49:33 - Pierre-Louis - T4225
Pierre-Louis - 2019-02-09 12:47:46 - Pierre-Louis - T4225
Marc Bosmans - 2019-02-09 12:41:56 - Marc Bosmans - F3738
Marc Bosmans - 2019-02-09 11:53:28 - Marc Bosmans - M305B01G
Marc Bosmans - 2019-02-09 11:12:37 - Marc Bosmans - C4808
Marc Bosmans - 2019-02-09 11:09:11 - Marc Bosmans - V5147
Vanhoutteghem - 2019-02-09 10:20:59 - Van Houtteghem - C9045-003
Vanhoutteghem - 2019-02-09 10:19:33 - Van Houtteghem - C9045-003
Esthel Rams - 2019-02-08 17:26:11 - Juwelen Rams - 471B00
Esthel Rams - 2019-02-08 17:23:51 - Juwelen Rams - 471B01
Marc Bosmans - 2019-02-08 11:29:44 - Marc Bosmans - M306B01G
Marc Bosmans - 2019-02-08 11:15:55 - Marc Bosmans - M306B00G
De Greeve - 2019-02-07 14:47:01 - De Greeve - V7013-002
De Greeve - 2019-02-07 14:45:37 - De Greeve - P7013-007
Marie-Christine Hermans - 2019-02-07 09:19:20 - Juwelen Marie-Christine - C231B04G
Marie-Christine Hermans - 2019-02-07 09:17:12 - Juwelen Marie-Christine - C231B04G
Marc Bosmans - 2019-02-06 16:39:44 - Marc Bosmans - P292A21G
Marie-Christine Hermans - 2019-02-06 16:15:58 - Juwelen Marie-Christine - C231B04G
Marie-Christine Hermans - 2019-02-06 16:13:34 - Juwelen Marie-Christine - C231B04G
N. Baurens - 2019-02-06 16:04:34 - Baurens - F3731
Marc Bosmans - 2019-02-06 15:26:51 - Marc Bosmans - P238A14G
Bosmans Halle - 2019-02-06 14:11:28 - Bosmans Halle - P478B00G
De Greeve - 2019-02-06 12:05:05 - De Greeve - P3746
De Greeve - 2019-02-06 12:04:06 - De Greeve - X3692
Roger Borremans - 2019-02-05 18:07:43 - La coquille d Or - V4202
Marc Bosmans - 2019-02-05 17:47:25 - Marc Bosmans - C4807
Marc Bosmans - 2019-02-05 17:44:42 - Marc Bosmans - V4227
Amelie Berard - 2019-02-05 14:12:06 - Pronuptia - M311B00G
Bosmans Halle - 2019-02-05 14:11:56 - Bosmans Halle - P501B00G
Amelie Berard - 2019-02-05 14:07:47 - Pronuptia - T530A00G – 0.05ct.
Marc Bosmans - 2019-02-04 17:28:16 - Marc Bosmans - F2263
Ilse Vercammen - 2019-02-04 12:41:18 - Ilse Vercammen - 207B00
Ilse Vercammen - 2019-02-04 12:03:16 - Ilse Vercammen - P484B00G
Kristina Cuvelier - 2019-02-03 16:57:09 - Cuvelier - C5055
Kristina Cuvelier - 2019-02-03 16:55:38 - Cuvelier - C5073
Bosmans Halle - 2019-02-02 18:20:23 - Bosmans Halle - U4686
Anneleen Eyckmans - 2019-02-02 17:25:10 - Anneleen Eyckmans - U4508
Ilse Vercammen - 2019-02-02 17:05:07 - Ilse Vercammen - M307B00G
Ilse Vercammen - 2019-02-02 17:02:47 - Ilse Vercammen - M307B01G
Moens Tongeren - 2019-02-02 15:10:37 - Moens Tongeren - M313B01G
Moens Tongeren - 2019-02-02 15:09:48 - Moens Tongeren - M313B00G
Buntinx - 2019-02-02 14:51:09 - Buntinx - C9045-003
Buntinx - 2019-02-02 14:48:53 - Buntinx - C9045-004
Marc Bosmans - 2019-02-02 14:19:25 - Marc Bosmans - P496B00G
Peter De Leus - 2019-02-02 13:57:13 - De Leus - F5003
Peter De Leus - 2019-02-02 13:56:33 - De Leus - V5171
Bosmans Halle - 2019-02-02 13:19:36 - Bosmans Halle - X4782
Heidi Stroeckx - 2019-02-02 11:31:28 - heidistroeckx - X3778-001
Heidi Stroeckx - 2019-02-02 11:30:13 - heidistroeckx - T473B00G
Bosmans Halle - 2019-02-02 10:14:55 - Bosmans Halle - V7014-003
Pierre-Louis - 2019-02-01 17:04:48 - Pierre-Louis - X5085
Pierre-Louis - 2019-02-01 17:03:02 - Pierre-Louis - C5063
Peter De Leus - 2019-01-31 16:20:56 - De Leus - T159B00G
Peter De Leus - 2019-01-31 16:19:22 - De Leus - V4337
Dries - 2019-01-31 11:01:32 - Dries - V5050
Sandra Van Sweeveldt - 2019-01-31 09:48:18 - sandra - T484B02G
Sandra Van Sweeveldt - 2019-01-31 09:47:22 - sandra - C9045-003
Buntinx - 2019-01-30 17:45:12 - Buntinx - V7004-002
Marc Bosmans - 2019-01-30 10:53:34 - Marc Bosmans - V7002-003
Marc Bosmans - 2019-01-30 10:51:55 - Marc Bosmans - P7002-007
Jan Schoubben - 2019-01-29 15:18:29 - Schoubben - P238A07G
Thomas De Graeve - 2019-01-29 12:14:25 - De Baere - C3658
Thomas De Graeve - 2019-01-29 12:11:04 - De Baere - C4338
Catherine Abeele - 2019-01-29 11:55:26 - Abeele - C4338
Catherine Abeele - 2019-01-29 11:49:16 - Abeele - C3658
Nadia Souverijns - 2019-01-29 10:56:49 - Tibax - C5077
Nadia Souverijns - 2019-01-29 10:55:28 - Tibax - C5077
Ilse Vercammen - 2019-01-28 16:09:50 - Ilse Vercammen - C487B00G
Katrien en Hildegarde Huysman - 2019-01-28 15:33:02 - Huysman - C4811
Katrien en Hildegarde Huysman - 2019-01-28 14:48:37 - Huysman - U5504-002
Vanhoutteghem - 2019-01-26 17:48:21 - Van Houtteghem - V5053
Ilse Vercammen - 2019-01-26 15:57:28 - Ilse Vercammen - X3778-001
Vanhoutteghem - 2019-01-26 14:28:31 - Van Houtteghem - X3634
Marc Bosmans - 2019-01-26 13:39:38 - Marc Bosmans - C784A04G
Marc Bosmans - 2019-01-26 13:37:58 - Marc Bosmans - C784A06G
Anne De Peuter - 2019-01-26 13:05:45 - Goethals - X4198
Anne De Peuter - 2019-01-26 13:03:02 - Goethals - F4784
Anne De Peuter - 2019-01-25 15:18:52 - Goethals - V4202
Anne De Peuter - 2019-01-25 15:16:52 - Goethals - T504B02G
Ilse Vercammen - 2019-01-25 12:39:40 - Ilse Vercammen - M307B01G
Sandra Van Sweeveldt - 2019-01-25 10:58:48 - sandra - B7032-002
Kurt De Block - 2019-01-25 09:50:55 - Kortrijkse Goudcentrale - A3028-001
Kristina Cuvelier - 2019-01-24 15:28:39 - Cuvelier - P7002-007
Kristina Cuvelier - 2019-01-24 15:26:39 - Cuvelier - P7002-007
Vanhoutteghem - 2019-01-22 15:15:56 - Van Houtteghem - C9045-003
De Greeve - 2019-01-19 15:44:56 - De Greeve - 553B00
Alain Van Vlierden - 2019-01-19 15:40:47 - Van Vlierden - C4808
Alain Van Vlierden - 2019-01-19 15:39:13 - Van Vlierden - C518B00G
Frederik Bongaerts - 2019-01-19 15:07:03 - Bongaerts - V1722
Frederik Bongaerts - 2019-01-19 15:06:09 - Bongaerts - C4156
Katrien en Hildegarde Huysman - 2019-01-19 14:33:27 - Huysman - V7001-003
Jan Schoubben - 2019-01-19 12:02:03 - Schoubben - T3797
Jan Schoubben - 2019-01-19 12:01:21 - Schoubben - C2427
Evelyne Coppens - 2019-01-19 11:28:14 - Paul - P295A23G
Evelyne Coppens - 2019-01-19 11:27:05 - Paul - P295A23G
Filip Simoens - 2019-01-18 14:03:52 - Simoens - C9045-004
Filip Simoens - 2019-01-18 13:53:16 - Simoens - F5105
Pierre-Louis - 2019-01-18 13:21:03 - Pierre-Louis - T5082
Pierre-Louis - 2019-01-18 13:20:11 - Pierre-Louis - C5066
Roger Borremans - 2019-01-18 11:18:03 - La coquille d Or - V5502-003
Roger Borremans - 2019-01-18 11:16:54 - La coquille d Or - U4686
Heidi Stroeckx - 2019-01-17 10:19:17 - heidistroeckx - X3778-001
Catherine Abeele - 2019-01-17 09:55:09 - Abeele - 553B01
Catherine Abeele - 2019-01-17 09:52:29 - Abeele - 553B00
Nadia Souverijns - 2019-01-16 17:20:45 - Tibax - P7013-007
Nadia Souverijns - 2019-01-16 17:19:21 - Tibax - V7013-002
Bosmans Halle - 2019-01-16 17:03:17 - Bosmans Halle - V7014-003
Bosmans Halle - 2019-01-16 14:29:21 - Bosmans Halle - U4686
Bosmans Halle - 2019-01-16 14:28:20 - Bosmans Halle - U4686
Frédéric Pirson - 2019-01-16 12:53:19 - Pirson - 553B01
Frédéric Pirson - 2019-01-16 12:50:30 - Pirson - X2889
De Greeve - 2019-01-15 16:38:51 - De Greeve - P292A20G
De Greeve - 2019-01-15 11:07:38 - De Greeve - C2821
De Greeve - 2019-01-15 11:06:40 - De Greeve - X2822
Nadia Souverijns - 2019-01-12 16:52:31 - Tibax - C9163-007
Ilse Vercammen - 2019-01-12 16:28:12 - Ilse Vercammen - C9045-003
Ilse Vercammen - 2019-01-12 16:26:33 - Ilse Vercammen - C9045-004
De Greeve - 2019-01-12 16:05:59 - De Greeve - X5085
Fabienne Yannick - 2019-01-12 11:23:13 - Juwelen Yannick 2 - V7013-002
Fabienne Yannick - 2019-01-12 11:17:16 - Juwelen Yannick 2 - P7013-007
Evy Uyttenhove - 2019-01-12 11:12:46 - Evy d Or - V4206
Buntinx - 2019-01-12 10:14:10 - Buntinx - C489B00G
Buntinx - 2019-01-12 10:12:04 - Buntinx - T489B02G
Evelyne Coppens - 2019-01-11 17:26:18 - Paul - V4202
Evelyne Coppens - 2019-01-11 17:22:35 - Paul - C3953
Anneleen Eyckmans - 2019-01-10 17:14:12 - Anneleen Eyckmans - P295A11G
Anneleen Eyckmans - 2019-01-10 17:13:43 - Anneleen Eyckmans - V4536
Anneleen Eyckmans - 2019-01-10 17:12:48 - Anneleen Eyckmans - V4538
Anneleen Eyckmans - 2019-01-10 17:11:46 - Anneleen Eyckmans - X4541
Anneleen Eyckmans - 2019-01-10 14:08:11 - Anneleen Eyckmans - C4808
Kristina Cuvelier - 2019-01-10 11:41:53 - Cuvelier - C4223
Kristina Cuvelier - 2019-01-10 11:37:28 - Cuvelier - C4224
Martine Verbruggen - 2019-01-09 12:33:15 - verbruggen - A3028-001
Schotte - 2019-01-08 16:01:41 - Schotte - 553B00
Schotte - 2019-01-08 15:58:53 - Schotte - 553B01
Sandra Van Sweeveldt - 2019-01-08 13:27:52 - sandra - V7001-003
Sandra Van Sweeveldt - 2019-01-08 13:27:05 - sandra - V7001-003
Sandra Van Sweeveldt - 2019-01-08 13:25:26 - sandra - P292A20G
De Tandt bvba - 2019-01-08 11:03:32 - De Tandt bvba - P292A20G
De Tandt bvba - 2019-01-08 11:02:13 - De Tandt bvba - P292A20G
Evi Vandeweyer - 2019-01-08 10:32:22 - Vandeweyer - C5064
Evi Vandeweyer - 2019-01-08 10:23:41 - Vandeweyer - V5053
Sandra Van Sweeveldt - 2019-01-07 08:52:37 - sandra - P293A17G
Sandra Van Sweeveldt - 2019-01-07 08:51:17 - sandra - P293A16G
Marc Bosmans - 2019-01-05 17:51:29 - Marc Bosmans - V4202
Nadia Souverijns - 2019-01-05 17:45:45 - Tibax - V7004-002
Nadia Souverijns - 2019-01-05 17:44:00 - Tibax - C3953
Marc Bosmans - 2019-01-05 16:48:52 - Marc Bosmans - V7002-003
Marc Bosmans - 2019-01-05 16:30:18 - Marc Bosmans - A3028-001
Alain Van Vlierden - 2019-01-05 15:53:13 - Van Vlierden - 422B00
Alain Van Vlierden - 2019-01-05 15:48:30 - Van Vlierden - 422B00
Annik De Mey - 2019-01-05 15:45:51 - Annik De Mey - F4130
Annik De Mey - 2019-01-05 15:43:35 - Annik De Mey - C4148
Anne De Peuter - 2019-01-05 14:05:16 - Goethals - X4782
Anne De Peuter - 2019-01-05 14:03:03 - Goethals - C4788
Marc Bosmans - 2019-01-05 13:39:49 - Marc Bosmans - C4384
Marc Bosmans - 2019-01-05 13:36:48 - Marc Bosmans - C4385
Schotte - 2019-01-04 18:12:53 - Schotte - M306B00G
Bosmans Halle - 2019-01-04 14:54:32 - Bosmans Halle - C9052
Bosmans Halle - 2019-01-04 14:49:24 - Bosmans Halle - C9052-001
Evi Vandeweyer - 2019-01-02 15:15:17 - Vandeweyer - C5081
Paul Soens - 2019-01-02 11:03:45 - Juwelen Soens - F4785-005
Paul Soens - 2019-01-02 11:01:04 - Juwelen Soens - C4785-006
Eric De Waele - 2019-01-02 10:39:35 - De Waele - P483B00G
Eric De Waele - 2019-01-02 10:38:00 - De Waele - B4988-001
Frederik Bongaerts - 2019-01-02 10:16:13 - Bongaerts - C5925-006
Frederik Bongaerts - 2019-01-02 10:14:23 - Bongaerts - C5925-007
De Greeve - 2018-12-30 15:43:53 - De Greeve - X2167-001
Anne De Peuter - 2018-12-28 16:30:52 - Goethals - X4782
Gallet - Claeys - 2018-12-28 15:22:33 - Gallet - Claeys - F1137
Anneleen Eyckmans - 2018-12-27 08:34:16 - Anneleen Eyckmans - U4508
Schotte - 2018-12-26 14:30:57 - Schotte - 422B00
Anne De Peuter - 2018-12-26 14:10:18 - Goethals - P408A001
Marc Bosmans - 2018-12-26 12:13:51 - Marc Bosmans - P295A25G
Annik De Mey - 2018-12-24 15:50:39 - Annik De Mey - P501B00G
Annick Gysemberg - 2018-12-24 15:24:30 - gysembergannick - X2167-001
Annick Gysemberg - 2018-12-24 15:20:40 - gysembergannick - E4480-001
Sandra Van Sweeveldt - 2018-12-24 11:42:37 - sandra - P560A09G
Sandra Van Sweeveldt - 2018-12-24 11:41:36 - sandra - P560A07G
Alain Van Vlierden - 2018-12-22 15:35:58 - Van Vlierden - M308B00G
Catherine Abeele - 2018-12-22 14:19:51 - Abeele - V7013-002
Catherine Abeele - 2018-12-22 14:18:12 - Abeele - P7013-007
Amelie Berard - 2018-12-21 12:02:47 - Pronuptia - P292A19G
Amelie Berard - 2018-12-21 12:00:10 - Pronuptia - C822A03G
Ilse Vercammen - 2018-12-21 09:50:18 - Ilse Vercammen - P484B00G
Paul Soens - 2018-12-19 17:45:27 - Juwelen Soens - T479B02G
Paul Soens - 2018-12-19 17:41:43 - Juwelen Soens - C518B00G
Bosmans Halle - 2018-12-19 15:13:34 - Bosmans Halle - V7001-003
Frederik Bongaerts - 2018-12-19 14:54:48 - Bongaerts - V5049
Team De Wilde - 2018-12-19 14:48:15 - De Wilde - X3778-001
Alain Van Vlierden - 2018-12-19 14:32:20 - Van Vlierden - F4785
Alain Van Vlierden - 2018-12-19 14:30:38 - Van Vlierden - F4785
Bosmans Halle - 2018-12-18 16:29:35 - Bosmans Halle - C822A02G
Bosmans Halle - 2018-12-18 16:25:28 - Bosmans Halle - C822A02G
Pierre-Louis - 2018-12-18 14:48:21 - Pierre-Louis - C5055
Ingrid Aertssens - 2018-12-17 12:12:32 - Ingrid Aertssens - P292A20G
Pierre-Louis - 2018-12-15 14:44:12 - Pierre-Louis - T5082
Pierre-Louis - 2018-12-15 14:43:55 - Pierre-Louis - C5066
Esthel Rams - 2018-12-15 12:28:26 - Juwelen Rams - C9055-006
Esthel Rams - 2018-12-15 12:27:05 - Juwelen Rams - C9055-007
Amelie Berard - 2018-12-15 10:56:06 - Pronuptia - A4979
Amelie Berard - 2018-12-15 10:53:27 - Pronuptia - P292A19G
Martine Peeters - 2018-12-12 17:02:52 - KD Peeters - U4510
Amelie Berard - 2018-12-12 11:54:43 - Pronuptia - P291A20G
Christine & Marjolein - 2018-12-11 13:35:01 - Yolande - F1137
Christine & Marjolein - 2018-12-11 13:33:56 - Yolande - C2899
Ilse Vercammen - 2018-12-11 10:52:11 - Ilse Vercammen - V7005-002
Sandra Van Sweeveldt - 2018-12-11 10:49:19 - sandra - P560A09G
Marc Bosmans - 2018-12-10 15:13:54 - Marc Bosmans - C3658
Marc Bosmans - 2018-12-10 15:04:38 - Marc Bosmans - C4338
Sandra Van Sweeveldt - 2018-12-10 12:35:14 - sandra - B4985
Sandra Van Sweeveldt - 2018-12-10 12:16:40 - sandra - V4212
Sandra Van Sweeveldt - 2018-12-10 09:35:18 - sandra - C503B00G
Sandra Van Sweeveldt - 2018-12-10 09:34:30 - sandra - C503B00G
- 2018-12-08 18:23:13 - Deani de Bot - P238A08G
Jan Schoubben - 2018-12-08 15:54:58 - Schoubben - P1523
Jan Schoubben - 2018-12-08 15:52:23 - Schoubben - F1966
Marc Bosmans - 2018-12-07 20:54:54 - Marc Bosmans - P560A08G
Team De Wilde - 2018-12-07 17:27:37 - De Wilde - F9040
Anne De Peuter - 2018-12-07 14:16:00 - Goethals - V4202
Buntinx - 2018-12-07 10:29:24 - Buntinx - C9054-002
Buntinx - 2018-12-07 09:54:59 - Buntinx - C9054-003
Sandra Van Sweeveldt - 2018-12-06 13:56:37 - sandra - T318A02G
Jan Jacob - 2018-12-06 13:51:02 - Jacob - X2167-001
Frédéric Pirson - 2018-12-06 13:33:48 - Pirson - F5228
Frédéric Pirson - 2018-12-06 13:16:24 - Pirson - F5228
Frédéric Pirson - 2018-12-06 13:06:16 - Pirson - F5228
Frédéric Pirson - 2018-12-06 13:04:11 - Pirson - F5228
Frédéric Pirson - 2018-12-06 13:01:21 - Pirson - P295A21G
Frédéric Pirson - 2018-12-06 12:58:43 - Pirson - P295A21G
Vanhoutteghem - 2018-12-06 11:35:07 - Van Houtteghem - C5078
Kurt De Block - 2018-12-05 18:23:41 - Kortrijkse Goudcentrale - F2898
Kurt De Block - 2018-12-05 18:22:03 - Kortrijkse Goudcentrale - C2897
Annik De Mey - 2018-12-05 17:35:01 - Annik De Mey - X3778-001
Annik De Mey - 2018-12-05 17:34:03 - Annik De Mey - C3777-001
Anneleen Eyckmans - 2018-12-05 16:23:54 - Anneleen Eyckmans - U4510
De Greeve - 2018-12-05 15:34:49 - De Greeve - P317B00
Eric De Waele - 2018-12-05 14:57:24 - De Waele - X4782
Sandra Van Sweeveldt - 2018-12-04 13:13:32 - sandra - T318A02G
Sandra Van Sweeveldt - 2018-12-04 13:12:59 - sandra - T318A02G
Sandra Van Sweeveldt - 2018-12-04 13:12:59 - sandra - T318A02G
Sandra Van Sweeveldt - 2018-12-04 09:28:10 - sandra - C503B00G
Sandra Van Sweeveldt - 2018-12-04 09:27:21 - sandra - C503B00G
Kurt De Block - 2018-12-03 09:32:23 - Kortrijkse Goudcentrale - C3801
Kurt De Block - 2018-12-03 09:29:45 - Kortrijkse Goudcentrale - V3802
Vanhoutteghem - 2018-12-02 13:47:42 - Van Houtteghem - C9045-003
Anne De Peuter - 2018-12-01 17:53:05 - Goethals - X3634
Mik & Veronique Vander Avort - 2018-12-01 11:44:52 - Vander Avort - F4785-005
Mik & Veronique Vander Avort - 2018-12-01 11:43:59 - Vander Avort - C3633
Martine Peeters - 2018-11-30 17:09:34 - KD Peeters - C515B00G
Martine Peeters - 2018-11-30 17:08:04 - KD Peeters - C515B01G
Sandra Van Sweeveldt - 2018-11-30 09:22:38 - sandra - P292A19G
Bosmans Halle - 2018-11-29 19:09:15 - Bosmans Halle - C487B00G
Amelie Berard - 2018-11-28 17:44:54 - Pronuptia - T486B04G
Buntinx - 2018-11-27 12:17:38 - Buntinx - C9055-007
Buntinx - 2018-11-27 12:11:53 - Buntinx - C9055-006
Sandra Van Sweeveldt - 2018-11-26 09:38:52 - Sarah - C9055-007
Sandra Van Sweeveldt - 2018-11-26 09:34:42 - Sarah - C9055-007
De Greeve - 2018-11-24 17:41:05 - De Greeve - C3953
Annik De Mey - 2018-11-24 14:22:52 - Annik De Mey - C9045-003
Annik De Mey - 2018-11-24 14:20:56 - Annik De Mey - C9045-004
Annick Gysemberg - 2018-11-24 10:43:15 - gysembergannick - E4480-001
Annick Gysemberg - 2018-11-24 10:41:15 - gysembergannick - X2167-001
Annik De Mey - 2018-11-21 16:08:36 - Annik De Mey - V5049
Annik De Mey - 2018-11-21 16:07:06 - Annik De Mey - C5076
Annik De Mey - 2018-11-21 16:06:17 - Annik De Mey - V5080
N. Baurens - 2018-11-20 17:09:50 - Baurens - X1475
N. Baurens - 2018-11-20 17:06:36 - Baurens - C4809
Sandra Van Sweeveldt - 2018-11-20 14:53:43 - Sarah - T318A02G
Sandra Van Sweeveldt - 2018-11-20 14:52:51 - Sarah - P318A03GR
Sandra Van Sweeveldt - 2018-11-20 14:51:55 - Sarah - P403A001
Sandra Van Sweeveldt - 2018-11-20 10:00:00 - Sarah - C3755
De Tandt bvba - 2018-11-20 09:04:03 - De Tandt bvba - C5919-006
Frédéric Pirson - 2018-11-18 20:15:20 - Pirson - P293A17G
Esthel Rams - 2018-11-18 15:44:21 - Juwelen Rams - C9055-007
Esthel Rams - 2018-11-18 15:40:16 - Juwelen Rams - C9055-006
Ferri-Merlier - 2018-11-17 16:57:59 - Ferri-Merlier - 553B01
Ferri-Merlier - 2018-11-17 16:55:39 - Ferri-Merlier - X4782
Eric De Waele - 2018-11-17 16:46:07 - De Waele - C5073
Eric De Waele - 2018-11-17 16:45:33 - De Waele - C5055
Eric De Waele - 2018-11-17 16:16:45 - De Waele - V7001-003
Anneleen Eyckmans - 2018-11-17 11:30:41 - Anneleen Eyckmans - B4988-001
Amelie Berard - 2018-11-15 16:58:01 - Pronuptia - P560A08G
Anne De Peuter - 2018-11-14 12:40:00 - Goethals - X3778-001
Anne De Peuter - 2018-11-14 12:37:16 - Goethals - X3778-001
N. Baurens - 2018-11-14 09:36:30 - Baurens - 393B01
Ingrid Aertssens - 2018-11-13 16:18:48 - Ingrid Aertssens - C5076
Ingrid Aertssens - 2018-11-12 19:50:55 - Ingrid Aertssens - 207B00
Marc Bosmans - 2018-11-12 12:30:25 - Marc Bosmans - C4821
Jan Schoubben - 2018-11-12 12:18:59 - Schoubben - P238A09G
Jan Schoubben - 2018-11-12 12:15:40 - Schoubben - P560A08G
Sandra Van Sweeveldt - 2018-11-12 10:27:13 - Sarah - C9045-003
Anne De Peuter - 2018-11-10 17:06:03 - Goethals - C3801
Stephan Siemon - 2018-11-10 14:56:22 - Top Watch - U1485
Stephan Siemon - 2018-11-10 14:54:13 - Top Watch - U1485
Bosmans Halle - 2018-11-10 13:26:13 - Bosmans Halle - V7014-003
Bosmans Halle - 2018-11-10 13:23:53 - Bosmans Halle - P7014-007
Jan Schoubben - 2018-11-10 10:38:13 - Schoubben - C3658
Jan Schoubben - 2018-11-10 10:36:55 - Schoubben - C4338
Sofie - 2018-11-08 16:48:16 - Jema Design - X5501-001
Bosmans Halle - 2018-11-08 16:19:31 - Bosmans Halle - F4785-005
Sandra Van Sweeveldt - 2018-11-08 13:43:34 - Sarah - T318A02G
Sandra Van Sweeveldt - 2018-11-08 13:42:51 - Sarah - P318A03GR
Evelyne Coppens - 2018-11-07 17:18:54 - Paul - P295A22G
Evelyne Coppens - 2018-11-07 17:17:23 - Paul - P295A21G
Bosmans Halle - 2018-11-07 17:15:09 - Bosmans Halle - F5020
Bosmans Halle - 2018-11-07 17:13:07 - Bosmans Halle - V5188
Sandra Van Sweeveldt - 2018-11-07 13:18:39 - Sarah - U1678
Sandra Van Sweeveldt - 2018-11-07 11:53:59 - Sarah - C4810
Sandra Van Sweeveldt - 2018-11-07 11:51:52 - Sarah - C4810
Sandra Van Sweeveldt - 2018-11-07 09:58:14 - Sarah - B4985
Sandra Van Sweeveldt - 2018-11-07 09:48:38 - Sarah - P318A03GR
Sandra Van Sweeveldt - 2018-11-07 09:47:57 - Sarah - A4983 – (half)
Sandra Van Sweeveldt - 2018-11-07 09:46:40 - Sarah - T318A02G
Sandra Van Sweeveldt - 2018-11-07 09:37:47 - Sarah - T318A02G
Sandra Van Sweeveldt - 2018-11-07 09:36:58 - Sarah - P318A03GR
Sandra Van Sweeveldt - 2018-11-07 09:35:46 - Sarah - P403A001
Sandra Van Sweeveldt - 2018-11-07 09:27:52 - Sarah - P318A03GR
Sandra Van Sweeveldt - 2018-11-07 09:27:18 - Sarah - T318A02G
Ilse Vercammen - 2018-11-05 16:59:04 - Ilse Vercammen - 410A01
Ilse Vercammen - 2018-11-05 16:57:01 - Ilse Vercammen - 410A01
Sandra Van Sweeveldt - 2018-11-05 13:56:33 - Sarah - X3778-001
Marc Buseyne - 2018-11-04 16:21:58 - Busseyne - C3658
Marc Buseyne - 2018-11-04 16:19:46 - Busseyne - C4338
Marc Bosmans - 2018-11-03 15:55:05 - Marc Bosmans - V4227
Marc Bosmans - 2018-11-03 15:48:57 - Marc Bosmans - C822A03G
Anneleen Eyckmans - 2018-11-03 13:47:38 - Anneleen Eyckmans - V1680
Anneleen Eyckmans - 2018-11-03 13:45:16 - Anneleen Eyckmans - C4809
Team De Wilde - 2018-11-02 13:52:22 - De Wilde - P292A20G
Team De Wilde - 2018-11-02 13:50:18 - De Wilde - P292A19G
Evelyne Coppens - 2018-10-31 17:00:39 - Paul - V4202
Nadia Souverijns - 2018-10-31 16:32:54 - Tibax - V4202
Nadia Souverijns - 2018-10-31 16:29:46 - Tibax - T323A01G
- 2018-10-31 10:22:55 - Jagre - C5948-004
- 2018-10-31 10:19:23 - Jagre - C5948-005
Evy Uyttenhove - 2018-10-29 18:10:29 - Evy d Or - T3758
Evy Uyttenhove - 2018-10-29 18:08:51 - Evy d Or - V4206
Ilse Vercammen - 2018-10-27 16:10:13 - Ilse Vercammen - U4686
Ilse Vercammen - 2018-10-27 16:09:22 - Ilse Vercammen - C3953
Ilse Vercammen - 2018-10-27 16:08:28 - Ilse Vercammen - U4686
Martine Peeters - 2018-10-27 15:22:01 - KD Peeters - 393B00
Martine Peeters - 2018-10-27 15:20:29 - KD Peeters - P295A32G
Annik De Mey - 2018-10-27 08:14:18 - Annik De Mey - P7013-007
Ilse Vercammen - 2018-10-26 11:43:33 - Ilse Vercammen - X4782
Martine Oversteyns - 2018-10-25 15:21:24 - Oversteyns Martine - P560A07G
Thomas De Graeve - 2018-10-23 15:50:44 - De Baere - T3796
Thomas De Graeve - 2018-10-23 15:50:09 - De Baere - C2928
Martine Verbruggen - 2018-10-23 12:20:05 - verbruggen - F5105
Martine Verbruggen - 2018-10-23 12:17:28 - verbruggen - F5104
N. Baurens - 2018-10-23 10:13:17 - Baurens - V7004-002
N. Baurens - 2018-10-23 10:11:28 - Baurens - P7004-007
Bosmans Halle - 2018-10-23 09:14:33 - Bosmans Halle - C489B00G
Bosmans Halle - 2018-10-23 09:11:32 - Bosmans Halle - C489B00G
Laurent Vanstechelman - 2018-10-20 16:12:15 - Tempo d Oro - C9045-003
Laurent Vanstechelman - 2018-10-20 16:10:24 - Tempo d Oro - C9045-004
Laurent Vanstechelman - 2018-10-20 15:26:42 - Tempo d Oro - C7016-002
Laurent Vanstechelman - 2018-10-20 15:24:53 - Tempo d Oro - C7016-002
Sven Lombaerts - 2018-10-20 15:07:01 - Van Laer - V5171
Team De Wilde - 2018-10-20 14:36:58 - De Wilde - C4809
Viola Vetters - 2018-10-20 14:17:24 - Orion - C4296
Viola Vetters - 2018-10-20 14:16:30 - Orion - U4980-002
Bosmans Halle - 2018-10-20 11:57:27 - Bosmans Halle - A3028-001
Bosmans Halle - 2018-10-20 11:46:46 - Bosmans Halle - M306B00G
jan Van Brusselen - 2018-10-19 16:29:44 - Perles d Amour - 566B00
jan Van Brusselen - 2018-10-19 16:27:18 - Perles d Amour - 566B01
Jan Jacob - 2018-10-18 16:04:31 - Jacob - C509B00G
Jan Jacob - 2018-10-18 16:03:12 - Jacob - C509B00G
Devina - 2018-10-18 12:43:40 - Devina - C9055-007
Devina - 2018-10-18 12:39:59 - Devina - C9055-006
Sandra Van Sweeveldt - 2018-10-18 12:09:36 - Sarah - V5080
Christine & Marjolein - 2018-10-18 09:29:53 - Yolande - C4338
Christine & Marjolein - 2018-10-18 09:28:41 - Yolande - C3658
Christine & Marjolein - 2018-10-17 09:35:32 - Yolande - C3953
Sandra Van Sweeveldt - 2018-10-17 09:03:49 - Sarah - F2264
Heidi Stroeckx - 2018-10-16 13:48:30 - heidistroeckx - C9045-003
Heidi Stroeckx - 2018-10-16 13:45:41 - heidistroeckx - C9045-004
Laurent Vanstechelman - 2018-10-15 19:31:58 - Tempo d Oro - P238A11G
Laurent Vanstechelman - 2018-10-14 15:06:58 - Tempo d Oro - F5179
Laurent Vanstechelman - 2018-10-14 15:04:17 - Tempo d Oro - F5182
Martine Peeters - 2018-10-13 15:36:05 - KD Peeters - M514B01G
Martine Peeters - 2018-10-13 15:34:46 - KD Peeters - M514B00G
Laurent Vanstechelman - 2018-10-13 13:41:59 - Tempo d Oro - C4338
Laurent Vanstechelman - 2018-10-13 13:40:37 - Tempo d Oro - C3658
Sandra Van Sweeveldt - 2018-10-11 08:20:03 - Sarah - F4991
Filip Simoens - 2018-10-10 10:57:49 - Simoens - P293A21G
Juwelier - uurwerkmaker Devick Francis - 2018-10-09 10:19:36 - Juwelier - uurwerkmaker Devick Francis - C7015-006
Juwelier - uurwerkmaker Devick Francis - 2018-10-09 10:17:53 - Juwelier - uurwerkmaker Devick Francis - C7015-002
Eric De Waele - 2018-10-09 09:13:39 - De Waele - F2334
Sandra Van Sweeveldt - 2018-10-08 10:08:22 - Sarah - F2264
Anne De Peuter - 2018-10-06 14:22:59 - Goethals - V4683
Anne De Peuter - 2018-10-06 14:19:11 - Goethals - C3953
Team De Wilde - 2018-10-06 12:26:31 - De Wilde - P292A20G
Team De Wilde - 2018-10-06 12:22:44 - De Wilde - P295A21G
De Greeve - 2018-10-06 12:22:13 - De Greeve - C3953
Sandra Van Sweeveldt - 2018-10-05 10:01:49 - Sarah - C4810
Sandra Van Sweeveldt - 2018-10-05 09:39:52 - Sarah - B4980
Frederik Bongaerts - 2018-10-04 15:36:35 - Bongaerts - C5065
Frederik Bongaerts - 2018-10-04 15:27:39 - Bongaerts - V5050
Evy Uyttenhove - 2018-10-04 13:35:19 - Evy d Or - P7014-007
Evy Uyttenhove - 2018-10-04 13:34:11 - Evy d Or - V7014-003
Eric De Waele - 2018-10-03 10:11:15 - De Waele - C5078
Eric De Waele - 2018-10-03 10:09:55 - De Waele - B5059
Verena - 2018-10-02 16:04:53 - Verena - T3796
N. Baurens - 2018-10-02 09:28:54 - Baurens - C9055-006
N. Baurens - 2018-10-02 09:23:24 - Baurens - P293A24G
Annik De Mey - 2018-10-01 12:59:24 - Annik De Mey - C9045-003
Annik De Mey - 2018-10-01 12:56:00 - Annik De Mey - C9045-004
Ilse Vercammen - 2018-10-01 10:39:44 - Ilse Vercammen - C3658
Marc Bosmans - 2018-10-01 09:49:07 - Marc Bosmans - C4788
Marc Bosmans - 2018-10-01 09:41:46 - Marc Bosmans - X4782
Evelyne Coppens - 2018-09-29 12:43:36 - Paul - B4985
Sarah Roelandt - 2018-09-29 09:26:25 - Roelandt Sarah - T486B04G
Sarah Roelandt - 2018-09-29 09:21:36 - Roelandt Sarah - F5003
Fabienne Yannick - 2018-09-29 09:12:39 - Juwelen Yannick 2 - P7001-007
Fabienne Yannick - 2018-09-29 09:12:38 - Juwelen Yannick 2 - P7001-007
Fabienne Yannick - 2018-09-29 09:09:22 - Juwelen Yannick 2 - V7001-003
N. Baurens - 2018-09-27 12:47:18 - Baurens - V1289
Thomas De Graeve - 2018-09-25 12:52:44 - De Baere - V5502-002
Thomas De Graeve - 2018-09-25 12:51:10 - De Baere - A3028-001
Sarah Roelandt - 2018-09-24 16:54:20 - Roelandt Sarah - P295A23G
- 2018-09-24 09:44:13 - Fabienne Van Kesteren - C9113
- 2018-09-24 09:41:40 - Fabienne Van Kesteren - A4983 – (half)
- 2018-09-24 09:39:04 - Fabienne Van Kesteren - T509B02G
- 2018-09-24 09:37:35 - Fabienne Van Kesteren - 558A00 – 0.15ct
- 2018-09-24 09:35:56 - Fabienne Van Kesteren - M312B02
- 2018-09-24 09:34:36 - Fabienne Van Kesteren - F4130
- 2018-09-24 09:31:14 - Fabienne Van Kesteren - C513B01G
- 2018-09-24 09:29:46 - Fabienne Van Kesteren - 295A33
Paul Soens - 2018-09-22 14:46:22 - Juwelen Soens - C9055-006
Paul Soens - 2018-09-22 14:40:20 - Juwelen Soens - C9055-007
Esthel Rams - 2018-09-22 10:31:47 - Juwelen Rams - F5168
Martine Oversteyns - 2018-09-21 08:56:57 - Oversteyns Martine - 470B01
Martine Oversteyns - 2018-09-21 08:55:09 - Oversteyns Martine - 470B01
Frédéric Pirson - 2018-09-21 08:44:10 - Pirson - C822A05G
Frédéric Pirson - 2018-09-21 08:42:35 - Pirson - C822A04G
Frédéric Pirson - 2018-09-21 08:39:52 - Pirson - P560A07G
Evi Vandeweyer - 2018-09-20 08:55:55 - Vandeweyer - V5080
Evi Vandeweyer - 2018-09-20 08:54:42 - Vandeweyer - C5076
Christine & Marjolein - 2018-09-19 16:48:49 - Yolande - U4686
Christine & Marjolein - 2018-09-19 16:47:21 - Yolande - C3953
Christine & Marjolein - 2018-09-19 16:46:13 - Yolande - C9055-006
Christine & Marjolein - 2018-09-19 16:45:18 - Yolande - C9055-007
Anne De Peuter - 2018-09-19 09:53:41 - Goethals - V4206
Anne De Peuter - 2018-09-19 09:52:16 - Goethals - V4206
Sven Lombaerts - 2018-09-18 13:43:08 - Van Laer - C3953
Sven Lombaerts - 2018-09-18 13:40:46 - Van Laer - V4202
Ilse Vercammen - 2018-09-18 10:05:13 - Ilse Vercammen - T9163-006
Marie-Christine Hermans - 2018-09-15 14:14:07 - Juwelen Marie-Christine - X3774
Marie-Christine Hermans - 2018-09-15 14:10:58 - Juwelen Marie-Christine - X3774
Stephan Siemon - 2018-09-15 12:32:48 - Top Watch - X4198
Christine & Marjolein - 2018-09-13 15:27:22 - Yolande - T7028-003
Christine & Marjolein - 2018-09-13 15:23:07 - Yolande - T7028-001
Anneleen Eyckmans - 2018-09-13 09:59:15 - Anneleen Eyckmans - V4539
Stephan Siemon - 2018-09-12 12:35:28 - Top Watch - X4198
Bart Bourgois - 2018-09-12 10:13:16 - Bourgois - V4202
Team De Wilde - 2018-09-11 16:11:15 - De Wilde - B4988-001
Mik & Veronique Vander Avort - 2018-09-08 13:27:50 - Vander Avort - F4785-005
Mik & Veronique Vander Avort - 2018-09-08 12:05:18 - Vander Avort - F4785-005
Paul Soens - 2018-09-08 09:39:10 - Juwelen Soens - C9055-007
Paul Soens - 2018-09-08 09:34:05 - Juwelen Soens - C9052
Marc Bosmans - 2018-09-07 08:27:02 - Marc Bosmans - V7013-002
Marc Bosmans - 2018-09-07 08:22:55 - Marc Bosmans - C501B01G
Marie-Christine Hermans - 2018-09-05 21:02:30 - Juwelen Marie-Christine - 393B00
Marie-Christine Hermans - 2018-09-05 21:00:53 - Juwelen Marie-Christine - 393B01
Anne De Peuter - 2018-09-05 17:13:32 - Goethals - V5080
Thomas De Graeve - 2018-09-05 16:41:39 - De Baere - V7001-003
Marc Bosmans - 2018-09-05 16:00:57 - Marc Bosmans - P501B00G
Marc Bosmans - 2018-09-05 15:56:50 - Marc Bosmans - M306B00G
Sandra Van Sweeveldt - 2018-09-05 15:22:40 - Sarah - P238A07G
Peeters-Engelen - 2018-09-05 14:35:06 - Peeters-Engelen - M312B00G
De Greeve - 2018-09-04 15:34:42 - De Greeve - V5050
Christine & Marjolein - 2018-09-01 16:39:21 - Yolande - B7032-002
Christine & Marjolein - 2018-09-01 16:37:44 - Yolande - B7032
Dries - 2018-09-01 15:57:14 - Dries - C5077
Stephan Siemon - 2018-09-01 14:54:10 - Top Watch - X1294
Stephan Siemon - 2018-09-01 14:53:13 - Top Watch - X1294
Marc Bosmans - 2018-09-01 14:08:51 - Marc Bosmans - P238A07G
Marc Bosmans - 2018-09-01 14:02:21 - Marc Bosmans - P295A22G
Fabienne Yannick - 2018-09-01 13:52:58 - Juwelen Yannick 2 - M387A02G
Fabienne Yannick - 2018-09-01 13:51:11 - Juwelen Yannick 2 - C5919-006
Stephan Siemon - 2018-09-01 12:24:12 - Top Watch - F2334
Stephan Siemon - 2018-09-01 12:22:40 - Top Watch - F2334
Peter De Leus - 2018-09-01 12:16:08 - De Leus - V7001-003
Peter De Leus - 2018-09-01 12:15:08 - De Leus - P7001-007
Marc Bosmans - 2018-09-01 12:01:10 - Marc Bosmans - P291A21G
Team De Wilde - 2018-09-01 11:45:14 - De Wilde - C187B00G
Team De Wilde - 2018-09-01 11:43:37 - De Wilde - C187B01G
Amelie Berard - 2018-08-31 14:31:06 - Pronuptia - 411B01
Peeters-Engelen - 2018-08-31 13:51:20 - Peeters-Engelen - T9163-006
Peeters-Engelen - 2018-08-31 13:49:32 - Peeters-Engelen - C9163-007
N. Baurens - 2018-08-30 13:32:49 - Baurens - C9055-006
N. Baurens - 2018-08-30 13:31:15 - Baurens - C9055-007
Amelie Berard - 2018-08-29 12:18:39 - Pronuptia - M306B00G
Anne De Peuter - 2018-08-29 11:04:12 - Goethals - V4202
N. Baurens - 2018-08-29 10:15:30 - Baurens - P295A23G
N. Baurens - 2018-08-29 10:08:26 - Baurens - U1678
Marc Bosmans - 2018-08-29 08:45:09 - Marc Bosmans - P7013-007
Marc Bosmans - 2018-08-29 08:21:26 - Marc Bosmans - V7013-002
N. Baurens - 2018-08-28 14:57:40 - Baurens - V1289
N. Baurens - 2018-08-28 13:03:21 - Baurens - C3953
Anne De Peuter - 2018-08-25 12:13:33 - Goethals - P408A001
Evelyne Coppens - 2018-08-23 15:18:02 - Paul - C4384
Christine & Marjolein - 2018-08-23 14:46:16 - Yolande - C5066
Evi Vandeweyer - 2018-08-22 12:55:46 - Vandeweyer - C4338
Evi Vandeweyer - 2018-08-22 12:54:04 - Vandeweyer - C3658
Dhr/Mevr - 2018-08-22 12:32:29 - Dekock - C538B01G
Dhr/Mevr - 2018-08-22 12:29:27 - Dekock - C538B01G
Christine & Marjolein - 2018-08-22 10:18:33 - Yolande - V5054
Eric De Waele - 2018-08-22 09:58:27 - De Waele - C9055-006
Eric De Waele - 2018-08-22 09:58:19 - De Waele - C9055-007
Catherine Abeele - 2018-08-21 09:20:48 - Abeele - C3030
Catherine Abeele - 2018-08-21 09:18:41 - Abeele - V4683
Filip Simoens - 2018-08-19 15:38:54 - Simoens - P238A08G
Anne De Peuter - 2018-08-16 15:07:59 - Goethals - V3802
Anne De Peuter - 2018-08-16 15:05:27 - Goethals - C3801
Frédéric Pirson - 2018-08-14 11:53:50 - Pirson - P292A19G
Frédéric Pirson - 2018-08-14 11:51:28 - Pirson - P293A16G
Ilse Vercammen - 2018-08-13 14:54:19 - Ilse Vercammen - P504B00G
Ilse Vercammen - 2018-08-13 14:49:38 - Ilse Vercammen - T504B02G
Marc Bosmans - 2018-08-11 16:46:23 - Marc Bosmans - E4783
Sandra Van Sweeveldt - 2018-08-10 12:06:28 - Sarah - M307B00G
Marc Bosmans - 2018-08-09 14:12:56 - Marc Bosmans - P496B00G
Marc Bosmans - 2018-08-09 14:11:28 - Marc Bosmans - P496B00G
Evelyne Coppens - 2018-08-09 10:23:26 - Paul - V4206
Vanhoutteghem - 2018-08-09 08:44:26 - Van Houtteghem - T5082
Vanhoutteghem - 2018-08-09 08:35:07 - Van Houtteghem - C5066
Esthel Rams - 2018-08-08 13:58:34 - Juwelen Rams - C5925-006
Esthel Rams - 2018-08-08 13:56:31 - Juwelen Rams - C5925-007
Peeters-Engelen - 2018-08-08 13:52:35 - Peeters-Engelen - T9163-006
Peeters-Engelen - 2018-08-08 13:50:07 - Peeters-Engelen - C9163-007
Christine & Marjolein - 2018-08-08 11:39:53 - Yolande - C2821
Laurent Vanstechelman - 2018-08-08 10:26:11 - Tempo d Oro - C4806
N. Baurens - 2018-08-07 10:25:22 - Baurens - C3658
N. Baurens - 2018-08-07 10:02:04 - Baurens - U4686
Marc Bosmans - 2018-08-04 17:04:36 - Marc Bosmans - P238A06G
Marc Bosmans - 2018-08-04 16:52:51 - Marc Bosmans - P295A18G
Vicky Coens - 2018-08-04 15:27:27 - Coens Brugge - C2928
Nadia Souverijns - 2018-08-04 15:13:11 - Tibax - C5078
Ilse Vercammen - 2018-08-04 15:12:26 - Ilse Vercammen - T504B02G
Vicky Coens - 2018-08-04 15:10:59 - Coens Brugge - T3796
Vicky Coens - 2018-08-04 15:00:31 - Coens Brugge - C2928
Sarah Roelandt - 2018-08-04 13:51:19 - Roelandt Sarah - V4683
De Greeve - 2018-08-04 11:30:32 - De Greeve - V5048
Pierre-Louis - 2018-08-04 11:00:05 - Pierre-Louis - B5062
Pierre-Louis - 2018-08-04 10:59:11 - Pierre-Louis - C5078
Frédéric Pirson - 2018-08-03 10:20:34 - Pirson - D5121
Frédéric Pirson - 2018-08-03 10:18:30 - Pirson - D5122
Team De Wilde - 2018-08-02 13:32:07 - De Wilde - F5180
Dries - 2018-08-02 10:12:41 - Dries - T180B00G
Vanhoutteghem - 2018-08-02 09:35:17 - Van Houtteghem - X5085
De Greeve - 2018-08-01 16:37:12 - De Greeve - V5079
De Greeve - 2018-08-01 16:36:42 - De Greeve - C5060
Marc Bosmans - 2018-08-01 15:22:27 - Marc Bosmans - C9045-003
Marc Drexeler - 2018-08-01 08:05:17 - Drexeler - C4809
Vicky Coens - 2018-07-31 16:22:11 - Coens Brugge - 393B01
Ingrid Aertssens - 2018-07-30 20:18:25 - Ingrid Aertssens - P293A18G
Sven Lombaerts - 2018-07-28 15:21:46 - Van Laer - C5919-006
Sven Lombaerts - 2018-07-28 15:20:22 - Van Laer - M387A02G
Marc Bosmans - 2018-07-28 14:23:48 - Marc Bosmans - V7002-003
Marc Bosmans - 2018-07-28 14:15:44 - Marc Bosmans - C240B05G
Anne De Peuter - 2018-07-28 12:42:03 - Goethals - T7035
Anne De Peuter - 2018-07-28 12:40:05 - Goethals - T7035
Team De Wilde - 2018-07-28 11:37:48 - De Wilde - P295A21G
Team De Wilde - 2018-07-28 11:34:34 - De Wilde - P292A20G
Sven Lombaerts - 2018-07-28 10:29:42 - Van Laer - F5003
Sven Lombaerts - 2018-07-28 10:28:43 - Van Laer - P7001-007
Alain Van Vlierden - 2018-07-26 10:22:12 - Van Vlierden - M306B00G
Alain Van Vlierden - 2018-07-26 10:19:37 - Van Vlierden - M306B01G
Marc Bosmans - 2018-07-25 14:59:19 - Marc Bosmans - C9052
Marc Bosmans - 2018-07-25 14:52:32 - Marc Bosmans - C9052-001
Marc Bosmans - 2018-07-25 14:11:28 - Marc Bosmans - A3028-001
Marc Bosmans - 2018-07-25 14:04:35 - Marc Bosmans - V3802
Marc Bosmans - 2018-07-25 12:57:46 - Marc Bosmans - C240B02G
Marc Bosmans - 2018-07-25 12:49:17 - Marc Bosmans - T486B04G
Jan Jacob - 2018-07-25 12:41:35 - Jacob - C3953
Alain Van Vlierden - 2018-07-24 16:34:04 - Van Vlierden - U4686
Alain Van Vlierden - 2018-07-24 16:32:15 - Van Vlierden - U4686
Jan Jacob - 2018-07-24 15:48:57 - Jacob - C9054-002
Jan Jacob - 2018-07-24 15:47:14 - Jacob - C9054-003
Mik & Veronique Vander Avort - 2018-07-24 14:48:44 - Vander Avort - C9052
Mik & Veronique Vander Avort - 2018-07-24 14:48:24 - Vander Avort - C9052
Sandra Van Sweeveldt - 2018-07-24 09:29:10 - Anne - V7013-002
Dries - 2018-07-24 09:02:21 - Dries - C5070
S en D Boetiek bvba - 2018-07-21 12:33:45 - S en D Boetiek bvba - P484B00G
Mik & Veronique Vander Avort - 2018-07-20 14:53:38 - Vander Avort - C784A06G
Mik & Veronique Vander Avort - 2018-07-20 14:51:56 - Vander Avort - C509B00G
Sarah Roelandt - 2018-07-20 14:49:03 - Roelandt Sarah - P293A18G
Catherine Abeele - 2018-07-20 10:22:55 - Abeele - C3953
Marc Bosmans - 2018-07-18 16:11:31 - Marc Bosmans - P292A21G
Marc Bosmans - 2018-07-18 16:04:37 - Marc Bosmans - P295A22G
Kristina Cuvelier - 2018-07-18 15:51:47 - Cuvelier - B9056-003
Kristina Cuvelier - 2018-07-18 15:48:41 - Cuvelier - B9056-002
Marc Bosmans - 2018-07-18 14:49:21 - Marc Bosmans - V4202
Marc Bosmans - 2018-07-18 14:42:01 - Marc Bosmans - C4821
Martine Oversteyns - 2018-07-18 09:28:20 - Oversteyns Martine - P292A18G
Evelyne Coppens - 2018-07-18 09:26:10 - Paul - P292A19G
Evelyne Coppens - 2018-07-18 09:25:16 - Paul - P292A18G
Martine Oversteyns - 2018-07-18 09:24:52 - Oversteyns Martine - P292A19G
De Greeve - 2018-07-18 08:39:46 - De Greeve - X5085
Patrick Peeters - 2018-07-17 09:56:59 - Peeters - V5054
Juwelier - uurwerkmaker Devick Francis - 2018-07-17 08:36:24 - Juwelier - uurwerkmaker Devick Francis - V5047
Evy Uyttenhove - 2018-07-16 14:32:46 - Evy d Or - C3953
Evy Uyttenhove - 2018-07-16 14:31:32 - Evy d Or - X3634
Ilse Vercammen - 2018-07-16 10:16:41 - Ilse Vercammen - E4480-001
Ilse Vercammen - 2018-07-16 10:15:15 - Ilse Vercammen - V7005-002
Vicky Coens - 2018-07-14 15:00:57 - Coens Brugge - C3953
Vicky Coens - 2018-07-14 14:54:35 - Coens Brugge - U4686
Pierre-Louis - 2018-07-14 13:44:12 - Pierre-Louis - C5074
Danny De Roover - 2018-07-14 13:26:12 - Danny De Roover - C7017-006
Anne De Peuter - 2018-07-14 10:04:42 - Goethals - X3745
Anne De Peuter - 2018-07-14 10:01:56 - Goethals - C3658
Vicky Coens - 2018-07-14 09:31:24 - Coens Brugge - C4338
Vicky Coens - 2018-07-14 09:28:19 - Coens Brugge - C3658
Eric De Waele - 2018-07-13 14:12:36 - De Waele - V5079
Eric De Waele - 2018-07-13 14:11:13 - De Waele - C5060
Catherine Abeele - 2018-07-12 15:47:27 - Abeele - B5056
Catherine Abeele - 2018-07-12 15:44:29 - Abeele - C5077
Stephan Siemon - 2018-07-12 15:17:58 - Top Watch - X1475
Stephan Siemon - 2018-07-12 13:38:37 - Top Watch - 380B00
Stephan Siemon - 2018-07-12 13:38:37 - Top Watch - 380B00
Stephan Siemon - 2018-07-12 13:35:41 - Top Watch - 380B00
Sandra Van Sweeveldt - 2018-07-12 09:29:44 - Anne - F5105
Sandra Van Sweeveldt - 2018-07-12 09:28:27 - Anne - F5105
Pol-Henry Martin - 2018-07-11 16:57:03 - Bijouterie Martin - X3962
Pol-Henry Martin - 2018-07-11 16:55:28 - Bijouterie Martin - C3238
Marc Bosmans - 2018-07-11 15:21:09 - Marc Bosmans - M311B00G
Marc Bosmans - 2018-07-11 15:12:48 - Marc Bosmans - B4980-001
Sandra Van Sweeveldt - 2018-07-11 13:30:40 - Anne - P238A11G
Mik & Veronique Vander Avort - 2018-07-10 16:21:16 - Vander Avort - V7006-003
Evy Uyttenhove - 2018-07-10 16:09:49 - Evy d Or - C2845
Evy Uyttenhove - 2018-07-10 16:08:21 - Evy d Or - C2844
Evy Uyttenhove - 2018-07-10 16:04:24 - Evy d Or - C3953
Evy Uyttenhove - 2018-07-10 16:01:50 - Evy d Or - X4782
Evy Uyttenhove - 2018-07-10 15:59:01 - Evy d Or - X4198
Marc Bosmans - 2018-07-10 09:43:45 - Marc Bosmans - P560A09G
Anne De Peuter - 2018-07-07 16:45:00 - Goethals - V5050
Anne De Peuter - 2018-07-07 16:43:06 - Goethals - C5065
Marc Bosmans - 2018-07-07 16:06:16 - Marc Bosmans - V4202
Anne De Peuter - 2018-07-07 11:09:01 - Goethals - C3755
Laurent Vanstechelman - 2018-07-06 14:24:47 - Tempo d Oro - B5059
Eric De Waele - 2018-07-06 13:08:14 - De Waele - C3801
Marc Bosmans - 2018-07-05 14:11:28 - Marc Bosmans - C495B00G
Marc Bosmans - 2018-07-05 14:08:07 - Marc Bosmans - C495B01G
Alain Van Vlierden - 2018-07-05 12:54:16 - Van Vlierden - F4784
Alain Van Vlierden - 2018-07-05 12:50:24 - Van Vlierden - P4792
Fabienne Yannick - 2018-07-04 15:28:29 - Juwelen Yannick 2 - F9021-001
Fabienne Yannick - 2018-07-04 15:26:03 - Juwelen Yannick 2 - C9021
Kristina Cuvelier - 2018-07-04 14:22:07 - Cuvelier - X4782
Kristina Cuvelier - 2018-07-04 14:20:25 - Cuvelier - C4788
Evelyne Coppens - 2018-07-04 13:16:53 - Paul - C3953
Evelyne Coppens - 2018-07-04 13:14:52 - Paul - V4202
Marc Bosmans - 2018-07-02 16:38:11 - Marc Bosmans - C495B01G
Marc Bosmans - 2018-07-02 16:34:08 - Marc Bosmans - F4785
Katrien en Hildegarde Huysman - 2018-07-02 15:35:13 - Huysman - U4686
Katrien en Hildegarde Huysman - 2018-07-02 15:29:38 - Huysman - V4206
Frederik Bongaerts - 2018-07-02 09:24:23 - Bongaerts - C9045-004
Marc Bosmans - 2018-06-30 14:06:48 - Marc Bosmans - C5236 – 0.10ct
Ilse Vercammen - 2018-06-30 13:00:27 - Ilse Vercammen - F4784
Sandra Van Sweeveldt - 2018-06-28 17:45:29 - - P295A22G
De Greeve - 2018-06-28 16:40:21 - De Greeve - X2167-001
Sarah Roelandt - 2018-06-28 14:00:24 - Roelandt Sarah - P543B00G
Filip Simoens - 2018-06-28 13:03:59 - Simoens - P295A27G
Marc Bosmans - 2018-06-27 15:09:11 - Marc Bosmans - P295A19G
Marc Bosmans - 2018-06-27 14:59:18 - Marc Bosmans - P295A18G
Sofie - 2018-06-26 14:18:19 - Jema Design - 422B01
Sofie - 2018-06-26 14:15:19 - Jema Design - 422B00
Evelyne Coppens - 2018-06-26 10:40:12 - Paul - C4224
Evelyne Coppens - 2018-06-26 10:39:01 - Paul - C3777-001
Frederik Bongaerts - 2018-06-25 09:43:52 - Bongaerts - C5078
Anne De Peuter - 2018-06-24 17:35:00 - Goethals - C2899
Anne De Peuter - 2018-06-24 17:29:42 - Goethals - F2264
Marc Bosmans - 2018-06-23 13:44:14 - Marc Bosmans - P295A19G
Marc Bosmans - 2018-06-23 13:42:50 - Marc Bosmans - P295A21G
Marc Bosmans - 2018-06-23 13:33:59 - Marc Bosmans - P238A08G
S en D Boetiek bvba - 2018-06-23 12:51:16 - S en D Boetiek bvba - C287A001 – 0.05ct.
S en D Boetiek bvba - 2018-06-23 12:51:11 - S en D Boetiek bvba - V4683
Marc Drexeler - 2018-06-23 10:54:48 - Drexeler - E4480-001
Marc Drexeler - 2018-06-23 10:52:05 - Drexeler - V7001-003
Ilse Vercammen - 2018-06-22 21:11:47 - Ilse Vercammen - C3953
Evelyne Coppens - 2018-06-22 14:53:44 - Paul - X4198
Evelyne Coppens - 2018-06-22 14:49:42 - Paul - B4980-001
jan Van Brusselen - 2018-06-20 19:14:37 - Perles d Amour - 857A07
jan Van Brusselen - 2018-06-20 19:11:18 - Perles d Amour - 857A08
jan Van Brusselen - 2018-06-20 18:46:41 - Perles d Amour - C4296
jan Van Brusselen - 2018-06-20 18:44:25 - Perles d Amour - C2450
N. Baurens - 2018-06-20 14:42:02 - Baurens - X1294
Vicky Coens - 2018-06-20 13:11:42 - Coens Brugge - P295A34G
Vicky Coens - 2018-06-20 13:10:13 - Coens Brugge - P295A32G
Anne De Peuter - 2018-06-20 10:04:37 - Goethals - X3778-001
Anne De Peuter - 2018-06-20 09:59:55 - Goethals - C3777-001
De Greeve - 2018-06-20 08:33:16 - De Greeve - C3953
Katrien en Hildegarde Huysman - 2018-06-19 16:28:15 - Huysman - V5147
Katrien en Hildegarde Huysman - 2018-06-19 16:27:14 - Huysman - V5118
Marc Bosmans - 2018-06-18 10:01:30 - Marc Bosmans - C9052
Marc Bosmans - 2018-06-18 09:52:22 - Marc Bosmans - C9052-001
Marc Bosmans - 2018-06-16 16:35:39 - Marc Bosmans - F5003
Marc Bosmans - 2018-06-16 16:31:12 - Marc Bosmans - V5171
Paul Soens - 2018-06-16 15:25:58 - Juwelen Soens - X3778-001
Paul Soens - 2018-06-16 15:22:34 - Juwelen Soens - C3777-001
Anne De Peuter - 2018-06-16 11:23:17 - Goethals - C9042-001
Anne De Peuter - 2018-06-16 11:18:39 - Goethals - F9042
Frédéric Pirson - 2018-06-15 12:37:30 - Pirson - P294A13G
Frédéric Pirson - 2018-06-15 12:35:13 - Pirson - P294A13G
Frédéric Pirson - 2018-06-15 12:32:42 - Pirson - F9021-001
Filip Simoens - 2018-06-15 10:52:52 - Simoens - P238A07G
Filip Simoens - 2018-06-15 10:48:53 - Simoens - P295A22G
Heidi Stroeckx - 2018-06-14 14:24:11 - heidistroeckx - C513B00G
Heidi Stroeckx - 2018-06-14 14:21:18 - heidistroeckx - C513B00G
Sarah Roelandt - 2018-06-14 09:43:54 - Roelandt Sarah - F5008
Peter De Leus - 2018-06-14 09:16:00 - De Leus - C822A02G
Marie Paul & Christine Reyntjens - 2018-06-13 16:40:11 - Reyntjens - F5104
Marie Paul & Christine Reyntjens - 2018-06-13 16:30:23 - Reyntjens - C9045-003
Juwelier - uurwerkmaker Devick Francis - 2018-06-12 17:07:16 - Juwelier - uurwerkmaker Devick Francis - T5082
Juwelier - uurwerkmaker Devick Francis - 2018-06-12 17:06:13 - Juwelier - uurwerkmaker Devick Francis - C5066
De Greeve - 2018-06-12 15:59:42 - De Greeve - C5066
De Greeve - 2018-06-12 15:59:01 - De Greeve - T5082
Martine Peeters - 2018-06-12 12:04:34 - KD Peeters - C5925-004
Martine Peeters - 2018-06-12 12:02:59 - KD Peeters - C5925-005
Juwelier - uurwerkmaker Devick Francis - 2018-06-12 09:05:00 - Juwelier - uurwerkmaker Devick Francis - C5060
Juwelier - uurwerkmaker Devick Francis - 2018-06-12 09:03:31 - Juwelier - uurwerkmaker Devick Francis - V5079
Anne De Peuter - 2018-06-11 17:32:28 - Goethals - X3634
Marc Bosmans - 2018-06-11 17:08:23 - Marc Bosmans - T504B02G
Marc Bosmans - 2018-06-11 17:03:37 - Marc Bosmans - C487B00G
Evelyne Coppens - 2018-06-09 16:36:06 - Paul - M387A02G
Evelyne Coppens - 2018-06-09 16:33:25 - Paul - C5919-006
De Greeve - 2018-06-09 15:54:09 - De Greeve - P7013-007
Vanhoutteghem - 2018-06-09 15:50:51 - Van Houtteghem - X3634
Marc Bosmans - 2018-06-09 14:49:31 - Marc Bosmans - C231B04G
Marc Bosmans - 2018-06-09 14:43:25 - Marc Bosmans - C499B01G
Stephan Siemon - 2018-06-09 14:41:58 - Top Watch - C3658
Marc Bosmans - 2018-06-09 13:38:18 - Marc Bosmans - C4166
Marc Bosmans - 2018-06-09 13:29:02 - Marc Bosmans - P295A23G
Christine & Marjolein - 2018-06-09 12:18:09 - Yolande - T7029-002
Vanhoutteghem - 2018-06-07 11:02:54 - Van Houtteghem - C4338
Team De Wilde - 2018-06-06 15:44:06 - De Wilde - T4225
Peter De Leus - 2018-06-06 14:16:31 - De Leus - C4788
Peter De Leus - 2018-06-06 14:14:34 - De Leus - X4782
Dhr/Mevr - 2018-06-06 13:59:41 - Dekock - C287A002 – 0.07ct.
Sandra Van Sweeveldt - 2018-06-06 11:24:20 - Anne - C7016-006
Sandra Van Sweeveldt - 2018-06-06 11:22:26 - Anne - P317B00
Sandra Van Sweeveldt - 2018-06-06 11:21:45 - Anne - C4813
Juwelier - uurwerkmaker Devick Francis - 2018-06-05 16:54:46 - Juwelier - uurwerkmaker Devick Francis - F5086
Juwelier - uurwerkmaker Devick Francis - 2018-06-05 16:53:10 - Juwelier - uurwerkmaker Devick Francis - C5061
Alain Van Vlierden - 2018-06-05 16:14:42 - Van Vlierden - C3658
Alain Van Vlierden - 2018-06-05 16:10:46 - Van Vlierden - V4202
Catherine Abeele - 2018-06-05 15:59:59 - Abeele - F4130
Catherine Abeele - 2018-06-05 15:59:03 - Abeele - C4148
Dries - 2018-06-05 14:01:58 - Dries - C5064
Dries - 2018-06-05 14:00:26 - Dries - C3777-001
Dries - 2018-06-05 13:57:44 - Dries - C4156
Martine Verbruggen - 2018-06-05 11:52:47 - verbruggen - V4337
Martine Verbruggen - 2018-06-05 11:50:22 - verbruggen - T159B00G
Eric De Waele - 2018-06-05 09:19:35 - De Waele - B5059
Eric De Waele - 2018-06-05 09:08:24 - De Waele - C5078
Eric De Waele - 2018-06-05 09:05:33 - De Waele - F5105
Eric De Waele - 2018-06-05 09:01:40 - De Waele - F5105
Frédéric Pirson - 2018-06-05 08:52:33 - Pirson - 553B00
Frédéric Pirson - 2018-06-05 08:51:20 - Pirson - 553B01
Frédéric Pirson - 2018-06-05 08:49:42 - Pirson - C4430
Frédéric Pirson - 2018-06-05 08:48:34 - Pirson - C5120
Patrick Peeters - 2018-06-04 19:32:00 - Peeters - V5049
Patrick Peeters - 2018-06-04 19:29:25 - Peeters - V5047
Patrick Peeters - 2018-06-04 19:26:20 - Peeters - V5047
Frederik Bongaerts - 2018-06-04 15:54:41 - Bongaerts - V5079
Frederik Bongaerts - 2018-06-04 15:53:02 - Bongaerts - C5066
Marc & Hilde Jehaes - 2018-06-04 13:31:13 - Jehaes - V7001-003
Marc Bosmans - 2018-06-04 10:36:01 - Marc Bosmans - C3801
Marc Bosmans - 2018-06-04 10:30:49 - Marc Bosmans - X3692
Sandra Van Sweeveldt - 2018-06-04 08:05:15 - Anne - X3634
Annick Gysemberg - 2018-06-03 14:25:37 - gysembergannick - N3941
Tim & Sandra Hendrickx - 2018-06-02 15:59:22 - Hendrickx - M307B00G
Tim & Sandra Hendrickx - 2018-06-02 15:58:05 - Hendrickx - M307B00G
Marc Bosmans - 2018-06-02 13:42:43 - Marc Bosmans - V7003-002
Marc Bosmans - 2018-06-02 13:33:19 - Marc Bosmans - E4480-001
Anne De Peuter - 2018-06-02 12:50:34 - Goethals - C3658
Anne De Peuter - 2018-06-02 12:48:10 - Goethals - C4338
Katrien en Hildegarde Huysman - 2018-06-02 10:05:32 - Huysman - C7009-003
- 2018-06-02 10:02:06 - Jagre - C784A06G
- 2018-06-02 09:53:23 - Jagre - X4782
Alain Van Vlierden - 2018-06-01 16:26:09 - Van Vlierden - C9045-003
Alain Van Vlierden - 2018-06-01 15:32:42 - Van Vlierden - C9045-003
Anne De Peuter - 2018-06-01 13:43:07 - Goethals - E2829
Anne De Peuter - 2018-06-01 13:40:21 - Goethals - C2828
Viola Vetters - 2018-06-01 12:48:52 - Orion - C9045-003
Evi Vandeweyer - 2018-05-31 08:49:35 - Vandeweyer - V5053
N. Baurens - 2018-05-30 12:38:13 - Baurens - U1676
Sandra Van Sweeveldt - 2018-05-29 15:28:02 - Anne - M312B01G
Sandra Van Sweeveldt - 2018-05-29 15:26:58 - Anne - M312B00G
Vanhoutteghem - 2018-05-29 15:08:20 - Van Houtteghem - C5919-006
Dries - 2018-05-29 12:51:22 - Dries - U4686
Dries - 2018-05-29 12:40:18 - Dries - V5050
Dries - 2018-05-29 12:39:27 - Dries - C5065
Marie-Christine Hermans - 2018-05-29 11:55:59 - Juwelen Marie-Christine - C5925-006
Marie-Christine Hermans - 2018-05-29 11:52:06 - Juwelen Marie-Christine - C5925-007
Dries - 2018-05-29 09:55:29 - Dries - C4338
Dries - 2018-05-29 09:51:47 - Dries - V5048
Dries - 2018-05-29 09:50:53 - Dries - C5075
Marc Drexeler - 2018-05-28 13:27:21 - Drexeler - C2859-005
Marc Drexeler - 2018-05-28 13:23:17 - Drexeler - C2859-004
Sarah Roelandt - 2018-05-26 17:20:31 - Roelandt Sarah - P292A20G
Vanhoutteghem - 2018-05-26 13:49:07 - Van Houtteghem - C9045-004
Vanhoutteghem - 2018-05-26 13:47:52 - Van Houtteghem - C9045-003
Sven Lombaerts - 2018-05-26 13:44:36 - Van Laer - V7001-003
Anne De Peuter - 2018-05-26 13:41:05 - Goethals - V4683
Anne De Peuter - 2018-05-26 13:37:55 - Goethals - V4683
De Greeve - 2018-05-26 13:21:27 - De Greeve - C5078
De Greeve - 2018-05-26 13:20:59 - De Greeve - B5059
Tim & Sandra Hendrickx - 2018-05-26 09:33:16 - Hendrickx - V7012-003
Tim & Sandra Hendrickx - 2018-05-26 09:32:49 - Hendrickx - V7012-003
Marc Bosmans - 2018-05-25 17:06:20 - Marc Bosmans - X4038
Marc Bosmans - 2018-05-25 16:55:20 - Marc Bosmans - T504B02G
Christine & Marjolein - 2018-05-25 16:16:47 - Yolande - T7029-002
Laurent Vanstechelman - 2018-05-25 10:39:38 - Tempo d Oro - C487B00G
Laurent Vanstechelman - 2018-05-25 10:35:42 - Tempo d Oro - C487B00G
S en D Boetiek bvba - 2018-05-25 09:59:51 - S en D Boetiek bvba - B4988
Gallet - Claeys - 2018-05-24 15:47:33 - Gallet - Claeys - C3028-002
Gallet - Claeys - 2018-05-24 15:46:51 - Gallet - Claeys - A3028-001
Team De Wilde - 2018-05-24 13:45:26 - De Wilde - 207B01
Team De Wilde - 2018-05-24 13:43:57 - De Wilde - 207B00
Heidi Stroeckx - 2018-05-24 10:16:07 - heidistroeckx - V5118
Heidi Stroeckx - 2018-05-24 09:48:51 - heidistroeckx - C510B00G
Sandra Van Sweeveldt - 2018-05-24 09:31:02 - Anne - P295A30
Sandra Van Sweeveldt - 2018-05-24 09:29:05 - Anne - P317B00
Sandra Van Sweeveldt - 2018-05-24 09:25:00 - Anne - P317B01
Sandra Van Sweeveldt - 2018-05-24 09:23:25 - Anne - U1676
Alain Van Vlierden - 2018-05-23 17:42:41 - Van Vlierden - C518B00G
Alain Van Vlierden - 2018-05-23 17:39:08 - Van Vlierden - C4156
Juwelier - uurwerkmaker Devick Francis - 2018-05-23 16:17:06 - Juwelier - uurwerkmaker Devick Francis - V5050
Esthel Rams - 2018-05-23 13:43:43 - Juwelen Rams - C5636
Esthel Rams - 2018-05-23 13:42:29 - Juwelen Rams - C5636
Alain Van Vlierden - 2018-05-23 13:22:36 - Van Vlierden - M309B00G
Alain Van Vlierden - 2018-05-23 13:20:55 - Van Vlierden - M309B00G
Sarah Roelandt - 2018-05-23 11:43:27 - Roelandt Sarah - M387A02G
Sarah Roelandt - 2018-05-23 11:34:51 - Roelandt Sarah - C5919-006
- 2018-05-22 17:18:40 - Jagre - V7001-003
- 2018-05-22 17:14:39 - Jagre - V7001-003
Esthel Rams - 2018-05-22 16:20:14 - Juwelen Rams - C515B01G
Esthel Rams - 2018-05-22 16:19:14 - Juwelen Rams - C515B00G
N. Baurens - 2018-05-22 15:05:20 - Baurens - V7004-002
N. Baurens - 2018-05-22 14:57:41 - Baurens - P7004-007
Verena - 2018-05-22 10:14:43 - Verena - T3796
Patrick Peeters - 2018-05-21 18:41:35 - Peeters - F5086
Esthel Rams - 2018-05-19 15:44:10 - Juwelen Rams - C9052
De Greeve - 2018-05-19 15:43:37 - De Greeve - F5086
Esthel Rams - 2018-05-19 15:41:33 - Juwelen Rams - C9052-001
Verena - 2018-05-19 14:28:28 - Verena - T3796
Anne De Peuter - 2018-05-19 14:17:29 - Goethals - C2940
Anne De Peuter - 2018-05-19 13:49:12 - Goethals - C3755
Verena - 2018-05-19 13:15:28 - Verena - 393B01
Verena - 2018-05-19 13:13:40 - Verena - 393B01
Evelyne Coppens - 2018-05-18 16:57:27 - Paul - C9021
Evelyne Coppens - 2018-05-18 16:45:33 - Paul - V4202
Catherine Abeele - 2018-05-18 16:19:31 - Abeele - C4223
Catherine Abeele - 2018-05-18 16:17:49 - Abeele - C4224
Evelyne Coppens - 2018-05-18 15:43:40 - Paul - C3953
Evelyne Coppens - 2018-05-18 15:39:16 - Paul - U4686
Vanhoutteghem - 2018-05-18 15:37:31 - Van Houtteghem - C9052-001
Vanhoutteghem - 2018-05-18 15:36:14 - Van Houtteghem - C9052
Anne De Peuter - 2018-05-18 15:05:04 - Goethals - C3953
Anne De Peuter - 2018-05-18 14:47:25 - Goethals - V7006-003
Alain Van Vlierden - 2018-05-18 10:04:31 - Van Vlierden - P7014-007
Alain Van Vlierden - 2018-05-17 13:30:34 - Van Vlierden - C3801
Bart Bourgois - 2018-05-17 10:23:20 - Bourgois - V5502-001
Marc Bosmans - 2018-05-16 15:59:57 - Marc Bosmans - X2574
Martine Peeters - 2018-05-16 13:26:04 - KD Peeters - C489B00G
Martine Peeters - 2018-05-16 13:20:58 - KD Peeters - T489B02G
Ilse Vercammen - 2018-05-16 11:10:21 - Ilse Vercammen - T484B02G
Danny De Roover - 2018-05-15 15:30:28 - Danny De Roover - T9163-006
Danny De Roover - 2018-05-15 15:28:15 - Danny De Roover - C9163-007
Anne De Peuter - 2018-05-15 10:02:32 - Goethals - U4686
Anne De Peuter - 2018-05-15 10:00:40 - Goethals - C3801
Nadia Souverijns - 2018-05-15 09:50:59 - Tibax - C3755
N. Baurens - 2018-05-15 09:24:30 - Baurens - C3732
Frédéric Pirson - 2018-05-15 09:01:06 - Pirson - C4224
Frédéric Pirson - 2018-05-15 09:00:07 - Pirson - C4223
Frédéric Pirson - 2018-05-15 08:57:00 - Pirson - P291A22G
Laurent Vanstechelman - 2018-05-14 17:12:09 - Tempo d Oro - T496B02G
Annik De Mey - 2018-05-14 14:55:40 - Annik De Mey - T4225
Annik De Mey - 2018-05-14 14:53:51 - Annik De Mey - C3768
Annik De Mey - 2018-05-14 14:49:26 - Annik De Mey - E4480-001
Annik De Mey - 2018-05-14 14:47:48 - Annik De Mey - X2167-001
Sven Lombaerts - 2018-05-13 10:23:05 - Van Laer - C3953
Team De Wilde - 2018-05-12 16:40:02 - De Wilde - C487B00G
Marc Drexeler - 2018-05-12 15:54:10 - Drexeler - C503B00G
Marc Drexeler - 2018-05-12 15:52:44 - Drexeler - C503B00G
- 2018-05-12 14:17:05 - Heleven - F3012
- 2018-05-12 14:16:18 - Heleven - C3011
De Greeve - 2018-05-12 10:18:21 - De Greeve - C509B00G
De Greeve - 2018-05-12 10:16:15 - De Greeve - F4785
Eric De Waele - 2018-05-12 08:33:03 - De Waele - B5052
Eric De Waele - 2018-05-12 08:31:37 - De Waele - B5062
Ilse Vercammen - 2018-05-11 15:42:38 - Ilse Vercammen - M307B01G
Eric De Waele - 2018-05-11 13:48:06 - De Waele - C5074
Eric De Waele - 2018-05-11 13:46:18 - De Waele - C5057
Marc Bosmans - 2018-05-11 10:43:16 - Marc Bosmans - P238A08G
Marc Bosmans - 2018-05-11 10:34:10 - Marc Bosmans - P408A001
S en D Boetiek bvba - 2018-05-10 12:39:48 - S en D Boetiek bvba - V4683
Marc Bosmans - 2018-05-09 16:25:49 - Marc Bosmans - M309B00G
Marc Bosmans - 2018-05-09 16:21:10 - Marc Bosmans - M309B01G
Patrick Peeters - 2018-05-08 07:40:49 - Peeters - F5086
Kurt De Block - 2018-05-07 14:57:40 - Kortrijkse Goudcentrale - M307B00G
S en D Boetiek bvba - 2018-05-07 11:07:26 - S en D Boetiek bvba - C9054-002
S en D Boetiek bvba - 2018-05-07 11:01:34 - S en D Boetiek bvba - C9054-003
Katrien en Hildegarde Huysman - 2018-05-07 09:33:34 - Huysman - V5502-002
Katrien en Hildegarde Huysman - 2018-05-07 09:31:31 - Huysman - V5502-002
Sandra Van Sweeveldt - 2018-05-07 09:08:18 - Anne - V5053
Ilse Vercammen - 2018-05-05 16:03:47 - Ilse Vercammen - C3658
Evelyne Coppens - 2018-05-05 15:59:19 - Paul - F9021-001
Evelyne Coppens - 2018-05-05 15:57:55 - Paul - C3953
Ilse Vercammen - 2018-05-05 15:57:43 - Ilse Vercammen - C4224
Marc Bosmans - 2018-05-05 15:26:47 - Marc Bosmans - P295A22G
Catherine Abeele - 2018-05-05 14:19:42 - Abeele - C5055
Catherine Abeele - 2018-05-05 14:18:29 - Abeele - C5073
Filip Simoens - 2018-05-05 13:24:57 - Simoens - P238A08G
Filip Simoens - 2018-05-05 13:21:24 - Simoens - P238A05G
Team De Wilde - 2018-05-05 10:45:54 - De Wilde - X3778-001
Marc Drexeler - 2018-05-04 13:48:50 - Drexeler - V7013-002
Marc Drexeler - 2018-05-04 13:47:02 - Drexeler - P7013-007
Frederik Bongaerts - 2018-05-03 16:25:17 - Bongaerts - F5086
Frederik Bongaerts - 2018-05-03 16:23:21 - Bongaerts - C5071
Anne De Peuter - 2018-05-03 13:51:18 - Goethals - C2951
Marc Bosmans - 2018-05-03 13:31:50 - Marc Bosmans - C9045-003
Marc Bosmans - 2018-05-03 13:29:33 - Marc Bosmans - C9045-004
Sandra Van Sweeveldt - 2018-05-03 12:18:44 - Michael - W5253-half
Sandra Van Sweeveldt - 2018-05-03 12:18:10 - Michael -
Sandra Van Sweeveldt - 2018-05-03 07:47:33 - Anne -
Annik De Mey - 2018-05-02 16:09:49 - Annik De Mey -
Nadia Souverijns - 2018-05-02 14:50:47 - Tibax -
Nadia Souverijns - 2018-05-02 14:48:53 - Tibax -
Anneleen Eyckmans - 2018-05-02 11:04:31 - Anneleen Eyckmans -
Evi Vandeweyer - 2018-05-02 08:35:44 - Vandeweyer - C5064
Evi Vandeweyer - 2018-05-02 08:34:43 - Vandeweyer - V5053
Marc Bosmans - 2018-04-30 14:00:15 - Marc Bosmans - C4809
Marc Bosmans - 2018-04-30 13:59:06 - Marc Bosmans - P292A20G
Sven Lombaerts - 2018-04-29 09:36:23 - Van Laer - C3953
Verena - 2018-04-28 16:14:50 - Verena - X3634
Dries - 2018-04-28 15:45:08 - Dries - C5070
Dries - 2018-04-28 15:40:02 - Dries - X5085
Sofie - 2018-04-28 14:52:24 - Jema Design - U4686
Vanhoutteghem - 2018-04-28 11:10:51 - Van Houtteghem - C4148
Vanhoutteghem - 2018-04-28 11:08:15 - Van Houtteghem - F4130
Ilse Vercammen - 2018-04-28 09:57:35 - Ilse Vercammen - F5103
Ilse Vercammen - 2018-04-28 09:55:03 - Ilse Vercammen - C9045-004
Vanhoutteghem - 2018-04-28 09:42:14 - Van Houtteghem - B9056-002
Marc Bosmans - 2018-04-28 09:17:13 - Marc Bosmans - V7001-003
Marc Bosmans - 2018-04-28 09:11:04 - Marc Bosmans - V5171
Marc Bosmans - 2018-04-27 17:06:22 - Marc Bosmans - C509B00G
Marc Bosmans - 2018-04-27 17:00:21 - Marc Bosmans - T509B02G
Catherine Abeele - 2018-04-27 16:58:27 - Abeele - T5082
Catherine Abeele - 2018-04-27 16:56:50 - Abeele - C5066
- 2018-04-27 13:49:01 - COPPENS - P496B00G
- 2018-04-27 13:46:57 - COPPENS - P496B00G
Martine - 2018-04-27 09:49:21 - Toermalijn - B7049-002
Martine - 2018-04-27 09:47:26 - Toermalijn - B7049-002
Nadia Souverijns - 2018-04-26 16:12:38 - Tibax - C4338
Nadia Souverijns - 2018-04-26 16:09:43 - Tibax - C3658
Katrien en Hildegarde Huysman - 2018-04-26 14:28:27 - Huysman - C9045-003
Katrien en Hildegarde Huysman - 2018-04-26 14:27:21 - Huysman - C9045-004
Peter De Leus - 2018-04-25 12:49:37 - De Leus - C4223
Laurent Vanstechelman - 2018-04-25 09:17:00 - Tempo d Oro - X2167-001
Laurent Vanstechelman - 2018-04-25 09:16:12 - Tempo d Oro - E4480-001
Paul Soens - 2018-04-25 08:41:40 - Juwelen Soens - P478B00G
Paul Soens - 2018-04-25 08:40:22 - Juwelen Soens - U4686
Anne De Peuter - 2018-04-24 15:09:24 - Goethals - V4202
Anne De Peuter - 2018-04-24 15:07:38 - Goethals - V4202
Team De Wilde - 2018-04-24 14:51:08 - De Wilde - P317B00
Team De Wilde - 2018-04-24 14:49:50 - De Wilde - P291A27
Gallet - Claeys - 2018-04-24 14:46:40 - Gallet - Claeys - C7009-003
Team De Wilde - 2018-04-24 10:11:26 - De Wilde - C9045-003
Team De Wilde - 2018-04-24 09:52:13 - De Wilde - C9045-004
Sandra Van Sweeveldt - 2018-04-24 08:56:41 - Anne - C231B04G
Sandra Van Sweeveldt - 2018-04-24 08:55:33 - Anne - P292A19G
Sven Lombaerts - 2018-04-21 16:17:26 - Van Laer - C3953
Evelyne Coppens - 2018-04-21 15:41:53 - Paul - X4782
Evelyne Coppens - 2018-04-21 15:40:08 - Paul - C4788
Frederik Bongaerts - 2018-04-21 13:47:59 - Bongaerts - P4789
Marc Bosmans - 2018-04-21 10:25:29 - Marc Bosmans - P543B00G
Marc Bosmans - 2018-04-21 10:24:43 - Marc Bosmans - C543B01G
Ilse Vercammen - 2018-04-20 17:16:52 - Ilse Vercammen - P484B00G
Ilse Vercammen - 2018-04-20 17:15:21 - Ilse Vercammen - T484B02G
Paul Soens - 2018-04-19 16:40:47 - Juwelen Soens - F4786
Paul Soens - 2018-04-19 16:37:52 - Juwelen Soens - C4791
Tom Daeseleire - 2018-04-19 15:32:10 - tom - P292A19G
Tom Daeseleire - 2018-04-19 15:28:54 - tom - P292A20G
Sarah Roelandt - 2018-04-19 14:49:34 - Roelandt Sarah - T9163-006
Marc Bosmans - 2018-04-18 16:02:31 - Marc Bosmans - F3731
Marc Bosmans - 2018-04-18 15:56:20 - Marc Bosmans - C3732
Marc Drexeler - 2018-04-18 15:18:03 - Drexeler - V7013-002
Marc Drexeler - 2018-04-18 14:03:32 - Drexeler - V7001-003
Marc Drexeler - 2018-04-18 14:02:40 - Drexeler - P7001-007
Martine Verbruggen - 2018-04-18 12:27:59 - verbruggen - C4224
Juwelier - uurwerkmaker Devick Francis - 2018-04-18 08:57:46 - Juwelier - uurwerkmaker Devick Francis - T7021-002
Juwelier - uurwerkmaker Devick Francis - 2018-04-18 08:56:34 - Juwelier - uurwerkmaker Devick Francis - T7021
Christine & Marjolein - 2018-04-17 15:56:40 - Yolande - C2821
Catherine Abeele - 2018-04-17 15:50:14 - Abeele - V4212
Catherine Abeele - 2018-04-17 15:48:33 - Abeele - C4211
Pierre-Louis - 2018-04-17 13:37:42 - Pierre-Louis - X5085
Ingrid Aertssens - 2018-04-16 12:04:06 - Ingrid Aertssens - P295A18G
Annik De Mey - 2018-04-16 08:06:43 - Annik De Mey - V7013-002
Annik De Mey - 2018-04-16 08:04:50 - Annik De Mey - P7013-007
Sven Lombaerts - 2018-04-16 07:56:08 - Van Laer - C4166
Anne De Peuter - 2018-04-14 15:10:55 - Goethals - T7019-002
Dries - 2018-04-14 12:52:08 - Dries - V7001-003
Paul Soens - 2018-04-14 10:09:05 - Juwelen Soens - P496B00G
Paul Soens - 2018-04-14 10:06:28 - Juwelen Soens - C784A06G
Catherine Abeele - 2018-04-13 13:19:00 - Abeele - C3963
Paul Soens - 2018-04-12 15:50:27 - Juwelen Soens - C3953
Paul Soens - 2018-04-12 15:46:49 - Juwelen Soens - P483B00G
Laurent Vanstechelman - 2018-04-12 14:01:49 - Tempo d Oro - P560A09G
Martine Verbruggen - 2018-04-12 12:02:56 - verbruggen - M387A02G
Martine Verbruggen - 2018-04-12 11:57:42 - verbruggen - C5919-006
Sandra Van Sweeveldt - 2018-04-11 15:13:10 - Anne - C9048
Tom Daeseleire - 2018-04-11 14:31:18 - tom - P292A20G
Anneleen Eyckmans - 2018-04-11 12:34:12 - Anneleen Eyckmans - U5504-002
Laurent Vanstechelman - 2018-04-11 09:48:22 - Tempo d Oro - P7004-007
Laurent Vanstechelman - 2018-04-11 09:47:38 - Tempo d Oro - V7004-002
Christine & Marjolein - 2018-04-10 13:43:44 - Yolande - V7003-002
Vanhoutteghem - 2018-04-10 11:07:03 - Van Houtteghem - X3634
Anne De Peuter - 2018-04-10 09:02:27 - Goethals - V4202
Anne De Peuter - 2018-04-10 09:00:33 - Goethals - V4202
Frédéric Pirson - 2018-04-10 08:47:20 - Pirson - P291A20G
Frédéric Pirson - 2018-04-10 08:46:13 - Pirson - P291A19G
Frédéric Pirson - 2018-04-10 08:44:07 - Pirson - P291A19G
Frédéric Pirson - 2018-04-10 08:42:40 - Pirson - P292A20G
Frédéric Pirson - 2018-04-10 08:39:52 - Pirson - C822A04G
Frédéric Pirson - 2018-04-10 08:38:39 - Pirson - X3778-001
Sarah Roelandt - 2018-04-09 13:40:06 - Roelandt Sarah - P484B00G
Sarah Roelandt - 2018-04-09 13:21:43 - Roelandt Sarah - T484B02G
Roger Borremans - 2018-04-09 10:28:09 - La coquille d Or - C3953
Sandra Van Sweeveldt - 2018-04-09 10:26:16 - - U4686
Marc Bosmans - 2018-04-07 16:44:49 - Marc Bosmans - C503B00G
Ilse Vercammen - 2018-04-07 15:12:25 - Ilse Vercammen - C9045-003
Ilse Vercammen - 2018-04-07 15:10:50 - Ilse Vercammen - C9045-004
Anne De Peuter - 2018-04-05 15:26:52 - Goethals - X3962
Anne De Peuter - 2018-04-05 15:22:01 - Goethals - C3238
Sandra Van Sweeveldt - 2018-04-05 14:19:55 - Anne - P314B00
Marc Bosmans - 2018-04-05 10:04:33 - Marc Bosmans - X2574
Tim & Sandra Hendrickx - 2018-04-04 15:19:39 - Hendrickx - P7011-007
Paul Soens - 2018-04-04 10:41:36 - Juwelen Soens - C240B02G
Paul Soens - 2018-04-04 10:40:05 - Juwelen Soens - C240B02G
Pol-Henry Martin - 2018-04-04 09:31:16 - Bijouterie Martin - C5076
Ilse Vercammen - 2018-04-03 14:05:38 - Ilse Vercammen - M387A02G
Marc Bosmans - 2018-04-03 10:54:07 - Marc Bosmans - X4782
Marc Bosmans - 2018-04-03 10:52:25 - Marc Bosmans - C4788
Marc Drexeler - 2018-04-03 10:41:07 - Drexeler - X3778-001
Nadia Souverijns - 2018-04-03 10:39:37 - Tibax - V5050
Nadia Souverijns - 2018-04-03 10:37:20 - Tibax - C5065
Frederik Bongaerts - 2018-03-31 19:36:37 - Bongaerts - C5919-006
Frederik Bongaerts - 2018-03-31 19:35:27 - Bongaerts - C5919-006
Stephan Siemon - 2018-03-31 15:24:39 - Top Watch - U1485
Stephan Siemon - 2018-03-31 15:23:23 - Top Watch - U1485
Paul Soens - 2018-03-31 14:35:49 - Juwelen Soens - F4786
Fabienne Yannick - 2018-03-31 13:13:30 - Juwelen Yannick 2 - C4224
Fabienne Yannick - 2018-03-31 13:07:00 - Juwelen Yannick 2 - C4223
De Greeve - 2018-03-31 10:31:16 - De Greeve - C5066
De Greeve - 2018-03-31 10:30:37 - De Greeve - C5066
Evelyne Coppens - 2018-03-30 15:41:25 - Paul - C9048-001
Jan Jacob - 2018-03-30 14:23:06 - Jacob - F4995
- 2018-03-30 13:54:44 - Jagre - C5919-006
- 2018-03-30 13:47:15 - Jagre - C4811
Peter De Leus - 2018-03-30 12:28:39 - De Leus - F9040
Peter De Leus - 2018-03-30 12:27:41 - De Leus - C9040-001
Marc Bosmans - 2018-03-29 10:54:40 - Marc Bosmans - V4227
Marc Bosmans - 2018-03-29 10:53:15 - Marc Bosmans - V4227
Marc Bosmans - 2018-03-28 13:48:54 - Marc Bosmans - P501B00G
Marc Bosmans - 2018-03-28 13:47:41 - Marc Bosmans - C501B01G
Christine & Marjolein - 2018-03-28 12:38:02 - Yolande - C4557-004
Christine & Marjolein - 2018-03-28 12:36:12 - Yolande - C4557-002
Marc Drexeler - 2018-03-28 10:42:59 - Drexeler - V7014-003
Filip Simoens - 2018-03-27 14:29:38 - Simoens - C5071
Filip Simoens - 2018-03-27 14:26:18 - Simoens - F5086
Marc Bosmans - 2018-03-27 13:25:51 - Marc Bosmans - C4156
Marc Bosmans - 2018-03-27 13:15:26 - Marc Bosmans - P501B00G
- 2018-03-27 10:17:33 - Fabienne Van Kesteren - 474B03
Marc Bosmans - 2018-03-27 09:26:54 - Marc Bosmans - V7013-002
Marc Bosmans - 2018-03-27 09:19:52 - Marc Bosmans - P7013-007
Marc Bosmans - 2018-03-26 14:27:19 - Marc Bosmans - C5636
Marc Bosmans - 2018-03-26 14:08:08 - Marc Bosmans - C5636-001
Eric De Waele - 2018-03-26 09:57:26 - De Waele - C5060
Eric De Waele - 2018-03-26 09:55:37 - De Waele - F5086
Laurent Vanstechelman - 2018-03-25 12:38:05 - Tempo d Oro - V7004-002
Laurent Vanstechelman - 2018-03-25 12:37:26 - Tempo d Oro - P7004-007
Vanhoutteghem - 2018-03-24 16:58:11 - Van Houtteghem - F4130
Martine Verbruggen - 2018-03-23 14:30:15 - verbruggen - C3953
Martine Verbruggen - 2018-03-23 11:32:43 - verbruggen - V7004-002
Martine Verbruggen - 2018-03-23 11:25:03 - verbruggen - P7004-007
Marc Bosmans - 2018-03-21 16:37:13 - Marc Bosmans - P292A20G
Marc Bosmans - 2018-03-21 16:33:38 - Marc Bosmans - T489B02G
Anne De Peuter - 2018-03-21 13:46:18 - Goethals - F4784
Frederik Bongaerts - 2018-03-19 15:38:12 - Bongaerts - C3658
Frederik Bongaerts - 2018-03-19 15:34:32 - Bongaerts - C4338
Marie-Christine Hermans - 2018-03-19 14:08:35 - Juwelen Marie-Christine - C9052-001
Marie-Christine Hermans - 2018-03-19 14:02:14 - Juwelen Marie-Christine - C9052
De Greeve - 2018-03-17 16:08:23 - De Greeve - V5048
De Greeve - 2018-03-17 16:07:46 - De Greeve - C5075
Christine & Marjolein - 2018-03-17 13:34:58 - Yolande - V7004-002
Marc Bosmans - 2018-03-17 11:38:56 - Marc Bosmans - C3658
Marc Bosmans - 2018-03-17 11:37:24 - Marc Bosmans - C4338
Suzan Broothaerts - 2018-03-16 16:26:53 - Juwelier Vissers - T476B02G
Eric De Waele - 2018-03-15 14:37:56 - De Waele - V5080
Eric De Waele - 2018-03-15 14:36:00 - De Waele - P405A001
Eric De Waele - 2018-03-15 14:32:21 - De Waele - C5073
Eric De Waele - 2018-03-15 14:29:37 - De Waele - C5055
Thomas De Graeve - 2018-03-15 12:06:52 - De Baere - T321A01G
Anne De Peuter - 2018-03-14 16:36:28 - Goethals - C2869
Anne De Peuter - 2018-03-14 16:34:16 - Goethals - F2870
Sven Lombaerts - 2018-03-14 11:59:36 - Van Laer - C3658
Martine Verbruggen - 2018-03-14 11:59:33 - verbruggen - X2167-001
Martine Verbruggen - 2018-03-14 11:56:45 - verbruggen - P7004-007
Sven Lombaerts - 2018-03-14 11:48:07 - Van Laer - C4338
Vanhoutteghem - 2018-03-13 16:15:24 - Van Houtteghem - X3692
Catherine Abeele - 2018-03-13 12:27:01 - Abeele - V4202
Sofie - 2018-03-13 11:15:49 - Jema Design - X5501-001
Sofie - 2018-03-13 11:14:02 - Jema Design - X5501-001
Laurent Vanstechelman - 2018-03-12 14:59:17 - Tempo d Oro - F4292
Laurent Vanstechelman - 2018-03-12 14:58:49 - Tempo d Oro - C2457
Evelyne Coppens - 2018-03-10 17:46:45 - Paul - C9052
Marie Paul & Christine Reyntjens - 2018-03-10 14:23:11 - Reyntjens - 400B01
Verena - 2018-03-10 14:17:49 - Verena - X3778-001
Ilse Vercammen - 2018-03-10 11:26:08 - Ilse Vercammen - T473B00G
Marc Bosmans - 2018-03-09 10:35:58 - Marc Bosmans - C513B00G
Marc Bosmans - 2018-03-09 10:31:51 - Marc Bosmans - C513B01G
Martine - 2018-03-08 16:30:27 - Toermalijn - P7001-007
Martine Verbruggen - 2018-03-08 15:50:01 - verbruggen - C5919-006
Martine Verbruggen - 2018-03-08 15:48:10 - verbruggen - M387A02G
N. Baurens - 2018-03-08 10:43:02 - Baurens - U1678
N. Baurens - 2018-03-08 10:39:14 - Baurens - C9021
Alain Van Vlierden - 2018-03-07 17:34:54 - Van Vlierden - C5077
Alain Van Vlierden - 2018-03-07 17:33:41 - Van Vlierden - B5056
Evy Uyttenhove - 2018-03-07 10:30:34 - Evy d Or - C9045-004
Evy Uyttenhove - 2018-03-07 10:20:58 - Evy d Or - X4962
Evy Uyttenhove - 2018-03-07 10:07:54 - Evy d Or - V5147
De Greeve - 2018-03-06 16:48:29 - De Greeve - V5053
De Greeve - 2018-03-06 16:47:50 - De Greeve - C5064
Marc Bosmans - 2018-03-06 14:30:25 - Marc Bosmans - C499B01G
Marc Bosmans - 2018-03-06 14:28:51 - Marc Bosmans - P501B00G
Evi Vandeweyer - 2018-03-06 10:46:20 - Vandeweyer - V5046
Jan Jacob - 2018-03-06 09:22:33 - Jacob - C9055-007
Jan Jacob - 2018-03-06 09:20:19 - Jacob - C9055-006
Sandra Van Sweeveldt - 2018-03-05 14:31:33 - Anne - M516B00G
Marc Bosmans - 2018-03-05 13:51:26 - Marc Bosmans - P504B00G
Marc Bosmans - 2018-03-05 13:49:23 - Marc Bosmans - T504B02G
Ilse Vercammen - 2018-03-05 11:10:39 - Ilse Vercammen - X3692
Marc Bosmans - 2018-03-05 10:58:25 - Marc Bosmans - F5003
Marc Bosmans - 2018-03-05 10:55:18 - Marc Bosmans - C4557-002
Marc Bosmans - 2018-03-05 10:46:03 - Marc Bosmans - P238A07G
Marc Bosmans - 2018-03-05 10:33:48 - Marc Bosmans - B4980-001
Marc Bosmans - 2018-03-05 10:24:58 - Marc Bosmans - M311B01G
Marc Bosmans - 2018-03-05 10:22:19 - Marc Bosmans - M311B00G
Sven Lombaerts - 2018-03-04 11:34:17 - Van Laer - C4384
Verena - 2018-03-03 17:49:49 - Verena - M306B00G
Verena - 2018-03-03 17:47:33 - Verena - M306B00G
Team De Wilde - 2018-03-03 17:13:07 - De Wilde - U4980-002
Ilse Vercammen - 2018-03-03 16:29:49 - Ilse Vercammen - V4138-005
De Greeve - 2018-03-03 15:43:09 - De Greeve - X2167-001
Sofie - 2018-03-03 15:05:20 - Jema Design - X4684
Sofie - 2018-03-03 15:03:39 - Jema Design - X4684
De Greeve - 2018-03-03 14:54:23 - De Greeve - C3953
Marc Bosmans - 2018-03-03 14:46:57 - Marc Bosmans - C3801
Marc Bosmans - 2018-03-03 14:46:09 - Marc Bosmans - V3802
Pierre-Louis - 2018-03-03 14:32:00 - Pierre-Louis - F5086
Pierre-Louis - 2018-03-03 14:30:55 - Pierre-Louis - C5071
Filip Simoens - 2018-03-02 14:06:38 - Simoens - C5081
Filip Simoens - 2018-03-02 14:03:04 - Simoens - C5063
Martine Verbruggen - 2018-03-02 13:58:06 - verbruggen - B4985
Martine Verbruggen - 2018-03-02 13:56:52 - verbruggen - C4808
Martine Verbruggen - 2018-03-02 13:54:54 - verbruggen - C3953
Bart Bourgois - 2018-03-01 16:30:59 - Bourgois - V4202
Kurt De Block - 2018-03-01 14:49:20 - Kortrijkse Goudcentrale - C4788
Kurt De Block - 2018-03-01 14:47:55 - Kortrijkse Goudcentrale - X4782
De Greeve - 2018-02-28 11:59:14 - De Greeve - C3953
Evelyne Coppens - 2018-02-28 10:56:53 - Paul - F9021-001
Anne De Peuter - 2018-02-27 12:26:33 - Goethals - C4338
Anne De Peuter - 2018-02-27 12:22:54 - Goethals - C3658
Evi Vandeweyer - 2018-02-27 12:01:20 - Vandeweyer - C515B00G
Evi Vandeweyer - 2018-02-27 11:59:58 - Vandeweyer - P4792
Evi Vandeweyer - 2018-02-27 11:58:52 - Vandeweyer - F4784
Evi Vandeweyer - 2018-02-27 11:57:30 - Vandeweyer - C5063
Evi Vandeweyer - 2018-02-27 11:56:20 - Vandeweyer - C5081
Evi Vandeweyer - 2018-02-27 11:54:45 - Vandeweyer - A3028-001
Marie Paul & Christine Reyntjens - 2018-02-27 08:42:17 - Reyntjens - C9052
Marc Bosmans - 2018-02-26 16:02:35 - Marc Bosmans - C4557-001
Marc Bosmans - 2018-02-26 16:00:37 - Marc Bosmans - C4557-002
Dirk Van Schoenwinkel - 2018-02-26 15:35:03 - Juweliers Van Schoenwinkel - X4198
Dirk Van Schoenwinkel - 2018-02-26 15:32:35 - Juweliers Van Schoenwinkel - U4980-002
Alain Van Vlierden - 2018-02-24 15:06:37 - Van Vlierden - V1838
Katrien en Hildegarde Huysman - 2018-02-24 15:04:42 - Huysman - V5053
Katrien en Hildegarde Huysman - 2018-02-24 15:01:55 - Huysman - C5064
Christine & Marjolein - 2018-02-24 14:12:33 - Yolande - F4130
Christine & Marjolein - 2018-02-24 14:09:02 - Yolande - C4148
Christine & Marjolein - 2018-02-24 14:06:38 - Yolande - X3774
Christine & Marjolein - 2018-02-24 14:04:50 - Yolande - C1668
Evelyne Coppens - 2018-02-23 17:29:08 - Paul - C9052
Ilse Vercammen - 2018-02-23 17:28:21 - Ilse Vercammen - X2889
Evelyne Coppens - 2018-02-23 17:27:05 - Paul - C9052-001
Katrien en Hildegarde Huysman - 2018-02-23 17:22:59 - Huysman - X2167-001
Katrien en Hildegarde Huysman - 2018-02-23 17:22:11 - Huysman - E4480-001
Marc Bosmans - 2018-02-23 16:37:46 - Marc Bosmans - F4995
Marc Bosmans - 2018-02-23 16:34:23 - Marc Bosmans - F5169
Marc Bosmans - 2018-02-23 16:29:49 - Marc Bosmans - M514B00G
Marc Bosmans - 2018-02-23 16:27:41 - Marc Bosmans - M514B01G
Anne De Peuter - 2018-02-23 12:10:38 - Goethals - U4686
Stephan Siemon - 2018-02-22 10:42:11 - Top Watch - F1137
N. Baurens - 2018-02-20 16:03:19 - Baurens - C3755
N. Baurens - 2018-02-20 16:01:01 - Baurens - C3760
Vanhoutteghem - 2018-02-20 14:38:08 - Van Houtteghem - C4338
Vanhoutteghem - 2018-02-20 14:36:57 - Van Houtteghem - C3658
Ilse Vercammen - 2018-02-20 11:30:25 - Ilse Vercammen - F5020
Ilse Vercammen - 2018-02-20 11:18:17 - Ilse Vercammen - P238A06G
Tim & Sandra Hendrickx - 2018-02-20 09:24:29 - Hendrickx - C3953
Tim & Sandra Hendrickx - 2018-02-20 09:20:26 - Hendrickx - V5080
Kurt De Block - 2018-02-19 11:38:30 - Kortrijkse Goudcentrale - V5147
Kurt De Block - 2018-02-19 11:37:15 - Kortrijkse Goudcentrale - V5118
Ingrid Aertssens - 2018-02-18 16:04:49 - Ingrid Aertssens - C536B00G
Ingrid Aertssens - 2018-02-18 16:00:54 - Ingrid Aertssens - T484B01G
Ingrid Aertssens - 2018-02-18 15:56:55 - Ingrid Aertssens - C9045-003
Ingrid Aertssens - 2018-02-18 15:54:45 - Ingrid Aertssens - C9045-003
Catherine Abeele - 2018-02-17 18:02:53 - Abeele - C3953
Ilse Vercammen - 2018-02-17 17:02:28 - Ilse Vercammen - V7005-002
Pierre-Louis - 2018-02-17 15:09:02 - Pierre-Louis - T5082
Pierre-Louis - 2018-02-17 15:07:17 - Pierre-Louis - C5066
Sarah Roelandt - 2018-02-17 14:32:51 - Roelandt Sarah - E4480-001
Sarah Roelandt - 2018-02-17 14:30:57 - Roelandt Sarah - X2167-001
Catherine Abeele - 2018-02-17 14:11:17 - Abeele - X5085
Catherine Abeele - 2018-02-17 14:10:34 - Abeele - C5070
Sarah Roelandt - 2018-02-17 13:24:04 - Roelandt Sarah - C5636-001
Vanhoutteghem - 2018-02-17 13:01:08 - Van Houtteghem - A3028-001
Ilse Vercammen - 2018-02-17 11:38:11 - Ilse Vercammen - P484B00G
Pierre-Louis - 2018-02-17 11:36:51 - Pierre-Louis - V5049
Ilse Vercammen - 2018-02-17 11:04:01 - Ilse Vercammen - V7002-003
Dries - 2018-02-17 10:36:32 - Dries - X3778-001
Dries - 2018-02-17 10:35:04 - Dries - C3777-001
Marie-Christine Hermans - 2018-02-17 10:29:01 - Juwelen Marie-Christine - U4508
De Greeve - 2018-02-17 10:24:15 - De Greeve - C3963
Marie-Christine Hermans - 2018-02-17 10:22:24 - Juwelen Marie-Christine - V4512
Ilse Vercammen - 2018-02-16 17:47:51 - Ilse Vercammen - M307B00G
Ilse Vercammen - 2018-02-16 17:44:15 - Ilse Vercammen - M307B01G
Catherine Abeele - 2018-02-16 14:53:25 - Abeele - V4202
Catherine Abeele - 2018-02-16 14:50:08 - Abeele - A3028-001
Marc Bosmans - 2018-02-16 14:42:30 - Marc Bosmans - P295A19G
Marc Bosmans - 2018-02-16 14:38:58 - Marc Bosmans - P295A18G
De Greeve - 2018-02-15 17:37:14 - De Greeve - C9021
Evelyne Coppens - 2018-02-14 18:04:12 - Paul - X4782
Evelyne Coppens - 2018-02-14 18:02:52 - Paul - T321A01G
De Greeve - 2018-02-14 13:41:17 - De Greeve - C5074
De Greeve - 2018-02-14 13:40:42 - De Greeve - C5066
N. Baurens - 2018-02-13 15:28:17 - Baurens - C4809
Annik De Mey - 2018-02-13 15:17:15 - Annik De Mey - V5080
De Greeve - 2018-02-13 15:13:55 - De Greeve - F5086
De Greeve - 2018-02-13 15:13:18 - De Greeve - C5071
Catherine Abeele - 2018-02-13 11:07:06 - Abeele - C4223
Catherine Abeele - 2018-02-13 11:04:47 - Abeele - C4224
Filip Simoens - 2018-02-10 17:08:32 - Simoens - P292A22G
Filip Simoens - 2018-02-10 17:05:12 - Simoens - P294A13G
Team De Wilde - 2018-02-10 15:07:24 - De Wilde - X4782
Fabienne Yannick - 2018-02-10 12:51:36 - Juwelen Yannick 2 - M387A02G
Patrick Peeters - 2018-02-10 12:10:33 - Peeters - C5063
Patrick Peeters - 2018-02-10 12:08:52 - Peeters - C5081
Kurt De Block - 2018-02-10 09:54:50 - Kortrijkse Goudcentrale - C9048
De Greeve - 2018-02-09 18:48:10 - De Greeve - T559A01G – 0.07ct.
Alain Van Vlierden - 2018-02-09 16:03:53 - Van Vlierden - 422B01
Alain Van Vlierden - 2018-02-09 16:01:24 - Van Vlierden - 422B00
Anne De Peuter - 2018-02-09 15:29:29 - Goethals - C4338
Anne De Peuter - 2018-02-09 15:27:35 - Goethals - C3658
Marc Bosmans - 2018-02-09 09:49:13 - Marc Bosmans - C546B01G
Marc Bosmans - 2018-02-09 09:46:30 - Marc Bosmans - C3451-004
Jan Jacob - 2018-02-08 15:49:06 - Jacob - F4995
Jan Jacob - 2018-02-08 15:45:57 - Jacob - F4995
Marc Bosmans - 2018-02-08 15:05:44 - Marc Bosmans - X2889
Marc Bosmans - 2018-02-08 14:55:29 - Marc Bosmans - P7013-007
- 2018-02-08 12:56:49 - Matthys - F2334
N. Baurens - 2018-02-08 10:09:08 - Baurens - V1722
Evy Uyttenhove - 2018-02-08 10:07:04 - Evy d Or - C5097
Dries - 2018-02-07 17:47:29 - Dries - C9055-007
Dries - 2018-02-07 17:45:20 - Dries - C9055-006
Marc Bosmans - 2018-02-07 15:32:06 - Marc Bosmans - P560A09G
Dries - 2018-02-07 13:38:18 - Dries - C3777-001
Tom Daeseleire - 2018-02-07 10:19:30 - tom - F5014
Vanhoutteghem - 2018-02-06 15:57:52 - Van Houtteghem - V4202
Filip Simoens - 2018-02-06 09:59:44 - Simoens - C9052-001
Filip Simoens - 2018-02-06 09:56:36 - Simoens - P238A13G
Kristina Cuvelier - 2018-02-04 16:14:45 - Cuvelier - P7002-007
Kristina Cuvelier - 2018-02-04 16:12:52 - Cuvelier - V7002-003
Evelyne Coppens - 2018-02-03 17:32:07 - Paul - P292A19G
Evelyne Coppens - 2018-02-03 17:30:36 - Paul - P291A20G
Pierre-Louis - 2018-02-03 16:58:12 - Pierre-Louis - X4782
Marc Bosmans - 2018-02-03 16:56:58 - Marc Bosmans - P501B00G
Marc Bosmans - 2018-02-03 16:54:50 - Marc Bosmans - C784A06G
Ilse Vercammen - 2018-02-03 12:51:19 - Ilse Vercammen - V7005-002
De Greeve - 2018-02-01 21:49:54 - De Greeve - P292A22G
Nadia Souverijns - 2018-02-01 15:59:00 - Tibax - F4785
Nadia Souverijns - 2018-02-01 15:57:38 - Tibax - P4789
Marc Bosmans - 2018-01-31 16:41:12 - Marc Bosmans - T489B02G
Marc Bosmans - 2018-01-31 16:38:38 - Marc Bosmans - C9054-002
Christiaan Van Bignoot - 2018-01-31 16:05:36 - Van Bignoot - C4338
Eric De Waele - 2018-01-31 12:25:27 - Heursel - V4202
Marc Bosmans - 2018-01-31 12:15:34 - Marc Bosmans - M305B00G
Marc Bosmans - 2018-01-31 12:05:08 - Marc Bosmans - M305B01G
Catherine Abeele - 2018-01-30 11:19:22 - Abeele - C3755
Frédéric Pirson - 2018-01-30 09:48:41 - Pirson - U4686
Frédéric Pirson - 2018-01-30 09:47:00 - Pirson - C3953
Evelyne Coppens - 2018-01-27 16:14:05 - Paul - U4686
Katrien en Hildegarde Huysman - 2018-01-27 16:05:31 - Huysman - V5502-002
Marc Drexeler - 2018-01-27 15:31:26 - Drexeler - V7013-002
Marc Drexeler - 2018-01-27 15:14:49 - Drexeler - P7013-007
Jan Jacob - 2018-01-27 15:12:36 - Jacob - C9055-007
Jan Jacob - 2018-01-27 15:09:11 - Jacob - C9055-006
Marc Drexeler - 2018-01-27 11:54:02 - Drexeler - V7001-003
Marc Drexeler - 2018-01-27 11:52:26 - Drexeler - P7001-007
Marc Bosmans - 2018-01-27 11:33:16 - Marc Bosmans - C503B00G
Marc Bosmans - 2018-01-27 11:00:45 - Marc Bosmans - C9054-002
Marc Bosmans - 2018-01-27 10:57:02 - Marc Bosmans - C9054-003
Patrick Peeters - 2018-01-26 17:32:46 - Peeters - C5065
Evelyne Coppens - 2018-01-26 17:06:20 - Paul - A3028-001
Evelyne Coppens - 2018-01-26 17:04:31 - Paul - C4338
Anne De Peuter - 2018-01-26 11:18:45 - Goethals - U4686
Anne De Peuter - 2018-01-26 11:16:00 - Goethals - C3953
N. Baurens - 2018-01-25 16:47:57 - Baurens - T3796
Kristina Cuvelier - 2018-01-25 15:12:18 - Cuvelier - X4782
Kristina Cuvelier - 2018-01-25 15:11:21 - Cuvelier - C4788
N. Baurens - 2018-01-24 16:13:56 - Baurens - V1289
N. Baurens - 2018-01-24 16:09:49 - Baurens - P7013-007
Annick Gysemberg - 2018-01-24 14:10:31 - gysembergannick - X2663
Annick Gysemberg - 2018-01-24 14:09:16 - gysembergannick - E2662
Marc Bosmans - 2018-01-24 12:22:06 - Marc Bosmans - C501B01G
Anne De Peuter - 2018-01-24 10:37:28 - Goethals - C2828
Eric De Waele - 2018-01-23 11:51:35 - De Waele - C3963
Marc Bosmans - 2018-01-23 11:49:23 - Marc Bosmans - F5100
Eric De Waele - 2018-01-23 11:48:46 - De Waele - C5076
Marc Bosmans - 2018-01-23 11:48:23 - Marc Bosmans - F5101
Marc Bosmans - 2018-01-22 17:22:11 - Marc Bosmans - V7013-002
Marc Bosmans - 2018-01-22 17:19:25 - Marc Bosmans - P7013-007
Filip Simoens - 2018-01-22 17:04:40 - Simoens - C4338
Stephan Siemon - 2018-01-20 15:50:32 - Top Watch - U1485
Stephan Siemon - 2018-01-20 15:48:53 - Top Watch - U1485
Stephan Siemon - 2018-01-20 15:48:53 - Top Watch - U1485
Marc Bosmans - 2018-01-20 15:20:02 - Marc Bosmans - C9052
Marc Bosmans - 2018-01-20 15:14:46 - Marc Bosmans - C9052-001
Marc Drexeler - 2018-01-20 13:48:38 - Drexeler - V7013-002
Marc Drexeler - 2018-01-20 13:46:37 - Drexeler - P7013-007
Annick Gysemberg - 2018-01-20 10:25:57 - gysembergannick - X3778-001
Filip Simoens - 2018-01-19 14:07:33 - Simoens - C3658
Pierre-Louis - 2018-01-18 17:34:53 - Pierre-Louis - F5086
Pierre-Louis - 2018-01-18 17:34:12 - Pierre-Louis - C5071
Roger Borremans - 2018-01-18 12:11:11 - La coquille d Or - F5086
Roger Borremans - 2018-01-18 12:08:48 - La coquille d Or - C5071
Nadia Souverijns - 2018-01-17 11:04:55 - Tibax - V3802
Nadia Souverijns - 2018-01-17 11:03:49 - Tibax - C3801
Peter De Leus - 2018-01-17 10:52:21 - De Leus - C4788
Peter De Leus - 2018-01-17 10:51:00 - De Leus - X4782
Anne De Peuter - 2018-01-16 12:34:24 - Goethals - C2899
Anne De Peuter - 2018-01-16 12:32:27 - Goethals - F1137
Marc Bosmans - 2018-01-16 10:43:22 - Marc Bosmans - V7001-003
Marc Bosmans - 2018-01-16 10:41:30 - Marc Bosmans - P7001-007
Team De Wilde - 2018-01-16 10:21:02 - De Wilde - C4338
Marc Bosmans - 2018-01-15 15:49:33 - Marc Bosmans - C240B02G
Sarah Roelandt - 2018-01-15 14:39:27 - Roelandt Sarah - X3692
Yves Vanbeveren - 2018-01-15 11:45:45 - Vanbeveren - C4338
Yves Vanbeveren - 2018-01-15 11:43:23 - Vanbeveren - C3658
Marc Bosmans - 2018-01-15 11:23:20 - Marc Bosmans - C3863
Catherine Abeele - 2018-01-13 20:28:34 - Abeele - V4683
Evelyne Coppens - 2018-01-13 17:58:42 - Paul - V4202
Laurent Vanstechelman - 2018-01-13 16:59:37 - Tempo d Oro - P7013-007
Laurent Vanstechelman - 2018-01-13 16:58:38 - Tempo d Oro - C487B00G
Pierre-Louis - 2018-01-13 16:51:14 - Pierre-Louis - F4785
Celine Vanstechelman - 2018-01-10 17:17:30 - Eye-C - B5062
Celine Vanstechelman - 2018-01-10 17:15:48 - Eye-C - B5052
Dries - 2018-01-10 16:27:28 - Dries - C784A04G
Stephan Siemon - 2018-01-10 10:29:16 - Top Watch - U1485
Stephan Siemon - 2018-01-10 10:06:30 - Top Watch - U1485
Juwelier - uurwerkmaker Devick Francis - 2018-01-10 09:09:20 - Juwelier - uurwerkmaker Devick Francis - V5080
Juwelier - uurwerkmaker Devick Francis - 2018-01-10 09:07:58 - Juwelier - uurwerkmaker Devick Francis - C5076
Peter De Leus - 2018-01-09 13:47:42 - De Leus - C3801
Filip Simoens - 2018-01-08 17:44:32 - Simoens - P292A18G
Marc Buseyne - 2018-01-07 11:11:25 - Busseyne - T3796
Marc Buseyne - 2018-01-07 11:10:15 - Busseyne - C4148
Marc Buseyne - 2018-01-07 11:07:58 - Busseyne - F4130
Marie Paul & Christine Reyntjens - 2018-01-06 17:03:43 - Reyntjens - C3953
- 2018-01-06 15:56:26 - Jagre - X4782
- 2018-01-06 15:51:55 - Jagre - C2863
Katrien en Hildegarde Huysman - 2018-01-06 15:27:35 - Huysman - X2167-001
Katrien en Hildegarde Huysman - 2018-01-06 14:45:53 - Huysman - X2167-001
Katrien en Hildegarde Huysman - 2018-01-06 14:42:40 - Huysman - P408A001
Marie Paul & Christine Reyntjens - 2018-01-06 14:33:58 - Reyntjens - C3801
Marie Paul & Christine Reyntjens - 2018-01-06 14:31:24 - Reyntjens - V3802
Anne De Peuter - 2018-01-06 12:58:26 - Goethals - C5919-006
Anne De Peuter - 2018-01-06 12:56:13 - Goethals - C5919-007
Marc Bosmans - 2018-01-06 12:37:51 - Marc Bosmans - C536B00G
Marc Bosmans - 2018-01-06 12:32:14 - Marc Bosmans - C536B01G
Marc Bosmans - 2018-01-05 11:02:43 - Marc Bosmans - B4985
Anne De Peuter - 2018-01-04 15:17:33 - Goethals - F2870
Anne De Peuter - 2018-01-04 15:13:38 - Goethals - C4148
Anne De Peuter - 2018-01-03 16:16:22 - Goethals - X4198
Marc Bosmans - 2018-01-03 11:09:10 - Marc Bosmans - M312B01G
Marc Bosmans - 2018-01-03 11:05:52 - Marc Bosmans - F5003
Anne De Peuter - 2018-01-02 18:14:06 - Goethals - C2828
Anne De Peuter - 2018-01-02 18:11:06 - Goethals - E2829
Anne De Peuter - 2018-01-02 17:45:52 - Goethals - X3634
Anne De Peuter - 2018-01-02 17:41:40 - Goethals - C3953
Christine & Marjolein - 2017-12-31 14:19:32 - Yolande - B7048
Pol-Henry Martin - 2017-12-30 10:48:00 - Bijouterie Martin - X3962
Pol-Henry Martin - 2017-12-30 10:45:08 - Bijouterie Martin - C3238
Sofie - 2017-12-29 16:30:10 - Jema Design - V3802
Sofie - 2017-12-29 16:28:08 - Jema Design - C3801
Marc Bosmans - 2017-12-29 16:24:31 - Marc Bosmans - M311B00G
Ilse Vercammen - 2017-12-29 15:42:42 - Ilse Vercammen - F4785-005
Marc Bosmans - 2017-12-29 10:55:28 - Marc Bosmans - C503B02G
Marc Bosmans - 2017-12-29 10:28:37 - Marc Bosmans - P238A09G
Alain Van Vlierden - 2017-12-29 10:22:05 - Van Vlierden - E4480-001
Alain Van Vlierden - 2017-12-29 10:19:09 - Van Vlierden - X2167-001
Kurt De Block - 2017-12-28 09:18:27 - Kortrijkse Goudcentrale - C3801
Nadia Souverijns - 2017-12-27 17:52:52 - Tibax - M387A02G
Nadia Souverijns - 2017-12-27 17:49:47 - Tibax - T9163-006
Evelyne Coppens - 2017-12-23 13:06:36 - Paul - X4782
N. Baurens - 2017-12-23 12:46:32 - Baurens - V1620
Tim & Sandra Hendrickx - 2017-12-22 18:13:18 - Hendrickx - C3658
Filip Simoens - 2017-12-22 14:30:24 - Simoens - V7011-002
Filip Simoens - 2017-12-22 14:27:44 - Simoens - P7011-007
Eric De Waele - 2017-12-21 10:34:59 - De Waele - C5065
Eric De Waele - 2017-12-21 10:33:18 - De Waele - V5050
Annik De Mey - 2017-12-20 16:23:41 - Annik De Mey - C4809
N. Baurens - 2017-12-19 16:58:40 - Baurens - V7004-002
Tim & Sandra Hendrickx - 2017-12-19 15:48:04 - Hendrickx - U4686
Tim & Sandra Hendrickx - 2017-12-19 15:47:19 - Hendrickx - U4686
Pierre-Louis - 2017-12-19 10:11:38 - Pierre-Louis - V5049
Pierre-Louis - 2017-12-19 10:10:46 - Pierre-Louis - C5068
Vanhoutteghem - 2017-12-18 17:10:28 - Van Houtteghem - C9045-003
Vanhoutteghem - 2017-12-18 17:09:21 - Van Houtteghem - C9045-004
Marc Drexeler - 2017-12-18 13:50:10 - Drexeler - T4225
Marc Drexeler - 2017-12-18 13:48:17 - Drexeler - C3953
Evelyne Coppens - 2017-12-17 15:20:58 - Paul - V4206
Evelyne Coppens - 2017-12-17 15:19:30 - Paul - C4163
Alain Van Vlierden - 2017-12-16 16:33:41 - Van Vlierden - V4202
Alain Van Vlierden - 2017-12-16 16:30:25 - Van Vlierden - V4202
- 2017-12-14 16:53:05 - Jagre - F9042
- 2017-12-14 16:50:14 - Jagre - C9042-001
Eric De Waele - 2017-12-12 17:47:33 - De Waele - B5056
Eric De Waele - 2017-12-12 17:44:47 - De Waele - C5077
Filip Simoens - 2017-12-12 15:14:27 - Simoens - C9052
Marc Bosmans - 2017-12-12 12:17:54 - Marc Bosmans - C9054-003
Marc Bosmans - 2017-12-12 12:16:11 - Marc Bosmans - C9054-002
Dirk Dekempe - 2017-12-09 18:24:06 - Dekempe - C4338
Dirk Dekempe - 2017-12-09 18:21:35 - Dekempe - C3658
Marc Bosmans - 2017-12-09 15:04:46 - Marc Bosmans - V5118
Marc Bosmans - 2017-12-09 14:08:47 - Marc Bosmans - V5147
Vicky Coens - 2017-12-09 10:27:11 - Coens Brugge - C3953
Vicky Coens - 2017-12-09 10:25:14 - Coens Brugge - V4227
De Greeve - 2017-12-08 22:33:23 - De Greeve - X4782
De Greeve - 2017-12-08 22:32:53 - De Greeve - C4788
Ilse Vercammen - 2017-12-08 17:31:16 - Ilse Vercammen - V7005-002
Kristina Cuvelier - 2017-12-08 15:36:11 - Cuvelier - C4788
Kristina Cuvelier - 2017-12-08 15:34:23 - Cuvelier - X4782
Frederik Bongaerts - 2017-12-08 13:42:28 - Bongaerts - F5086
Marie-Christine Hermans - 2017-12-07 19:29:35 - Juwelen Marie-Christine - V4206
Dries - 2017-12-06 18:06:57 - Dries - C5078
Marc Bosmans - 2017-12-04 12:13:22 - Marc Bosmans - C9052-001
Marc Bosmans - 2017-12-04 12:11:02 - Marc Bosmans - C9052
Ilse Vercammen - 2017-12-04 11:59:09 - Ilse Vercammen - T473B00G
Pierre-Louis - 2017-12-02 14:51:06 - Pierre-Louis - C5061
Pierre-Louis - 2017-12-02 14:50:27 - Pierre-Louis - V5047
Evelyne Coppens - 2017-12-02 10:57:33 - Paul - V4206
Christine & Marjolein - 2017-11-30 15:22:45 - Yolande - C2928
Christine & Marjolein - 2017-11-30 15:21:54 - Yolande - T3796
Alain Van Vlierden - 2017-11-30 13:43:19 - Van Vlierden - C503B03G
Fabienne Yannick - 2017-11-30 12:45:28 - Juwelen Yannick 2 - C4224
Fabienne Yannick - 2017-11-30 12:43:46 - Juwelen Yannick 2 - C4384
Filip Simoens - 2017-11-29 15:49:39 - Simoens - P496B00G
Christine & Marjolein - 2017-11-28 10:46:05 - Yolande - F3731
Christine & Marjolein - 2017-11-28 10:44:15 - Yolande - C3732
Frederik Bongaerts - 2017-11-27 11:55:44 - Bongaerts - C5919-006
Ingrid Aertssens - 2017-11-26 13:19:59 - Ingrid Aertssens - P560A09G
Laurent Vanstechelman - 2017-11-25 11:14:14 - Tempo d Oro - P7013-007
Laurent Vanstechelman - 2017-11-25 11:12:51 - Tempo d Oro - V7013-002
Anne De Peuter - 2017-11-24 10:21:27 - Goethals - F1137
Laurent Vanstechelman - 2017-11-24 09:40:13 - Tempo d Oro - C5068
Catherine Abeele - 2017-11-23 15:53:20 - Abeele - C4338
Nadia Souverijns - 2017-11-23 10:18:44 - Tibax - V7042-003
Nadia Souverijns - 2017-11-23 10:18:04 - Tibax - V7042-001
Team De Wilde - 2017-11-21 15:48:27 - De Wilde - T4225
Team De Wilde - 2017-11-21 15:46:52 - De Wilde - C3768
Eric De Waele - 2017-11-20 10:58:00 - De Waele - C5070
Eric De Waele - 2017-11-20 10:55:18 - De Waele - V5079
Eric De Waele - 2017-11-20 10:49:08 - De Waele - F5105
Filip Simoens - 2017-11-18 16:13:01 - Simoens - X5501-002
Filip Simoens - 2017-11-18 16:10:27 - Simoens - X5501-001
- 2017-11-18 15:27:13 - SPRL BARCHY - F1137
Nadia Souverijns - 2017-11-18 14:16:04 - Tibax - C4197
Marc Bosmans - 2017-11-18 11:24:37 - Marc Bosmans - T484B02G
Marc Bosmans - 2017-11-18 11:20:46 - Marc Bosmans - P484B00G
Peter De Leus - 2017-11-16 17:40:00 - De Leus - C4338
Fabienne Yannick - 2017-11-15 17:49:58 - Juwelen Yannick 2 - V4513
N. Baurens - 2017-11-15 14:22:14 - Baurens - U1678
Vicky Coens - 2017-11-15 12:02:47 - Coens Brugge - C3645
Evi Vandeweyer - 2017-11-14 09:39:07 - Vandeweyer - B5062
Evi Vandeweyer - 2017-11-14 09:37:37 - Vandeweyer - B5052
Laurent Vanstechelman - 2017-11-13 14:06:56 - Tempo d Oro - F4292
Laurent Vanstechelman - 2017-11-13 14:06:07 - Tempo d Oro - C2457
Laurent Vanstechelman - 2017-11-13 14:06:06 - Tempo d Oro - C2457
Ilse Vercammen - 2017-11-10 17:54:28 - Ilse Vercammen - X4782
Anne De Peuter - 2017-11-10 15:59:30 - Goethals - F1137
Anne De Peuter - 2017-11-10 15:52:51 - Goethals - C2899
Mik & Veronique Vander Avort - 2017-11-10 09:47:39 - Vander Avort - X3692
Frédéric Pirson - 2017-11-10 09:47:16 - Pirson - F5111
Frédéric Pirson - 2017-11-10 09:46:31 - Pirson - F5111
De Greeve - 2017-11-09 14:26:14 - De Greeve - V5049
De Greeve - 2017-11-09 14:24:50 - De Greeve - C4788
Anne De Peuter - 2017-11-06 17:17:02 - Goethals - V3802
Marc Bosmans - 2017-11-06 11:37:10 - Marc Bosmans - C5636
Marc Bosmans - 2017-11-06 11:31:17 - Marc Bosmans - C3863
Vicky Coens - 2017-11-04 10:20:03 - Coens Brugge - X3745
Vicky Coens - 2017-11-04 10:17:55 - Coens Brugge - X3745
Vicky Coens - 2017-11-03 15:21:33 - Coens Brugge - C3658
Marc Drexeler - 2017-11-03 14:40:00 - Drexeler - E4480-001
Marc Drexeler - 2017-11-03 14:37:12 - Drexeler - X2167-001
Evelyne Coppens - 2017-11-03 12:38:16 - Paul - U4686
Anne De Peuter - 2017-11-02 15:29:24 - Goethals - C3801
Alain Van Vlierden - 2017-11-02 12:30:25 - Van Vlierden - M308B01G
Alain Van Vlierden - 2017-11-02 12:26:36 - Van Vlierden - M308B00G
Anne De Peuter - 2017-10-31 14:51:39 - Goethals - T3758
Marc Bosmans - 2017-10-30 11:26:04 - Marc Bosmans - P560A09G
Marc Bosmans - 2017-10-30 11:22:51 - Marc Bosmans - C2189
Marc Bosmans - 2017-10-30 11:08:53 - Marc Bosmans - C9054-003
Marc Bosmans - 2017-10-30 11:02:49 - Marc Bosmans - C9054-002
Marc Buseyne - 2017-10-28 18:19:19 - Busseyne - C3953
Laurent Vanstechelman - 2017-10-28 14:15:51 - Tempo d Oro - V3802
Laurent Vanstechelman - 2017-10-28 14:15:13 - Tempo d Oro - C784A06G
Catherine Abeele - 2017-10-28 14:02:49 - Abeele - C3755
De Greeve - 2017-10-28 11:42:39 - De Greeve - X4782
Frédéric Pirson - 2017-10-27 15:42:08 - Pirson - P292A19G
Laurent Vanstechelman - 2017-10-26 19:43:40 - Tempo d Oro - C9045-003
Laurent Vanstechelman - 2017-10-26 19:42:11 - Tempo d Oro - C9045-004
David Van Bellingen - 2017-10-26 09:42:01 - Van Bellingen - C5077
Martine Verbruggen - 2017-10-24 12:57:19 - verbruggen - A3028-001
Marc Drexeler - 2017-10-24 08:05:31 - Drexeler - X3778-001
Marc Drexeler - 2017-10-24 08:03:57 - Drexeler - C9052-001
Marc Bosmans - 2017-10-21 16:16:11 - Marc Bosmans - C784A06G
Marc Bosmans - 2017-10-21 16:14:09 - Marc Bosmans - C784A04G
jan Van Brusselen - 2017-10-21 15:25:42 - Perles d Amour - F1966
jan Van Brusselen - 2017-10-21 15:23:15 - Perles d Amour - F3967
Christine & Marjolein - 2017-10-21 12:54:15 - Yolande - T7039-003
Christine & Marjolein - 2017-10-21 10:24:16 - Yolande - T7039-003
Christine & Marjolein - 2017-10-21 10:22:12 - Yolande - P7001-007
Eric De Waele - 2017-10-20 14:29:02 - Heursel - X4782
Marc Bosmans - 2017-10-19 16:44:58 - Marc Bosmans - C538B00G
Marc Bosmans - 2017-10-19 16:43:26 - Marc Bosmans - M306B00G
Verena - 2017-10-19 11:08:40 - Verena - C5067
N. Baurens - 2017-10-18 14:15:40 - Baurens - V1721
Dries - 2017-10-18 13:12:56 - Dries - C5071
Dries - 2017-10-18 13:11:24 - Dries - F5086
Eric De Waele - 2017-10-17 14:55:33 - De Waele - C5066
Eric De Waele - 2017-10-17 14:53:14 - De Waele - V5053
Vanhoutteghem - 2017-10-17 14:30:17 - Van Houtteghem - M839A01G
Thomas De Graeve - 2017-10-17 10:06:26 - De Baere - C9045-004
Marc Bosmans - 2017-10-13 13:31:24 - Marc Bosmans - B4138
Marc Bosmans - 2017-10-13 13:26:01 - Marc Bosmans - C3451-004
Thomas De Graeve - 2017-10-11 14:01:31 - De Baere - C3953
Thomas De Graeve - 2017-10-11 14:00:23 - De Baere - X4198
Marc Bosmans - 2017-10-11 11:19:20 - Marc Bosmans - C9054-002
Marc Bosmans - 2017-10-11 11:14:59 - Marc Bosmans - C9054-003
Anne De Peuter - 2017-10-09 13:58:38 - Goethals - C5078
Anne De Peuter - 2017-10-09 13:54:45 - Goethals - T7019
Laurent Vanstechelman - 2017-10-08 15:41:20 - Tempo d Oro - C9048-001
Laurent Vanstechelman - 2017-10-08 15:39:40 - Tempo d Oro - C9048
Anne De Peuter - 2017-10-07 14:26:01 - Goethals - U4686
Anne De Peuter - 2017-10-07 14:16:13 - Goethals - V4202
Kurt De Block - 2017-10-07 09:50:09 - Kortrijkse Goudcentrale - C9055-006
Kurt De Block - 2017-10-07 09:48:37 - Kortrijkse Goudcentrale - C9052-001
Pierre-Louis - 2017-10-03 16:34:59 - Pierre-Louis - B5052
Fabienne Yannick - 2017-10-03 14:05:12 - Juwelen Yannick 2 - C9045-004
Fabienne Yannick - 2017-10-03 13:59:14 - Juwelen Yannick 2 - C9055-006
Eric De Waele - 2017-10-03 10:23:12 - De Waele - C9045-004
Eric De Waele - 2017-10-03 10:21:36 - De Waele - C9045-003
Dries - 2017-10-03 09:53:44 - Dries - F4130
Dries - 2017-10-03 09:52:26 - Dries - C4148
Vicky Coens - 2017-09-30 16:23:56 - Coens Brugge - C2859-005
Vicky Coens - 2017-09-30 16:22:54 - Coens Brugge - C2859-004
Isabelle Leblans - 2017-09-30 15:27:23 - Leblans - F4689
Marc Bosmans - 2017-09-30 14:54:21 - Marc Bosmans - X2827
Marc Bosmans - 2017-09-30 14:51:52 - Marc Bosmans - C2826
Marc Bosmans - 2017-09-27 09:29:16 - Marc Bosmans - P291A20G
Bart Bourgois - 2017-09-26 15:47:05 - Bourgois - V4202
Ilse Vercammen - 2017-09-25 16:53:02 - Ilse Vercammen - F5103
Peter De Leus - 2017-09-23 13:39:02 - De Leus - C9040-001
Anne De Peuter - 2017-09-22 14:08:36 - Goethals - V3802
Anne De Peuter - 2017-09-22 14:02:35 - Goethals - C3953
Team De Wilde - 2017-09-22 08:58:29 - De Wilde - C9040-001
Pierre-Louis - 2017-09-20 10:51:10 - Pierre-Louis - F5086
Martine Verbruggen - 2017-09-20 10:49:52 - verbruggen - C9045-004
N. Baurens - 2017-09-20 09:12:19 - Baurens - U1678
De Greeve - 2017-09-19 16:42:12 - De Greeve - V5046
De Greeve - 2017-09-19 16:41:43 - De Greeve - B5056
Patrick Peeters - 2017-09-18 20:16:31 - Peeters - C5083
Patrick Peeters - 2017-09-18 20:16:04 - Peeters - C5067
Marie-Christine Hermans - 2017-09-18 18:34:48 - Juwelen Marie-Christine - V4206
Marie-Christine Hermans - 2017-09-18 18:32:12 - Juwelen Marie-Christine - C9163-007
Sarah Roelandt - 2017-09-18 17:15:23 - Roelandt Sarah - V4512
Ingrid Aertssens - 2017-09-18 15:35:46 - Ingrid Aertssens - P295A23G
Tom Daeseleire - 2017-09-18 13:01:05 - tom - P483B00G
Marc Bosmans - 2017-09-16 16:08:33 - Marc Bosmans - C510B00G
Anne De Peuter - 2017-09-16 12:39:13 - Goethals - C5081
Sofie - 2017-09-16 11:13:39 - Jema Design - C2899
Sofie - 2017-09-16 11:11:15 - Jema Design - C2899
Roger Borremans - 2017-09-15 13:46:08 - La coquille d Or - V4202
Marc Drexeler - 2017-09-15 13:38:46 - Drexeler - F9021-001
Marc Drexeler - 2017-09-15 13:37:42 - Drexeler - C9021
- 2017-09-14 09:52:40 - Jagre - M839A01G
- 2017-09-14 09:49:59 - Jagre - M839A00G
Vanhoutteghem - 2017-09-12 10:01:03 - Van Houtteghem - T5082
Laurent Vanstechelman - 2017-09-11 09:40:26 - Tempo d Oro - C5061
Laurent Vanstechelman - 2017-09-11 09:39:33 - Tempo d Oro - V5053
Anne De Peuter - 2017-09-09 16:20:51 - Goethals - C5919-006
Katrien en Hildegarde Huysman - 2017-09-09 15:57:43 - Huysman - C9045-003
Katrien en Hildegarde Huysman - 2017-09-09 15:56:17 - Huysman - C9045-004
Katrien en Hildegarde Huysman - 2017-09-09 15:33:07 - Huysman - C9045-004
Anne De Peuter - 2017-09-09 10:35:56 - Goethals - T5082
Anne De Peuter - 2017-09-09 10:32:49 - Goethals - C5066
Anne De Peuter - 2017-09-08 09:37:23 - Goethals - C3658
Dries - 2017-09-05 13:58:37 - Dries - V7001-003
Sofie - 2017-09-02 15:49:58 - Jema Design - V3802
Frédéric Pirson - 2017-09-02 14:14:51 - Pirson - F5105
Frédéric Pirson - 2017-09-02 14:13:47 - Pirson - F5104
De Greeve - 2017-09-02 13:19:54 - De Greeve - E2829
De Greeve - 2017-09-02 13:19:03 - De Greeve - C2828
Christine & Marjolein - 2017-09-02 11:35:09 - Yolande - E1153
Marc Drexeler - 2017-09-02 08:34:22 - Drexeler - V4511
Pierre-Louis - 2017-09-01 16:30:53 - Pierre-Louis - B5059
Frédéric Pirson - 2017-09-01 16:11:46 - Pirson - U4686
Frédéric Pirson - 2017-09-01 16:10:28 - Pirson - C3963
Frédéric Pirson - 2017-09-01 16:08:25 - Pirson - C4430
Frédéric Pirson - 2017-09-01 16:07:04 - Pirson - C5120
Marie Paul & Christine Reyntjens - 2017-09-01 15:40:24 - Reyntjens - X4198
Marie Paul & Christine Reyntjens - 2017-09-01 15:34:16 - Reyntjens - P408A001
Marc Bosmans - 2017-09-01 14:40:26 - Marc Bosmans - C5925-006
Marc Bosmans - 2017-09-01 14:37:43 - Marc Bosmans - C4557-001
Marc Bosmans - 2017-09-01 14:35:02 - Marc Bosmans - T504B02G
Marc Bosmans - 2017-09-01 10:05:24 - Marc Bosmans - P501B00G
Marc Bosmans - 2017-09-01 09:49:59 - Marc Bosmans - C546B01G
Anne De Peuter - 2017-08-31 17:06:15 - Goethals - F2264
Anne De Peuter - 2017-08-31 17:02:04 - Goethals - F2264
Christine & Marjolein - 2017-08-30 15:46:22 - Yolande - V5048
Marc Bosmans - 2017-08-30 10:22:01 - Marc Bosmans - X2574
Anne De Peuter - 2017-08-29 15:32:56 - Goethals - C9045-003
Evi Vandeweyer - 2017-08-29 13:05:23 - Vandeweyer - P484B00G
Anne De Peuter - 2017-08-28 17:43:22 - Goethals - V4206
Anne De Peuter - 2017-08-28 17:34:24 - Goethals - P408A001
Marc Bosmans - 2017-08-28 10:41:59 - Marc Bosmans - P292A19G
Annik De Mey - 2017-08-28 08:48:53 - Annik De Mey - V7001-003
Annik De Mey - 2017-08-28 08:46:40 - Annik De Mey - T321A01G
Evelyne Coppens - 2017-08-26 16:15:25 - Paul - C4156
Dries - 2017-08-26 13:31:51 - Dries - V4206
Christine & Marjolein - 2017-08-26 09:56:09 - Yolande - C3953
Roger Borremans - 2017-08-25 16:14:41 - La coquille d Or - C4338
Roger Borremans - 2017-08-25 16:12:13 - La coquille d Or - C4338
Anne De Peuter - 2017-08-25 15:22:51 - Goethals - X4782
Anne De Peuter - 2017-08-25 15:20:13 - Goethals - C4790
Kurt De Block - 2017-08-25 14:34:58 - Kortrijkse Goudcentrale - V5047
Christine & Marjolein - 2017-08-23 16:55:17 - Yolande - C3953
Patrick Peeters - 2017-08-23 14:26:08 - Peeters - V5053
Sofie - 2017-08-23 07:55:54 - Jema Design - F4786
Marc Bosmans - 2017-08-21 16:08:12 - Marc Bosmans - P292A19G
Marc Bosmans - 2017-08-21 13:07:57 - Marc Bosmans - F2263
Marie-Christine Hermans - 2017-08-19 16:18:03 - Juwelen Marie-Christine - V4540
De Greeve - 2017-08-19 15:25:30 - De Greeve - B5059
De Greeve - 2017-08-19 15:24:20 - De Greeve - F5086
Dries - 2017-08-19 14:54:09 - Dries - C5919-007
Dries - 2017-08-19 14:52:53 - Dries - C5919-006
Marc Bosmans - 2017-08-19 14:13:23 - Marc Bosmans - X3692
Marc Bosmans - 2017-08-19 14:11:10 - Marc Bosmans - C501B01G
Dries - 2017-08-19 10:27:34 - Dries - V5047
Anne De Peuter - 2017-08-19 10:24:21 - Goethals - U4686
Dries - 2017-08-18 17:17:06 - Dries - C5073
Dries - 2017-08-18 17:15:36 - Dries - C5055
Ilse Vercammen - 2017-08-18 12:54:57 - Ilse Vercammen - C4338
De Greeve - 2017-08-17 15:46:47 - De Greeve - X5085
Anne De Peuter - 2017-08-16 11:23:39 - Goethals - C3953
Marc Bosmans - 2017-08-16 11:18:38 - Marc Bosmans - P292A18G
Anne De Peuter - 2017-08-16 11:18:32 - Goethals - V3802
Marc Bosmans - 2017-08-16 11:07:48 - Marc Bosmans - P238A05G
Marc Drexeler - 2017-08-14 14:21:20 - Drexeler - V4511
Ilse Vercammen - 2017-08-14 10:09:45 - Ilse Vercammen - M387A02G
Roger Borremans - 2017-08-12 18:08:16 - La coquille d Or - V5080
Pierre-Louis - 2017-08-12 17:09:40 - Pierre-Louis - C5078
Pierre-Louis - 2017-08-12 17:08:50 - Pierre-Louis - B5059
Sarah Roelandt - 2017-08-10 16:13:14 - Roelandt Sarah - P292A20G
Thomas De Graeve - 2017-08-10 11:05:19 - De Baere - C3768
Sofie - 2017-08-10 10:09:44 - Jema Design - U4686
Sofie - 2017-08-10 10:08:00 - Jema Design - U4686
Sofie - 2017-08-10 10:08:00 - Jema Design - U4686
Anne De Peuter - 2017-08-09 16:25:13 - Goethals - C5919-006
Marc Bosmans - 2017-08-09 12:47:01 - Marc Bosmans - F3731
Marc Bosmans - 2017-08-09 12:44:46 - Marc Bosmans - F3731
Pierre-Louis - 2017-08-09 11:16:39 - Pierre-Louis - C5074
Pierre-Louis - 2017-08-09 11:15:24 - Pierre-Louis - C5057
Sofie - 2017-08-08 15:17:01 - Jema Design - C4791
Sofie - 2017-08-08 15:13:36 - Jema Design - F4786
Vanhoutteghem - 2017-08-08 10:52:19 - Van Houtteghem - X4782
Laurent Vanstechelman - 2017-08-07 09:53:24 - Tempo d Oro - V5047
Laurent Vanstechelman - 2017-08-07 09:52:47 - Tempo d Oro - C5061
Marc Drexeler - 2017-08-07 08:18:02 - Drexeler - B9056-003
Marc Drexeler - 2017-08-07 08:16:24 - Drexeler - V4513
Ilse Vercammen - 2017-08-05 15:19:47 - Ilse Vercammen - A3028-001
N. Baurens - 2017-08-05 14:25:33 - Baurens - F9021-001
N. Baurens - 2017-08-05 14:24:00 - Baurens - C9021
Katrien en Hildegarde Huysman - 2017-08-05 13:52:19 - Huysman - C4338
Katrien en Hildegarde Huysman - 2017-08-05 13:51:32 - Huysman - C3953
De Greeve - 2017-08-05 12:23:49 - De Greeve - X2167-001
Marc Bosmans - 2017-08-04 15:56:15 - Marc Bosmans - C536B00G
Marc Bosmans - 2017-08-04 15:53:40 - Marc Bosmans - C536B01G
De Greeve - 2017-08-04 14:42:44 - De Greeve - C4338
De Greeve - 2017-08-04 14:41:57 - De Greeve - C3658
Isabelle Leblans - 2017-08-03 17:07:59 - Leblans - U1676
Laurent Vanstechelman - 2017-08-03 13:56:35 - Tempo d Oro - C9021
Laurent Vanstechelman - 2017-08-03 13:55:29 - Tempo d Oro - F9021-001
Frederik Bongaerts - 2017-08-02 16:24:21 - Bongaerts - C5919-006
Nadia Souverijns - 2017-08-02 14:33:15 - Tibax - C5078
Nadia Souverijns - 2017-08-02 14:31:44 - Tibax - B5059
Annik De Mey - 2017-08-01 15:27:23 - Annik De Mey - V5079
Annik De Mey - 2017-08-01 15:25:34 - Annik De Mey - C5060
Viola Vetters - 2017-08-01 15:08:24 - Orion - V4683
Isabelle Leblans - 2017-08-01 14:53:09 - Leblans - X3692
Isabelle Leblans - 2017-08-01 14:48:53 - Leblans - P3746
Christine & Marjolein - 2017-08-01 11:34:02 - Yolande - V4206
Christine & Marjolein - 2017-08-01 11:32:24 - Yolande - C3953
N. Baurens - 2017-08-01 11:13:24 - Baurens - V4206
N. Baurens - 2017-08-01 11:09:03 - Baurens - C4166
N. Baurens - 2017-08-01 10:52:57 - Baurens - C4809
Dries - 2017-07-29 16:30:49 - Dries - F4786
Dries - 2017-07-29 16:25:02 - Dries - C515B01G
Marc Bosmans - 2017-07-29 14:27:49 - Marc Bosmans - P292A18G
Marc Bosmans - 2017-07-29 14:23:45 - Marc Bosmans - P292A20G
Laurent Vanstechelman - 2017-07-28 17:49:05 - Tempo d Oro - F4786
Laurent Vanstechelman - 2017-07-28 17:48:04 - Tempo d Oro - C4791
Team De Wilde - 2017-07-28 16:01:00 - De Wilde - P292A19G
Team De Wilde - 2017-07-28 15:58:19 - De Wilde - P292A19G
Juwelier - uurwerkmaker Devick Francis - 2017-07-28 15:21:39 - Juwelier - uurwerkmaker Devick Francis - T7043
Juwelier - uurwerkmaker Devick Francis - 2017-07-28 15:18:35 - Juwelier - uurwerkmaker Devick Francis - V7001-003
- 2017-07-28 13:55:34 - SPRL BARCHY - U4686
- 2017-07-26 20:54:04 - Deani de Bot - M306B00G
- 2017-07-26 20:51:43 - Deani de Bot - M306B01G
Team De Wilde - 2017-07-26 12:45:11 - De Wilde - C5919-006
Team De Wilde - 2017-07-26 12:33:11 - De Wilde - P291A22G
Team De Wilde - 2017-07-26 12:30:20 - De Wilde - P291A22G
Nadia Souverijns - 2017-07-26 12:29:04 - Tibax - C9055-007
Nadia Souverijns - 2017-07-26 12:23:59 - Tibax - C9045-003
Marc Bosmans - 2017-07-26 08:40:16 - Marc Bosmans - F5175
Marc Bosmans - 2017-07-26 08:37:54 - Marc Bosmans - F5016
Stephan Siemon - 2017-07-25 14:59:11 - Top Watch - X2167-001
Stephan Siemon - 2017-07-25 14:56:49 - Top Watch - E4480-001
Frédéric Pirson - 2017-07-25 09:47:45 - Pirson - F2820
Frédéric Pirson - 2017-07-25 09:46:25 - Pirson - P2009
Katrien en Hildegarde Huysman - 2017-07-24 15:01:12 - Huysman - X2167-001
Jan Schoubben - 2017-07-24 10:08:48 - Schoubben - B5062
Jan Schoubben - 2017-07-24 10:08:17 - Schoubben - B5052
Marc Bosmans - 2017-07-22 11:16:01 - Marc Bosmans - X3692
Marc Bosmans - 2017-07-22 11:12:49 - Marc Bosmans - P3746
- 2017-07-20 13:37:52 - Heleven - F5104
Alain Van Vlierden - 2017-07-20 08:51:30 - Van Vlierden - C3238
Laurent Vanstechelman - 2017-07-19 15:31:01 - Tempo d Oro - V5053
Laurent Vanstechelman - 2017-07-19 15:27:36 - Tempo d Oro - C5064
Anneleen Eyckmans - 2017-07-19 14:29:41 - Anneleen Eyckmans - P318A03GR
De Greeve - 2017-07-19 13:21:52 - De Greeve - V5049
Tim & Sandra Hendrickx - 2017-07-19 12:46:10 - Hendrickx - V7012-003
Anne De Peuter - 2017-07-18 15:18:52 - Goethals - X4782
Anne De Peuter - 2017-07-18 15:14:37 - Goethals - C4790
N. Baurens - 2017-07-18 15:07:26 - Baurens - V7013-002
N. Baurens - 2017-07-18 15:03:36 - Baurens - P7013-007
N. Baurens - 2017-07-18 14:55:57 - Baurens - X1475
N. Baurens - 2017-07-18 14:37:00 - Baurens - C4809
Katrien en Hildegarde Huysman - 2017-07-17 15:33:21 - Huysman - C7063
Katrien en Hildegarde Huysman - 2017-07-17 15:31:15 - Huysman - C7063
Marc Bosmans - 2017-07-17 14:41:31 - Marc Bosmans - V4202
Marc Bosmans - 2017-07-17 14:38:58 - Marc Bosmans - C501B01G
Marc Bosmans - 2017-07-17 09:04:29 - Marc Bosmans - F2870
Marc Bosmans - 2017-07-17 09:01:19 - Marc Bosmans - C4148
Sven Lombaerts - 2017-07-15 16:51:06 - Van Laer - A3028-001
Sven Lombaerts - 2017-07-15 16:38:18 - Van Laer - T3796
Roger Borremans - 2017-07-15 16:32:13 - La coquille d Or - V4202
Team De Wilde - 2017-07-15 15:07:41 - De Wilde - C4809
Evelyne Coppens - 2017-07-14 17:06:25 - Paul - X3778-001
Vicky Coens - 2017-07-14 13:18:45 - Coens Brugge - C4338
Vicky Coens - 2017-07-14 13:13:14 - Coens Brugge - C4338
De Greeve - 2017-07-14 10:51:48 - De Greeve - X4782
Evelyne Coppens - 2017-07-13 16:58:38 - Paul - X4782
Evelyne Coppens - 2017-07-13 16:56:37 - Paul - C4788
Pierre-Louis - 2017-07-12 14:38:15 - Pierre-Louis - T4225
Christine & Marjolein - 2017-07-12 14:15:41 - Yolande - V4683
Ilse Vercammen - 2017-07-12 11:01:30 - Ilse Vercammen - C4338
Ilse Vercammen - 2017-07-12 10:58:24 - Ilse Vercammen - C3658
Kurt De Block - 2017-07-10 15:08:24 - Kortrijkse Goudcentrale - W5259
Kurt De Block - 2017-07-10 15:06:26 - Kortrijkse Goudcentrale - W5335
Marc Drexeler - 2017-07-10 14:51:33 - Drexeler - C3658
Eric De Waele - 2017-07-08 16:22:23 - De Waele - V5080
Anne De Peuter - 2017-07-08 14:38:01 - Goethals - V5080
Anne De Peuter - 2017-07-08 14:24:40 - Goethals - U4686
Annik De Mey - 2017-07-07 11:27:50 - Annik De Mey - V7013-002
Annik De Mey - 2017-07-07 11:26:31 - Annik De Mey - C4166
Frédéric Pirson - 2017-07-06 15:40:13 - Pirson - P293A17G
Frédéric Pirson - 2017-07-06 15:38:47 - Pirson - P293A17G
Frédéric Pirson - 2017-07-05 13:37:04 - Pirson - P295A22G
Pol-Henry Martin - 2017-07-04 17:33:14 - Bijouterie Martin - C4338
Pol-Henry Martin - 2017-07-04 17:31:18 - Bijouterie Martin - P7004-007
Catherine Abeele - 2017-07-04 15:49:09 - Abeele - V4683
Catherine Abeele - 2017-07-04 15:45:19 - Abeele - V4683
Marie-Christine Hermans - 2017-07-04 13:36:37 - Juwelen Marie-Christine - U4510
Marie-Christine Hermans - 2017-07-04 13:20:34 - Juwelen Marie-Christine - C7251
Marie-Christine Hermans - 2017-07-04 13:17:16 - Juwelen Marie-Christine - C7251
Frédéric Pirson - 2017-07-04 12:52:17 - Pirson - V4206
Frédéric Pirson - 2017-07-04 12:51:06 - Pirson - C4166
Frédéric Pirson - 2017-07-04 12:44:19 - Pirson - P4559
Frédéric Pirson - 2017-07-04 12:42:48 - Pirson - F3738
Patrick Peeters - 2017-07-04 10:34:54 - Peeters - V5047
Patrick Peeters - 2017-07-04 10:32:39 - Peeters - C5074
Patrick Peeters - 2017-07-04 10:30:36 - Peeters - V5050
Pieter Vanhoutteghem - 2017-07-04 10:08:38 - Pieter Vanhoutteghem - T5082
Pieter Vanhoutteghem - 2017-07-04 10:08:10 - Pieter Vanhoutteghem - T5082
Marc Bosmans - 2017-07-03 15:57:36 - Marc Bosmans - P292A21G
Marc Bosmans - 2017-07-03 15:53:18 - Marc Bosmans - C515B01G
Evelyne Coppens - 2017-07-01 17:05:49 - Paul - X4782
Marc Bosmans - 2017-07-01 16:34:51 - Marc Bosmans - C240B04G
Marc Bosmans - 2017-07-01 16:24:31 - Marc Bosmans - C3963
Evy Uyttenhove - 2017-07-01 10:54:30 - Evy d Or - C4207
Evy Uyttenhove - 2017-07-01 10:53:23 - Evy d Or - T4208
Evelyne Coppens - 2017-06-30 17:40:35 - Paul - X4782
Anne De Peuter - 2017-06-30 16:58:30 - Goethals - V4683
Anne De Peuter - 2017-06-30 16:50:34 - Goethals - C3030
Fabienne Yannick - 2017-06-30 13:42:08 - Juwelen Yannick 2 - C3658
Ingrid Aertssens - 2017-06-29 14:59:54 - Ingrid Aertssens - P315B00
Katrien en Hildegarde Huysman - 2017-06-29 10:57:59 - Huysman - C9045-003
Katrien en Hildegarde Huysman - 2017-06-29 10:57:17 - Huysman - C9045-004
Christine & Marjolein - 2017-06-28 16:33:51 - Yolande - F5104
Roger Borremans - 2017-06-28 15:20:45 - La coquille d Or - C4148
Roger Borremans - 2017-06-28 15:19:08 - La coquille d Or - F4130
Pierre-Louis - 2017-06-28 10:39:53 - Pierre-Louis - X5085
Sven Lombaerts - 2017-06-27 15:12:47 - Van Laer - C4338
Anne De Peuter - 2017-06-26 16:38:27 - Goethals - V4683
Anne De Peuter - 2017-06-26 16:36:09 - Goethals - C9045-004
Anne De Peuter - 2017-06-25 18:11:10 - Goethals - C9045-003
Evelyne Coppens - 2017-06-25 16:53:24 - Paul - C4148
Evelyne Coppens - 2017-06-25 16:49:12 - Paul - F4130
Evelyne Coppens - 2017-06-25 15:10:38 - Paul - C4338
Evelyne Coppens - 2017-06-25 14:54:39 - Paul - C3658
Laurent Vanstechelman - 2017-06-24 17:36:26 - Tempo d Oro - T9163-006
Laurent Vanstechelman - 2017-06-24 17:35:49 - Tempo d Oro - C9163-007
Team De Wilde - 2017-06-24 15:51:19 - De Wilde - F5003
Team De Wilde - 2017-06-24 15:47:56 - De Wilde - F5003
Evelyne Coppens - 2017-06-24 15:33:27 - Paul - F5105
Evelyne Coppens - 2017-06-24 15:31:27 - Paul - F5104
Jan Jacob - 2017-06-24 13:27:49 - Jacob - A3028-001
Jan Jacob - 2017-06-24 13:26:42 - Jacob - U4510
Isabelle Leblans - 2017-06-23 16:01:29 - Leblans - U1676
Isabelle Leblans - 2017-06-23 15:59:27 - Leblans - U1485
Ingrid Aertssens - 2017-06-23 12:25:29 - Ingrid Aertssens - P315B01
Dries - 2017-06-23 09:35:34 - Dries - C5066
Dries - 2017-06-23 09:34:33 - Dries - V4206
Thomas De Graeve - 2017-06-21 16:43:55 - De Baere - C3777-001
Thomas De Graeve - 2017-06-21 16:42:45 - De Baere - X4782
Dries - 2017-06-21 14:35:17 - Dries - M313B01G
Dries - 2017-06-21 14:33:47 - Dries - M313B01G
Dries - 2017-06-21 14:27:30 - Dries - C5055
Dries - 2017-06-21 14:26:51 - Dries - C5073
Marc & Hilde Jehaes - 2017-06-21 10:53:00 - Jehaes - C4148
Marc & Hilde Jehaes - 2017-06-21 10:50:39 - Jehaes - F4130
Tim & Sandra Hendrickx - 2017-06-21 08:46:00 - Hendrickx - V7006-003
Evy Uyttenhove - 2017-06-20 09:29:08 - Evy d Or - X4198
Marc Buseyne - 2017-06-19 18:45:51 - Busseyne - C3953
Marc Drexeler - 2017-06-19 15:26:34 - Drexeler - X3778-001
Marc Drexeler - 2017-06-19 15:25:06 - Drexeler - C4008
Laurent Vanstechelman - 2017-06-19 10:47:18 - Tempo d Oro - C5066
Laurent Vanstechelman - 2017-06-19 10:46:37 - Tempo d Oro - T5082
Sarah Roelandt - 2017-06-18 14:01:50 - Roelandt Sarah - C231B04G
Sarah Roelandt - 2017-06-18 13:58:23 - Roelandt Sarah - C231B05G
Laurent Vanstechelman - 2017-06-18 09:30:34 - Tempo d Oro - V7011-002
Laurent Vanstechelman - 2017-06-18 09:28:58 - Tempo d Oro - P7011-007
Alain Van Vlierden - 2017-06-17 15:37:16 - Van Vlierden - U1678
Eric De Waele - 2017-06-17 14:46:36 - De Waele - V5047
Eric De Waele - 2017-06-17 14:43:49 - De Waele - C5061
Eric De Waele - 2017-06-17 13:18:55 - De Waele - V1680
Eric De Waele - 2017-06-17 13:13:27 - De Waele - C3953
Alain Van Vlierden - 2017-06-17 12:43:54 - Van Vlierden - X2167-001
Christine & Marjolein - 2017-06-17 09:40:57 - Yolande - E1150
Ingrid Aertssens - 2017-06-16 14:24:39 - Ingrid Aertssens - P314B00
Anne De Peuter - 2017-06-16 14:24:11 - Goethals - C5919-006
Evelyne Coppens - 2017-06-15 16:35:49 - Paul - V4202
Alain Van Vlierden - 2017-06-14 14:16:46 - Van Vlierden - C3963
Evelyne Coppens - 2017-06-13 14:36:45 - Paul - P293A16G
Evelyne Coppens - 2017-06-13 14:36:01 - Paul - P293A18G
Marc Bosmans - 2017-06-12 14:51:06 - Marc Bosmans - C5919-006
Marc Bosmans - 2017-06-12 14:46:57 - Marc Bosmans - C5919-006
Ilse Vercammen - 2017-06-12 10:01:34 - Ilse Vercammen - C3953
Evelyne Coppens - 2017-06-10 17:07:24 - Paul - C4338
De Greeve - 2017-06-10 15:52:25 - De Greeve - C9054-002
De Greeve - 2017-06-10 15:51:26 - De Greeve - C9054-002
Eric De Waele - 2017-06-10 15:23:43 - De Waele - B5059
Eric De Waele - 2017-06-10 15:20:56 - De Waele - C5078
David Van Bellingen - 2017-06-10 14:03:41 - Van Bellingen - T5082
Katrien en Hildegarde Huysman - 2017-06-10 13:24:37 - Huysman - T9163-016
Marc Bosmans - 2017-06-10 10:05:06 - Marc Bosmans - X4782
Marc Bosmans - 2017-06-10 09:59:57 - Marc Bosmans - C9021
Catherine Abeele - 2017-06-10 08:55:35 - Abeele - C5067
Catherine Abeele - 2017-06-10 08:53:49 - Abeele - C5083
Laurent Vanstechelman - 2017-06-09 16:18:11 - Tempo d Oro - P483B00G
Annik De Mey - 2017-06-09 15:21:27 - Annik De Mey - V7001-003
Annik De Mey - 2017-06-09 15:16:39 - Annik De Mey - P7001-007
Evelyne Coppens - 2017-06-09 10:44:53 - Paul - X4782
Evelyne Coppens - 2017-06-09 10:43:20 - Paul - C4788
Ilse Vercammen - 2017-06-09 09:31:35 - Ilse Vercammen - X3778-001
Nadia Souverijns - 2017-06-08 10:31:38 - Tibax - F9021-001
Christine & Marjolein - 2017-06-07 15:47:01 - Yolande - X2822
Christine & Marjolein - 2017-06-07 15:45:57 - Yolande - C2821
Nadia Souverijns - 2017-06-07 14:47:59 - Tibax - M387A02G
Nadia Souverijns - 2017-06-07 14:46:02 - Tibax - M839A00G
Tim & Sandra Hendrickx - 2017-06-07 14:13:54 - Hendrickx - P7013-007
Nadia Souverijns - 2017-06-06 16:49:28 - Tibax - M839A01G
Nadia Souverijns - 2017-06-06 16:47:55 - Tibax - M839A00G
Thomas De Graeve - 2017-06-06 16:46:48 - De Baere - P7013-007
N. Baurens - 2017-06-06 14:16:37 - Baurens - T3796
N. Baurens - 2017-06-06 14:13:34 - Baurens - A3028-001
Christof en Evelyne Vande Walle en Mattheeuws - 2017-06-06 13:42:39 - Vande Walle - C4809
Roger Borremans - 2017-06-06 11:48:25 - La coquille d Or - X1593
Roger Borremans - 2017-06-06 11:45:53 - La coquille d Or - X1593
Roger Borremans - 2017-06-06 11:37:40 - La coquille d Or - C5061
Roger Borremans - 2017-06-06 11:34:09 - La coquille d Or - F5086
Team De Wilde - 2017-06-06 10:43:12 - De Wilde - C4788
Team De Wilde - 2017-06-06 10:42:04 - De Wilde - X4782
Pieter Vanhoutteghem - 2017-06-06 09:22:17 - Pieter Vanhoutteghem - C5081
Sven Lombaerts - 2017-06-06 08:43:16 - Van Laer - V7001-003
Sven Lombaerts - 2017-06-06 08:27:58 - Van Laer - C4384
Marc Buseyne - 2017-06-04 16:56:43 - Busseyne - C3658
Team De Wilde - 2017-06-03 16:21:21 - De Wilde - C4338
Team De Wilde - 2017-06-03 16:11:50 - De Wilde - C3658
Peter De Leus - 2017-06-03 15:14:09 - De Leus - V5171
Peter De Leus - 2017-06-03 15:13:26 - De Leus - F5003
Marc Drexeler - 2017-06-03 13:36:01 - Drexeler - B5069
De Greeve - 2017-06-03 11:20:37 - De Greeve - V5053
Dries - 2017-06-01 13:25:20 - Dries - X3778-001
Dries - 2017-06-01 13:24:12 - Dries - C3777-001
Dries - 2017-06-01 13:10:29 - Dries - P478B00G
Viola Vetters - 2017-06-01 12:48:36 - Orion - F5006
Viola Vetters - 2017-06-01 12:46:17 - Orion - F5176
Dries - 2017-06-01 12:42:44 - Dries - V4206
Dries - 2017-06-01 12:40:58 - Dries - C5076
Dries - 2017-06-01 12:34:47 - Dries - T509B02G
De Greeve - 2017-06-01 11:40:25 - De Greeve - C9045-004
De Greeve - 2017-06-01 11:39:35 - De Greeve - C9045-003
Sarah Roelandt - 2017-06-01 11:25:21 - Roelandt Sarah - P291A20G
Frederik Bongaerts - 2017-06-01 09:23:32 - Bongaerts - C5071
Frederik Bongaerts - 2017-06-01 09:22:20 - Bongaerts - F5086
Sofie - 2017-06-01 08:40:48 - Jema Design - U4980-002
Sofie - 2017-06-01 08:38:17 - Jema Design - P406A001
Patrick Peeters - 2017-05-31 18:57:03 - Peeters - V5053
Patrick Peeters - 2017-05-31 18:55:29 - Peeters - V5053
Patrick Peeters - 2017-05-31 18:49:36 - Peeters - V5080
Tim & Sandra Hendrickx - 2017-05-31 12:28:37 - Hendrickx - C3658
Tim & Sandra Hendrickx - 2017-05-31 12:27:28 - Hendrickx - C4338
Frédéric Pirson - 2017-05-30 20:45:12 - Pirson - U4686
Frédéric Pirson - 2017-05-30 20:43:18 - Pirson - U4686
Frédéric Pirson - 2017-05-30 20:37:11 - Pirson - P293A16G
Frédéric Pirson - 2017-05-30 20:34:33 - Pirson - P293A16G
Juwelier - uurwerkmaker Devick Francis - 2017-05-30 17:11:07 - Juwelier - uurwerkmaker Devick Francis - V5046
Juwelier - uurwerkmaker Devick Francis - 2017-05-30 17:07:56 - Juwelier - uurwerkmaker Devick Francis - C5066
Sarah Roelandt - 2017-05-29 10:27:50 - Roelandt Sarah - C4808
Sarah Roelandt - 2017-05-29 10:25:01 - Roelandt Sarah - C3953
Sarah Roelandt - 2017-05-29 10:14:02 - Roelandt Sarah - C518B00G
Sarah Roelandt - 2017-05-29 10:07:19 - Roelandt Sarah - P406A001
Dirk Van Schoenwinkel - 2017-05-27 14:22:09 - Juweliers Van Schoenwinkel - X4198
Nadia Souverijns - 2017-05-26 17:12:56 - Tibax - V7012-003
Nadia Souverijns - 2017-05-26 17:11:01 - Tibax - C3963
David Van Bellingen - 2017-05-26 16:37:47 - Van Bellingen - V5048
Eric De Waele - 2017-05-26 11:48:58 - De Waele - B5059
Eric De Waele - 2017-05-26 11:47:01 - De Waele - C5078
Christine & Marjolein - 2017-05-26 11:23:05 - Yolande - E1150
Evelyne Coppens - 2017-05-26 11:16:50 - Paul - C3658
Evelyne Coppens - 2017-05-26 11:13:56 - Paul - C4224
Anne De Peuter - 2017-05-26 10:23:42 - Goethals - U4686
Anne De Peuter - 2017-05-26 10:18:38 - Goethals - U4686
David Van Bellingen - 2017-05-24 15:39:54 - Van Bellingen - T5082
David Van Bellingen - 2017-05-24 15:39:03 - Van Bellingen - C5066
Yves Vanbeveren - 2017-05-24 15:27:21 - Vanbeveren - C3658
Yves Vanbeveren - 2017-05-24 15:24:50 - Vanbeveren - C4338
Verena - 2017-05-24 14:04:09 - Verena - C5083
N. Baurens - 2017-05-24 10:34:12 - Baurens - V7013-002
Anne De Peuter - 2017-05-23 16:50:51 - Goethals - X3962
Anne De Peuter - 2017-05-23 16:49:11 - Goethals - C3238
Pierre-Louis - 2017-05-23 16:34:02 - Pierre-Louis - T5082
Pierre-Louis - 2017-05-23 16:33:09 - Pierre-Louis - T5082
Dirk Dekempe - 2017-05-23 14:12:17 - Dekempe - V1721
- 2017-05-23 14:04:54 - ISABELLE LEBLANS - P293A22G
Team De Wilde - 2017-05-23 13:51:15 - De Wilde - C3658
N. Baurens - 2017-05-23 10:37:25 - Baurens - T3796
N. Baurens - 2017-05-23 10:33:37 - Baurens - A3028-001
Evelyne Coppens - 2017-05-23 10:14:47 - Paul - V4206
Evelyne Coppens - 2017-05-23 08:56:56 - Paul - V4138-003
Evelyne Coppens - 2017-05-23 08:53:51 - Paul - X4782
Tim & Sandra Hendrickx - 2017-05-22 14:03:18 - Hendrickx - C3953
Marc Bosmans - 2017-05-22 13:38:09 - Marc Bosmans - P291A21G
Marc Bosmans - 2017-05-22 13:36:21 - Marc Bosmans - T479B02G
Ilse Vercammen - 2017-05-22 10:54:48 - Ilse Vercammen - V7005-002
Ilse Vercammen - 2017-05-22 10:48:31 - Ilse Vercammen - A3028-001
- 2017-05-20 16:51:39 - ISABELLE LEBLANS - C4197
- 2017-05-20 16:49:25 - ISABELLE LEBLANS - P291A20G
Davy Van Ruyskensvelde - 2017-05-20 16:03:58 - Van Ruyskensvelde - M514B01G
Yves Vanbeveren - 2017-05-20 15:07:05 - Vanbeveren - C3658
Yves Vanbeveren - 2017-05-20 15:05:53 - Vanbeveren - C4338
Dries - 2017-05-20 14:27:08 - Dries - F5086
Christine & Marjolein - 2017-05-20 13:05:46 - Yolande - C3732
- 2017-05-20 10:52:19 - Jagre - V4206
Evy Uyttenhove - 2017-05-20 10:43:01 - Evy d Or - V5147
- 2017-05-20 10:40:08 - Jagre - T559A02G – 0.10ct.
Alain Van Vlierden - 2017-05-19 15:55:06 - Van Vlierden - V1293
Nadia Souverijns - 2017-05-19 15:28:23 - Tibax - C5925-007
Dirk Van Schoenwinkel - 2017-05-19 14:30:22 - Juweliers Van Schoenwinkel - V4206
Martine Verbruggen - 2017-05-19 11:13:53 - verbruggen - P425A001
Anne De Peuter - 2017-05-18 15:17:17 - Goethals - V5049
Anne De Peuter - 2017-05-18 15:04:30 - Goethals - V4202
Christine & Marjolein - 2017-05-18 14:47:46 - Yolande - C1668
Frederik Bongaerts - 2017-05-18 13:11:26 - Bongaerts - F9021-001
Frederik Bongaerts - 2017-05-18 13:06:55 - Bongaerts - C9021
Ingrid Aertssens - 2017-05-18 12:39:38 - Ingrid Aertssens - P317B02
Sarah Roelandt - 2017-05-17 11:17:17 - Roelandt Sarah - C822A03G
Martine Verbruggen - 2017-05-17 10:09:40 - verbruggen - B4988-001
Nadia Souverijns - 2017-05-16 15:03:07 - Tibax - V7011-002
Nadia Souverijns - 2017-05-16 14:59:43 - Tibax - P7011-007
Ingrid Aertssens - 2017-05-16 14:03:54 - Ingrid Aertssens - F1618
Pierre-Louis - 2017-05-16 12:47:49 - Pierre-Louis - V5046
Annik De Mey - 2017-05-16 09:39:40 - Annik De Mey - C5055
Annik De Mey - 2017-05-16 09:38:21 - Annik De Mey - C5055
Marc Bosmans - 2017-05-15 09:44:49 - Marc Bosmans - P292A20G
Marc Bosmans - 2017-05-15 09:43:20 - Marc Bosmans - C3953
De Greeve - 2017-05-14 16:43:24 - De Greeve - V5048
De Greeve - 2017-05-14 16:42:49 - De Greeve - C5075
Nadia Souverijns - 2017-05-13 16:41:23 - Tibax - C9052
Nadia Souverijns - 2017-05-13 16:40:25 - Tibax - C9052
Nadia Souverijns - 2017-05-13 16:31:22 - Tibax - C3801
Catherine Abeele - 2017-05-13 16:03:22 - Abeele - T3796
Catherine Abeele - 2017-05-13 16:01:15 - Abeele - C4172
Dries - 2017-05-13 15:40:52 - Dries - C5070
Christine & Marjolein - 2017-05-13 14:01:32 - Yolande - E1153
David Van Bellingen - 2017-05-13 08:51:55 - Van Bellingen - T5082
David Van Bellingen - 2017-05-13 08:51:06 - Van Bellingen - C5066
Laurent Vanstechelman - 2017-05-12 17:52:32 - Tempo d Oro - X4782
Laurent Vanstechelman - 2017-05-12 17:39:45 - Tempo d Oro - C3963
Vanhoutteghem - 2017-05-12 15:13:10 - Van Houtteghem - X3692
Ingrid Aertssens - 2017-05-12 13:12:44 - Ingrid Aertssens - C536B00G
De Greeve - 2017-05-11 17:09:35 - De Greeve - X5085
De Greeve - 2017-05-11 17:08:52 - De Greeve - C5070
Ingrid Aertssens - 2017-05-11 16:11:33 - Ingrid Aertssens - V7003-002
Roger Borremans - 2017-05-11 15:58:56 - La coquille d Or - V4202
Marc Buseyne - 2017-05-10 11:19:02 - Busseyne - C3658
Nadia Souverijns - 2017-05-10 11:02:02 - Tibax - U5507-002
- 2017-05-10 10:04:26 - ISABELLE LEBLANS - P291A19G
Eric De Waele - 2017-05-09 13:51:52 - De Waele - C5055
Eric De Waele - 2017-05-09 13:48:56 - De Waele - C5073
Annik De Mey - 2017-05-09 08:46:03 - Annik De Mey - V7014-003
Annik De Mey - 2017-05-09 08:44:44 - Annik De Mey - P7014-007
Ingrid Aertssens - 2017-05-08 13:55:51 - Ingrid Aertssens - P314B00
Ingrid Aertssens - 2017-05-08 13:53:20 - Ingrid Aertssens - T559A01G – 0.07ct.
Frederik Bongaerts - 2017-05-08 09:46:01 - Bongaerts - C4384
Frederik Bongaerts - 2017-05-08 09:39:35 - Bongaerts - C4385
Annik De Mey - 2017-05-08 08:29:37 - Annik De Mey - C3658
Dirk Dekempe - 2017-05-08 07:40:55 - Dekempe - C5055
Dirk Dekempe - 2017-05-08 07:38:56 - Dekempe - C5073
Dirk Dekempe - 2017-05-08 07:11:26 - Dekempe - C5077
Dirk Dekempe - 2017-05-08 07:09:21 - Dekempe - B5056
Dirk Dekempe - 2017-05-08 07:04:24 - Dekempe - C5055
Dirk Dekempe - 2017-05-08 07:02:05 - Dekempe - C5073
Dries - 2017-05-07 16:35:40 - Dries - C5064
Vanhoutteghem - 2017-05-06 13:25:28 - Van Houtteghem - X4782
Evelyne Coppens - 2017-05-06 12:33:45 - Paul - B4985
Evelyne Coppens - 2017-05-06 12:30:05 - Paul - V4206
Martine Verbruggen - 2017-05-06 11:19:38 - verbruggen - C4384
Martine Verbruggen - 2017-05-06 11:18:12 - verbruggen - C4385
Marc Bosmans - 2017-05-06 10:38:11 - Marc Bosmans - M309B00G
Marc Bosmans - 2017-05-06 10:32:22 - Marc Bosmans - M309B01G
Anne De Peuter - 2017-05-06 10:16:42 - Goethals - C9045-003
Anne De Peuter - 2017-05-06 10:15:05 - Goethals - C9045-004
Laurent Vanstechelman - 2017-05-06 09:19:22 - Tempo d Oro - C5065
Laurent Vanstechelman - 2017-05-06 09:18:35 - Tempo d Oro - V5050
Roger Borremans - 2017-05-05 17:23:17 - La coquille d Or - U4686
Roger Borremans - 2017-05-05 17:21:26 - La coquille d Or - U4686
Dries - 2017-05-05 17:03:20 - Dries - V5079
Dries - 2017-05-05 17:02:19 - Dries - C5060
Dries - 2017-05-05 16:58:10 - Dries - V7014-003
Dries - 2017-05-05 16:39:18 - Dries - C784A06G
Dries - 2017-05-05 16:26:48 - Dries - V7012-003
Dries - 2017-05-05 16:22:32 - Dries - X5085
Dries - 2017-05-05 16:18:34 - Dries - C5074
Dries - 2017-05-05 16:13:50 - Dries - X3778-001
Sarah Roelandt - 2017-05-05 13:30:37 - Roelandt Sarah - C5636-001
Sarah Roelandt - 2017-05-05 13:22:15 - Roelandt Sarah - C5636
Christine & Marjolein - 2017-05-04 16:18:17 - Yolande - C5066
Christine & Marjolein - 2017-05-04 16:16:41 - Yolande - C5066
Patrick Peeters - 2017-05-04 15:18:37 - Peeters - V5080
Patrick Peeters - 2017-05-04 15:08:06 - Peeters - F5086
Sandra Van Sweeveldt - 2017-05-04 14:48:14 - Goldshop- C5919-007
Evelyne Coppens - 2017-05-03 16:47:11 - Paul - V4202
Evy Uyttenhove - 2017-05-03 16:28:28 - Evy d Or - C3863
Marc Bosmans - 2017-05-03 15:47:21 - Marc Bosmans - F2263
Marc Bosmans - 2017-05-03 15:37:35 - Marc Bosmans - C2947
Marc Bosmans - 2017-05-03 10:21:10 - Marc Bosmans - C3953
Marc Bosmans - 2017-05-03 10:18:56 - Marc Bosmans - V5147
Marc Bosmans - 2017-05-03 10:14:47 - Marc Bosmans - C9021
Marc Bosmans - 2017-05-03 10:06:59 - Marc Bosmans - C9163-007
Marc Bosmans - 2017-05-03 10:02:20 - Marc Bosmans - T9163-006
- 2017-05-02 15:00:30 - ISABELLE LEBLANS - P293A22G
- 2017-05-02 14:55:59 - ISABELLE LEBLANS - U1678
Martine - 2017-05-02 13:18:10 - Toermalijn - C7016-002
Martine Verbruggen - 2017-05-02 13:10:55 - verbruggen - X4782
Martine Verbruggen - 2017-05-02 13:06:23 - verbruggen - X4782
Team De Wilde - 2017-05-02 08:56:57 - De Wilde - V5171
Team De Wilde - 2017-05-02 08:55:01 - De Wilde - F5003
Evelyne Coppens - 2017-04-29 17:01:45 - Paul - X4782
Evelyne Coppens - 2017-04-29 17:00:09 - Paul - C4788
Ilse Vercammen - 2017-04-29 15:37:58 - Ilse Vercammen - X3778-001
Ilse Vercammen - 2017-04-29 15:33:05 - Ilse Vercammen - C3777-001
Martine - 2017-04-29 14:22:10 - Toermalijn - P4789
Martine - 2017-04-29 14:19:00 - Toermalijn - F4785
Marc Bosmans - 2017-04-29 14:16:41 - Marc Bosmans - P238A08G
Sven Lombaerts - 2017-04-29 13:35:40 - Van Laer - V7001-003
Sven Lombaerts - 2017-04-29 13:34:37 - Van Laer - P7001-007
De Greeve - 2017-04-29 13:22:56 - De Greeve - C9052
Evelyne Coppens - 2017-04-28 16:01:32 - Paul - X3778-001
Evelyne Coppens - 2017-04-28 15:59:29 - Paul - C3777-001
David Van Bellingen - 2017-04-28 08:04:20 - Van Bellingen - C9048
David Van Bellingen - 2017-04-28 08:03:22 - Van Bellingen - C9048-001
- 2017-04-27 18:14:52 - Jagre - V4538
- 2017-04-27 18:13:30 - Jagre - C5423
Marc Bosmans - 2017-04-27 16:53:38 - Marc Bosmans - V7013-002
Marc Bosmans - 2017-04-27 15:08:35 - Marc Bosmans - P7013-007
Nadia Souverijns - 2017-04-27 13:58:53 - Tibax - V7001-003
Nadia Souverijns - 2017-04-27 13:57:34 - Tibax - P7001-007
Viola Vetters - 2017-04-27 09:59:39 - Orion - C4338
Viola Vetters - 2017-04-27 09:56:52 - Orion - C3953
Viola Vetters - 2017-04-27 09:52:50 - Orion - C3028-002
Viola Vetters - 2017-04-27 09:51:19 - Orion - A3028-001
Viola Vetters - 2017-04-27 09:49:58 - Orion - C5919-006
Viola Vetters - 2017-04-27 09:48:58 - Orion - C5919-006
Eric De Waele - 2017-04-27 08:33:02 - De Waele - C4338
Eric De Waele - 2017-04-27 08:31:07 - De Waele - C3658
N. Baurens - 2017-04-26 14:01:09 - Baurens - C3658
Christine & Marjolein - 2017-04-26 10:02:44 - Yolande - V5053
Anne De Peuter - 2017-04-25 17:01:38 - Goethals - C2928
Evy Uyttenhove - 2017-04-25 16:22:24 - Evy d Or - V4206
Evy Uyttenhove - 2017-04-25 15:49:00 - Evy d Or - T159B00G
Evy Uyttenhove - 2017-04-25 15:34:54 - Evy d Or - V5147
Evy Uyttenhove - 2017-04-25 15:32:51 - Evy d Or - V5118
Evi Vandeweyer - 2017-04-25 08:56:44 - Vandeweyer - C3953
Kurt De Block - 2017-04-24 16:34:36 - Kortrijkse Goudcentrale - F9021-001
Kurt De Block - 2017-04-24 16:33:30 - Kortrijkse Goudcentrale - C9021
Roger Borremans - 2017-04-24 14:17:52 - La coquille d Or - C4821
Roger Borremans - 2017-04-24 14:14:54 - La coquille d Or - V4202
Vanhoutteghem - 2017-04-22 15:27:28 - Van Houtteghem - B9056-002
Vanhoutteghem - 2017-04-22 14:00:15 - Van Houtteghem - X3692
Vanhoutteghem - 2017-04-22 13:56:08 - Van Houtteghem - C3658
Alain Van Vlierden - 2017-04-22 13:41:34 - Van Vlierden - F4785
Pierre-Louis - 2017-04-22 12:18:58 - Pierre-Louis - F5086
Marc Bosmans - 2017-04-22 10:08:18 - Marc Bosmans - C3863
Evelyne Coppens - 2017-04-22 09:40:58 - Paul - C3658
Evelyne Coppens - 2017-04-22 09:39:12 - Paul - X4782
David Van Bellingen - 2017-04-22 08:49:08 - Van Bellingen - V5080
David Van Bellingen - 2017-04-22 08:46:57 - Van Bellingen - C5076
Dries - 2017-04-21 13:20:38 - Dries - X5085
Dries - 2017-04-21 13:19:09 - Dries - C5070
David Van Bellingen - 2017-04-21 12:39:29 - Van Bellingen - V3802
David Van Bellingen - 2017-04-21 12:38:44 - Van Bellingen - C3801
Dries - 2017-04-20 15:57:36 - Dries - P7012-007
Dries - 2017-04-20 15:55:30 - Dries - V7012-003
Dries - 2017-04-20 15:53:02 - Dries - B5056
Dries - 2017-04-20 15:51:53 - Dries - C5077
De Greeve - 2017-04-20 15:37:43 - De Greeve - C3238
N. Baurens - 2017-04-20 13:01:38 - Baurens - V7004-002
N. Baurens - 2017-04-20 12:59:48 - Baurens - P7004-007
N. Baurens - 2017-04-19 15:46:49 - Baurens - T3796
N. Baurens - 2017-04-19 15:44:15 - Baurens - C3953
- 2017-04-19 11:00:58 - SPRL BARCHY - C3028-002
Sofie - 2017-04-18 16:38:47 - Jema Design - X5501
Sofie - 2017-04-18 16:36:23 - Jema Design - X5501-002
Pierre-Louis - 2017-04-18 16:26:27 - Pierre-Louis - M311B00G
Pierre-Louis - 2017-04-18 16:25:12 - Pierre-Louis - M311B00G
Evelyne Coppens - 2017-04-18 14:35:29 - Paul - F5104
Evelyne Coppens - 2017-04-18 14:27:19 - Paul - F5105
Christine & Marjolein - 2017-04-18 14:14:12 - Yolande - C9045-003
Christine & Marjolein - 2017-04-18 14:11:58 - Yolande - C9045-004
Verena - 2017-04-18 13:39:52 - Verena - C503B00G
Marc Bosmans - 2017-04-18 12:57:37 - Marc Bosmans - F3731
Christine & Marjolein - 2017-04-18 09:13:02 - Yolande - F5103
Christine & Marjolein - 2017-04-18 09:11:00 - Yolande - F5102
Frederik Bongaerts - 2017-04-17 20:43:38 - Bongaerts - C5066
Frederik Bongaerts - 2017-04-17 20:41:49 - Bongaerts - T5082
Roger Borremans - 2017-04-15 17:22:45 - La coquille d Or - V5080
Ilse Vercammen - 2017-04-15 15:33:59 - Ilse Vercammen - C487B00G
De Greeve - 2017-04-15 14:26:05 - De Greeve - X4782
De Greeve - 2017-04-15 14:25:13 - De Greeve - C4788
Patrick Peeters - 2017-04-14 09:43:27 - Peeters - V5048
Patrick Peeters - 2017-04-14 09:37:58 - Peeters - V5053
Patrick Peeters - 2017-04-14 09:35:54 - Peeters - V5053
Tim & Sandra Hendrickx - 2017-04-14 08:04:09 - Hendrickx - C3953
Evelyne Coppens - 2017-04-13 16:30:55 - Paul - C4163
Evelyne Coppens - 2017-04-13 16:28:41 - Paul - C4224
Laurent Vanstechelman - 2017-04-13 14:34:56 - Tempo d Oro - C4338
Laurent Vanstechelman - 2017-04-13 14:34:09 - Tempo d Oro - C3658
Marc Brans - 2017-04-12 10:37:58 - Huis Claessen - X4782
Marc Brans - 2017-04-12 10:36:44 - Huis Claessen - C4790
Anne De Peuter - 2017-04-12 09:46:57 - Goethals - X3962
Anne De Peuter - 2017-04-12 09:45:31 - Goethals - C3238
Nadia Souverijns - 2017-04-11 18:03:23 - Tibax - J8145
Nadia Souverijns - 2017-04-11 18:01:48 - Tibax - C9054-002
Nadia Souverijns - 2017-04-11 17:43:15 - Tibax - C9052
Nadia Souverijns - 2017-04-11 17:41:40 - Tibax - C9052-001
Nadia Souverijns - 2017-04-11 17:39:35 - Tibax - X2827
Nadia Souverijns - 2017-04-11 17:38:23 - Tibax - C2826
Nadia Souverijns - 2017-04-11 17:35:27 - Tibax - C5071
Nadia Souverijns - 2017-04-11 17:31:36 - Tibax - F5086
Nadia Souverijns - 2017-04-11 17:29:46 - Tibax - C9045-004
Nadia Souverijns - 2017-04-11 17:27:28 - Tibax - C9045-003
Nadia Souverijns - 2017-04-11 17:11:39 - Tibax - V4202
Nadia Souverijns - 2017-04-11 17:08:47 - Tibax - C3953
Christine & Marjolein - 2017-04-11 14:51:01 - Yolande - C5055
Christine & Marjolein - 2017-04-11 14:49:32 - Yolande - C5073
Evi Vandeweyer - 2017-04-11 10:30:16 - Vandeweyer - V7013-002
Maxime Vander Avort - 2017-04-10 14:20:51 - Maxime Vander Avort - C9052
Maxime Vander Avort - 2017-04-10 14:20:04 - Maxime Vander Avort - C9052
Sven Lombaerts - 2017-04-09 10:36:52 - Van Laer - X4782
Peter De Leus - 2017-04-08 15:40:09 - De Leus - V7001-003
Martine - 2017-04-08 14:37:55 - Toermalijn - V7005-002
Martine - 2017-04-08 14:34:22 - Toermalijn - P7005-007
Evelyne Coppens - 2017-04-08 14:13:09 - Paul - X4198
Evelyne Coppens - 2017-04-08 14:11:50 - Paul - V4138-005
Marc Bosmans - 2017-04-08 13:09:57 - Marc Bosmans - V4212
Marc Bosmans - 2017-04-08 13:08:47 - Marc Bosmans - C3863
Marc Bosmans - 2017-04-08 12:57:41 - Marc Bosmans - V5107
Marc Bosmans - 2017-04-08 12:56:27 - Marc Bosmans - V5106
David Van Bellingen - 2017-04-08 12:07:03 - Van Bellingen - V5080
Marc Bosmans - 2017-04-07 16:16:47 - Marc Bosmans - C231B04G
Marc Bosmans - 2017-04-07 16:11:17 - Marc Bosmans - C515B01G
Frédéric Pirson - 2017-04-07 12:50:58 - Pirson - C7033
Vicky Coens - 2017-04-07 10:39:09 - Coens Brugge - C3953
Vicky Coens - 2017-04-06 17:21:26 - Coens Brugge - X4782
Kurt De Block - 2017-04-05 10:09:07 - Kortrijkse Goudcentrale - C9045-004
Kurt De Block - 2017-04-05 10:07:22 - Kortrijkse Goudcentrale - C9045-003
Ilse Vercammen - 2017-04-04 15:58:08 - Ilse Vercammen - V4138-005
- 2017-04-04 15:42:33 - Jagre - C9045-003
- 2017-04-04 15:40:35 - Jagre - C9045-004
Team De Wilde - 2017-04-04 12:55:01 - De Wilde - B4988-001
Ilse Vercammen - 2017-04-04 12:22:36 - Ilse Vercammen - F5103
Ilse Vercammen - 2017-04-04 12:19:09 - Ilse Vercammen - F5102
Katrien en Hildegarde Huysman - 2017-04-04 10:54:48 - Huysman - C7009-003
Team De Wilde - 2017-04-04 10:36:56 - De Wilde - U4980-002
Evi Vandeweyer - 2017-04-01 17:02:07 - Vandeweyer - C3658
Evi Vandeweyer - 2017-04-01 17:00:12 - Vandeweyer - C4338
Roger Borremans - 2017-04-01 16:14:36 - La coquille d Or - P292A18G
Roger Borremans - 2017-04-01 16:10:26 - La coquille d Or - P292A19G
Evelyne Coppens - 2017-04-01 15:57:16 - Paul - C4385
Frederik Bongaerts - 2017-04-01 14:27:05 - Bongaerts - M387A02G
Frederik Bongaerts - 2017-04-01 14:14:07 - Bongaerts - C5919-006
Pierre-Louis - 2017-04-01 11:26:11 - Pierre-Louis - V5053
Alain Van Vlierden - 2017-04-01 10:01:03 - Van Vlierden - C9045-004
Alain Van Vlierden - 2017-04-01 09:57:13 - Van Vlierden - C9045-003
Annik De Mey - 2017-04-01 07:35:59 - Annik De Mey - C5074
Peter De Leus - 2017-03-31 12:28:08 - De Leus - X4782
Peter De Leus - 2017-03-31 12:26:26 - De Leus - C4788
Viola Vetters - 2017-03-30 09:33:57 - Orion - U4686
Juwelier - uurwerkmaker Devick Francis - 2017-03-30 09:19:08 - Juwelier - uurwerkmaker Devick Francis - F5086
Kurt De Block - 2017-03-29 17:15:05 - Kortrijkse Goudcentrale - C4338
Kurt De Block - 2017-03-29 17:13:34 - Kortrijkse Goudcentrale - C3658
David Van Bellingen - 2017-03-29 13:32:25 - Van Bellingen - V5050
Martine Verbruggen - 2017-03-28 11:46:16 - verbruggen - T321A01G
Catherine Abeele - 2017-03-28 11:16:34 - Abeele - F5086
Kurt De Block - 2017-03-27 17:15:55 - Kortrijkse Goudcentrale - V7011-002
Kurt De Block - 2017-03-27 17:13:49 - Kortrijkse Goudcentrale - P7011-007
Katrien en Hildegarde Huysman - 2017-03-27 13:17:04 - Huysman - C7009-003
Katrien en Hildegarde Huysman - 2017-03-27 13:16:16 - Huysman - C7009-007
Sofie - 2017-03-25 16:00:53 - Jema Design - V4683
Sofie - 2017-03-25 15:59:15 - Jema Design - B4985
De Greeve - 2017-03-25 15:22:35 - De Greeve - X4782
Vanhoutteghem - 2017-03-25 15:21:56 - Van Houtteghem - B9056-002
De Greeve - 2017-03-25 15:21:53 - De Greeve - C4788
Vanhoutteghem - 2017-03-25 15:19:43 - Van Houtteghem - C9054-003
Pierre-Louis - 2017-03-25 14:02:53 - Pierre-Louis - V5079
Pierre-Louis - 2017-03-25 14:01:31 - Pierre-Louis - C5060
Christine & Marjolein - 2017-03-24 17:48:00 - Yolande - A3028-001
Pol-Henry Martin - 2017-03-24 15:28:07 - Bijouterie Martin - C3961
Pol-Henry Martin - 2017-03-24 15:27:23 - Bijouterie Martin - C2515
Martine Verbruggen - 2017-03-22 11:13:55 - verbruggen - C4338
Catherine Abeele - 2017-03-21 16:24:30 - Abeele - C3801
Christine & Marjolein - 2017-03-21 15:41:16 - Yolande - V5046
Christine & Marjolein - 2017-03-21 15:39:55 - Yolande - C5058
Marc Bosmans - 2017-03-21 15:12:01 - Marc Bosmans - X2574
Marc Bosmans - 2017-03-21 15:06:32 - Marc Bosmans - C2843
Pol-Henry Martin - 2017-03-21 14:21:34 - Bijouterie Martin - C3953
Vicky Coens - 2017-03-21 10:06:07 - Coens Brugge - C3755
Vicky Coens - 2017-03-21 10:01:24 - Coens Brugge - C3953
Katrien en Hildegarde Huysman - 2017-03-20 16:32:40 - Huysman - V5502-004
De Greeve - 2017-03-20 13:26:55 - De Greeve - V5048
De Greeve - 2017-03-20 13:25:35 - De Greeve - C4788
Annik De Mey - 2017-03-20 11:27:22 - Annik De Mey - X4782
Annik De Mey - 2017-03-20 11:24:47 - Annik De Mey - E4480-001
Anne De Peuter - 2017-03-20 10:47:54 - Goethals - T3758
Carlo Declerq - 2017-03-19 15:05:17 - Declerq - C9045-003
Carlo Declerq - 2017-03-19 15:02:53 - Declerq - C9045-004
Frederik Bongaerts - 2017-03-19 14:05:09 - Bongaerts - P499B00G
Frederik Bongaerts - 2017-03-19 14:03:02 - Bongaerts - C499B01G
Frederik Bongaerts - 2017-03-19 13:59:35 - Bongaerts - B9056-002
Frederik Bongaerts - 2017-03-19 13:57:35 - Bongaerts - B9056-002
Eric De Waele - 2017-03-18 18:23:04 - De Waele - C5076
Eric De Waele - 2017-03-18 18:13:42 - De Waele - V5080
Evelyne Coppens - 2017-03-18 17:41:44 - Paul - C9048
Annik De Mey - 2017-03-18 16:41:29 - Annik De Mey - V7014-003
Annik De Mey - 2017-03-18 16:39:31 - Annik De Mey - C4166
Sofie - 2017-03-18 16:20:41 - Jema Design - X5501-001
Marc Buseyne - 2017-03-18 15:58:19 - Busseyne - C3658
Marc Brans - 2017-03-18 14:25:49 - Huis Claessen - C4788
Marc Brans - 2017-03-18 14:24:34 - Huis Claessen - X4782
Evelyne Coppens - 2017-03-18 13:56:14 - Paul - C4788
Evelyne Coppens - 2017-03-18 13:54:08 - Paul - X4782
Carlo Declerq - 2017-03-18 11:30:31 - Declerq - V7013-002
Carlo Declerq - 2017-03-18 11:28:36 - Declerq - P7013-007
Evelyne Coppens - 2017-03-18 11:16:22 - Paul - V4202
Evelyne Coppens - 2017-03-18 11:14:29 - Paul - V4202
Laurent Vanstechelman - 2017-03-17 17:30:03 - Tempo d Oro - X3692
Laurent Vanstechelman - 2017-03-17 17:27:21 - Tempo d Oro - X3692
Catherine Abeele - 2017-03-17 17:15:11 - Abeele - B5059
Catherine Abeele - 2017-03-17 17:13:37 - Abeele - C5078
David Van Bellingen - 2017-03-17 15:54:46 - Van Bellingen - P501B00G
David Van Bellingen - 2017-03-17 15:53:49 - Van Bellingen - T487B02G
David Van Bellingen - 2017-03-17 15:46:24 - Van Bellingen - X3634
David Van Bellingen - 2017-03-17 15:44:51 - Van Bellingen - C3658
Team De Wilde - 2017-03-16 16:34:29 - De Wilde - B4988-001
Marc Bosmans - 2017-03-15 16:09:34 - Marc Bosmans - V4227
Marc Bosmans - 2017-03-15 16:00:14 - Marc Bosmans - C503B00G
Marc Bosmans - 2017-03-15 15:53:25 - Marc Bosmans - P291A20G
Marc Bosmans - 2017-03-15 15:51:10 - Marc Bosmans - P291A23G
Martine Verbruggen - 2017-03-15 12:47:29 - verbruggen - C4224
Suzan Broothaerts - 2017-03-14 18:18:33 - Juwelier Vissers - C5083
Suzan Broothaerts - 2017-03-14 18:03:12 - Juwelier Vissers - C487B00G
Juwelier - uurwerkmaker Devick Francis - 2017-03-14 11:59:13 - Juwelier - uurwerkmaker Devick Francis - V4206
Juwelier - uurwerkmaker Devick Francis - 2017-03-14 11:57:13 - Juwelier - uurwerkmaker Devick Francis - C3658
Sven Lombaerts - 2017-03-14 11:33:06 - Van Laer - B4980-001
Evi Vandeweyer - 2017-03-14 10:41:03 - Vandeweyer - B5052
Evi Vandeweyer - 2017-03-14 10:37:12 - Vandeweyer - B5062
Tim & Sandra Hendrickx - 2017-03-13 13:50:52 - Hendrickx - X4782
Tim & Sandra Hendrickx - 2017-03-13 13:43:58 - Hendrickx - C4788
Frederik Bongaerts - 2017-03-13 09:46:22 - Bongaerts - C515B01G
Christiaan Picard - 2017-03-11 15:13:37 - Christiaan Picard - C4338
Frederik Bongaerts - 2017-03-11 14:22:49 - Bongaerts - C9045-003
Frederik Bongaerts - 2017-03-11 14:11:07 - Bongaerts - C9045-004
Suzan Broothaerts - 2017-03-11 13:56:34 - Juwelier Vissers - C240B05G
Suzan Broothaerts - 2017-03-11 13:54:34 - Juwelier Vissers - C510B00G
Ilse Vercammen - 2017-03-11 11:34:17 - Ilse Vercammen - P408A001
Suzan Broothaerts - 2017-03-10 19:14:58 - Juwelier Vissers - C9055-007
Suzan Broothaerts - 2017-03-10 19:13:32 - Juwelier Vissers - F9040
Nadia Souverijns - 2017-03-10 13:40:56 - Tibax - C4557-001
Nadia Souverijns - 2017-03-10 13:38:03 - Tibax - C4557-002
Anne De Peuter - 2017-03-09 15:23:45 - Goethals - U4686
Anne De Peuter - 2017-03-09 15:19:22 - Goethals - U4686
N. Baurens - 2017-03-09 10:15:43 - Baurens - C4338
N. Baurens - 2017-03-09 10:12:29 - Baurens - C3658
Nadia Souverijns - 2017-03-08 17:34:44 - Tibax - V7004-002
Nadia Souverijns - 2017-03-08 17:33:19 - Tibax - P7004-007
Dries - 2017-03-08 15:50:31 - Dries - M311B00G
Dries - 2017-03-08 15:44:53 - Dries - M311B01G
Dries - 2017-03-08 15:35:59 - Dries - T5084
Tim & Sandra Hendrickx - 2017-03-07 15:14:00 - Hendrickx - P7013-007
- 2017-03-07 12:27:10 - Jagre - P2834
- 2017-03-07 12:25:16 - Jagre - F2336
N. Baurens - 2017-03-07 11:48:53 - Baurens - C9045-003
Christine & Marjolein - 2017-03-07 11:46:05 - Yolande - V5049
Christine & Marjolein - 2017-03-07 11:44:52 - Yolande - C5068
N. Baurens - 2017-03-07 11:44:10 - Baurens - C9045-004
Frederik Bongaerts - 2017-03-05 20:05:51 - Bongaerts - C5919-006
Frederik Bongaerts - 2017-03-05 20:04:17 - Bongaerts - X3778-001
Annik De Mey - 2017-03-04 17:03:22 - Annik De Mey - V5053
Annik De Mey - 2017-03-04 17:02:04 - Annik De Mey - C5070
Tim & Sandra Hendrickx - 2017-03-04 15:31:55 - Hendrickx - V7012-003
Tim & Sandra Hendrickx - 2017-03-04 15:30:25 - Hendrickx - C3953
Tim & Sandra Hendrickx - 2017-03-04 15:23:33 - Hendrickx - V7004-002
Vanhoutteghem - 2017-03-04 15:19:03 - Van Houtteghem - F4130
De Greeve - 2017-03-04 15:06:57 - De Greeve - F5086
De Greeve - 2017-03-04 15:06:08 - De Greeve - C5066
Dries - 2017-03-04 15:04:20 - Dries - T5082
Dries - 2017-03-04 15:03:54 - Dries - C5066
Evelyne Coppens - 2017-03-04 14:51:45 - Paul - X3778-001
Evelyne Coppens - 2017-03-04 14:49:33 - Paul - V4202
Marc Brans - 2017-03-04 12:24:02 - Huis Claessen - C3953
Marc Brans - 2017-03-04 12:22:33 - Huis Claessen - U4686
Eric De Waele - 2017-03-04 11:33:35 - De Waele - C5076
Eric De Waele - 2017-03-04 11:29:43 - De Waele - V5080
Pierre-Louis - 2017-03-04 10:57:20 - Pierre-Louis - C4338
Pierre-Louis - 2017-03-04 10:55:22 - Pierre-Louis - C4338
Eric De Waele - 2017-03-04 10:35:43 - De Waele - C5077
Eric De Waele - 2017-03-04 10:29:33 - De Waele - B5056
Eric De Waele - 2017-03-04 10:24:39 - De Waele - V5080
Eric De Waele - 2017-03-04 10:23:04 - De Waele - C5076
Dries - 2017-03-03 14:56:34 - Dries - C5077
Dries - 2017-03-03 14:55:19 - Dries - B5056
Viola Vetters - 2017-03-03 13:27:00 - Orion - V3802
Viola Vetters - 2017-03-03 13:26:01 - Orion - V3802
Kurt De Block - 2017-03-02 14:55:55 - Kortrijkse Goudcentrale - X4782
Vanhoutteghem - 2017-03-01 16:14:51 - Van Houtteghem - C9054-002
Vanhoutteghem - 2017-03-01 16:13:45 - Van Houtteghem - C9054-003
Frédéric Pirson - 2017-03-01 14:43:49 - Pirson - P295A23G
Frédéric Pirson - 2017-03-01 14:42:53 - Pirson - C5617-005
Davy Van Ruyskensvelde - 2017-03-01 14:36:27 - Van Ruyskensvelde - C2928
Davy Van Ruyskensvelde - 2017-03-01 14:34:47 - Van Ruyskensvelde - C2928
Fabienne Yannick - 2017-03-01 11:26:06 - Juwelen Yannick 2 - M387A02G
Fabienne Yannick - 2017-03-01 11:23:06 - Juwelen Yannick 2 - C5919-006
N. Baurens - 2017-02-28 15:41:01 - Baurens - V1722
N. Baurens - 2017-02-28 15:38:29 - Baurens - C4809
Jan Jacob - 2017-02-28 13:41:13 - Jacob - V5118
Tim & Sandra Hendrickx - 2017-02-27 17:53:20 - Hendrickx - V4206
Tim & Sandra Hendrickx - 2017-02-27 17:52:11 - Hendrickx - V4206
Katrien en Hildegarde Huysman - 2017-02-27 09:29:59 - Huysman - C4338
Katrien en Hildegarde Huysman - 2017-02-27 09:28:16 - Huysman - P7013-007
Eric De Waele - 2017-02-25 17:42:22 - Heursel - V4202
Eric De Waele - 2017-02-25 17:37:10 - Heursel - A4982
Nadia Souverijns - 2017-02-25 16:47:34 - Tibax - C5919-006
Nadia Souverijns - 2017-02-25 16:46:24 - Tibax - C5919-006
De Greeve - 2017-02-25 15:49:44 - De Greeve - V5049
Nadia Souverijns - 2017-02-25 15:00:59 - Tibax - B9056-002
Nadia Souverijns - 2017-02-25 14:59:01 - Tibax - B9056-003
Anne De Peuter - 2017-02-25 11:01:22 - Goethals - X3778-001
Anne De Peuter - 2017-02-25 10:56:26 - Goethals - M387A02G
Evi Vandeweyer - 2017-02-24 16:16:45 - Vandeweyer - F5003
Evi Vandeweyer - 2017-02-24 16:10:50 - Vandeweyer - A3028-001
Evi Vandeweyer - 2017-02-24 15:59:48 - Vandeweyer - C231B04G
Evi Vandeweyer - 2017-02-24 15:57:41 - Vandeweyer - C231B05G
Marc Bosmans - 2017-02-24 13:33:24 - Marc Bosmans - P501B00G
Martine Verbruggen - 2017-02-23 12:27:15 - verbruggen - C4384
Evelyne Coppens - 2017-02-23 09:41:53 - Paul - P491B00G
Marc Bosmans - 2017-02-22 16:04:31 - Marc Bosmans - F5003
N. Baurens - 2017-02-22 14:19:53 - Baurens - U1676
Tim & Sandra Hendrickx - 2017-02-22 13:58:07 - Hendrickx - V7013-002
Tim & Sandra Hendrickx - 2017-02-22 13:57:33 - Hendrickx - P7013-007
Celine Vanstechelman - 2017-02-21 16:03:41 - Eye-C - C3801
Celine Vanstechelman - 2017-02-21 16:02:29 - Eye-C - V3802
Christiaan Picard - 2017-02-21 15:30:42 - Christiaan Picard - X2167-001
Christiaan Picard - 2017-02-21 15:14:08 - Christiaan Picard - E4480-001
Evi Vandeweyer - 2017-02-21 15:02:56 - Vandeweyer - C240B05G
Team De Wilde - 2017-02-21 14:52:30 - De Wilde - B4988-001
Evelyne Coppens - 2017-02-21 13:43:11 - Paul - X4943-002
Evelyne Coppens - 2017-02-21 13:41:27 - Paul - C2947
Evelyne Coppens - 2017-02-21 13:39:28 - Paul - C543B01G
Evelyne Coppens - 2017-02-21 13:20:06 - Paul - P501B00G
Evelyne Coppens - 2017-02-21 12:23:03 - Paul - F5003
Evelyne Coppens - 2017-02-21 12:07:27 - Paul - T318A02G
Evelyne Coppens - 2017-02-21 12:04:19 - Paul - C240B04G
Evelyne Coppens - 2017-02-21 11:58:28 - Paul - V7003-002
Evelyne Coppens - 2017-02-21 11:56:55 - Paul - P7003-007
Evelyne Coppens - 2017-02-21 11:47:31 - Paul - T9163-015
Evelyne Coppens - 2017-02-21 11:45:29 - Paul - T9163-017
Evelyne Coppens - 2017-02-21 11:40:09 - Paul - C4156
Evelyne Coppens - 2017-02-21 10:50:55 - Paul - C9048-001
Evelyne Coppens - 2017-02-21 10:44:36 - Paul - X4782
Bart Bourgois - 2017-02-21 10:39:02 - Bourgois - V4202
Sarah Roelandt - 2017-02-20 16:48:39 - Roelandt Sarah - C9052
Sarah Roelandt - 2017-02-20 16:45:08 - Roelandt Sarah - C9052-001
Sarah Roelandt - 2017-02-20 16:42:31 - Roelandt Sarah - C9048
Sarah Roelandt - 2017-02-20 16:39:56 - Roelandt Sarah - C9048-001
- 2017-02-20 10:54:21 - Deani de Bot - B4988
- 2017-02-20 10:33:19 - Deani de Bot - V4202
Marc Bosmans - 2017-02-20 10:01:11 - Marc Bosmans - V7003-002
Marc Bosmans - 2017-02-20 10:00:00 - Marc Bosmans - C3633
Vanhoutteghem - 2017-02-19 17:09:08 - Van Houtteghem - C4338
Vanhoutteghem - 2017-02-19 16:25:00 - Van Houtteghem - X3634
Vanhoutteghem - 2017-02-19 14:32:17 - Van Houtteghem - F9021-001
Vanhoutteghem - 2017-02-19 14:30:47 - Van Houtteghem - C9021
Vanhoutteghem - 2017-02-19 13:26:02 - Van Houtteghem - P504B00G
Pierre-Louis - 2017-02-18 16:31:25 - Pierre-Louis - U4686
Pierre-Louis - 2017-02-18 16:20:54 - Pierre-Louis - F4992
Tim & Sandra Hendrickx - 2017-02-18 15:59:58 - Hendrickx - C3658
Tim & Sandra Hendrickx - 2017-02-18 15:58:50 - Hendrickx - C4338
Tim & Sandra Hendrickx - 2017-02-18 15:57:16 - Hendrickx - F4130
Tim & Sandra Hendrickx - 2017-02-18 15:54:32 - Hendrickx - C3953
Anne De Peuter - 2017-02-18 15:41:06 - Goethals - F3731
Marc Bosmans - 2017-02-18 15:25:00 - Marc Bosmans - V5171
Marc Bosmans - 2017-02-18 15:15:24 - Marc Bosmans - F5003
Nadia Souverijns - 2017-02-18 14:01:15 - Tibax - C5948-004
Nadia Souverijns - 2017-02-18 13:59:06 - Tibax - C5948-005
Fabienne Yannick - 2017-02-18 13:46:02 - Juwelen Yannick 2 - C9045-003
Fabienne Yannick - 2017-02-18 13:41:16 - Juwelen Yannick 2 - C9045-004
Sarah Roelandt - 2017-02-18 12:52:43 - Roelandt Sarah - T7043-002
Sarah Roelandt - 2017-02-18 12:49:44 - Roelandt Sarah - T7043-002
De Greeve - 2017-02-18 12:19:36 - De Greeve - P3746
De Greeve - 2017-02-18 12:18:17 - De Greeve - X3692
- 2017-02-18 12:03:45 - Jagre - C4788
- 2017-02-18 12:02:22 - Jagre - X4782
Pierre-Louis - 2017-02-18 10:58:32 - Pierre-Louis - C2899
Pierre-Louis - 2017-02-18 10:55:53 - Pierre-Louis - F1137
Anne De Peuter - 2017-02-16 17:20:34 - Goethals - F4785
Christine & Marjolein - 2017-02-16 15:57:34 - Yolande - C5076
Christine & Marjolein - 2017-02-16 15:56:46 - Yolande - V5080
David Van Bellingen - 2017-02-15 17:54:35 - Van Bellingen - V5079
Ilse Vercammen - 2017-02-15 16:52:49 - Ilse Vercammen - M306B01G
Ilse Vercammen - 2017-02-15 16:50:27 - Ilse Vercammen - M306B00G
Laurent Vanstechelman - 2017-02-15 14:11:42 - Tempo d Oro - C515B01G
Laurent Vanstechelman - 2017-02-15 14:10:48 - Tempo d Oro - C2265-004
Marc Bosmans - 2017-02-14 10:52:41 - Marc Bosmans - P501B00G
Marc Bosmans - 2017-02-14 10:49:15 - Marc Bosmans - C501B01G
Juwelier - uurwerkmaker Devick Francis - 2017-02-14 10:03:24 - Juwelier - uurwerkmaker Devick Francis - T5084
Catherine Abeele - 2017-02-13 17:52:05 - Abeele - C3238
Catherine Abeele - 2017-02-13 17:49:54 - Abeele - X3962
Christine & Marjolein - 2017-02-13 15:31:53 - Yolande - B4977
Laurent Vanstechelman - 2017-02-13 14:37:25 - Tempo d Oro - V7003-002
Laurent Vanstechelman - 2017-02-13 14:36:13 - Tempo d Oro - C3953
Marc Bosmans - 2017-02-13 11:58:05 - Marc Bosmans - P295A23G
Marc Bosmans - 2017-02-13 11:32:52 - Marc Bosmans - C513B01G
Marc Bosmans - 2017-02-13 11:25:34 - Marc Bosmans - F5101
Marc Bosmans - 2017-02-13 11:23:55 - Marc Bosmans - M311B01G
Marc Bosmans - 2017-02-13 11:22:47 - Marc Bosmans - M310B00G
Frederik Bongaerts - 2017-02-13 10:54:13 - Bongaerts - V4202
Frederik Bongaerts - 2017-02-13 10:51:43 - Bongaerts - C4163
Anne De Peuter - 2017-02-11 17:26:18 - Goethals - C4338
Anne De Peuter - 2017-02-11 17:22:53 - Goethals - C3658
Katrien en Hildegarde Huysman - 2017-02-11 17:10:13 - Huysman - C5299
Katrien en Hildegarde Huysman - 2017-02-11 17:09:20 - Huysman - C3768
Katrien en Hildegarde Huysman - 2017-02-11 17:07:11 - Huysman - B9056-002
Katrien en Hildegarde Huysman - 2017-02-11 17:06:08 - Huysman - B9056-003
Nadia Souverijns - 2017-02-11 16:58:59 - Tibax - V5048
Nadia Souverijns - 2017-02-11 16:57:21 - Tibax - A3028-001
Thomas De Graeve - 2017-02-11 16:19:45 - De Baere - C3801
Thomas De Graeve - 2017-02-11 16:17:39 - De Baere - V3802
Thomas De Graeve - 2017-02-11 16:15:03 - De Baere - C3953
Ilse Vercammen - 2017-02-11 15:59:04 - Ilse Vercammen - A3028-001
Thomas De Graeve - 2017-02-11 15:48:20 - De Baere - V4206
Maxime Vander Avort - 2017-02-11 14:50:18 - Maxime Vander Avort - C9054-002
Maxime Vander Avort - 2017-02-11 14:49:15 - Maxime Vander Avort - C9054-002
Anne De Peuter - 2017-02-11 14:34:30 - Goethals - X2822
Anne De Peuter - 2017-02-11 14:28:01 - Goethals - C2821
Marc Bosmans - 2017-02-11 13:59:44 - Marc Bosmans - T486B04G
Marc Bosmans - 2017-02-11 13:54:20 - Marc Bosmans - X2833
Ilse Vercammen - 2017-02-11 11:12:36 - Ilse Vercammen - V7005-002
Dries - 2017-02-11 11:02:02 - Dries - V7001-003
Dries - 2017-02-11 10:58:55 - Dries - E4480-001
Ilse Vercammen - 2017-02-11 10:58:20 - Ilse Vercammen - V7004-002
Ilse Vercammen - 2017-02-11 10:52:01 - Ilse Vercammen - E4480-001
Ilse Vercammen - 2017-02-10 18:31:37 - Ilse Vercammen - X2167-001
Katrien en Hildegarde Huysman - 2017-02-10 10:43:38 - Huysman - B9056-002
Katrien en Hildegarde Huysman - 2017-02-10 10:42:16 - Huysman - B9056-003
Ilse Vercammen - 2017-02-09 18:15:30 - Ilse Vercammen - C501B01G
Bart Bourgois - 2017-02-09 17:52:21 - Bourgois - V4202
Ilse Vercammen - 2017-02-08 18:01:00 - Ilse Vercammen - C4338
Ilse Vercammen - 2017-02-08 17:58:59 - Ilse Vercammen - C784A06G
N. Baurens - 2017-02-08 15:18:28 - Baurens - C4338
N. Baurens - 2017-02-08 15:16:35 - Baurens - C3658
Christine & Marjolein - 2017-02-07 18:00:39 - Yolande - C4156
Juwelier - uurwerkmaker Devick Francis - 2017-02-07 17:10:34 - Juwelier - uurwerkmaker Devick Francis - V5049
Juwelier - uurwerkmaker Devick Francis - 2017-02-07 17:09:01 - Juwelier - uurwerkmaker Devick Francis - C5068
Sarah Roelandt - 2017-02-05 15:13:06 - Roelandt Sarah - P491B00G
Sarah Roelandt - 2017-02-05 15:10:30 - Roelandt Sarah - C491B01G
De Greeve - 2017-02-04 17:52:43 - De Greeve - X2822
De Greeve - 2017-02-04 17:50:46 - De Greeve - X2822
Anne De Peuter - 2017-02-04 17:39:08 - Goethals - V4202
David Van Bellingen - 2017-02-04 17:20:53 - Van Bellingen - C5074
Marc Bosmans - 2017-02-04 17:16:42 - Marc Bosmans - C784A04G
Marc Bosmans - 2017-02-04 17:12:47 - Marc Bosmans - C784A06G
Sarah Roelandt - 2017-02-04 15:02:18 - Roelandt Sarah - X3778-001
- 2017-02-04 13:54:01 - Jagre - X4782
- 2017-02-04 13:52:09 - Jagre - C4788
Anne De Peuter - 2017-02-03 17:25:55 - Goethals - V3802
Anne De Peuter - 2017-02-03 17:23:55 - Goethals - C3801
Pol-Henry Martin - 2017-02-03 13:04:35 - Bijouterie Martin - P501B00G
Pol-Henry Martin - 2017-02-03 13:00:23 - Bijouterie Martin - C240B05G
Pol-Henry Martin - 2017-02-03 12:43:14 - Bijouterie Martin - C2874
Pol-Henry Martin - 2017-02-03 12:40:46 - Bijouterie Martin - C2873
Pol-Henry Martin - 2017-02-03 12:27:51 - Bijouterie Martin - C5076
Pol-Henry Martin - 2017-02-03 12:24:22 - Bijouterie Martin - C5076
David Van Bellingen - 2017-02-02 17:50:46 - Van Bellingen - V5050
David Van Bellingen - 2017-02-02 17:50:09 - Van Bellingen - C5065
Anne De Peuter - 2017-02-02 16:54:00 - Goethals - E2829
Roger Borremans - 2017-02-02 15:29:19 - La coquille d Or - C5077
Roger Borremans - 2017-02-02 15:21:43 - La coquille d Or - C3953
Pierre-Louis - 2017-02-01 13:30:20 - Pierre-Louis - F5086
Alain Van Vlierden - 2017-02-01 10:55:27 - Van Vlierden - U1676
Evi Vandeweyer - 2017-02-01 10:12:07 - Vandeweyer - C3658
Laurent Vanstechelman - 2017-02-01 09:17:30 - Tempo d Oro - C536B00G
Laurent Vanstechelman - 2017-02-01 09:16:45 - Tempo d Oro - V5171
Eric De Waele - 2017-01-31 18:20:24 - De Waele - V5080
Eric De Waele - 2017-01-31 18:18:11 - De Waele - B5056
Annik De Mey - 2017-01-31 16:02:39 - Annik De Mey - C5074
Marc Bosmans - 2017-01-31 15:30:34 - Marc Bosmans - T4225
Pierre-Louis - 2017-01-31 14:45:56 - Pierre-Louis - V4227
Pierre-Louis - 2017-01-31 14:44:23 - Pierre-Louis - C3751
Elke Bosmans - 2017-01-31 13:58:04 - De Wolf - C5636-001
Elke Bosmans - 2017-01-31 13:54:44 - De Wolf - V7001-003
Elke Bosmans - 2017-01-31 13:39:13 - De Wolf - B4985
Elke Bosmans - 2017-01-31 13:34:59 - De Wolf - P560A09G
Martine Verbruggen - 2017-01-31 12:47:40 - verbruggen - C4223
Martine Verbruggen - 2017-01-31 12:44:25 - verbruggen - U4510
Catherine Abeele - 2017-01-28 21:12:45 - Abeele - X4782
Catherine Abeele - 2017-01-28 21:10:56 - Abeele - C3760
Catherine Abeele - 2017-01-28 21:08:33 - Abeele - C4806
Pieter Vanhoutteghem - 2017-01-28 12:44:52 - Pieter Vanhoutteghem - V5080
Pieter Vanhoutteghem - 2017-01-28 12:43:07 - Pieter Vanhoutteghem - V5080
Peter De Leus - 2017-01-28 12:23:07 - De Leus - V7001-003
Elke Bosmans - 2017-01-28 11:48:56 - De Wolf - C490B00G
Elke Bosmans - 2017-01-28 11:44:43 - De Wolf - C3658
Alain Van Vlierden - 2017-01-28 10:30:52 - Van Vlierden - T3796
Alain Van Vlierden - 2017-01-28 10:27:38 - Van Vlierden - T3796
De Greeve - 2017-01-27 17:20:59 - De Greeve - V5053
Elke Bosmans - 2017-01-27 16:57:37 - De Wolf - P560A09G
Elke Bosmans - 2017-01-27 16:52:33 - De Wolf - P238A08G
Elke Bosmans - 2017-01-27 11:41:56 - De Wolf - T159B00G
Elke Bosmans - 2017-01-27 11:38:10 - De Wolf - P238A07G
Elke Bosmans - 2017-01-27 11:34:56 - De Wolf - P501B00G
Elke Bosmans - 2017-01-27 11:29:58 - De Wolf - B4980-001
N. Baurens - 2017-01-26 15:56:24 - Baurens - F5104
N. Baurens - 2017-01-26 15:52:37 - Baurens - F5105
Elke Bosmans - 2017-01-26 15:00:44 - De Wolf - V3802
Elke Bosmans - 2017-01-26 14:57:53 - De Wolf - C3801
Marc Drexeler - 2017-01-25 17:19:11 - Drexeler - V5048
Stephan Siemon - 2017-01-25 13:55:00 - Top Watch - U4686
Stephan Siemon - 2017-01-25 13:52:45 - Top Watch - C3953
Yves Vanbeveren - 2017-01-25 13:13:15 - Vanbeveren - C9045-003
Yves Vanbeveren - 2017-01-25 13:11:57 - Vanbeveren - C9045-004
Annik De Mey - 2017-01-24 14:54:51 - Annik De Mey - C5078
Christiaan Picard - 2017-01-24 14:32:21 - Christiaan Picard - X3692
Frédéric Pirson - 2017-01-24 10:23:18 - Pirson - P293A17G
Jan Jacob - 2017-01-24 09:30:10 - Jacob - C3658
Jan Jacob - 2017-01-24 09:27:30 - Jacob - C4338
Tim & Sandra Hendrickx - 2017-01-23 16:09:09 - Hendrickx - X4782
Tim & Sandra Hendrickx - 2017-01-23 16:07:29 - Hendrickx - C3658
Elke Bosmans - 2017-01-23 15:51:25 - De Wolf - C3953
Elke Bosmans - 2017-01-23 15:42:51 - De Wolf - U4686
Dirk Dekempe - 2017-01-23 11:06:42 - Dekempe - B5059
Sarah Roelandt - 2017-01-22 16:54:03 - Roelandt Sarah - C187B00G
Dirk Dekempe - 2017-01-22 11:17:08 - Dekempe - X5085
- 2017-01-21 18:30:30 - Jagre - V7001-003
- 2017-01-21 18:26:20 - Jagre - C2899
Nadia Souverijns - 2017-01-21 18:01:05 - Tibax - C4338
Nadia Souverijns - 2017-01-21 17:59:32 - Tibax - C3658
Verena - 2017-01-21 16:06:25 - Verena - C4338
Verena - 2017-01-21 15:52:48 - Verena - X3634
Evelyne Coppens - 2017-01-21 14:19:23 - Paul - B4980-001
Marc Brans - 2017-01-21 10:35:07 - Huis Claessen - C3953
Marc Brans - 2017-01-21 10:33:08 - Huis Claessen - A3028
Marie-Christine Hermans - 2017-01-21 10:25:55 - Juwelen Marie-Christine - V4337
Nadia Souverijns - 2017-01-20 18:12:39 - Tibax - P7004-007
Nadia Souverijns - 2017-01-20 18:11:27 - Tibax - V7004-002
Ilse Vercammen - 2017-01-19 11:20:58 - Ilse Vercammen - T4225
Ilse Vercammen - 2017-01-19 11:11:42 - Ilse Vercammen - T473B00G
Laurent Vanstechelman - 2017-01-18 19:15:51 - Tempo d Oro - C536B00G
Laurent Vanstechelman - 2017-01-18 19:14:58 - Tempo d Oro - T487B02G
Kurt De Block - 2017-01-18 18:54:36 - Kortrijkse Goudcentrale - V7011-002
Kurt De Block - 2017-01-18 18:52:48 - Kortrijkse Goudcentrale - P7011-007
N. Baurens - 2017-01-17 16:28:15 - Baurens - A3028-001
Dirk Dekempe - 2017-01-17 08:40:38 - Dekempe - V3802
Dirk Dekempe - 2017-01-17 08:37:06 - Dekempe - C3801
David Van Bellingen - 2017-01-16 09:45:00 - Van Bellingen - C5076
David Van Bellingen - 2017-01-16 09:41:12 - Van Bellingen - V5079
David Van Bellingen - 2017-01-16 09:40:24 - Van Bellingen - C5060
Laurent Vanstechelman - 2017-01-14 18:17:22 - Tempo d Oro - P292A20G
Laurent Vanstechelman - 2017-01-14 18:00:53 - Tempo d Oro - C784A06G
Bart Bourgois - 2017-01-14 16:27:16 - Bourgois - X5501-002
Evy Uyttenhove - 2017-01-14 15:36:05 - Evy d Or - C4790
Kurt De Block - 2017-01-14 11:27:04 - Kortrijkse Goudcentrale - C4156
Kurt De Block - 2017-01-13 15:26:44 - Kortrijkse Goudcentrale - C9021
Catherine Abeele - 2017-01-13 10:35:23 - Abeele - T5082
Catherine Abeele - 2017-01-13 10:34:04 - Abeele - C5066
Catherine Abeele - 2017-01-12 15:13:59 - Abeele - P4789
Martine Verbruggen - 2017-01-12 13:59:17 - verbruggen - A3028-001
Eric De Waele - 2017-01-12 12:44:11 - Heursel - F4130
Eric De Waele - 2017-01-12 12:42:09 - Heursel - C4148
Peter De Leus - 2017-01-11 13:30:58 - De Leus - F5003
Peter De Leus - 2017-01-11 13:30:08 - De Leus - V5171
- 2017-01-11 12:37:02 - Jagre - V7001-003
- 2017-01-11 12:34:11 - Jagre - C2899
- 2017-01-11 12:20:42 - Jagre - V7013-002
- 2017-01-11 12:19:51 - Jagre - P7013-007
Peter De Leus - 2017-01-10 18:05:22 - De Leus - P7001-007
Martine - 2017-01-10 17:07:09 - Toermalijn - V3802
Martine - 2017-01-10 17:01:46 - Toermalijn - C3801
Evi Vandeweyer - 2017-01-10 16:43:06 - Vandeweyer - C3658
Elke Bosmans - 2017-01-10 14:41:26 - De Wolf - C515B01G
Elke Bosmans - 2017-01-10 14:21:14 - De Wolf - P499B00G
Thomas De Graeve - 2017-01-10 11:18:14 - De Baere - C4156
Anneleen Eyckmans - 2017-01-07 15:28:59 - Anneleen Eyckmans - B4988-001
Elke Bosmans - 2017-01-07 12:19:25 - De Wolf - T9163-006
Elke Bosmans - 2017-01-07 12:14:01 - De Wolf - C9163-007
Catherine Abeele - 2017-01-06 17:51:26 - Abeele - V4202
Catherine Abeele - 2017-01-06 17:48:59 - Abeele - X2822
Sarah Roelandt - 2017-01-06 11:21:06 - Roelandt Sarah - X2574
Sarah Roelandt - 2017-01-06 11:18:48 - Roelandt Sarah - C2843
Anne De Peuter - 2017-01-06 11:05:00 - Goethals - X3745
Martine Verbruggen - 2017-01-06 10:53:10 - verbruggen - C9045-003
Eric De Waele - 2017-01-05 15:46:55 - De Waele - V5053
Eric De Waele - 2017-01-05 15:44:20 - De Waele - C5064
Elke Bosmans - 2017-01-05 13:49:15 - De Wolf - F4995
Martine - 2017-01-04 17:52:13 - Toermalijn - B7032
Tim & Sandra Hendrickx - 2017-01-04 16:31:23 - Hendrickx - C3953
Jan Jacob - 2017-01-04 15:13:57 - Jacob - T4225
Vicky Coens - 2017-01-04 12:06:46 - Coens Brugge - C4338
Vicky Coens - 2017-01-04 12:04:34 - Coens Brugge - C3658
Catherine Abeele - 2017-01-03 18:04:40 - Abeele - C4338
Catherine Abeele - 2017-01-03 18:02:49 - Abeele - C3658
Evelyne Coppens - 2017-01-03 16:17:14 - Paul - V7003-002
Evelyne Coppens - 2017-01-03 16:15:51 - Paul - C3953
Alain Van Vlierden - 2017-01-03 15:40:18 - Van Vlierden - C3963
Alain Van Vlierden - 2017-01-03 15:36:06 - Van Vlierden - V1721
Anne De Peuter - 2017-01-03 15:13:40 - Goethals - U4686
Anne De Peuter - 2017-01-03 15:09:51 - Goethals - C3953
Jan Jacob - 2017-01-03 11:43:33 - Jacob - X3634
Elke Bosmans - 2017-01-03 11:26:51 - De Wolf - C4156
Elke Bosmans - 2017-01-03 11:18:57 - De Wolf - C490B00G
Sarah Roelandt - 2017-01-02 15:16:17 - Roelandt Sarah - V7014-003
Sarah Roelandt - 2017-01-02 15:07:22 - Roelandt Sarah - C3633
Frederik Bongaerts - 2017-01-02 10:07:52 - Bongaerts - V5171
Anne De Peuter - 2016-12-31 15:43:10 - Goethals - C5919-006
N. Baurens - 2016-12-31 12:15:49 - Baurens - C2864
N. Baurens - 2016-12-31 12:12:13 - Baurens - A3028-001
Alain Van Vlierden - 2016-12-30 13:24:40 - Van Vlierden - P3964
Alain Van Vlierden - 2016-12-30 13:22:23 - Van Vlierden - X3745
Elke Bosmans - 2016-12-30 10:37:47 - De Wolf - C5925-006
Elke Bosmans - 2016-12-30 10:34:27 - De Wolf - C5925-007
Elke Bosmans - 2016-12-30 10:30:58 - De Wolf - X3778-001
Elke Bosmans - 2016-12-30 10:23:36 - De Wolf - C3777-001
Roger Borremans - 2016-12-29 20:12:47 - La coquille d Or - U4686
Roger Borremans - 2016-12-29 20:05:05 - La coquille d Or - V5080
Christine & Marjolein - 2016-12-29 17:04:09 - Yolande - F5086
Christine & Marjolein - 2016-12-29 17:02:46 - Yolande - C5061
Laurent Vanstechelman - 2016-12-28 17:20:32 - Tempo d Oro - U1678
Alain Van Vlierden - 2016-12-28 14:59:55 - Van Vlierden - C3801
David Van Bellingen - 2016-12-27 16:26:56 - Van Bellingen - C5074
Yves Vanbeveren - 2016-12-27 10:03:28 - Vanbeveren - C3634-004
Yves Vanbeveren - 2016-12-27 10:00:53 - Vanbeveren - X3634-003
Team De Wilde - 2016-12-26 17:31:11 - De Wilde - M387A02G
Team De Wilde - 2016-12-26 17:21:40 - De Wilde - C5919-006
Sarah Roelandt - 2016-12-24 17:06:35 - Roelandt Sarah - E4480-001
Sarah Roelandt - 2016-12-24 17:04:33 - Roelandt Sarah - X2167-001
Christine & Marjolein - 2016-12-23 17:40:11 - Yolande - V5048
Christine & Marjolein - 2016-12-23 17:39:29 - Yolande - C5075
Nadia Souverijns - 2016-12-23 15:59:56 - Tibax - C3953
Christine & Marjolein - 2016-12-22 15:48:52 - Yolande - C5078
Christine & Marjolein - 2016-12-22 15:18:35 - Yolande - B5059
Elke Bosmans - 2016-12-22 14:01:49 - De Wolf - X4782
Elke Bosmans - 2016-12-22 13:39:35 - De Wolf - C4813
Martine Verbruggen - 2016-12-22 12:39:32 - verbruggen - C9045-004
- 2016-12-22 10:38:54 - Jagre - V7013-002
- 2016-12-22 10:36:45 - Jagre - P7013-007
Laurent Vanstechelman - 2016-12-21 13:57:52 - Tempo d Oro - V5050
Ilse Vercammen - 2016-12-20 14:30:57 - Ilse Vercammen - V7004-002
Annik De Mey - 2016-12-20 14:14:50 - Annik De Mey - C5081
Annik De Mey - 2016-12-20 14:12:37 - Annik De Mey - C5063
Anneleen Eyckmans - 2016-12-19 16:15:28 - Anneleen Eyckmans - U5507
Anneleen Eyckmans - 2016-12-19 16:13:22 - Anneleen Eyckmans - U4510
Eric De Waele - 2016-12-19 09:49:59 - De Waele - F2334
Eric De Waele - 2016-12-19 09:47:27 - De Waele - F2334
Elke Bosmans - 2016-12-18 14:15:50 - De Wolf - V5147
Elke Bosmans - 2016-12-18 14:12:12 - De Wolf - V5118
De Greeve - 2016-12-18 12:24:34 - De Greeve - X2167-001
Elke Bosmans - 2016-12-17 13:27:13 - De Wolf - C491B01G
Stephan Siemon - 2016-12-17 10:40:36 - Top Watch - F1137
Eversen - 2016-12-15 14:21:39 - - A3028-001
Evi Vandeweyer - 2016-12-13 16:23:41 - Vandeweyer - C5617-004
Elke Bosmans - 2016-12-12 14:24:03 - De Wolf - P295A19G
Juwelier - uurwerkmaker Devick Francis - 2016-12-11 20:19:48 - Juwelier - uurwerkmaker Devick Francis - F5086
Juwelier - uurwerkmaker Devick Francis - 2016-12-11 20:18:24 - Juwelier - uurwerkmaker Devick Francis - F5086
Elke Bosmans - 2016-12-11 18:13:22 - De Wolf - X2889
Elke Bosmans - 2016-12-11 17:08:14 - De Wolf - F5016
Elke Bosmans - 2016-12-11 17:05:28 - De Wolf - F5175
Dirk Van Schoenwinkel - 2016-12-10 22:23:27 - Juweliers Van Schoenwinkel - V7005-002
Dirk Van Schoenwinkel - 2016-12-10 22:21:37 - Juweliers Van Schoenwinkel - P7005-007
Annik De Mey - 2016-12-10 17:32:43 - Annik De Mey - V5054
Annik De Mey - 2016-12-10 17:29:43 - Annik De Mey - V5054
Anne De Peuter - 2016-12-10 12:36:59 - Goethals - X3745
Anne De Peuter - 2016-12-10 12:33:03 - Goethals - P3964
Frédéric Pirson - 2016-12-09 12:24:30 - Pirson - P295A23G
Frédéric Pirson - 2016-12-09 12:22:00 - Pirson - C3953
David Van Bellingen - 2016-12-07 16:44:49 - Van Bellingen - X5085
David Van Bellingen - 2016-12-07 16:44:30 - Van Bellingen - X5085
Marc Buseyne - 2016-12-07 14:19:46 - Busseyne - C4338
Christine & Marjolein - 2016-12-06 13:52:24 - Yolande - P238A07G
Christine & Marjolein - 2016-12-06 13:51:14 - Yolande - P238A05G
Sandra Van Sweeveldt - 2016-12-05 15:07:20 - aida - T180B00G
Sandra Van Sweeveldt - 2016-12-05 15:05:33 - aida - C5948-004
- 2016-12-05 11:36:34 - Heleven - C9021
Elke Bosmans - 2016-12-03 16:49:20 - De Wolf - C515B01G
Elke Bosmans - 2016-12-03 16:36:53 - De Wolf - C490B00G
Elke Bosmans - 2016-12-03 16:11:15 - De Wolf - X2167-001
Elke Bosmans - 2016-12-03 16:07:17 - De Wolf - E4480-001
Ilse Vercammen - 2016-12-03 15:39:20 - Ilse Vercammen - X4782
Ilse Vercammen - 2016-12-03 15:34:23 - Ilse Vercammen - P7004-007
Bart Bourgois - 2016-12-03 14:54:09 - Bourgois - X5501-002
Celine Vanstechelman - 2016-12-03 11:03:18 - Eye-C - P4789
Celine Vanstechelman - 2016-12-03 11:01:57 - Eye-C - F4785
Marc Buseyne - 2016-12-03 10:59:50 - Busseyne - C3963
Marc & Hilde Jehaes - 2016-12-02 15:54:24 - Jehaes - C3953
Vicky Coens - 2016-12-02 10:54:07 - Coens Brugge - T9163-006
Vicky Coens - 2016-12-02 10:50:17 - Coens Brugge - C9163-007
Elke Bosmans - 2016-12-01 17:33:29 - De Wolf - M310B00G
David Van Bellingen - 2016-12-01 12:18:01 - Van Bellingen - B5056
Christine & Marjolein - 2016-11-30 17:44:43 - Yolande - C9045-004
Christine & Marjolein - 2016-11-30 17:43:50 - Yolande - C9045-003
De Greeve - 2016-11-30 17:26:58 - De Greeve - F4785
De Greeve - 2016-11-30 17:25:59 - De Greeve - F4785
Christine & Marjolein - 2016-11-30 17:17:49 - Yolande - C5055
Christine & Marjolein - 2016-11-30 17:17:13 - Yolande - C5073
Elke Bosmans - 2016-11-29 15:53:59 - De Wolf - C490B00G
Elke Bosmans - 2016-11-28 10:10:11 - De Wolf - V4206
Elke Bosmans - 2016-11-28 10:07:35 - De Wolf - C4166
Evelyne Coppens - 2016-11-26 10:36:58 - Paul - U4686
Evelyne Coppens - 2016-11-26 10:32:48 - Paul - V4202
Anne De Peuter - 2016-11-23 14:21:53 - Goethals - C7018-003
De Greeve - 2016-11-22 17:16:51 - De Greeve - F5086
De Greeve - 2016-11-22 17:16:01 - De Greeve - C5071
Christine & Marjolein - 2016-11-22 14:41:59 - Yolande - X5085
Christine & Marjolein - 2016-11-22 14:41:11 - Yolande - C5061
Anne De Peuter - 2016-11-22 14:19:11 - Goethals - C5919-006
Anne De Peuter - 2016-11-22 14:14:27 - Goethals - 387A05
Elke Bosmans - 2016-11-22 10:11:14 - De Wolf - F9021-001
Elke Bosmans - 2016-11-22 10:08:36 - De Wolf - C9021
De Greeve - 2016-11-19 17:32:42 - De Greeve - C9054-002
De Greeve - 2016-11-19 17:31:31 - De Greeve - C9054-003
Anne De Peuter - 2016-11-19 13:51:01 - Goethals - E2829
Evelyne Coppens - 2016-11-19 12:26:45 - Paul - C9045-003
Evelyne Coppens - 2016-11-19 12:25:30 - Paul - C9045-004
Team De Wilde - 2016-11-18 18:35:49 - De Wilde - F5003
Team De Wilde - 2016-11-18 18:32:56 - De Wilde - F5003
Evelyne Coppens - 2016-11-16 16:28:36 - Paul - C5919-006
Evelyne Coppens - 2016-11-16 16:25:46 - Paul - M387A02G
Sofie - 2016-11-16 15:03:32 - Jema Design - W5333
Frédéric Pirson - 2016-11-16 13:29:52 - Pirson - P295A19G
Nadia Souverijns - 2016-11-16 11:29:30 - Tibax - V4202
Alain Van Vlierden - 2016-11-16 10:58:42 - Van Vlierden - V4206
Elke Bosmans - 2016-11-15 14:21:40 - De Wolf - P478B00G
Elke Bosmans - 2016-11-15 14:19:23 - De Wolf - C478B01G
Alain Van Vlierden - 2016-11-12 13:13:19 - Van Vlierden - C4338
Alain Van Vlierden - 2016-11-12 13:11:49 - Van Vlierden - C3658
Laurent Vanstechelman - 2016-11-10 15:55:59 - Tempo d Oro - U1485
Laurent Vanstechelman - 2016-11-10 15:54:56 - Tempo d Oro - U1485
Team De Wilde - 2016-11-10 12:15:22 - De Wilde - C4163
Team De Wilde - 2016-11-10 12:13:24 - De Wilde - V4202
Christine & Marjolein - 2016-11-09 17:29:28 - Yolande - A3028-001
Vicky Coens - 2016-11-09 17:06:40 - Coens Brugge - C5925-005
Vicky Coens - 2016-11-09 17:03:25 - Coens Brugge - C5925-004
Stephan Siemon - 2016-11-09 16:28:01 - Top Watch - F2334
Stephan Siemon - 2016-11-09 16:27:07 - Top Watch - F2334
Dries - 2016-11-09 15:10:26 - Dries - C5055
Dries - 2016-11-09 15:09:13 - Dries - C5073
Alain Van Vlierden - 2016-11-09 14:45:57 - Van Vlierden - X3774
Alain Van Vlierden - 2016-11-09 14:43:26 - Van Vlierden - C1668
Sven Lombaerts - 2016-11-09 11:46:03 - Van Laer - V4138-005
David Van Bellingen - 2016-11-08 13:19:43 - Van Bellingen - C5055
David Van Bellingen - 2016-11-08 13:18:57 - Van Bellingen - C5073
N. Baurens - 2016-11-08 11:16:47 - Baurens - F9021-001
N. Baurens - 2016-11-08 11:11:51 - Baurens - C9021
Evelyne Coppens - 2016-11-08 10:46:18 - Paul - X4782
Elke Bosmans - 2016-11-07 12:08:20 - De Wolf - P291A23G
Elke Bosmans - 2016-11-07 12:07:24 - De Wolf - P291A22G
Anne De Peuter - 2016-11-05 15:11:09 - Goethals - C4148
Christine & Marjolein - 2016-11-05 14:56:40 - Yolande - P291A21G
Christine & Marjolein - 2016-11-05 14:55:37 - Yolande - T317A01G
Alain Van Vlierden - 2016-11-04 17:09:27 - Van Vlierden - C2828
Alain Van Vlierden - 2016-11-04 17:06:47 - Van Vlierden - E2829
Ilse Vercammen - 2016-11-04 15:04:49 - Ilse Vercammen - X2889
Ilse Vercammen - 2016-11-04 12:04:02 - Ilse Vercammen - C4338
Ilse Vercammen - 2016-11-04 12:01:19 - Ilse Vercammen - C3658
Elke Bosmans - 2016-11-03 14:32:19 - De Wolf - U4980-002
- 2016-11-03 14:00:22 - Jagre - C2864
- 2016-11-03 13:58:25 - Jagre - C2863
- 2016-11-03 13:51:32 - Jagre - C9045-003
Elke Bosmans - 2016-11-03 13:32:23 - De Wolf - B4980-001
Nadia Souverijns - 2016-11-02 13:38:13 - Tibax - V5053
Nadia Souverijns - 2016-11-02 13:37:07 - Tibax - V5053
Elke Bosmans - 2016-11-02 10:53:48 - De Wolf - P292A19G
Elke Bosmans - 2016-10-29 15:16:30 - De Wolf - V4202
De Greeve - 2016-10-29 14:09:42 - De Greeve - X4782
David Van Bellingen - 2016-10-28 07:34:08 - Van Bellingen - C5064
David Van Bellingen - 2016-10-28 07:33:35 - Van Bellingen - V5053
Elke Bosmans - 2016-10-26 10:47:39 - De Wolf - P292A20G
Peter De Leus - 2016-10-25 11:55:56 - De Leus - C3658
Annik De Mey - 2016-10-25 11:02:11 - Annik De Mey - V5048
Annik De Mey - 2016-10-25 11:01:29 - Annik De Mey - C5075
Roger Borremans - 2016-10-22 17:48:40 - La coquille d Or - U4686
Roger Borremans - 2016-10-22 17:46:34 - La coquille d Or - C4148
Laurent Vanstechelman - 2016-10-22 14:37:05 - Tempo d Oro - F4784
Laurent Vanstechelman - 2016-10-22 14:35:03 - Tempo d Oro - P4792
Juwelier - uurwerkmaker Devick Francis - 2016-10-18 16:24:49 - Juwelier - uurwerkmaker Devick Francis - C5077
Juwelier - uurwerkmaker Devick Francis - 2016-10-18 16:23:09 - Juwelier - uurwerkmaker Devick Francis - B5056
Vicky Coens - 2016-10-18 14:46:59 - Coens Brugge - C4790
Annik De Mey - 2016-10-18 09:00:54 - Annik De Mey - C5055
Annik De Mey - 2016-10-18 08:59:33 - Annik De Mey - C5073
Frédéric Pirson - 2016-10-18 08:48:07 - Pirson - P294A00G
Marc Drexeler - 2016-10-17 08:30:08 - Drexeler - F9021-001
Marc Drexeler - 2016-10-17 08:23:19 - Drexeler - C9021
David Van Bellingen - 2016-10-17 07:23:34 - Van Bellingen - V5048
Christine & Marjolein - 2016-10-15 15:56:14 - Yolande - C5077
Christine & Marjolein - 2016-10-15 15:55:19 - Yolande - B5056
Sofie - 2016-10-15 10:44:51 - Jema Design - X5501-001
Sofie - 2016-10-15 10:42:01 - Jema Design - X5501-001
Elke Bosmans - 2016-10-14 13:57:17 - De Wolf - M311B00G
Elke Bosmans - 2016-10-14 13:54:40 - De Wolf - M311B01G
Ilse Vercammen - 2016-10-13 15:05:15 - Ilse Vercammen - B9056-002
Evelyne Coppens - 2016-10-12 14:43:06 - Paul - X4782
David Van Bellingen - 2016-10-12 12:31:07 - Van Bellingen - V5054
Ilse Vercammen - 2016-10-11 14:46:28 - Ilse Vercammen - X4782
Kristina Cuvelier - 2016-10-10 17:16:45 - Cuvelier - X3778-001
Laurent Vanstechelman - 2016-10-09 15:17:38 - Tempo d Oro - C3658
Laurent Vanstechelman - 2016-10-09 15:16:40 - Tempo d Oro - C9130-001
Laurent Vanstechelman - 2016-10-09 15:10:17 - Tempo d Oro - P484B00G
Laurent Vanstechelman - 2016-10-09 14:41:06 - Tempo d Oro - B4980-001
Laurent Vanstechelman - 2016-10-09 14:16:26 - Tempo d Oro - C9055-006
Laurent Vanstechelman - 2016-10-09 13:42:01 - Tempo d Oro - C5925-006
Laurent Vanstechelman - 2016-10-09 13:07:21 - Tempo d Oro - C9048-001
Laurent Vanstechelman - 2016-10-08 16:13:44 - Tempo d Oro - T504B02G
De Greeve - 2016-10-08 15:43:38 - De Greeve - F5086
De Greeve - 2016-10-08 15:42:24 - De Greeve - C5071
Laurent Vanstechelman - 2016-10-08 14:37:21 - Tempo d Oro - P4792
Laurent Vanstechelman - 2016-10-08 14:21:50 - Tempo d Oro - C546B01G
Laurent Vanstechelman - 2016-10-08 14:16:18 - Tempo d Oro - A3026
Fabienne Yannick - 2016-10-08 13:37:21 - Juwelen Yannick 2 - C3953
Anne De Peuter - 2016-10-07 15:36:35 - Goethals - V3802
Anne De Peuter - 2016-10-07 15:32:42 - Goethals - C3801
Nadia Souverijns - 2016-10-06 15:24:43 - Tibax - C2515
Elke Bosmans - 2016-10-05 09:14:47 - De Wolf - C4338
Elke Bosmans - 2016-10-05 09:11:58 - De Wolf - C3658
Christine & Marjolein - 2016-10-04 14:48:31 - Yolande - X2167-001
Christine & Marjolein - 2016-10-04 14:47:19 - Yolande - E4480-001
Elke Bosmans - 2016-10-03 12:37:57 - De Wolf - F4130
Frédéric Pirson - 2016-09-30 08:33:27 - Pirson - P292A19G
Laurent Vanstechelman - 2016-09-29 16:35:23 - Tempo d Oro - C5071
Laurent Vanstechelman - 2016-09-29 16:34:40 - Tempo d Oro - F5086
Verena - 2016-09-29 11:01:19 - Verena - C4338
Verena - 2016-09-29 11:00:31 - Verena - C4338
Pol-Henry Martin - 2016-09-28 11:25:04 - Bijouterie Martin - C4338
Pol-Henry Martin - 2016-09-28 11:18:39 - Bijouterie Martin - C3658
Anneleen Eyckmans - 2016-09-28 09:34:01 - Anneleen Eyckmans - B4988-001
Vicky Coens - 2016-09-28 09:25:59 - Coens Brugge - F5105
Vicky Coens - 2016-09-28 09:23:53 - Coens Brugge - F5104
David Van Bellingen - 2016-09-25 15:20:03 - Van Bellingen - C5077
Kristina Cuvelier - 2016-09-24 16:45:54 - Cuvelier - C4156
Anne De Peuter - 2016-09-24 10:45:56 - Goethals - C4338
Anne De Peuter - 2016-09-24 10:40:43 - Goethals - C160B00G
Roger Borremans - 2016-09-24 10:29:32 - La coquille d Or - U4686
Roger Borremans - 2016-09-24 10:26:08 - La coquille d Or - U4686
David Van Bellingen - 2016-09-23 14:29:34 - Van Bellingen - T4225
David Van Bellingen - 2016-09-23 14:27:54 - Van Bellingen - C5066
Patrick Peeters - 2016-09-22 18:01:14 - Peeters - C5064
N. Baurens - 2016-09-22 14:52:53 - Baurens - V7004-002
Thomas De Graeve - 2016-09-22 12:58:39 - De Baere - V4202
Alain Van Vlierden - 2016-09-20 14:22:54 - Van Vlierden - V4206
Alain Van Vlierden - 2016-09-20 14:18:25 - Van Vlierden - C4166
Marc & Hilde Jehaes - 2016-09-19 12:34:49 - Jehaes - A3028-001
Frederik Bongaerts - 2016-09-19 11:08:04 - Bongaerts - V5053
Frederik Bongaerts - 2016-09-19 11:06:22 - Bongaerts - C5064
Ilse Vercammen - 2016-09-17 14:37:59 - Ilse Vercammen - X2889
Ilse Vercammen - 2016-09-17 14:32:20 - Ilse Vercammen - C4172
Christine & Marjolein - 2016-09-17 11:36:44 - Yolande - F5104
Christine & Marjolein - 2016-09-17 11:35:16 - Yolande - F5105
Frédéric Pirson - 2016-09-16 10:58:07 - Pirson - C4338
Frédéric Pirson - 2016-09-16 10:56:54 - Pirson - C3658
Frédéric Pirson - 2016-09-15 10:37:54 - Pirson - C9163-007
Frédéric Pirson - 2016-09-15 10:36:33 - Pirson - T9163-006
Frédéric Pirson - 2016-09-15 10:33:20 - Pirson - P292A20G
Frédéric Pirson - 2016-09-15 10:31:59 - Pirson - P292A20G
Christine & Marjolein - 2016-09-13 14:06:55 - Yolande - F5086
Christine & Marjolein - 2016-09-13 14:06:04 - Yolande - F5086
Evelyne Coppens - 2016-09-13 09:52:32 - Paul - X4782
Evelyne Coppens - 2016-09-13 09:51:22 - Paul - C4788
Carlo Declerq - 2016-09-13 09:16:19 - Declerq - X4782
Carlo Declerq - 2016-09-13 08:36:00 - Declerq - C4788
Kurt De Block - 2016-09-12 08:44:03 - Kortrijkse Goudcentrale - V3802
Kurt De Block - 2016-09-12 08:41:46 - Kortrijkse Goudcentrale - C3801
De Greeve - 2016-09-10 14:43:48 - De Greeve - C5071
De Greeve - 2016-09-10 14:42:24 - De Greeve - F5086
Evy Uyttenhove - 2016-09-10 14:00:12 - Evy d Or - T473B00G
Anne De Peuter - 2016-09-10 13:09:14 - Goethals - V4206
Celine Vanstechelman - 2016-09-10 09:18:52 - Eye-C - X5085
Elke Bosmans - 2016-09-09 10:24:34 - De Wolf - C5925-006
Elke Bosmans - 2016-09-09 10:20:05 - De Wolf - C5925-007
Vicky Coens - 2016-09-09 08:54:20 - Coens Brugge - H1377
Vicky Coens - 2016-09-09 08:51:54 - Coens Brugge - H1377
- 2016-09-06 13:50:58 - Jagre - X4782
- 2016-09-06 13:49:26 - Jagre - C4788
N. Baurens - 2016-09-06 12:50:27 - Baurens - V1290
N. Baurens - 2016-09-06 12:46:27 - Baurens - C4338
Elke Bosmans - 2016-09-05 12:53:09 - De Wolf - X4782
Sofie - 2016-09-04 15:19:50 - Jema Design - C2899
- 2016-09-03 14:39:13 - Jagre - C4430
- 2016-09-03 14:32:37 - Jagre - C5120
Pieter Vanhoutteghem - 2016-09-02 15:37:52 - Pieter Vanhoutteghem - C5075
Pieter Vanhoutteghem - 2016-09-02 15:36:49 - Pieter Vanhoutteghem - V5048
Annik De Mey - 2016-09-02 11:29:47 - Annik De Mey - C5081
Annik De Mey - 2016-09-02 11:27:32 - Annik De Mey - C5063
Catherine Abeele - 2016-09-02 10:55:35 - Abeele - X2822
Catherine Abeele - 2016-09-02 10:53:09 - Abeele - X2822
- 2016-09-01 11:16:40 - Heleven - C3953
Kurt De Block - 2016-09-01 08:35:35 - Kortrijkse Goudcentrale - T3796
Kurt De Block - 2016-09-01 08:32:47 - Kortrijkse Goudcentrale - C2928
Patrick Peeters - 2016-08-31 17:02:21 - Peeters - X5085
Pierre-Louis - 2016-08-31 13:02:15 - Pierre-Louis - V4539
Stephan Siemon - 2016-08-31 08:40:29 - Top Watch - V1293
Stephan Siemon - 2016-08-31 08:38:50 - Top Watch - V1293
N. Baurens - 2016-08-30 15:52:30 - Baurens - U1678
- 2016-08-30 15:20:11 - Jagre - C5919-007
Evelyne Coppens - 2016-08-30 13:28:24 - Paul - U4686
Evelyne Coppens - 2016-08-30 13:27:07 - Paul - U4686
De Greeve - 2016-08-30 08:53:18 - De Greeve - C5074
Ingrid Aertssens - 2016-08-29 16:45:51 - Ingrid Aertssens - T483B01G
Ingrid Aertssens - 2016-08-29 16:43:32 - Ingrid Aertssens - P483B00G
Pierre-Louis - 2016-08-27 14:27:27 - Pierre-Louis - T3796
Kristina Cuvelier - 2016-08-24 14:13:16 - Cuvelier - C4156
Kristina Cuvelier - 2016-08-24 14:09:48 - Cuvelier - V1722
Evi Vandeweyer - 2016-08-24 09:51:47 - Vandeweyer - X2167-001
Evi Vandeweyer - 2016-08-24 09:49:44 - Vandeweyer - X2167-001
Evi Vandeweyer - 2016-08-24 09:46:59 - Vandeweyer - C9045-004
Evi Vandeweyer - 2016-08-24 09:44:41 - Vandeweyer - C9045-003
Vera Vanderheyden - 2016-08-23 14:45:52 - Vera Vanderheyden - C5919-007
Vera Vanderheyden - 2016-08-23 14:42:16 - Vera Vanderheyden - C5919-006
Pieter Vanhoutteghem - 2016-08-23 10:40:10 - Pieter Vanhoutteghem - V5080
Evy Uyttenhove - 2016-08-23 10:39:47 - Evy d Or - C3963
David Van Bellingen - 2016-08-22 12:07:09 - Van Bellingen - V5080
David Van Bellingen - 2016-08-22 12:06:29 - Van Bellingen - C5076
Ingrid Aertssens - 2016-08-22 11:59:33 - Ingrid Aertssens - P315B00
Ingrid Aertssens - 2016-08-22 11:57:37 - Ingrid Aertssens - P315B00
Patrick Peeters - 2016-08-21 11:48:16 - Peeters - C5077
Marc - 2016-08-20 16:53:04 - Yannick - V7001-003
Team De Wilde - 2016-08-20 12:42:20 - De Wilde - B4988-001
Elke Bosmans - 2016-08-19 15:54:58 - De Wolf - E4783
Elke Bosmans - 2016-08-19 15:35:37 - De Wolf - C4793
Elke Bosmans - 2016-08-18 11:57:43 - De Wolf - X3692
Elke Bosmans - 2016-08-18 11:55:57 - De Wolf - P3746
Evy Uyttenhove - 2016-08-17 09:21:52 - Evy d Or - X4198
Sven Lombaerts - 2016-08-17 08:40:26 - Van Laer - V5171
Sven Lombaerts - 2016-08-17 08:38:44 - Van Laer - F5003
Isabelle Leblans - 2016-08-16 13:23:12 - Leblans - U1485
Isabelle Leblans - 2016-08-16 13:21:59 - Leblans - U1485
Evi Vandeweyer - 2016-08-16 10:46:22 - Vandeweyer - B5052
Evi Vandeweyer - 2016-08-16 10:44:53 - Vandeweyer - B5062
Evi Vandeweyer - 2016-08-16 10:42:49 - Vandeweyer - B5056
Juwelier - uurwerkmaker Devick Francis - 2016-08-16 09:51:36 - Juwelier - uurwerkmaker Devick Francis - V5050
Juwelier - uurwerkmaker Devick Francis - 2016-08-16 09:49:42 - Juwelier - uurwerkmaker Devick Francis - C5065
Kristina Cuvelier - 2016-08-14 15:27:16 - Cuvelier - P182B00G
Kristina Cuvelier - 2016-08-14 15:23:10 - Cuvelier - C4368 – (C3870 half set)
Anne De Peuter - 2016-08-13 16:53:15 - Goethals - V4206
Eric De Waele - 2016-08-13 15:48:16 - De Waele - C3777-001
Christine & Marjolein - 2016-08-13 15:40:18 - Yolande - B5052
Christine & Marjolein - 2016-08-13 15:39:35 - Yolande - B5052
Elke Bosmans - 2016-08-13 11:31:01 - De Wolf - F5175
Elke Bosmans - 2016-08-13 11:31:01 - De Wolf - F5175
Elke Bosmans - 2016-08-13 11:21:45 - De Wolf - F2820
Dries - 2016-08-13 09:54:42 - Dries - F5086
Dries - 2016-08-13 08:33:53 - Dries - V5046
Dries - 2016-08-13 08:33:02 - Dries - C5058
Kristina Cuvelier - 2016-08-12 12:11:31 - Cuvelier - C9052
Kristina Cuvelier - 2016-08-12 12:09:32 - Cuvelier - C9052
Marc Buseyne - 2016-08-12 11:47:58 - Busseyne - C3953
Ilse Vercammen - 2016-08-11 14:51:17 - Ilse Vercammen - X2889
Ilse Vercammen - 2016-08-11 14:44:27 - Ilse Vercammen - C4172
Anne De Peuter - 2016-08-11 13:59:52 - Goethals - E2829
Nadia Souverijns - 2016-08-11 13:57:40 - Tibax - C9262
Anne De Peuter - 2016-08-11 13:54:26 - Goethals - C3658
Pieter Vanhoutteghem - 2016-08-11 09:51:34 - Pieter Vanhoutteghem - C5061
Katrien en Hildegarde Huysman - 2016-08-11 09:06:13 - Huysman - C9163-007
- 2016-08-10 11:25:29 - Jagre - C5636
- 2016-08-10 11:22:57 - Jagre - C5636-001
Katrien en Hildegarde Huysman - 2016-08-09 14:47:53 - Huysman - V4206
Annik De Mey - 2016-08-09 08:57:09 - Annik De Mey - C5057
Annik De Mey - 2016-08-09 08:15:01 - Annik De Mey - C5074
Frédéric Pirson - 2016-08-08 17:19:42 - Pirson - P292A20G
Elke Bosmans - 2016-08-08 13:01:19 - De Wolf - M311B00G
Elke Bosmans - 2016-08-08 12:58:39 - De Wolf - M311B01G
Frederik Bongaerts - 2016-08-08 09:13:56 - Bongaerts - C3658
Frédéric Pirson - 2016-08-07 17:58:20 - Pirson - F2898
Frédéric Pirson - 2016-08-07 17:55:10 - Pirson - C3953
De Greeve - 2016-08-06 16:50:16 - De Greeve - C5064
De Greeve - 2016-08-06 16:49:02 - De Greeve - C5064
Verena - 2016-08-06 16:16:35 - Verena - X3778-001
Frederik Bongaerts - 2016-08-06 15:56:33 - Bongaerts - C5919-006
Frederik Bongaerts - 2016-08-06 15:50:20 - Bongaerts - C5919-006
Evy Uyttenhove - 2016-08-06 13:15:23 - Evy d Or - X4782
Evy Uyttenhove - 2016-08-06 13:14:09 - Evy d Or - P7014-007
Ingrid Aertssens - 2016-08-05 18:00:22 - Ingrid Aertssens - C4163
Ingrid Aertssens - 2016-08-05 17:56:42 - Ingrid Aertssens - V4202
Nadia Souverijns - 2016-08-05 16:57:28 - Tibax - V4202
Anne De Peuter - 2016-08-05 15:36:46 - Goethals - X4198
Anne De Peuter - 2016-08-05 15:34:27 - Goethals - C9045-004
Dries - 2016-08-05 14:21:24 - Dries - T5082
Dries - 2016-08-05 14:20:29 - Dries - C5066
Elke Bosmans - 2016-08-05 13:05:32 - De Wolf - X2167-001
Evelyne Coppens - 2016-08-05 12:53:42 - Paul - V4202
Martine Verbruggen - 2016-08-05 11:44:52 - verbruggen - C5423
Elke Bosmans - 2016-08-05 09:04:43 - De Wolf - C5636
Elke Bosmans - 2016-08-05 09:03:02 - De Wolf - C5636
Evelyne Coppens - 2016-08-04 16:02:13 - Paul - C4224
Evelyne Coppens - 2016-08-04 16:01:12 - Paul - C4223
Thomas De Graeve - 2016-08-04 14:37:14 - De Baere - C3953
Thomas De Graeve - 2016-08-04 14:35:16 - De Baere - C3953
Anneleen Eyckmans - 2016-08-04 12:30:03 - Anneleen Eyckmans - X5501
Isabelle Leblans - 2016-08-03 17:26:14 - Leblans - F5105
Isabelle Leblans - 2016-08-03 17:21:17 - Leblans - A3028-001
Verena - 2016-08-03 15:03:08 - Verena - P560A07G
Verena - 2016-08-03 14:57:09 - Verena - P560A07G
Thomas De Graeve - 2016-08-03 11:04:18 - De Baere - X4782
Thomas De Graeve - 2016-08-03 10:47:23 - De Baere - V5502-002
- 2016-08-02 13:33:38 - Heleven - T3758
Dries - 2016-08-02 09:54:39 - Dries - V5053
Laurent Vanstechelman - 2016-08-01 20:17:32 - Tempo d Oro - P292A20G
Laurent Vanstechelman - 2016-08-01 20:16:36 - Tempo d Oro - P292A20G
Laurent Vanstechelman - 2016-08-01 20:15:52 - Tempo d Oro - P292A20G
Pierre-Louis - 2016-08-01 11:07:37 - Pierre-Louis - C2928
Pierre-Louis - 2016-08-01 11:06:39 - Pierre-Louis - T3796
Elke Bosmans - 2016-07-30 13:19:28 - De Wolf - X3692
Ilse Vercammen - 2016-07-30 11:44:09 - Ilse Vercammen - V3802
Ilse Vercammen - 2016-07-30 11:41:20 - Ilse Vercammen - C3801
Dries - 2016-07-28 16:29:12 - Dries - X4782
Stephan Siemon - 2016-07-28 15:26:39 - Top Watch - U1485
Stephan Siemon - 2016-07-28 15:25:14 - Top Watch - U1485
Evy Uyttenhove - 2016-07-28 08:32:12 - Evy d Or - X4198
Nadia Souverijns - 2016-07-27 16:31:24 - Tibax - P7004-007
Sandra Van Sweeveldt - 2016-07-27 12:36:03 - Van Stechelman - X1475
Tim & Sandra Hendrickx - 2016-07-27 12:11:23 - Hendrickx - C3953
Evy Uyttenhove - 2016-07-27 10:32:37 - Evy d Or - C5097
David Van Bellingen - 2016-07-27 09:38:38 - Van Bellingen - C5077
David Van Bellingen - 2016-07-27 09:38:04 - Van Bellingen - B5056
N. Baurens - 2016-07-26 15:07:22 - Baurens - U1678
Sandra Van Sweeveldt - 2016-07-26 14:06:14 - Matthijs - C3963
Elke Bosmans - 2016-07-26 10:49:45 - De Wolf - V3802
Elke Bosmans - 2016-07-26 10:48:44 - De Wolf - C3801
Verena - 2016-07-26 09:59:20 - Verena - F4785
Verena - 2016-07-26 09:57:06 - Verena - F4785
Team De Wilde - 2016-07-22 14:07:19 - De Wilde - V4206
Team De Wilde - 2016-07-22 14:05:14 - De Wilde - V4206
Ilse Vercammen - 2016-07-20 15:31:32 - Ilse Vercammen - V7004-002
David Van Bellingen - 2016-07-20 13:49:51 - Van Bellingen - M308B00G
David Van Bellingen - 2016-07-20 13:48:48 - Van Bellingen - M308B01G
Elke Bosmans - 2016-07-20 10:11:11 - De Wolf - C2843
Elke Bosmans - 2016-07-20 10:08:40 - De Wolf - P292A21G
Vicky Coens - 2016-07-19 17:00:16 - Coens Brugge - C5925-004
Vicky Coens - 2016-07-19 16:56:43 - Coens Brugge - C5925-005
Carlo Declerq - 2016-07-19 15:20:18 - Declerq - V7001-003
Evelyne Coppens - 2016-07-19 11:17:18 - Paul - C4223
N. Baurens - 2016-07-19 10:58:38 - Baurens - V1722
N. Baurens - 2016-07-19 10:54:47 - Baurens - C4156
Elke Bosmans - 2016-07-19 08:59:42 - De Wolf - X4782
Roger Borremans - 2016-07-18 16:54:14 - La coquille d Or - C3953
Roger Borremans - 2016-07-18 16:36:12 - La coquille d Or - C4338
Katrien en Hildegarde Huysman - 2016-07-16 16:24:24 - Huysman - A3028-001
Elke Bosmans - 2016-07-16 15:20:46 - De Wolf - F2820
Elke Bosmans - 2016-07-16 15:15:08 - De Wolf - P2009
Evelyne Coppens - 2016-07-16 15:04:19 - Paul - V4206
Juwelier - uurwerkmaker Devick Francis - 2016-07-16 13:27:07 - Juwelier - uurwerkmaker Devick Francis - V7040
Juwelier - uurwerkmaker Devick Francis - 2016-07-16 13:25:25 - Juwelier - uurwerkmaker Devick Francis - V7040
Team De Wilde - 2016-07-16 11:24:29 - De Wilde - F4130
Team De Wilde - 2016-07-16 11:22:12 - De Wilde - C4148
Thomas De Graeve - 2016-07-15 17:25:35 - De Baere - C3801
Thomas De Graeve - 2016-07-15 17:23:37 - De Baere - V3802
Elke Bosmans - 2016-07-15 16:22:20 - De Wolf - X2663
Christine & Marjolein - 2016-07-15 15:32:54 - Yolande - C3953
Christine & Marjolein - 2016-07-15 15:29:21 - Yolande - C3953
Ingrid Aertssens - 2016-07-15 11:52:15 - Ingrid Aertssens - P295A22G
David Van Bellingen - 2016-07-14 11:44:47 - Van Bellingen - V5050
David Van Bellingen - 2016-07-14 11:44:10 - Van Bellingen - C5065
Marc Brans - 2016-07-14 09:58:33 - Huis Claessen - P3973
Marc Brans - 2016-07-14 09:56:54 - Huis Claessen - V1620
Kurt De Block - 2016-07-14 08:54:41 - Kortrijkse Goudcentrale - F2870
Anne De Peuter - 2016-07-13 16:54:23 - Goethals - E2829
Anne De Peuter - 2016-07-13 16:51:20 - Goethals - C3658
Anne De Peuter - 2016-07-13 14:15:28 - Goethals - U4686
N. Baurens - 2016-07-13 10:18:58 - Baurens - V1722
N. Baurens - 2016-07-13 10:15:21 - Baurens - V1722
N. Baurens - 2016-07-12 16:29:41 - Baurens - C2863
N. Baurens - 2016-07-12 16:01:27 - Baurens - V7013-002
N. Baurens - 2016-07-12 15:59:31 - Baurens - V7013-002
- 2016-07-12 14:34:18 - Heleven - X2822
- 2016-07-12 14:33:19 - Heleven - C3953
Tim & Sandra Hendrickx - 2016-07-12 13:37:10 - Hendrickx - V4206
Evelyne Coppens - 2016-07-12 13:30:47 - Paul - C4338
Patrick Peeters - 2016-07-11 18:55:01 - Peeters - V5048
Ilse Vercammen - 2016-07-11 14:57:47 - Ilse Vercammen - V7004-002
Elke Bosmans - 2016-07-11 09:17:29 - De Wolf - F5016
Elke Bosmans - 2016-07-11 09:12:01 - De Wolf - F5175
Elke Bosmans - 2016-07-11 09:02:25 - De Wolf - C5636
Verena - 2016-07-09 17:01:54 - Verena - X4782
Thomas De Graeve - 2016-07-09 16:34:20 - De Baere - X3778-001
Thomas De Graeve - 2016-07-09 16:28:44 - De Baere - C4156
Vanhoutteghem - 2016-07-09 15:22:34 - Van Houtteghem - C9054-002
Vanhoutteghem - 2016-07-09 15:15:57 - Van Houtteghem - C9054-002
Christine & Marjolein - 2016-07-09 15:14:56 - Yolande - F5086
Christine & Marjolein - 2016-07-09 15:14:02 - Yolande - C5071
Peter De Leus - 2016-07-09 15:07:06 - De Leus - F9040
Peter De Leus - 2016-07-09 15:02:22 - De Leus - C9040-001
Anne De Peuter - 2016-07-09 13:25:03 - Goethals - F3731
Thomas De Graeve - 2016-07-08 16:02:07 - De Baere - V4138-005
Thomas De Graeve - 2016-07-08 15:59:45 - De Baere - X4198
Marc Buseyne - 2016-07-08 14:22:31 - Busseyne - C3658
Dries - 2016-07-08 13:41:32 - Dries - C4384
Anne De Peuter - 2016-07-08 11:58:06 - Goethals - U4686
Anne De Peuter - 2016-07-08 11:54:35 - Goethals - C3953
Nadia Souverijns - 2016-07-08 11:25:14 - Tibax - C4172
Dries - 2016-07-07 15:48:53 - Dries - V7003-002
Anne De Peuter - 2016-07-07 15:28:10 - Goethals - F4785
Anne De Peuter - 2016-07-07 15:26:10 - Goethals - P4789
Pieter Vanhoutteghem - 2016-07-07 14:55:35 - Pieter Vanhoutteghem - C5066
Evelyne Coppens - 2016-07-07 13:38:00 - Paul - V4206
Evelyne Coppens - 2016-07-07 13:36:41 - Paul - C4163
Anne De Peuter - 2016-07-06 16:46:05 - Goethals - X3778-001
Thomas De Graeve - 2016-07-06 10:52:45 - De Baere - V4206
Sandra Van Sweeveldt - 2016-07-06 09:59:16 - aida - C3658
Sandra Van Sweeveldt - 2016-07-06 09:58:25 - aida - X3634
Maxime Vander Avort - 2016-07-06 09:47:36 - Maxime Vander Avort - C3658
Nadia Souverijns - 2016-07-06 09:22:10 - Tibax - C3658
Catherine Abeele - 2016-07-06 08:48:47 - Abeele - C2828
Peter De Leus - 2016-07-05 17:05:38 - De Leus - C3953
Vera Vanderheyden - 2016-07-05 14:55:59 - Vera Vanderheyden - F3012
Fabienne Yannick - 2016-07-04 11:03:31 - Juwelen Yannick 2 - X4782
Fabienne Yannick - 2016-07-04 11:01:39 - Juwelen Yannick 2 - M387A02G
Patrick Peeters - 2016-07-02 16:41:07 - Peeters - V5053
Marie Paul & Christine Reyntjens - 2016-07-02 13:26:11 - Reyntjens - U5507
Christine & Marjolein - 2016-07-02 13:07:09 - Yolande - F5086
Christine & Marjolein - 2016-07-02 13:06:29 - Yolande - C5071
Elke Bosmans - 2016-07-02 11:47:54 - De Wolf - M307B01G
Elke Bosmans - 2016-07-02 11:02:19 - De Wolf - F2263
Elke Bosmans - 2016-07-02 10:58:00 - De Wolf - F2263
Carlo Declerq - 2016-07-01 15:24:11 - Declerq - V7001-003
Alain Van Vlierden - 2016-07-01 13:25:05 - Van Vlierden - C9045-003
Alain Van Vlierden - 2016-07-01 13:18:46 - Van Vlierden - C9045-004
Christiaan Picard - 2016-06-30 15:47:35 - Christiaan Picard - X3634
David Van Bellingen - 2016-06-30 11:48:40 - Van Bellingen - X3634
Suzan Broothaerts - 2016-06-29 13:14:14 - Juwelier Vissers - X2167-001
- 2016-06-29 10:09:32 - Jagre - C5636
- 2016-06-29 10:07:33 - Jagre - C5636-001
Evelyne Coppens - 2016-06-29 09:20:57 - Paul - C3658
Evelyne Coppens - 2016-06-29 09:19:36 - Paul - C4338
Martine - 2016-06-28 15:28:44 - Toermalijn - B7052-002
Celine Vanstechelman - 2016-06-28 15:28:19 - Eye-C - X4782
Pieter Vanhoutteghem - 2016-06-28 13:35:13 - Pieter Vanhoutteghem - C5066
Pieter Vanhoutteghem - 2016-06-28 13:31:42 - Pieter Vanhoutteghem - T5082
Annik De Mey - 2016-06-28 08:56:23 - Annik De Mey - C5077
Sven Lombaerts - 2016-06-28 08:51:36 - Van Laer - V3802
Sven Lombaerts - 2016-06-28 08:50:15 - Van Laer - C3801
Frédéric Pirson - 2016-06-28 08:49:58 - Pirson - P295A23G
Frédéric Pirson - 2016-06-28 08:48:26 - Pirson - P295A23G
Frédéric Pirson - 2016-06-28 08:38:37 - Pirson - T7021
Frédéric Pirson - 2016-06-28 08:36:45 - Pirson - T7021-002
Frédéric Pirson - 2016-06-28 08:33:44 - Pirson - E4480-001
Elke Bosmans - 2016-06-27 15:16:11 - De Wolf - P292A19G
Evelyne Coppens - 2016-06-26 13:21:22 - Paul - U4508
Evelyne Coppens - 2016-06-26 12:49:21 - Paul - C4808
Ilse Vercammen - 2016-06-25 17:46:11 - Ilse Vercammen - C9045-003
Ilse Vercammen - 2016-06-25 17:41:15 - Ilse Vercammen - C9045-004
Evy Uyttenhove - 2016-06-24 16:33:35 - Evy d Or - C3963
Laurent Vanstechelman - 2016-06-24 14:14:11 - Tempo d Oro - V1838
Laurent Vanstechelman - 2016-06-24 14:13:01 - Tempo d Oro - V1838
Laurent Vanstechelman - 2016-06-24 13:22:42 - Tempo d Oro - V1289
Pierre-Louis - 2016-06-23 14:04:45 - Pierre-Louis - F5086
Pierre-Louis - 2016-06-23 14:03:46 - Pierre-Louis - C5071
Christine & Marjolein - 2016-06-23 13:48:24 - Yolande - C5074
Christine & Marjolein - 2016-06-23 13:47:43 - Yolande - C5061
De Greeve - 2016-06-22 17:13:41 - De Greeve - N4266
Pol-Henry Martin - 2016-06-22 12:04:08 - Bijouterie Martin - C3953
Pol-Henry Martin - 2016-06-22 09:52:02 - Bijouterie Martin - F2266
Elke Bosmans - 2016-06-21 16:46:47 - De Wolf - F5003
Christine & Marjolein - 2016-06-21 16:32:40 - Yolande - F5086
Christine & Marjolein - 2016-06-21 16:30:59 - Yolande - C5077
Christine & Marjolein - 2016-06-21 16:27:25 - Yolande - B5056
Juwelier - uurwerkmaker Devick Francis - 2016-06-21 09:50:36 - Juwelier - uurwerkmaker Devick Francis - V7005-002
Juwelier - uurwerkmaker Devick Francis - 2016-06-21 09:48:44 - Juwelier - uurwerkmaker Devick Francis - C3658
Evelyne Coppens - 2016-06-21 09:24:03 - Paul - A3028
Evelyne Coppens - 2016-06-21 09:18:58 - Paul - A3028-001
Sven Lombaerts - 2016-06-21 08:40:13 - Van Laer - C3953
Marc Drexeler - 2016-06-20 16:03:25 - Drexeler - X3778-001
Maxime Vander Avort - 2016-06-20 12:58:32 - Maxime Vander Avort - C4338
Maxime Vander Avort - 2016-06-20 12:58:23 - Maxime Vander Avort - C3658
Tim & Sandra Hendrickx - 2016-06-20 12:29:00 - Hendrickx - V4202
Kurt De Block - 2016-06-20 08:59:51 - Kortrijkse Goudcentrale - F2870
Peter De Leus - 2016-06-18 16:11:05 - De Leus - F9040
Peter De Leus - 2016-06-18 16:09:35 - De Leus - C9040-001
Carlo Declerq - 2016-06-17 16:51:49 - Declerq - V4202
- 2016-06-17 09:58:45 - Jagre - C4430
- 2016-06-17 09:53:48 - Jagre - C4430
Yves Vanbeveren - 2016-06-16 14:31:00 - Vanbeveren - T180B00G
Maxime Vander Avort - 2016-06-16 14:06:32 - Maxime Vander Avort - V7013-002
Ilse Vercammen - 2016-06-16 14:04:25 - Ilse Vercammen - V7004-002
Eric De Waele - 2016-06-16 13:47:18 - De Waele - C5057
Eric De Waele - 2016-06-16 13:42:59 - De Waele - C5074
Elke Bosmans - 2016-06-16 10:51:32 - De Wolf - P292A21G
Elke Bosmans - 2016-06-16 10:49:51 - De Wolf - P292A19G
Elke Bosmans - 2016-06-16 10:40:21 - De Wolf - V4227
Elke Bosmans - 2016-06-16 10:38:57 - De Wolf - C4197
Kurt De Block - 2016-06-15 14:27:03 - Kortrijkse Goudcentrale - T3796
Kurt De Block - 2016-06-15 14:24:09 - Kortrijkse Goudcentrale - C2928
Vicky Coens - 2016-06-15 13:34:03 - Coens Brugge - X3692
Anne De Peuter - 2016-06-15 13:29:43 - Goethals - V4202
Anne De Peuter - 2016-06-15 13:28:26 - Goethals - C160B00G
Christine & Marjolein - 2016-06-14 10:48:27 - Yolande - X4198
Christine & Marjolein - 2016-06-14 10:47:07 - Yolande - C4197
Evy Uyttenhove - 2016-06-14 10:00:17 - Evy d Or - C4207
Evy Uyttenhove - 2016-06-14 09:57:52 - Evy d Or - E1718
Marc Drexeler - 2016-06-13 11:05:41 - Drexeler - F9042
Marc Drexeler - 2016-06-13 11:04:36 - Drexeler - F9042
Anneleen Eyckmans - 2016-06-11 15:54:28 - Anneleen Eyckmans - B4988-001
Dries - 2016-06-11 15:23:29 - Dries - X5085
Jan Jacob - 2016-06-11 14:39:41 - Jacob - C9055-006
De Greeve - 2016-06-11 14:08:26 - De Greeve - C5071
De Greeve - 2016-06-11 14:07:36 - De Greeve - F5086
Ilse Vercammen - 2016-06-11 13:32:11 - Ilse Vercammen - V7005-002
Elke Bosmans - 2016-06-11 11:12:39 - De Wolf - F2263
Elke Bosmans - 2016-06-11 11:07:13 - De Wolf - A3028-001
Anne De Peuter - 2016-06-11 10:24:01 - Goethals - U4686
Elke Bosmans - 2016-06-11 08:28:07 - De Wolf - C9163-007
Elke Bosmans - 2016-06-11 08:25:16 - De Wolf - T9163-006
Anne De Peuter - 2016-06-10 17:18:21 - Goethals - U4686
Dries - 2016-06-09 16:26:54 - Dries - V5047
Dries - 2016-06-09 16:25:25 - Dries - C5061
Frédéric Pirson - 2016-06-09 08:56:21 - Pirson - C4338
Frédéric Pirson - 2016-06-09 08:54:33 - Pirson - P295A21G
Martine Van Emrik - 2016-06-08 15:30:38 - Martine Van Emrik - P7001-007
Martine Van Emrik - 2016-06-08 15:27:55 - Martine Van Emrik - V7001-003
Fabienne Yannick - 2016-06-08 15:25:06 - Juwelen Yannick 2 - X3778-001
Pieter Vanhoutteghem - 2016-06-08 14:48:19 - Pieter Vanhoutteghem - V5050
Pieter Vanhoutteghem - 2016-06-08 14:38:35 - Pieter Vanhoutteghem - C5065
Thomas De Graeve - 2016-06-08 13:22:56 - De Baere - C4166
Kristina Cuvelier - 2016-06-08 13:18:21 - Cuvelier - P7002-007
- 2016-06-08 09:53:45 - Jagre - C5919-006
- 2016-06-08 09:52:03 - Jagre - C5919-007
- 2016-06-08 09:49:47 - Jagre - C3953
- 2016-06-08 09:47:04 - Jagre - C2864
Christiaan Picard - 2016-06-07 20:53:52 - Christiaan Picard - X3634
Christiaan Picard - 2016-06-07 20:52:13 - Christiaan Picard - C3633
Pieter Vanhoutteghem - 2016-06-07 16:26:21 - Pieter Vanhoutteghem - V5079
Pieter Vanhoutteghem - 2016-06-07 16:25:17 - Pieter Vanhoutteghem - C5060
Pieter Vanhoutteghem - 2016-06-07 16:21:04 - Pieter Vanhoutteghem - C5076
Pieter Vanhoutteghem - 2016-06-07 16:19:19 - Pieter Vanhoutteghem - V5080
Francis et Geraldine Barchy - 2016-06-07 14:56:48 - Barchy - C9045-003
Francis et Geraldine Barchy - 2016-06-07 14:55:20 - Barchy - C9045-004
Francis et Geraldine Barchy - 2016-06-07 14:50:33 - Barchy - C9045-003
Francis et Geraldine Barchy - 2016-06-07 14:47:16 - Barchy - C9045-004
Sofie - 2016-06-07 13:32:55 - Jema Design - F2334
Sofie - 2016-06-07 13:30:15 - Jema Design - F2334
N. Baurens - 2016-06-07 12:51:06 - Baurens - T3758
Evelyne Coppens - 2016-06-07 09:54:40 - Paul - C4338
Evelyne Coppens - 2016-06-07 09:49:21 - Paul - C3658
Kristina Cuvelier - 2016-06-05 15:20:53 - Cuvelier - V7002-003
Kristina Cuvelier - 2016-06-05 15:20:21 - Cuvelier - V7001-003
De Greeve - 2016-06-04 11:28:58 - De Greeve - V5079
Ilse Vercammen - 2016-06-03 17:17:04 - Ilse Vercammen - X4782
Dries - 2016-06-03 16:28:29 - Dries - A3028-001
Dries - 2016-06-03 15:43:00 - Dries - F5003
Ilse Vercammen - 2016-06-03 13:35:45 - Ilse Vercammen - X1478
Elke Bosmans - 2016-06-03 12:51:57 - De Wolf - C4197
Elke Bosmans - 2016-06-03 12:49:15 - De Wolf - X1476
Carlo Declerq - 2016-06-02 14:32:39 - Declerq - X3778-001
Jan Jacob - 2016-06-01 17:35:34 - Jacob - P7006-007
Jan Jacob - 2016-06-01 17:34:00 - Jacob - V7006-003
Annik De Mey - 2016-06-01 16:24:42 - Annik De Mey - C3658
Carlo Declerq - 2016-06-01 14:20:37 - Declerq - E4480-001
David Van Bellingen - 2016-06-01 14:01:08 - Van Bellingen - C5078
David Van Bellingen - 2016-06-01 14:00:24 - Van Bellingen - C5076
Elke Bosmans - 2016-06-01 08:39:28 - De Wolf - X4198
Elke Bosmans - 2016-06-01 08:35:52 - De Wolf - C4156
Dries - 2016-05-31 15:59:12 - Dries - B5062
Dries - 2016-05-31 15:56:26 - Dries - B5052
Thomas De Graeve - 2016-05-31 15:37:14 - De Baere - P7013-007
Thomas De Graeve - 2016-05-31 15:34:17 - De Baere - V7013-002
Evi Vandeweyer - 2016-05-31 14:36:43 - Vandeweyer - C5073
Evi Vandeweyer - 2016-05-31 14:35:01 - Vandeweyer - C5055
David Van Bellingen - 2016-05-31 10:40:15 - Van Bellingen - T9163-006
David Van Bellingen - 2016-05-31 10:39:26 - Van Bellingen - T9163-006
Annik De Mey - 2016-05-31 09:36:55 - Annik De Mey - F4786
Annik De Mey - 2016-05-31 09:35:17 - Annik De Mey - C9045-004
Annik De Mey - 2016-05-31 09:29:01 - Annik De Mey - T4225
David Van Bellingen - 2016-05-31 08:49:35 - Van Bellingen - V5047
David Van Bellingen - 2016-05-31 08:45:22 - Van Bellingen - M308B01G
Frédéric Pirson - 2016-05-31 08:44:37 - Pirson - C9052
Frédéric Pirson - 2016-05-31 08:42:50 - Pirson - C9052
Annik De Mey - 2016-05-31 08:39:49 - Annik De Mey - T4225
Patrick Peeters - 2016-05-31 08:13:08 - Peeters - V5080
Patrick Peeters - 2016-05-31 08:11:32 - Peeters - V5080
Annik De Mey - 2016-05-31 08:09:07 - Annik De Mey - C3768
Ingrid Aertssens - 2016-05-30 13:56:07 - Ingrid Aertssens - C5097
Ingrid Aertssens - 2016-05-30 13:46:17 - Ingrid Aertssens - P293A19G
Dries - 2016-05-28 15:43:16 - Dries - C9055-006
Dries - 2016-05-28 15:41:18 - Dries - C9055-007
Ilse Vercammen - 2016-05-28 11:19:06 - Ilse Vercammen - P408A001
Roger Borremans - 2016-05-28 11:03:53 - La coquille d Or - C5078
Roger Borremans - 2016-05-28 11:00:59 - La coquille d Or - C5465
Bart Bourgois - 2016-05-28 10:51:16 - Bourgois - C5065
Bart Bourgois - 2016-05-28 10:48:28 - Bourgois - V5050
Marc Drexeler - 2016-05-27 15:18:41 - Drexeler - B9056-002
Marc Drexeler - 2016-05-27 15:16:11 - Drexeler - B9056-002
Anne De Peuter - 2016-05-26 14:45:16 - Goethals - V4206
Isabelle Leblans - 2016-05-25 17:22:03 - Leblans - P292A19G
Kurt De Block - 2016-05-25 17:09:18 - Kortrijkse Goudcentrale - X4782
Kristina Cuvelier - 2016-05-25 16:16:26 - Cuvelier - U4686
Kristina Cuvelier - 2016-05-25 16:14:34 - Cuvelier - V4206
Vanhoutteghem - 2016-05-25 14:25:01 - Van Houtteghem - B9056-002
Vanhoutteghem - 2016-05-25 14:23:43 - Van Houtteghem - C9045-004
Christine & Marjolein - 2016-05-24 16:26:51 - Yolande - C5055
Christine & Marjolein - 2016-05-24 16:25:22 - Yolande - C5073
N. Baurens - 2016-05-24 12:47:12 - Baurens - E2829
Christine & Marjolein - 2016-05-24 10:14:26 - Yolande - C3953
Christine & Marjolein - 2016-05-24 10:09:25 - Yolande - C2863
Nadia Souverijns - 2016-05-24 09:17:41 - Tibax - V3802
Nadia Souverijns - 2016-05-24 09:14:31 - Tibax - C3801
Marc & Hilde Jehaes - 2016-05-23 18:11:01 - Jehaes - T4225
Marc & Hilde Jehaes - 2016-05-23 18:07:19 - Jehaes - C3768
Marc & Hilde Jehaes - 2016-05-23 17:57:36 - Jehaes - V7013-002
Marc & Hilde Jehaes - 2016-05-23 17:53:01 - Jehaes - C3777-001
Kurt De Block - 2016-05-23 16:17:07 - Kortrijkse Goudcentrale - X4782
Elke Bosmans - 2016-05-23 14:26:52 - De Wolf - C5636
Elke Bosmans - 2016-05-23 14:23:41 - De Wolf - C5636-001
Elke Bosmans - 2016-05-23 13:57:55 - De Wolf - E4783
Elke Bosmans - 2016-05-23 13:52:32 - De Wolf - C4793
Pol-Henry Martin - 2016-05-22 15:14:43 - Bijouterie Martin - C2942
Christine & Marjolein - 2016-05-21 12:14:32 - Yolande - C3953
Pierre-Louis - 2016-05-21 10:50:03 - Pierre-Louis - C5076
Pol-Henry Martin - 2016-05-21 10:27:41 - Bijouterie Martin - C9048
Marc Buseyne - 2016-05-20 17:41:49 - Busseyne - C2828
Vicky Coens - 2016-05-20 13:48:57 - Coens Brugge - C3953
Vicky Coens - 2016-05-20 13:46:08 - Coens Brugge - X3692
Evelyne Coppens - 2016-05-20 09:56:31 - Paul - V4202
Elke Bosmans - 2016-05-19 16:51:07 - De Wolf - X2167-001
Elke Bosmans - 2016-05-19 14:29:27 - De Wolf - C4788
Elke Bosmans - 2016-05-19 14:27:38 - De Wolf - C4788
Dries - 2016-05-18 17:06:39 - Dries - V5080
Dries - 2016-05-18 17:05:27 - Dries - M307B01G
Dries - 2016-05-18 17:02:49 - Dries - C9054-002
Dries - 2016-05-18 16:59:16 - Dries - C9054-003
Annik De Mey - 2016-05-18 16:32:05 - Annik De Mey - V5048
Annik De Mey - 2016-05-18 16:31:15 - Annik De Mey - C5075
De Greeve - 2016-05-18 15:36:49 - De Greeve - C2828
Frederik Bongaerts - 2016-05-18 14:30:24 - Bongaerts - C5077
Frederik Bongaerts - 2016-05-18 14:28:34 - Bongaerts - C5077
N. Baurens - 2016-05-18 10:24:55 - Baurens - U1678
Frederik Bongaerts - 2016-05-18 09:58:59 - Bongaerts - F4130
Frederik Bongaerts - 2016-05-18 09:55:49 - Bongaerts - C4148
Juwelier - uurwerkmaker Devick Francis - 2016-05-18 07:49:50 - Juwelier - uurwerkmaker Devick Francis - T5082
Juwelier - uurwerkmaker Devick Francis - 2016-05-18 07:47:36 - Juwelier - uurwerkmaker Devick Francis - C5066
Isabelle Leblans - 2016-05-17 17:16:18 - Leblans - V1293
Ilse Vercammen - 2016-05-17 16:56:11 - Ilse Vercammen - V7005-002
Ilse Vercammen - 2016-05-17 16:50:08 - Ilse Vercammen - C9163-007
Yves Vanbeveren - 2016-05-17 15:46:00 - Vanbeveren - C4338
Yves Vanbeveren - 2016-05-17 15:43:48 - Vanbeveren - C3658
De Greeve - 2016-05-17 13:02:50 - De Greeve - F5086
Team De Wilde - 2016-05-17 12:45:54 - De Wilde - V4138-003
Team De Wilde - 2016-05-17 12:44:34 - De Wilde - C3777-001
- 2016-05-17 11:48:27 - Heleven - T3758
Christine & Marjolein - 2016-05-17 10:26:23 - Yolande - C9055-006
Frédéric Pirson - 2016-05-17 10:22:01 - Pirson - T4225
Frédéric Pirson - 2016-05-17 10:20:23 - Pirson - C3768
Kristina Cuvelier - 2016-05-16 17:45:53 - Cuvelier - V7001-003
Kristina Cuvelier - 2016-05-16 17:44:42 - Cuvelier - V7001-003
Verena - 2016-05-14 17:06:36 - Verena - C5925-007
Verena - 2016-05-14 17:02:39 - Verena - C5925-006
De Greeve - 2016-05-14 16:16:11 - De Greeve - C5073
Elke Bosmans - 2016-05-14 15:36:04 - De Wolf - X4782
De Greeve - 2016-05-14 15:17:44 - De Greeve - F5086
Viola Vetters - 2016-05-14 13:31:43 - Orion - C9045-004
Viola Vetters - 2016-05-14 13:30:23 - Orion - C9045-003
Dries - 2016-05-14 11:28:02 - Dries - C5074
Jan Jacob - 2016-05-14 09:21:42 - Jacob - A3028-001
Ilse Vercammen - 2016-05-13 10:02:28 - Ilse Vercammen - C4788
Ilse Vercammen - 2016-05-13 09:57:37 - Ilse Vercammen - X4782
Dries - 2016-05-12 17:27:49 - Dries - C5065
Dries - 2016-05-12 17:25:42 - Dries - V5050
De Greeve - 2016-05-12 14:54:11 - De Greeve - C3953
Laurent Vanstechelman - 2016-05-11 17:14:25 - Tempo d Oro - C3953
Laurent Vanstechelman - 2016-05-11 17:12:45 - Tempo d Oro - V3802
Nadia Souverijns - 2016-05-11 15:03:28 - Tibax - C3961
Nadia Souverijns - 2016-05-11 15:00:06 - Tibax - C2515
Peter De Leus - 2016-05-11 14:33:56 - De Leus - F5003
Pol-Henry Martin - 2016-05-11 14:27:01 - Bijouterie Martin - C3963
Peter De Leus - 2016-05-11 14:04:35 - De Leus - V5171
Evelyne Coppens - 2016-05-11 13:15:50 - Paul - C5919-006
Pol-Henry Martin - 2016-05-11 13:15:37 - Bijouterie Martin - X3774
Evelyne Coppens - 2016-05-11 13:13:40 - Paul - C5919-006
Pol-Henry Martin - 2016-05-11 13:09:40 - Bijouterie Martin - C2513
Patrick Peeters - 2016-05-10 18:19:15 - Peeters - V5048
N. Baurens - 2016-05-10 12:46:57 - Baurens - C3760
Pol-Henry Martin - 2016-05-10 10:03:39 - Bijouterie Martin - X3778-001
Evi Vandeweyer - 2016-05-10 09:42:29 - Vandeweyer - V5080
Evi Vandeweyer - 2016-05-10 09:38:01 - Vandeweyer - C5076
Evi Vandeweyer - 2016-05-10 09:36:17 - Vandeweyer - T159B00G
Evi Vandeweyer - 2016-05-10 09:33:39 - Vandeweyer - P560A09G
Annik De Mey - 2016-05-10 08:43:24 - Annik De Mey - P4789
Elke Bosmans - 2016-05-09 10:42:50 - De Wolf - C5636
Elke Bosmans - 2016-05-09 10:38:22 - De Wolf - C5636-001
Verena - 2016-05-07 17:52:59 - Verena - X3778-001
- 2016-05-07 14:00:57 - Jagre - C2899
- 2016-05-07 13:55:51 - Jagre - C5919-006
Elke Bosmans - 2016-05-06 16:31:32 - De Wolf - P292A19G
Elke Bosmans - 2016-05-06 16:27:06 - De Wolf - C4809
Anne De Peuter - 2016-05-06 13:07:24 - Goethals - U4686
Anne De Peuter - 2016-05-06 13:06:06 - Goethals - C3953
Anne De Peuter - 2016-05-06 11:52:55 - Goethals - C4338
Anne De Peuter - 2016-05-06 11:51:41 - Goethals - C160B00G
Marc Buseyne - 2016-05-04 18:31:32 - Busseyne - C3963
Jan Jacob - 2016-05-04 17:28:34 - Jacob - C3953
Vicky Coens - 2016-05-04 15:53:30 - Coens Brugge - X3745
Eric De Waele - 2016-05-04 09:19:51 - De Waele - C3801
Eric De Waele - 2016-05-04 09:16:05 - De Waele - V3802
Frédéric Pirson - 2016-05-04 08:56:42 - Pirson - C3953
Evelyne Coppens - 2016-05-03 15:20:36 - Paul - C4338
Evelyne Coppens - 2016-05-03 15:18:58 - Paul - C3658
Evi Vandeweyer - 2016-05-03 14:28:57 - Vandeweyer - T4225
Evi Vandeweyer - 2016-05-03 14:26:18 - Vandeweyer - A3028-001
Evi Vandeweyer - 2016-05-03 14:17:19 - Vandeweyer - C9045-004
David Van Bellingen - 2016-05-03 12:53:31 - Van Bellingen - C5919-007
David Van Bellingen - 2016-05-03 12:52:07 - Van Bellingen - C5919-006
- 2016-05-03 12:25:30 - Heleven - X3745
Catherine Abeele - 2016-05-03 09:45:22 - Abeele - C5078
Elke Bosmans - 2016-05-02 15:58:56 - De Wolf - V3802
Elke Bosmans - 2016-05-02 15:57:25 - De Wolf - C3801
Evy Uyttenhove - 2016-05-02 14:54:11 - Evy d Or - C4207
Evy Uyttenhove - 2016-05-02 14:53:07 - Evy d Or - T4208
Elke Bosmans - 2016-05-02 09:40:37 - De Wolf - C3953
Elke Bosmans - 2016-05-02 09:39:33 - De Wolf - V4202
Verena - 2016-04-30 17:20:01 - Verena - F9021-001
Maxime Vander Avort - 2016-04-30 15:20:34 - Maxime Vander Avort - C4557-001
Vicky Coens - 2016-04-30 14:31:35 - Coens Brugge - C3953
Anne De Peuter - 2016-04-30 14:18:58 - Goethals - V4202
Anne De Peuter - 2016-04-30 14:16:31 - Goethals - C3801
Elke Bosmans - 2016-04-30 09:50:57 - De Wolf - F9042
Elke Bosmans - 2016-04-30 09:49:02 - De Wolf - C9042-001
Elke Bosmans - 2016-04-30 09:39:03 - De Wolf - C9042-001
Ilse Vercammen - 2016-04-30 09:35:15 - Ilse Vercammen - C3777-001
Ilse Vercammen - 2016-04-30 09:31:04 - Ilse Vercammen - X3778-001
Dries - 2016-04-29 16:33:50 - Dries - F5003
Dries - 2016-04-29 16:32:10 - Dries - V5171
Ilse Vercammen - 2016-04-29 14:44:29 - Ilse Vercammen - C4166
Evy Uyttenhove - 2016-04-29 13:42:13 - Evy d Or - C4808
Evy Uyttenhove - 2016-04-29 13:29:18 - Evy d Or - C5919-006
Ilse Vercammen - 2016-04-29 11:00:05 - Ilse Vercammen - C9045-003
Ilse Vercammen - 2016-04-29 10:55:10 - Ilse Vercammen - C9045-004
- 2016-04-28 13:22:00 - Jagre - X4514
Ilse Vercammen - 2016-04-28 12:38:03 - Ilse Vercammen - C4172
Ilse Vercammen - 2016-04-28 12:36:42 - Ilse Vercammen - X2167-001
Evelyne Coppens - 2016-04-28 09:38:47 - Paul - U1678
Evelyne Coppens - 2016-04-28 09:32:27 - Paul - U1678
- 2016-04-26 18:02:02 - Jagre - C5423
- 2016-04-26 17:10:42 - Jagre - C5423
- 2016-04-26 17:05:58 - Jagre - X4514
- 2016-04-26 16:19:37 - Jagre - P7001-007
- 2016-04-26 16:17:16 - Jagre - V7001-003
Catherine Abeele - 2016-04-26 15:59:46 - Abeele - T5084
- 2016-04-26 14:55:57 - Heleven - V2305
Carlo Declerq - 2016-04-26 14:33:41 - Declerq - X3778-001
Carlo Declerq - 2016-04-26 14:31:33 - Declerq - E4480-001
- 2016-04-26 14:27:05 - Jagre - C9045-004
- 2016-04-26 14:20:34 - Jagre - C9045-003
Fabienne Yannick - 2016-04-26 09:15:26 - Juwelen Yannick 2 - E4480-001
Fabienne Yannick - 2016-04-26 09:12:16 - Juwelen Yannick 2 - V7001-003
Roger Borremans - 2016-04-25 15:02:17 - La coquille d Or - C5076
Annik De Mey - 2016-04-25 07:54:20 - Annik De Mey - C4809
Anne De Peuter - 2016-04-23 17:54:00 - Goethals - C3801
Anne De Peuter - 2016-04-23 17:51:43 - Goethals - V3802
Roger Borremans - 2016-04-23 15:03:51 - La coquille d Or - C3953
Roger Borremans - 2016-04-23 15:01:35 - La coquille d Or - U4686
Kristina Cuvelier - 2016-04-23 12:55:34 - Cuvelier - P4789
Kristina Cuvelier - 2016-04-23 12:52:01 - Cuvelier - F4785
Martine Verbruggen - 2016-04-23 11:56:55 - verbruggen - V7004-002
Martine Verbruggen - 2016-04-23 11:55:19 - verbruggen - V7004-002
Ilse Vercammen - 2016-04-23 11:25:40 - Ilse Vercammen - C3658
Ilse Vercammen - 2016-04-23 11:24:27 - Ilse Vercammen - V7005-002
Pierre-Louis - 2016-04-23 10:36:14 - Pierre-Louis - F4785
Pierre-Louis - 2016-04-23 10:34:30 - Pierre-Louis - P4789
Celine Vanstechelman - 2016-04-22 13:41:24 - Eye-C - V5048
Celine Vanstechelman - 2016-04-22 13:39:53 - Eye-C - C5075
Christine & Marjolein - 2016-04-21 14:47:35 - Yolande - T5082
Christine & Marjolein - 2016-04-21 14:46:53 - Yolande - C5066
Pierre-Louis - 2016-04-21 13:19:59 - Pierre-Louis - F3738
Pierre-Louis - 2016-04-21 13:15:46 - Pierre-Louis - P4559
Vanhoutteghem - 2016-04-20 15:22:34 - Van Houtteghem - C9052-001
Vanhoutteghem - 2016-04-20 15:21:03 - Van Houtteghem - C9052
Dries - 2016-04-20 14:55:54 - Dries - V7012-003
Dries - 2016-04-20 14:54:03 - Dries - P7012-007
Nadia Souverijns - 2016-04-20 10:51:04 - Tibax - U4509
Nadia Souverijns - 2016-04-19 15:52:38 - Tibax - C4943-001
Viola Vetters - 2016-04-19 13:41:03 - Orion - F5006
N. Baurens - 2016-04-19 10:30:25 - Baurens - V1289
N. Baurens - 2016-04-19 10:27:56 - Baurens - V1289
Marc Drexeler - 2016-04-18 16:46:55 - Drexeler - F9021-001
Marc Drexeler - 2016-04-18 16:44:07 - Drexeler - C9021
Ilse Vercammen - 2016-04-18 16:27:48 - Ilse Vercammen - V4206
Ilse Vercammen - 2016-04-18 16:20:03 - Ilse Vercammen - C4166
Ilse Vercammen - 2016-04-18 12:59:48 - Ilse Vercammen - V4206
Ilse Vercammen - 2016-04-18 12:55:47 - Ilse Vercammen - C4166
Pol-Henry Martin - 2016-04-16 14:25:47 - Bijouterie Martin - C3953
Vanhoutteghem - 2016-04-16 13:09:38 - Van Houtteghem - C9054-003
Pierre-Louis - 2016-04-16 10:32:23 - Pierre-Louis - C5070
David Van Bellingen - 2016-04-16 09:12:22 - Van Bellingen - C5081
Pierre-Louis - 2016-04-16 09:11:58 - Pierre-Louis - C5074
Pierre-Louis - 2016-04-16 09:10:36 - Pierre-Louis - C5057
Evy Uyttenhove - 2016-04-15 15:56:12 - Evy d Or - N4266
Evy Uyttenhove - 2016-04-15 15:52:49 - Evy d Or - X4198
Isabelle Leblans - 2016-04-15 11:24:13 - Leblans - V4202
Juwelier - uurwerkmaker Devick Francis - 2016-04-15 10:27:49 - Juwelier - uurwerkmaker Devick Francis - V5079
Juwelier - uurwerkmaker Devick Francis - 2016-04-15 10:26:05 - Juwelier - uurwerkmaker Devick Francis - C5060
Kurt De Block - 2016-04-15 09:34:11 - Kortrijkse Goudcentrale - C3953
Patrick Peeters - 2016-04-14 18:29:27 - Peeters - V4206
Dries - 2016-04-14 17:03:45 - Dries - V7014-003
Vanhoutteghem - 2016-04-14 13:48:20 - Van Houtteghem - X4782
Francis et Geraldine Barchy - 2016-04-14 12:26:29 - Barchy - C3953
Annik De Mey - 2016-04-13 16:43:14 - Annik De Mey - B5059
Annik De Mey - 2016-04-13 16:40:48 - Annik De Mey - C5078
Eric De Waele - 2016-04-13 16:39:18 - De Waele - C4338
Eric De Waele - 2016-04-13 16:37:30 - De Waele - C3658
De Greeve - 2016-04-13 14:52:53 - De Greeve - T5082
De Greeve - 2016-04-13 14:51:38 - De Greeve - C5066
Dries - 2016-04-13 10:59:42 - Dries - V5079
Davy Van Ruyskensvelde - 2016-04-13 09:08:20 - Van Ruyskensvelde - F5105
Davy Van Ruyskensvelde - 2016-04-13 09:06:00 - Van Ruyskensvelde - F5104
Christine & Marjolein - 2016-04-12 16:17:20 - Yolande - C9054-002
Christine & Marjolein - 2016-04-12 16:16:05 - Yolande - C9054-003
Marc Drexeler - 2016-04-12 15:07:36 - Drexeler - V4206
Marc Drexeler - 2016-04-12 15:05:24 - Drexeler - V4206
Martine - 2016-04-12 13:13:43 - Toermalijn - P7007-007
Martine - 2016-04-12 13:09:51 - Toermalijn - P7007-007
Eric De Waele - 2016-04-12 12:58:11 - De Waele - E2829
Eric De Waele - 2016-04-12 12:55:27 - De Waele - C2828
Thierry Depoortere - 2016-04-12 10:57:34 - Depoortere - C9055-007
Thierry Depoortere - 2016-04-12 10:52:42 - Depoortere - C9055-006
Patrick Peeters - 2016-04-11 18:51:39 - Peeters - V5053
Patrick Peeters - 2016-04-11 18:48:22 - Peeters - V4206
Marc & Hilde Jehaes - 2016-04-11 15:02:23 - Jehaes - C4156
Elke Bosmans - 2016-04-11 14:57:37 - De Wolf - V4206
- 2016-04-11 14:18:02 - Braem invest cva - A3028
- 2016-04-11 13:55:42 - Braem invest cva - A3028-001
- 2016-04-10 10:44:34 - Braem invest cva - V4206
Pierre-Louis - 2016-04-09 16:59:26 - Pierre-Louis - C4224
Pierre-Louis - 2016-04-09 16:58:21 - Pierre-Louis - C4223
Peter De Leus - 2016-04-09 16:27:28 - De Leus - C3953
Anne De Peuter - 2016-04-09 15:38:31 - Goethals - C4338
Anne De Peuter - 2016-04-09 15:34:13 - Goethals - C3658
David Van Bellingen - 2016-04-09 15:16:58 - Van Bellingen - C4338
De Greeve - 2016-04-09 15:06:20 - De Greeve - F5086
Pol-Henry Martin - 2016-04-09 14:38:05 - Bijouterie Martin - C4338
Anne De Peuter - 2016-04-09 10:38:59 - Goethals - V4206
Laurent Vanstechelman - 2016-04-08 18:03:47 - Tempo d Oro - P7002-007
Laurent Vanstechelman - 2016-04-08 18:02:08 - Tempo d Oro - F1137
Dries - 2016-04-08 16:31:43 - Dries - F5086
Evy Uyttenhove - 2016-04-08 13:07:49 - Evy d Or - V7012-003
Vicky Coens - 2016-04-08 10:30:56 - Coens Brugge - T3796
Anneleen Eyckmans - 2016-04-07 10:09:44 - Anneleen Eyckmans - B4988-001
Ilse Vercammen - 2016-04-06 10:04:47 - Ilse Vercammen - C4148
Ilse Vercammen - 2016-04-06 10:02:03 - Ilse Vercammen - F4130
David Van Bellingen - 2016-04-06 07:55:59 - Van Bellingen - C5074
David Van Bellingen - 2016-04-06 07:55:08 - Van Bellingen - C5057
Dries - 2016-04-05 16:34:31 - Dries - T9163-006
Dries - 2016-04-05 16:32:17 - Dries - T9163-006
N. Baurens - 2016-04-05 14:23:24 - Baurens - X4684
N. Baurens - 2016-04-05 14:18:49 - Baurens - C3074
Evelyne Coppens - 2016-04-05 12:40:53 - Paul - C5919-006
Evelyne Coppens - 2016-04-05 12:38:16 - Paul - C5919-006
Evi Vandeweyer - 2016-04-05 09:11:07 - Vandeweyer - C3658
Evi Vandeweyer - 2016-04-05 09:09:38 - Vandeweyer - V5080
Evi Vandeweyer - 2016-04-05 09:08:34 - Vandeweyer - C5076
Ilse Vercammen - 2016-04-04 16:00:56 - Ilse Vercammen - V7005-002
Kristina Cuvelier - 2016-04-03 16:15:26 - Cuvelier - C4224
Alain Van Vlierden - 2016-04-02 15:53:14 - Van Vlierden - C3963
Ilse Vercammen - 2016-04-02 15:14:27 - Ilse Vercammen - M387A02G
Ilse Vercammen - 2016-04-02 15:09:43 - Ilse Vercammen - X4782
Viola Vetters - 2016-04-02 15:08:09 - Orion - V4202
Viola Vetters - 2016-04-02 15:07:00 - Orion - C3633
Team De Wilde - 2016-04-02 12:45:01 - De Wilde - F4130
Team De Wilde - 2016-04-02 12:43:36 - De Wilde - C9045-004
Evelyne Coppens - 2016-04-02 09:19:28 - Paul - U4509
Evelyne Coppens - 2016-04-02 09:17:52 - Paul - C4809
Evelyne Coppens - 2016-04-02 08:52:54 - Paul - X4782
Evelyne Coppens - 2016-04-02 08:48:31 - Paul - C4809
Dries - 2016-04-01 16:06:18 - Dries - V3802
Dries - 2016-04-01 16:03:29 - Dries - C9021
Dries - 2016-04-01 15:46:10 - Dries - C5072
Dries - 2016-04-01 15:45:14 - Dries - V5054
Dries - 2016-04-01 15:42:43 - Dries - V5080
Carlo Declerq - 2016-04-01 14:01:41 - Declerq - A3028-001
Anne De Peuter - 2016-04-01 10:54:00 - Goethals - U4686
Christine & Marjolein - 2016-03-31 15:35:28 - Yolande - C9054-002
Eric De Waele - 2016-03-31 12:49:20 - De Waele - C3658
Eric De Waele - 2016-03-31 12:47:26 - De Waele - C4338
Nadia Souverijns - 2016-03-31 09:18:21 - Tibax - V4206
Nadia Souverijns - 2016-03-31 09:16:25 - Tibax - C9021
Ilse Vercammen - 2016-03-31 08:59:17 - Ilse Vercammen - C3768
Elke Bosmans - 2016-03-30 15:59:31 - De Wolf - C3953
Anne De Peuter - 2016-03-30 11:30:35 - Goethals - F2870
Nadia Souverijns - 2016-03-30 09:44:09 - Tibax - P7011-007
Nadia Souverijns - 2016-03-30 09:41:17 - Tibax - V7011-002
Christine & Marjolein - 2016-03-29 14:44:03 - Yolande - V5048
Evelyne Coppens - 2016-03-29 13:42:01 - Paul - F5105
Evelyne Coppens - 2016-03-29 13:40:34 - Paul - F5104
Vicky Coens - 2016-03-29 10:40:07 - Coens Brugge - X4782
Marc Buseyne - 2016-03-29 09:18:00 - Busseyne - C3953
Evelyne Coppens - 2016-03-29 09:08:55 - Paul - C5919-006
Evelyne Coppens - 2016-03-29 09:07:11 - Paul - C5919-007
Pol-Henry Martin - 2016-03-27 16:36:13 - Bijouterie Martin - X2167-001
Frederik Bongaerts - 2016-03-26 21:22:35 - Bongaerts - A3028-001
Ilse Vercammen - 2016-03-26 12:57:41 - Ilse Vercammen - C9052-001
Ilse Vercammen - 2016-03-26 12:52:50 - Ilse Vercammen - C9055-006
Viola Vetters - 2016-03-24 14:14:57 - Orion - X4198
Kurt De Block - 2016-03-24 10:29:12 - Kortrijkse Goudcentrale - F5105
Kurt De Block - 2016-03-24 10:27:17 - Kortrijkse Goudcentrale - F5104
Eric De Waele - 2016-03-24 09:34:19 - De Waele - X2833
Eric De Waele - 2016-03-24 09:21:42 - De Waele - C2832
Marie Paul & Christine Reyntjens - 2016-03-22 15:31:01 - Reyntjens - V5502-003
Martine Verbruggen - 2016-03-22 12:57:03 - verbruggen - C4338
Martine Verbruggen - 2016-03-22 12:44:04 - verbruggen - C3658
Ilse Vercammen - 2016-03-22 12:33:45 - Ilse Vercammen - T7019
Kurt De Block - 2016-03-21 17:13:06 - Kortrijkse Goudcentrale - B4985
Elke Bosmans - 2016-03-21 12:35:59 - De Wolf - C9045-003
Elke Bosmans - 2016-03-21 12:34:49 - De Wolf - C9045-004
Elke Bosmans - 2016-03-21 12:33:26 - De Wolf - T559A01G – 0.07ct.
Frederik Bongaerts - 2016-03-20 14:17:16 - Bongaerts - V5050
Frederik Bongaerts - 2016-03-20 14:16:04 - Bongaerts - C5065
Frederik Bongaerts - 2016-03-20 14:14:08 - Bongaerts - F5104
Frederik Bongaerts - 2016-03-20 14:09:28 - Bongaerts - F5105
Frederik Bongaerts - 2016-03-20 14:07:08 - Bongaerts - B9056-003
Frederik Bongaerts - 2016-03-20 14:05:32 - Bongaerts - B9056-002
Frederik Bongaerts - 2016-03-20 14:02:42 - Bongaerts - C4148
Frederik Bongaerts - 2016-03-20 14:00:48 - Bongaerts - F4130
Frederik Bongaerts - 2016-03-20 13:59:08 - Bongaerts - C5063
Frederik Bongaerts - 2016-03-20 13:57:03 - Bongaerts - C5081
Frederik Bongaerts - 2016-03-20 13:54:07 - Bongaerts - P7002-007
Frederik Bongaerts - 2016-03-20 13:52:27 - Bongaerts - V7002-003
Frederik Bongaerts - 2016-03-20 13:48:21 - Bongaerts - V7002-003
Frederik Bongaerts - 2016-03-20 13:46:03 - Bongaerts - C3953
Frederik Bongaerts - 2016-03-20 13:43:02 - Bongaerts - V7002-003
Laurent Vanstechelman - 2016-03-19 16:28:00 - Tempo d Oro - C2928
Laurent Vanstechelman - 2016-03-19 16:26:33 - Tempo d Oro - T3796
Ilse Vercammen - 2016-03-19 14:31:32 - Ilse Vercammen - C4557-002
Ilse Vercammen - 2016-03-19 14:22:53 - Ilse Vercammen - V7013-002
Alain Van Vlierden - 2016-03-19 11:32:23 - Van Vlierden - C3658
Dries - 2016-03-19 11:04:19 - Dries - V5053
Katrien en Hildegarde Huysman - 2016-03-19 10:49:45 - Huysman - V5147
Katrien en Hildegarde Huysman - 2016-03-19 10:48:59 - Huysman - V5118
Vanhoutteghem - 2016-03-19 10:26:29 - Van Houtteghem - X3778-001
Vanhoutteghem - 2016-03-19 10:24:44 - Van Houtteghem - X4782
Christine & Marjolein - 2016-03-18 17:47:24 - Yolande - C9054-002
Christine & Marjolein - 2016-03-18 17:46:44 - Yolande - C9054-003
Kristina Cuvelier - 2016-03-18 13:16:42 - Cuvelier - C4368 – (C3870 half set)
Kristina Cuvelier - 2016-03-18 13:14:34 - Cuvelier - C4788
Annik De Mey - 2016-03-18 12:12:46 - Annik De Mey - V4206
Annik De Mey - 2016-03-18 12:10:01 - Annik De Mey - C3953
David Van Bellingen - 2016-03-17 16:18:28 - Van Bellingen - V5080
David Van Bellingen - 2016-03-17 16:17:47 - Van Bellingen - C5076
Dries - 2016-03-16 17:50:39 - Dries - T9163-006
Dries - 2016-03-16 17:48:36 - Dries - T9163-006
Elke Bosmans - 2016-03-15 15:43:39 - De Wolf - P7001-007
Sandra Van Sweeveldt - 2016-03-15 14:36:51 - Beta Classic- V5285
Elke Bosmans - 2016-03-15 14:29:47 - De Wolf - V7001-003
Elke Bosmans - 2016-03-15 14:27:42 - De Wolf - P7001-007
David Van Bellingen - 2016-03-15 10:58:14 - Van Bellingen - X3634
David Van Bellingen - 2016-03-15 10:57:42 - Van Bellingen - C3633
Suzan Broothaerts - 2016-03-15 10:07:56 - Juwelier Vissers - C9048
Suzan Broothaerts - 2016-03-15 10:06:16 - Juwelier Vissers - C9021
Dries - 2016-03-15 10:06:16 - Dries - V5053
Suzan Broothaerts - 2016-03-15 10:06:16 - Juwelier Vissers - C9021
Suzan Broothaerts - 2016-03-14 18:29:43 - Juwelier Vissers - V4206
Suzan Broothaerts - 2016-03-14 18:27:13 - Juwelier Vissers - C4166
Suzan Broothaerts - 2016-03-14 18:24:04 - Juwelier Vissers - V7014-003
Suzan Broothaerts - 2016-03-14 18:22:16 - Juwelier Vissers - P7014-007
Suzan Broothaerts - 2016-03-14 18:18:01 - Juwelier Vissers - B9056-003
Suzan Broothaerts - 2016-03-14 18:14:52 - Juwelier Vissers - B9056-002
- 2016-03-14 11:37:42 - Braem invest cva - C9052
- 2016-03-14 11:35:13 - Braem invest cva - C9052-001
De Greeve - 2016-03-13 17:19:27 - De Greeve - F2872
De Greeve - 2016-03-13 17:15:38 - De Greeve - X5085
Vanhoutteghem - 2016-03-12 12:17:23 - Van Houtteghem - C9054-002
Laurent Vanstechelman - 2016-03-12 11:34:53 - Tempo d Oro - C4809
Evelyne Coppens - 2016-03-12 11:32:58 - Paul - V4206
Evelyne Coppens - 2016-03-12 11:30:09 - Paul - V4206
Katrien en Hildegarde Huysman - 2016-03-12 11:15:45 - Huysman - X2167-001
Viola Vetters - 2016-03-12 10:03:54 - Orion - X2167-001
Dries - 2016-03-12 09:14:59 - Dries - T5082
Dries - 2016-03-12 09:14:09 - Dries - C5066
Stephan Siemon - 2016-03-11 17:39:08 - Top Watch - V1293
Stephan Siemon - 2016-03-11 17:37:52 - Top Watch - U1485
Roger Borremans - 2016-03-11 17:33:09 - La coquille d Or - C4338
Roger Borremans - 2016-03-11 17:30:33 - La coquille d Or - C3658
Eric De Waele - 2016-03-11 17:28:41 - Heursel - X4514
De Greeve - 2016-03-10 16:45:10 - De Greeve - V5048
Vicky Coens - 2016-03-10 14:19:18 - Coens Brugge - C3755
Sandra Van Sweeveldt - 2016-03-10 13:20:26 - veronique - F9021-001
Sandra Van Sweeveldt - 2016-03-10 13:10:02 - veronique - C4808
Annik De Mey - 2016-03-09 15:31:26 - Annik De Mey - V4513
Dries - 2016-03-09 14:59:42 - Dries - X4782
Dries - 2016-03-09 14:58:27 - Dries - C3963
David Van Bellingen - 2016-03-08 14:49:40 - Van Bellingen - T4225
David Van Bellingen - 2016-03-08 14:46:31 - Van Bellingen - C5066
Alain Van Vlierden - 2016-03-08 14:09:32 - Van Vlierden - F3731
Alain Van Vlierden - 2016-03-08 14:07:05 - Van Vlierden - F3731
Marc Buseyne - 2016-03-07 18:59:54 - Busseyne - C3658
Elke Bosmans - 2016-03-07 10:47:04 - De Wolf - V7001-003
Elke Bosmans - 2016-03-07 10:46:25 - De Wolf - P7001-007
De Greeve - 2016-03-05 16:48:56 - De Greeve - C3755
Stephan Siemon - 2016-03-05 15:07:04 - Top Watch - U1485
Stephan Siemon - 2016-03-05 15:05:18 - Top Watch - U1485
Isabelle Leblans - 2016-03-05 14:05:25 - Leblans - U1485
Kristina Cuvelier - 2016-03-05 12:21:42 - Cuvelier - C9045-004
Kristina Cuvelier - 2016-03-05 12:18:43 - Cuvelier - C9045-003
De Greeve - 2016-03-05 11:04:27 - De Greeve - C3953
Kurt De Block - 2016-03-03 17:48:22 - Kortrijkse Goudcentrale - C3658
Kurt De Block - 2016-03-03 17:46:35 - Kortrijkse Goudcentrale - C4338
Roger Borremans - 2016-03-03 16:54:25 - La coquille d Or - V4202
Roger Borremans - 2016-03-03 16:49:41 - La coquille d Or - C3953
David Van Bellingen - 2016-03-03 12:18:36 - Van Bellingen - X4222-001
David Van Bellingen - 2016-03-03 12:17:34 - Van Bellingen - C4222-002
Stephan Siemon - 2016-03-02 15:44:35 - Top Watch - U1485
Stephan Siemon - 2016-03-02 15:42:47 - Top Watch - U1485
David Van Bellingen - 2016-03-02 13:56:59 - Van Bellingen - F9021-001
David Van Bellingen - 2016-03-02 13:55:37 - Van Bellingen - C9021
David Van Bellingen - 2016-03-02 13:54:33 - Van Bellingen - X3692
David Van Bellingen - 2016-03-02 13:50:55 - Van Bellingen - P408A001
David Van Bellingen - 2016-03-02 13:48:51 - Van Bellingen - V7013-002
David Van Bellingen - 2016-03-02 13:47:43 - Van Bellingen - P7013-007
Carlo Declerq - 2016-03-02 13:24:49 - Declerq - B9056-002
Carlo Declerq - 2016-03-02 13:23:16 - Declerq - B9056-002
Patrick Peeters - 2016-03-01 20:04:15 - Peeters - V5053
Thomas De Graeve - 2016-03-01 18:23:12 - De Baere - V3802
Thomas De Graeve - 2016-03-01 18:20:52 - De Baere - C3658
Katrien en Hildegarde Huysman - 2016-02-29 14:37:34 - Huysman - X3778-001
Christine & Marjolein - 2016-02-27 18:10:35 - Yolande - C4811
Vanhoutteghem - 2016-02-27 16:44:50 - Van Houtteghem - C9052
Peter De Leus - 2016-02-27 14:36:24 - De Leus - V5171
Peter De Leus - 2016-02-27 14:23:09 - De Leus - F5003
De Greeve - 2016-02-27 12:26:58 - De Greeve - X3745
De Greeve - 2016-02-27 12:25:24 - De Greeve - P3964
Dries - 2016-02-27 10:15:31 - Dries - C5074
Celine Vanstechelman - 2016-02-26 15:10:20 - Eye-C - T5084
Anne De Peuter - 2016-02-26 14:03:47 - Goethals - C7016-006
Anne De Peuter - 2016-02-26 14:01:30 - Goethals - C7016-002
Carlo Declerq - 2016-02-25 16:22:26 - Declerq - A3028-001
Carlo Declerq - 2016-02-25 16:20:55 - Declerq - A3028
Peter De Leus - 2016-02-25 14:17:01 - De Leus - P7001-007
Evelyne Coppens - 2016-02-25 11:15:37 - Paul - C4224
Evelyne Coppens - 2016-02-25 11:14:10 - Paul - C3658
Ilse Vercammen - 2016-02-24 16:01:19 - Ilse Vercammen - C5919-006
Elke Bosmans - 2016-02-24 10:12:32 - De Wolf - C3658
Elke Bosmans - 2016-02-24 10:11:16 - De Wolf - X4782
Evi Vandeweyer - 2016-02-24 09:37:34 - Vandeweyer - C4338
Roger Borremans - 2016-02-23 16:20:15 - La coquille d Or - U4686
Eric De Waele - 2016-02-23 15:43:35 - Heursel - M387A02G
Roger Borremans - 2016-02-23 15:39:53 - La coquille d Or - A3028-001
Carlo Declerq - 2016-02-23 14:21:43 - Declerq - C4385
Carlo Declerq - 2016-02-23 14:20:23 - Declerq - C4384
Carlo Declerq - 2016-02-23 14:18:46 - Declerq - X4782
Celine Vanstechelman - 2016-02-23 14:11:16 - Eye-C - C5072
Celine Vanstechelman - 2016-02-23 14:09:00 - Eye-C - V5054
N. Baurens - 2016-02-23 10:18:27 - Baurens - F9021-001
N. Baurens - 2016-02-23 10:14:21 - Baurens - C9021
Evy Uyttenhove - 2016-02-22 15:46:43 - Evy d Or - V3802
Evy Uyttenhove - 2016-02-22 15:45:20 - Evy d Or - C3801
Dirk Dekempe - 2016-02-22 11:10:50 - Dekempe - V5050
Dirk Dekempe - 2016-02-22 11:08:10 - Dekempe - C5065
Kurt De Block - 2016-02-22 10:23:41 - Kortrijkse Goudcentrale - V7008-003
De Greeve - 2016-02-20 17:58:48 - De Greeve - X3745
De Greeve - 2016-02-20 17:56:45 - De Greeve - P7001-007
De Greeve - 2016-02-20 17:55:10 - De Greeve - F5086
Evy Uyttenhove - 2016-02-20 17:40:06 - Evy d Or - C3963
Team De Wilde - 2016-02-20 16:37:00 - De Wilde - C4338
Team De Wilde - 2016-02-20 16:33:20 - De Wilde - C3658
Marc Drexeler - 2016-02-20 16:08:22 - Drexeler - F9042
Jan Jacob - 2016-02-20 15:15:29 - Jacob - C4557-003
Jan Jacob - 2016-02-20 15:12:30 - Jacob - C4557-004
Thomas De Graeve - 2016-02-20 13:32:48 - De Baere - V3802
Thomas De Graeve - 2016-02-20 13:31:00 - De Baere - C3801
Vanhoutteghem - 2016-02-20 12:20:55 - Van Houtteghem - X4782
Davy Van Ruyskensvelde - 2016-02-20 12:17:35 - Van Ruyskensvelde - C3953
Davy Van Ruyskensvelde - 2016-02-20 12:15:00 - Van Ruyskensvelde - C3953
Alain Van Vlierden - 2016-02-20 10:07:33 - Van Vlierden - X4782
Alain Van Vlierden - 2016-02-20 10:04:55 - Van Vlierden - C4790
Nadia Souverijns - 2016-02-19 16:28:15 - Tibax - V5049
Viola Vetters - 2016-02-19 11:41:54 - Orion - C2885
Evy Uyttenhove - 2016-02-18 21:37:44 - Evy d Or - M309B00G
Evy Uyttenhove - 2016-02-18 21:33:10 - Evy d Or - P294A13G
Ilse Vercammen - 2016-02-18 17:41:38 - Ilse Vercammen - B4980-001
Team De Wilde - 2016-02-18 15:19:49 - De Wilde - F5003
Team De Wilde - 2016-02-18 15:17:49 - De Wilde - V5171
Nadia Souverijns - 2016-02-18 12:26:14 - Tibax - F3731
Nadia Souverijns - 2016-02-18 12:23:02 - Tibax - C9021
Nadia Souverijns - 2016-02-18 11:20:24 - Tibax - C9021
Laurent Vanstechelman - 2016-02-18 10:29:19 - Tempo d Oro - W5335
Nadia Souverijns - 2016-02-18 10:01:13 - Tibax - F9021-001
Kristina Cuvelier - 2016-02-17 18:14:51 - Cuvelier - C7033
Kristina Cuvelier - 2016-02-17 18:12:47 - Cuvelier - C7033
Laurent Vanstechelman - 2016-02-17 15:33:46 - Tempo d Oro - C3953
Christine & Marjolein - 2016-02-16 17:46:17 - Yolande - C5077
Christine & Marjolein - 2016-02-16 17:45:03 - Yolande - B5056
Christine & Marjolein - 2016-02-16 17:43:07 - Yolande - V5048
N. Baurens - 2016-02-16 15:20:30 - Baurens - F5105
N. Baurens - 2016-02-16 15:07:38 - Baurens - P7013-007
- 2016-02-16 14:44:49 - Heleven - V4202
- 2016-02-16 14:42:45 - Heleven - C3953
- 2016-02-16 14:41:42 - Heleven - C3953
Bart Bourgois - 2016-02-16 12:27:15 - Bourgois - V5502-003
N. Baurens - 2016-02-16 12:14:19 - Baurens - C9045-004
Ilse Vercammen - 2016-02-15 15:02:05 - Ilse Vercammen - V4206
Ilse Vercammen - 2016-02-15 14:58:24 - Ilse Vercammen - C4166
David Van Bellingen - 2016-02-15 10:01:23 - Van Bellingen - V5079
Gallet - Claeys - 2016-02-15 09:25:36 - Gallet - Claeys - C9021
Patrick Peeters - 2016-02-14 15:18:00 - Peeters - V5053
Kristina Cuvelier - 2016-02-14 14:07:16 - Cuvelier - V5047
Kristina Cuvelier - 2016-02-14 14:05:36 - Cuvelier - C5061
Kristina Cuvelier - 2016-02-14 14:04:02 - Cuvelier - X4782
Kristina Cuvelier - 2016-02-14 14:02:01 - Cuvelier - C4788
Katrien en Hildegarde Huysman - 2016-02-14 12:17:05 - Huysman - V7001-003
Vicky Coens - 2016-02-13 16:28:33 - Coens Brugge - C4790
Vicky Coens - 2016-02-13 16:24:10 - Coens Brugge - X4782
Eric De Waele - 2016-02-13 15:54:09 - De Waele - V7001-003
Eric De Waele - 2016-02-13 15:52:14 - De Waele - P7001-007
Annik De Mey - 2016-02-13 12:39:20 - Annik De Mey - T4225
Annik De Mey - 2016-02-13 12:36:56 - Annik De Mey - C4156
Team De Wilde - 2016-02-13 12:01:06 - De Wilde - M387A02G
Peter De Leus - 2016-02-13 11:50:35 - De Leus - V7001-003
Peter De Leus - 2016-02-13 11:49:13 - De Leus - P7001-007
Alain Van Vlierden - 2016-02-13 11:43:56 - Van Vlierden - C7009-003
Alain Van Vlierden - 2016-02-13 11:39:33 - Van Vlierden - C7009-007
Elke Bosmans - 2016-02-12 16:40:42 - De Wolf - C3768
Martine - 2016-02-12 13:58:06 - Toermalijn - P7014-007
Martine - 2016-02-12 13:53:57 - Toermalijn - V7014-003
Marc Buseyne - 2016-02-12 13:27:26 - Busseyne - X3745
Bart Bourgois - 2016-02-12 11:40:54 - Bourgois - V5502-002
Viola Vetters - 2016-02-11 17:41:56 - Orion - C2885
Isabelle Leblans - 2016-02-11 17:28:28 - Leblans - U1676
Celine Vanstechelman - 2016-02-11 17:16:49 - Eye-C - P7013-007
Evy Uyttenhove - 2016-02-11 15:57:44 - Evy d Or - X4782
Evy Uyttenhove - 2016-02-11 15:56:13 - Evy d Or - P7013-007
Ilse Vercammen - 2016-02-11 15:10:16 - Ilse Vercammen - T473B00G
Ingrid Aertssens - 2016-02-11 15:05:11 - Ingrid Aertssens - X4782
Ingrid Aertssens - 2016-02-11 15:03:38 - Ingrid Aertssens - C3777-001
David Van Bellingen - 2016-02-11 14:12:59 - Van Bellingen - V5053
David Van Bellingen - 2016-02-11 14:12:01 - Van Bellingen - C5064
Maxime Vander Avort - 2016-02-11 10:27:53 - Maxime Vander Avort - C9052
Laurent Vanstechelman - 2016-02-11 10:06:51 - Tempo d Oro - X3745
Vanhoutteghem - 2016-02-09 17:07:35 - Van Houtteghem - C9045-004
Vanhoutteghem - 2016-02-09 17:05:41 - Van Houtteghem - C9045-003
Vanhoutteghem - 2016-02-09 16:42:27 - Van Houtteghem - A3028-001
Dries - 2016-02-09 14:42:17 - Dries - X4782
Dries - 2016-02-09 14:40:52 - Dries - C4788
N. Baurens - 2016-02-09 14:04:21 - Baurens - P7013-007
N. Baurens - 2016-02-09 13:54:47 - Baurens - V4682
Christine & Marjolein - 2016-02-09 12:45:12 - Yolande - C5074
Vanhoutteghem - 2016-02-07 18:55:34 - Van Houtteghem - C9052-001
Vanhoutteghem - 2016-02-07 18:53:50 - Van Houtteghem - C9052
Vanhoutteghem - 2016-02-07 18:47:02 - Van Houtteghem - X2827
Vanhoutteghem - 2016-02-07 18:08:49 - Van Houtteghem - C4338
Vanhoutteghem - 2016-02-07 18:07:41 - Van Houtteghem - C3658
Vanhoutteghem - 2016-02-07 17:57:54 - Van Houtteghem - B9056-002
Vanhoutteghem - 2016-02-07 14:35:08 - Van Houtteghem - C9052
Evy Uyttenhove - 2016-02-07 14:23:14 - Evy d Or - E1718
Marc Buseyne - 2016-02-06 18:33:53 - Busseyne - C3801
Marc Buseyne - 2016-02-06 18:23:20 - Busseyne - C3953
Viola Vetters - 2016-02-06 16:03:14 - Orion - V3802
Evy Uyttenhove - 2016-02-06 15:35:26 - Evy d Or - F4991
Evy Uyttenhove - 2016-02-06 15:32:20 - Evy d Or - F4991
Eric De Waele - 2016-02-06 15:12:52 - De Waele - C9055-006
Eric De Waele - 2016-02-06 15:09:40 - De Waele - C9055-007
Tim & Sandra Hendrickx - 2016-02-06 13:13:40 - Hendrickx - C3801
Tim & Sandra Hendrickx - 2016-02-06 13:11:42 - Hendrickx - V4206
Evy Uyttenhove - 2016-02-06 12:22:29 - Evy d Or - X4198
Katrien en Hildegarde Huysman - 2016-02-06 11:51:37 - Huysman - C9045-003
Evy Uyttenhove - 2016-02-06 10:38:01 - Evy d Or - N4266
Pierre-Louis - 2016-02-05 15:38:32 - Pierre-Louis - X5085
Pierre-Louis - 2016-02-05 15:36:45 - Pierre-Louis - C5070
Kristina Cuvelier - 2016-02-05 14:29:20 - Cuvelier - C9045-004
Stephan Siemon - 2016-02-04 15:22:49 - Top Watch - C4338
Stephan Siemon - 2016-02-04 15:21:36 - Top Watch - C3658
Stephan Siemon - 2016-02-04 15:18:37 - Top Watch - V4683
Stephan Siemon - 2016-02-04 15:16:09 - Top Watch - C3953
Stephan Siemon - 2016-02-04 15:12:15 - Top Watch - T4225
Stephan Siemon - 2016-02-04 15:10:36 - Top Watch - T4225
Katrien en Hildegarde Huysman - 2016-02-04 11:17:29 - Huysman - V5502-002
Katrien en Hildegarde Huysman - 2016-02-04 11:16:04 - Huysman - V5502-004
N. Baurens - 2016-02-03 15:47:19 - Baurens - X4782
Alain Van Vlierden - 2016-02-03 14:11:31 - Van Vlierden - C9045-003
Alain Van Vlierden - 2016-02-03 14:06:48 - Van Vlierden - C9045-004
Christine & Marjolein - 2016-02-02 16:26:59 - Yolande - C9055-006
Christine & Marjolein - 2016-02-02 16:11:45 - Yolande - C9055-007
Pol-Henry Martin - 2016-02-02 15:12:41 - Bijouterie Martin - C4338
Pol-Henry Martin - 2016-02-02 15:09:35 - Bijouterie Martin - C3658
- 2016-02-02 12:28:26 - Heleven - U4686
Team De Wilde - 2016-02-02 10:45:26 - De Wilde - B4988
Evy Uyttenhove - 2016-02-01 15:35:28 - Evy d Or - X4198
Elke Bosmans - 2016-02-01 10:32:45 - De Wolf - C3777-001
Elke Bosmans - 2016-02-01 10:32:04 - De Wolf - X3778-001
Frederik Bongaerts - 2016-02-01 09:41:04 - Bongaerts - C4166
Catherine Abeele - 2016-01-30 19:11:42 - Abeele - V5053
Catherine Abeele - 2016-01-30 19:10:26 - Abeele - C5064
Laurent Vanstechelman - 2016-01-30 18:44:06 - Tempo d Oro - B2580
Vicky Coens - 2016-01-30 17:12:59 - Coens Brugge - C5617-005
Pierre-Louis - 2016-01-30 16:29:12 - Pierre-Louis - X3692
Evelyne Coppens - 2016-01-30 16:21:32 - Paul - M307B01G
Evelyne Coppens - 2016-01-30 16:16:00 - Paul - C5925-006
Vanhoutteghem - 2016-01-30 16:10:26 - Van Houtteghem - C9045-004
Evelyne Coppens - 2016-01-30 16:09:52 - Paul - C5925-007
Vanhoutteghem - 2016-01-30 16:05:18 - Van Houtteghem - C9045-003
Vicky Coens - 2016-01-30 15:59:42 - Coens Brugge - X4782
Team De Wilde - 2016-01-30 15:33:50 - De Wilde - B4988-001
Thomas De Graeve - 2016-01-30 14:26:44 - De Baere - M387A02G
Thomas De Graeve - 2016-01-30 14:24:40 - De Baere - C5919-006
Anne De Peuter - 2016-01-30 13:44:09 - Goethals - C5919-006
Anne De Peuter - 2016-01-30 13:40:00 - Goethals - M387A02G
Vanhoutteghem - 2016-01-30 12:22:18 - Van Houtteghem - C4338
Dries - 2016-01-30 12:11:03 - Dries - C9045-003
Dries - 2016-01-30 12:09:20 - Dries - C9045-004
Evelyne Coppens - 2016-01-30 10:36:41 - Paul - C4224
Evelyne Coppens - 2016-01-30 10:34:53 - Paul - C3953
Evelyne Coppens - 2016-01-29 15:41:04 - Paul - T9163-006
Evelyne Coppens - 2016-01-29 15:37:54 - Paul - T9163-006
Evelyne Coppens - 2016-01-29 12:16:45 - Paul - C4813
Evelyne Coppens - 2016-01-29 12:14:59 - Paul - V4511
Evelyne Coppens - 2016-01-29 12:08:37 - Paul - T4225
Eric De Waele - 2016-01-28 17:48:37 - De Waele - C4338
Eric De Waele - 2016-01-28 16:17:47 - De Waele - C5070
Eric De Waele - 2016-01-28 16:15:52 - De Waele - X5085
Eric De Waele - 2016-01-28 16:13:21 - De Waele - C9045-004
Eric De Waele - 2016-01-28 16:11:11 - De Waele - C9045-003
Eric De Waele - 2016-01-28 16:07:06 - De Waele - C9055-007
Eric De Waele - 2016-01-28 16:05:11 - De Waele - C9055-006
Pierre-Louis - 2016-01-28 15:02:48 - Pierre-Louis - C4338
Pierre-Louis - 2016-01-28 15:01:38 - Pierre-Louis - C3658
Catherine Abeele - 2016-01-28 14:32:23 - Abeele - C5081
Catherine Abeele - 2016-01-28 14:30:48 - Abeele - C5063
Catherine Abeele - 2016-01-28 11:18:01 - Abeele - C2832
Kurt De Block - 2016-01-27 18:38:00 - Kortrijkse Goudcentrale - C9021
- 2016-01-27 17:57:07 - Jagre - C9045-003
- 2016-01-27 17:47:54 - Jagre - C9045-004
Pierre-Louis - 2016-01-26 16:58:54 - Pierre-Louis - F1137
Pierre-Louis - 2016-01-26 16:54:31 - Pierre-Louis - F1137
N. Baurens - 2016-01-26 16:45:20 - Baurens - V3802
N. Baurens - 2016-01-26 16:36:42 - Baurens - C3801
Pierre-Louis - 2016-01-26 12:44:20 - Pierre-Louis - F1137
Pierre-Louis - 2016-01-26 12:42:50 - Pierre-Louis - C2899
Catherine Abeele - 2016-01-26 12:01:32 - Abeele - C4338
Marc & Hilde Jehaes - 2016-01-25 17:06:39 - Jehaes - X3778-001
Anne De Peuter - 2016-01-25 15:27:46 - Goethals - V5080
Anne De Peuter - 2016-01-25 15:26:12 - Goethals - C5076
Annik De Mey - 2016-01-25 13:01:40 - Annik De Mey - C5072
Annik De Mey - 2016-01-25 13:00:01 - Annik De Mey - V5054
Elke Bosmans - 2016-01-23 17:15:21 - De Wolf - C3658
Elke Bosmans - 2016-01-23 17:12:33 - De Wolf - C4338
Anne De Peuter - 2016-01-23 16:16:52 - Goethals - V5050
Anne De Peuter - 2016-01-23 16:15:04 - Goethals - C5072
Marie Paul & Christine Reyntjens - 2016-01-23 14:26:30 - Reyntjens - U1485
Marc - 2016-01-23 14:03:46 - Yannick - E4480-001
Marc - 2016-01-23 13:59:16 - Yannick - V7001-003
Vanhoutteghem - 2016-01-23 13:37:43 - Van Houtteghem - X4038
Vicky Coens - 2016-01-23 13:20:00 - Coens Brugge - C5925-006
Vicky Coens - 2016-01-23 13:18:11 - Coens Brugge - C5925-007
Anne De Peuter - 2016-01-23 10:54:20 - Goethals - V2305
Anne De Peuter - 2016-01-23 10:50:00 - Goethals - C3953
Nadia Souverijns - 2016-01-22 13:44:58 - Tibax - C7009-003
Ilse Vercammen - 2016-01-21 11:48:59 - Ilse Vercammen - C4172
Ilse Vercammen - 2016-01-21 11:45:27 - Ilse Vercammen - X2889
Tim & Sandra Hendrickx - 2016-01-20 16:48:20 - Hendrickx - V7004-002
Tim & Sandra Hendrickx - 2016-01-20 16:11:56 - Hendrickx - C4166
Viola Vetters - 2016-01-19 17:19:29 - Orion - X3774
Maxime Vander Avort - 2016-01-19 10:34:43 - Maxime Vander Avort - X3634
Maxime Vander Avort - 2016-01-19 10:33:31 - Maxime Vander Avort - X3634
Anne De Peuter - 2016-01-16 16:59:06 - Goethals - V4202
Vicky Coens - 2016-01-16 15:06:11 - Coens Brugge - C4338
Vanhoutteghem - 2016-01-16 14:58:16 - Van Houtteghem - C3658
Vanhoutteghem - 2016-01-16 14:55:14 - Van Houtteghem - C4338
- 2016-01-16 12:09:48 - Jagre - T7019
- 2016-01-16 12:06:07 - Jagre - T7019-002
Catherine Abeele - 2016-01-15 18:27:46 - Abeele - A3028-001
Alain Van Vlierden - 2016-01-15 16:09:17 - Van Vlierden - X2822
Anne De Peuter - 2016-01-15 15:21:22 - Goethals - F5086
Anne De Peuter - 2016-01-15 15:19:05 - Goethals - C5066
Elke Bosmans - 2016-01-15 12:53:53 - De Wolf - U4686
Elke Bosmans - 2016-01-15 12:49:14 - De Wolf - C3953
Davy Van Ruyskensvelde - 2016-01-14 12:04:14 - Van Ruyskensvelde - C3658
Catherine Abeele - 2016-01-13 14:20:32 - Abeele - F3731
Catherine Abeele - 2016-01-13 10:09:34 - Abeele - V4202
De Greeve - 2016-01-12 17:49:25 - De Greeve - X5085
Evi Vandeweyer - 2016-01-12 11:32:17 - Vandeweyer - T5084
Marc & Hilde Jehaes - 2016-01-11 17:56:30 - Jehaes - V7013-002
Marc & Hilde Jehaes - 2016-01-11 17:54:59 - Jehaes - P7013-007
- 2016-01-11 13:42:15 - Heleven - X3745
Elke Bosmans - 2016-01-11 12:47:16 - De Wolf - U4686
Elke Bosmans - 2016-01-11 12:44:55 - De Wolf - C3953
Anne De Peuter - 2016-01-09 15:57:30 - Goethals - X3634
Laurent Vanstechelman - 2016-01-09 15:17:23 - Tempo d Oro - C4791
Laurent Vanstechelman - 2016-01-09 15:14:41 - Tempo d Oro - F4786
Elke Bosmans - 2016-01-09 14:37:41 - De Wolf - V4227
Vanhoutteghem - 2016-01-09 13:25:45 - Van Houtteghem - C9052
Christine & Marjolein - 2016-01-08 15:00:30 - Yolande - C5077
Nadia Souverijns - 2016-01-07 18:09:09 - Tibax - C7016-002
Nadia Souverijns - 2016-01-07 18:07:30 - Tibax - C7016-006
David Van Bellingen - 2016-01-07 13:47:34 - Van Bellingen - V5079
- 2016-01-07 11:58:49 - Jagre - C2863
- 2016-01-07 11:54:55 - Jagre - C2864
Elke Bosmans - 2016-01-07 11:20:50 - De Wolf - C3777-001
Elke Bosmans - 2016-01-07 11:19:42 - De Wolf - X3778-001
Pierre-Louis - 2016-01-06 16:46:35 - Pierre-Louis - B5052
Dries - 2016-01-06 16:45:58 - Dries - C3658
Pierre-Louis - 2016-01-06 16:44:48 - Pierre-Louis - B5062
Nadia Souverijns - 2016-01-06 12:04:22 - Tibax - C7009-007
Nadia Souverijns - 2016-01-06 12:00:53 - Tibax - C7009-003
Nadia Souverijns - 2016-01-06 11:56:49 - Tibax - V4202
Nadia Souverijns - 2016-01-06 11:52:54 - Tibax - C4163
Pierre-Louis - 2016-01-05 18:11:30 - Pierre-Louis - F4785
Dries - 2016-01-05 17:58:35 - Dries - X2167-001
Catherine Abeele - 2016-01-05 12:05:54 - Abeele - X2833
Catherine Abeele - 2016-01-05 12:04:28 - Abeele - C2832
Catherine Abeele - 2016-01-05 12:00:38 - Abeele - F2167
Kristina Cuvelier - 2016-01-04 17:46:31 - Cuvelier - F3731
Kristina Cuvelier - 2016-01-04 17:44:27 - Cuvelier - F3731
- 2016-01-04 13:54:45 - Heleven - P1523
- 2016-01-04 13:53:24 - Heleven - P3975
David Van Bellingen - 2016-01-03 16:52:23 - Van Bellingen - F5111
De Greeve - 2016-01-02 17:53:21 - De Greeve - P7013-007
- 2016-01-02 15:11:19 - Jagre - C5120
- 2016-01-02 15:09:21 - Jagre - C4430
Sofie - 2015-12-31 16:22:27 - Jema Design - X4684
Elke Bosmans - 2015-12-31 13:48:22 - De Wolf - V7001-003
Marc - 2015-12-30 17:46:26 - Yannick - U4510
Maxime Vander Avort - 2015-12-29 14:26:03 - Maxime Vander Avort - F4785-005
Maxime Vander Avort - 2015-12-29 14:24:40 - Maxime Vander Avort - F5175
Roger Borremans - 2015-12-28 18:53:02 - La coquille d Or - C3953
Roger Borremans - 2015-12-28 18:49:49 - La coquille d Or - A3028-001
Evelyne Coppens - 2015-12-28 13:39:43 - Paul - U4686
Evelyne Coppens - 2015-12-28 13:37:40 - Paul - U4686
Evelyne Coppens - 2015-12-28 13:34:53 - Paul - C3451-004
David Van Bellingen - 2015-12-28 13:09:37 - Van Bellingen - C3953
David Van Bellingen - 2015-12-28 13:08:32 - Van Bellingen - C9055-007
Elke Bosmans - 2015-12-28 11:48:29 - De Wolf - X4782
Elke Bosmans - 2015-12-28 11:46:24 - De Wolf - C4788
Laurent Vanstechelman - 2015-12-28 11:03:36 - Tempo d Oro - B5056
Laurent Vanstechelman - 2015-12-28 11:02:43 - Tempo d Oro - C5077
Yves Vanbeveren - 2015-12-28 10:56:59 - Vanbeveren - U3903
Anne De Peuter - 2015-12-26 18:45:44 - Goethals - U4686
David Van Bellingen - 2015-12-26 18:04:18 - Van Bellingen - V5079
David Van Bellingen - 2015-12-26 18:03:03 - Van Bellingen - V5046
Peter De Leus - 2015-12-26 17:48:10 - De Leus - C4223
Jan Jacob - 2015-12-26 15:58:43 - Jacob - C3658
Jan Jacob - 2015-12-26 15:55:48 - Jacob - C4338
Annik De Mey - 2015-12-24 11:20:59 - Annik De Mey - V7001-003
Annik De Mey - 2015-12-24 11:19:51 - Annik De Mey - P7001-007
Marc Brans - 2015-12-23 16:22:15 - Huis Claessen - T3796
Peter De Leus - 2015-12-20 17:11:26 - De Leus - U4980-002
Peter De Leus - 2015-12-20 17:09:54 - De Leus - U4980-002
Kristina Cuvelier - 2015-12-20 16:33:47 - Cuvelier - E4480-001
Roger Borremans - 2015-12-19 19:18:14 - La coquille d Or - X4782
Vicky Coens - 2015-12-19 14:48:38 - Coens Brugge - P7006-007
Vicky Coens - 2015-12-19 14:46:40 - Coens Brugge - V7006-003
Marc - 2015-12-19 14:45:41 - Yannick - U4510
Marc - 2015-12-18 11:59:33 - Yannick - X4782
Marc - 2015-12-18 11:54:58 - Yannick - C4788
Martine Verbruggen - 2015-12-16 12:46:12 - verbruggen - P425A001
Christine & Marjolein - 2015-12-16 11:52:13 - Yolande - C5075
Dries - 2015-12-15 17:22:54 - Dries - X5085
Annik De Mey - 2015-12-15 09:48:34 - Annik De Mey - U5504-003
Annik De Mey - 2015-12-15 09:46:26 - Annik De Mey - P408A001
Thomas De Graeve - 2015-12-14 16:44:31 - De Baere - M387A02G
Elke Bosmans - 2015-12-14 16:28:44 - De Wolf - C9055-006
Nadia Souverijns - 2015-12-14 13:47:19 - Tibax - C3963
Nadia Souverijns - 2015-12-14 13:46:00 - Tibax - C7017-002
Nadia Souverijns - 2015-12-14 13:44:23 - Tibax - C7017-006
Evelyne Coppens - 2015-12-14 10:37:15 - Paul - M387A02G
Evelyne Coppens - 2015-12-14 10:26:45 - Paul - C5919-006
Evi Vandeweyer - 2015-12-14 09:46:16 - Vandeweyer - C5070
Evi Vandeweyer - 2015-12-14 09:44:16 - Vandeweyer - X5085
Evi Vandeweyer - 2015-12-14 09:42:18 - Vandeweyer - B5052
Evi Vandeweyer - 2015-12-14 09:38:40 - Vandeweyer - B5062
De Greeve - 2015-12-12 15:14:38 - De Greeve - V5079
De Greeve - 2015-12-12 15:11:16 - De Greeve - C5066
Christine & Marjolein - 2015-12-11 17:00:10 - Yolande - C5113
Christine & Marjolein - 2015-12-11 16:58:53 - Yolande - C5113
Team De Wilde - 2015-12-10 16:57:24 - De Wilde - C9052
- 2015-12-10 16:55:49 - Heleven - C3658
Team De Wilde - 2015-12-10 16:55:12 - De Wilde - C9052-001
Alain Van Vlierden - 2015-12-10 15:30:20 - Van Vlierden - V1722
De Greeve - 2015-12-09 16:33:47 - De Greeve - V5054
De Greeve - 2015-12-09 16:32:23 - De Greeve - C5072
Sofie - 2015-12-08 17:51:38 - Jema Design - W5338
Pierre-Louis - 2015-12-07 09:58:18 - Pierre-Louis - T5084
Pierre-Louis - 2015-12-07 09:43:42 - Pierre-Louis - B5069
Dries - 2015-12-05 17:48:24 - Dries - C5075
Dries - 2015-12-05 17:47:11 - Dries - V5048
Christiaan Picard - 2015-12-05 16:55:23 - Christiaan Picard - P7013-007
Christiaan Picard - 2015-12-05 16:53:55 - Christiaan Picard - V7013-002
Kurt De Block - 2015-12-05 14:21:26 - Kortrijkse Goudcentrale - C3732
Kurt De Block - 2015-12-05 14:18:53 - Kortrijkse Goudcentrale - F3731
Evy Uyttenhove - 2015-12-04 11:18:02 - Evy d Or - T473B00G
Frédéric Pirson - 2015-12-04 11:02:28 - Pirson - X4198
Frédéric Pirson - 2015-12-04 11:00:57 - Pirson - X4198
Isabelle Leblans - 2015-12-03 15:46:05 - Leblans - V4202
Marc Brans - 2015-12-01 15:05:59 - Huis Claessen - X2822
Marc Brans - 2015-12-01 15:05:03 - Huis Claessen - X2822
Sandra Van Sweeveldt - 2015-12-01 10:31:15 - veronique - C9048
Sandra Van Sweeveldt - 2015-12-01 10:26:32 - veronique - C9048-001
Marc Drexeler - 2015-12-01 09:50:35 - Drexeler - V7014-003
Carlo Declerq - 2015-11-27 14:24:21 - Declerq - X4782
Carlo Declerq - 2015-11-27 14:23:01 - Declerq - C4788
Anne De Peuter - 2015-11-27 11:07:31 - Goethals - C4338
Anne De Peuter - 2015-11-27 11:02:36 - Goethals - C3658
Dries - 2015-11-26 17:08:25 - Dries - F5086
Anneleen Eyckmans - 2015-11-26 15:11:48 - Anneleen Eyckmans - B4988-001
Celine Vanstechelman - 2015-11-26 15:03:02 - Eye-C - N4266
Celine Vanstechelman - 2015-11-26 14:29:02 - Eye-C - X5085
Celine Vanstechelman - 2015-11-26 14:27:38 - Eye-C - A3028-001
Marc Buseyne - 2015-11-25 16:19:44 - Busseyne - V3802
Marc Buseyne - 2015-11-25 16:17:09 - Busseyne - C3801
- 2015-11-25 15:49:15 - Jagre - C2863
- 2015-11-25 15:45:13 - Jagre - M839A00G
Catherine Abeele - 2015-11-24 18:25:36 - Abeele - C5061
Catherine Abeele - 2015-11-24 18:20:34 - Abeele - V5047
Catherine Abeele - 2015-11-24 15:16:10 - Abeele - X3962
Catherine Abeele - 2015-11-24 15:12:30 - Abeele - C4211
Evelyne Coppens - 2015-11-24 14:09:11 - Paul - X4782
Evelyne Coppens - 2015-11-24 14:07:14 - Paul - C3777-001
Jan Jacob - 2015-11-22 17:04:00 - Jacob - C9054-002
Jan Jacob - 2015-11-22 17:02:14 - Jacob - C9054-003
Vanhoutteghem - 2015-11-20 17:27:30 - Van Houtteghem - C9052-001
Kurt De Block - 2015-11-18 18:53:50 - Kortrijkse Goudcentrale - C4156
Anneleen Eyckmans - 2015-11-18 11:34:08 - Anneleen Eyckmans - U5504
Anneleen Eyckmans - 2015-11-18 11:33:10 - Anneleen Eyckmans - U5504
Catherine Abeele - 2015-11-17 12:10:57 - Abeele - C3768
Elke Bosmans - 2015-11-16 13:15:13 - De Wolf - V3802
Elke Bosmans - 2015-11-16 13:10:13 - De Wolf - C3801
Marc Brans - 2015-11-14 17:06:43 - Huis Claessen - U4686
Marc Brans - 2015-11-14 17:05:18 - Huis Claessen - A3028-001
- 2015-11-14 12:51:54 - Jagre - C9045-003
- 2015-11-14 12:44:23 - Jagre - C9045-004
Anne De Peuter - 2015-11-14 11:14:37 - Goethals - V4202
Elke Bosmans - 2015-11-13 17:30:50 - De Wolf - B4985
Vanhoutteghem - 2015-11-13 12:46:59 - Van Houtteghem - C9052
Vanhoutteghem - 2015-11-12 16:11:54 - Van Houtteghem - X3692
Alain Van Vlierden - 2015-11-10 15:08:08 - Van Vlierden - F4130
- 2015-11-09 11:41:26 - Opleiding - A3028-001
Peter De Leus - 2015-11-07 17:56:31 - De Leus - C9045-003
Peter De Leus - 2015-11-07 17:55:04 - De Leus - C9045-004
Dries - 2015-11-07 17:25:09 - Dries - C5077
Dries - 2015-11-07 17:23:53 - Dries - B5056
Pierre-Louis - 2015-11-07 16:36:23 - Pierre-Louis - V5047
Evelyne Coppens - 2015-11-07 16:02:05 - Paul - C3658
Evelyne Coppens - 2015-11-07 15:58:00 - Paul - C4338
Verena - 2015-11-07 13:16:24 - Verena - X4782
Verena - 2015-11-07 13:12:55 - Verena - V5285
Marc - 2015-11-07 10:56:11 - Yannick - V7001-003
Marc - 2015-11-07 10:56:11 - Yannick - V7001-003
Marc - 2015-11-07 10:51:54 - Yannick - C4156
Laurent Vanstechelman - 2015-11-06 14:31:59 - Tempo d Oro - V7014-003
Celine Vanstechelman - 2015-11-03 17:55:31 - Eye-C - C7008-007
Celine Vanstechelman - 2015-11-03 17:54:04 - Eye-C - V7008-003
Marie Paul & Christine Reyntjens - 2015-11-03 12:21:56 - Reyntjens - V1679
Yves Vanbeveren - 2015-11-03 09:13:01 - Vanbeveren - V7003-002
Yves Vanbeveren - 2015-11-03 09:06:04 - Vanbeveren - P7003-007
Dirk Van Schoenwinkel - 2015-11-03 01:27:27 - Juweliers Van Schoenwinkel - T318A02G
Dirk Van Schoenwinkel - 2015-11-03 01:23:30 - Juweliers Van Schoenwinkel - C3963
Dirk Van Schoenwinkel - 2015-11-03 00:55:46 - Juweliers Van Schoenwinkel - T317A01G
Roger Borremans - 2015-10-31 19:48:07 - La coquille d Or - C5055
Roger Borremans - 2015-10-31 19:46:21 - La coquille d Or - C5073
Verena - 2015-10-31 17:10:36 - Verena - X4782
Verena - 2015-10-31 17:09:04 - Verena - X4782
Martine - 2015-10-29 17:50:42 - Toermalijn - T7019-002
Martine - 2015-10-29 17:47:37 - Toermalijn - C7009-003
Annik De Mey - 2015-10-28 17:53:18 - Annik De Mey - C5055
Annik De Mey - 2015-10-28 17:51:44 - Annik De Mey - C5073
Ingrid Aertssens - 2015-10-28 15:08:42 - Ingrid Aertssens - V4512
Ingrid Aertssens - 2015-10-28 15:04:43 - Ingrid Aertssens - C4809
David Van Bellingen - 2015-10-28 09:35:10 - Van Bellingen - C5077
David Van Bellingen - 2015-10-28 09:34:25 - Van Bellingen - B5056
Evy Uyttenhove - 2015-10-26 15:50:50 - Evy d Or - C4018
Evy Uyttenhove - 2015-10-26 15:47:29 - Evy d Or - C3658
Pieter Vanhoutteghem - 2015-10-24 16:08:43 - Pieter Vanhoutteghem - V5079
Pieter Vanhoutteghem - 2015-10-24 16:07:05 - Pieter Vanhoutteghem - C5060
Laurent Vanstechelman - 2015-10-24 15:39:41 - Tempo d Oro - C4338
Laurent Vanstechelman - 2015-10-24 15:37:11 - Tempo d Oro - C3658
Peter De Leus - 2015-10-24 14:29:46 - De Leus - P7013-007
Peter De Leus - 2015-10-24 14:28:45 - De Leus - V7013-002
Vanhoutteghem - 2015-10-24 13:56:28 - Van Houtteghem - C9052
Vanhoutteghem - 2015-10-24 13:53:11 - Van Houtteghem - C9052-001
Maxime Vander Avort - 2015-10-24 13:26:49 - Maxime Vander Avort - V7013-002
Maxime Vander Avort - 2015-10-24 13:24:40 - Maxime Vander Avort - P7013-007
Davy Van Ruyskensvelde - 2015-10-23 09:55:18 - Van Ruyskensvelde - C4338
Davy Van Ruyskensvelde - 2015-10-23 09:54:05 - Van Ruyskensvelde - C3658
- 2015-10-21 14:16:50 - Jagre - C9045-003
- 2015-10-21 14:08:28 - Jagre - C9045-004
Stephan Siemon - 2015-10-20 16:33:22 - Top Watch - C4197
Evi Vandeweyer - 2015-10-20 09:00:05 - Vandeweyer - V7013-002
Frederik Bongaerts - 2015-10-19 20:19:55 - Bongaerts - V3802
Frederik Bongaerts - 2015-10-19 20:16:38 - Bongaerts - C3801
- 2015-10-18 20:03:02 - Mika - C3074
- 2015-10-18 20:01:03 - Mika - X4684
Catherine Abeele - 2015-10-17 15:51:03 - Abeele - C5078
Catherine Abeele - 2015-10-17 15:49:00 - Abeele - B5059
Marc Buseyne - 2015-10-17 15:17:33 - Busseyne - F3731
Marc Buseyne - 2015-10-17 15:15:53 - Busseyne - C3732
David Van Bellingen - 2015-10-17 12:52:19 - Van Bellingen - V5079
Jan Jacob - 2015-10-17 12:49:57 - Jacob - V7013-002
Jan Jacob - 2015-10-17 12:44:36 - Jacob - P7013-007
Alain Van Vlierden - 2015-10-17 10:57:47 - Van Vlierden - C9045-004
Elke Bosmans - 2015-10-16 13:21:04 - De Wolf - A3028-001
Vanhoutteghem - 2015-10-16 12:21:25 - Van Houtteghem - C9045-003
Elke Bosmans - 2015-10-15 13:05:51 - De Wolf - C3658
Elke Bosmans - 2015-10-15 13:04:14 - De Wolf - C5895-003
Kristina Cuvelier - 2015-10-15 10:42:49 - Cuvelier - E4480-001
Kristina Cuvelier - 2015-10-15 10:39:15 - Cuvelier - C4224
Eric De Waele - 2015-10-14 13:29:51 - De Waele - P7013-007
Eric De Waele - 2015-10-14 13:28:23 - De Waele - V7013-002
Dries - 2015-10-13 15:31:17 - Dries - X5085
Nadia Souverijns - 2015-10-13 15:29:42 - Tibax - C5064
Isabelle Leblans - 2015-10-13 14:29:59 - Leblans - U1485
Isabelle Leblans - 2015-10-13 14:28:21 - Leblans - U1485
Martine Verbruggen - 2015-10-13 11:37:10 - verbruggen - C4809
Frédéric Pirson - 2015-10-13 09:58:30 - Pirson - V5202
Frédéric Pirson - 2015-10-13 09:57:12 - Pirson - V5202
Frédéric Pirson - 2015-10-13 09:53:34 - Pirson - T4225
Catherine Abeele - 2015-10-13 09:03:54 - Abeele - P7004-007
Catherine Abeele - 2015-10-13 09:02:08 - Abeele - V7004-002
Elke Bosmans - 2015-10-12 13:14:15 - De Wolf - C5919-006
Elke Bosmans - 2015-10-12 13:11:55 - De Wolf - C5919-007
Elke Bosmans - 2015-10-12 11:18:23 - De Wolf - T9163-006
Elke Bosmans - 2015-10-12 11:17:43 - De Wolf - C9163-007
Laurent Vanstechelman - 2015-10-11 15:43:25 - Tempo d Oro - C3801
Laurent Vanstechelman - 2015-10-11 15:02:05 - Tempo d Oro - P7004-007
Laurent Vanstechelman - 2015-10-11 14:54:41 - Tempo d Oro - V3802
Laurent Vanstechelman - 2015-10-11 14:51:30 - Tempo d Oro - T317A01G
Laurent Vanstechelman - 2015-10-11 13:40:21 - Tempo d Oro - F4994
Elke Bosmans - 2015-10-11 13:14:28 - De Wolf - C5948-004
Elke Bosmans - 2015-10-11 13:08:48 - De Wolf - C5948-005
Laurent Vanstechelman - 2015-10-10 16:19:57 - Tempo d Oro - C9163-007
Elke Bosmans - 2015-10-10 15:59:09 - De Wolf - F5177
Elke Bosmans - 2015-10-10 15:56:53 - De Wolf - F4994
Alain Van Vlierden - 2015-10-10 15:35:14 - Van Vlierden - C3768
Alain Van Vlierden - 2015-10-10 15:31:47 - Van Vlierden - C3768
Laurent Vanstechelman - 2015-10-10 14:53:27 - Tempo d Oro - C4813
Laurent Vanstechelman - 2015-10-10 13:51:04 - Tempo d Oro - C4223
Laurent Vanstechelman - 2015-10-10 13:39:01 - Tempo d Oro - P406A001
Laurent Vanstechelman - 2015-10-10 13:34:25 - Tempo d Oro - C4791
Laurent Vanstechelman - 2015-10-10 13:09:15 - Tempo d Oro - V4746
Laurent Vanstechelman - 2015-10-10 13:03:38 - Tempo d Oro - C4813
Laurent Vanstechelman - 2015-10-10 12:51:02 - Tempo d Oro - P4792
Elke Bosmans - 2015-10-10 11:12:16 - De Wolf - A4983 – (half)
Elke Bosmans - 2015-10-10 11:07:01 - De Wolf - V4202
Elke Bosmans - 2015-10-10 11:05:28 - De Wolf - T9163-006
Elke Bosmans - 2015-10-10 10:59:17 - De Wolf - C9163-007
Elke Bosmans - 2015-10-10 10:08:17 - De Wolf - C3953
Laurent Vanstechelman - 2015-10-09 20:57:27 - Tempo d Oro - C3963
Laurent Vanstechelman - 2015-10-09 20:00:41 - Tempo d Oro - V7004-002
Laurent Vanstechelman - 2015-10-09 19:32:29 - Tempo d Oro - F5110
Frédéric Pirson - 2015-10-09 12:42:55 - Pirson - U4686
Frédéric Pirson - 2015-10-09 12:38:09 - Pirson - C5120
Elke Bosmans - 2015-10-08 12:06:49 - De Wolf - F5105
Elke Bosmans - 2015-10-08 12:03:18 - De Wolf - F5104
Elke Bosmans - 2015-10-07 15:48:50 - De Wolf - F5183
Elke Bosmans - 2015-10-07 15:46:44 - De Wolf - F5102
Yves Vanbeveren - 2015-10-06 15:52:17 - Vanbeveren - C3953
Eric De Waele - 2015-10-06 15:25:10 - Heursel - A3028-001
Evy Uyttenhove - 2015-10-06 09:50:56 - Evy d Or - E1718
Evy Uyttenhove - 2015-10-06 09:44:40 - Evy d Or - C4338
Tim & Sandra Hendrickx - 2015-10-06 08:07:26 - Hendrickx - M387A02G
Pierre-Louis - 2015-10-03 16:00:49 - Pierre-Louis - C3658
Pierre-Louis - 2015-10-03 15:59:35 - Pierre-Louis - C4338
Isabelle Leblans - 2015-10-03 15:57:15 - Leblans - V4202
Frederik Bongaerts - 2015-10-03 15:15:19 - Bongaerts - T5084
Frederik Bongaerts - 2015-10-03 15:13:17 - Bongaerts - C5058
Anneleen Eyckmans - 2015-10-03 15:11:36 - Anneleen Eyckmans - X5501-002
Christine & Marjolein - 2015-10-02 14:13:53 - Yolande - V7013-002
Christine & Marjolein - 2015-10-02 14:12:23 - Yolande - P7013-007
Alain Van Vlierden - 2015-10-01 16:29:13 - Van Vlierden - P3964
Alain Van Vlierden - 2015-10-01 16:25:18 - Van Vlierden - X3745
Sandra Van Sweeveldt - 2015-09-30 13:53:32 - Michael - W5927-001
Sandra Van Sweeveldt - 2015-09-30 12:42:43 - Michael - C3807
Sandra Van Sweeveldt - 2015-09-30 12:36:30 - Michael - C3807
Patrick Peeters - 2015-09-29 19:51:15 - Peeters - X5085
Patrick Peeters - 2015-09-29 19:45:29 - Peeters - V5080
Eric De Waele - 2015-09-29 15:26:24 - De Waele - C5075
Eric De Waele - 2015-09-29 15:23:25 - De Waele - V5048
Frederik Bongaerts - 2015-09-28 10:54:46 - Bongaerts - C5078
Frederik Bongaerts - 2015-09-28 10:52:00 - Bongaerts - B5059
Marc Brans - 2015-09-26 15:47:29 - Huis Claessen - C4338
Marc Brans - 2015-09-26 15:46:29 - Huis Claessen - C3658
Eric De Waele - 2015-09-25 16:52:54 - Heursel - P318A03G ROSE
Eric De Waele - 2015-09-25 16:50:26 - Heursel - P318A03G
Eric De Waele - 2015-09-25 16:46:57 - Heursel - X4782
Marc Brans - 2015-09-25 13:38:04 - Huis Claessen - U4686
Marc Brans - 2015-09-25 13:36:23 - Huis Claessen - C3953
Roger Borremans - 2015-09-25 10:08:40 - La coquille d Or - T5082
Laurent Vanstechelman - 2015-09-23 17:06:39 - Tempo d Oro - C9021
Ilse Vercammen - 2015-09-23 16:55:43 - Ilse Vercammen - C9054-003
Laurent Vanstechelman - 2015-09-23 16:52:15 - Tempo d Oro - C4791
Eric De Waele - 2015-09-23 16:08:07 - De Waele - X5085
Eric De Waele - 2015-09-23 16:06:36 - De Waele - C5070
Evelyne Coppens - 2015-09-23 12:01:01 - Paul - F5105
Evelyne Coppens - 2015-09-23 10:50:47 - Paul - F4130
Evelyne Coppens - 2015-09-23 10:47:34 - Paul - C4148
Stephan Siemon - 2015-09-23 10:47:31 - Top Watch - V4202
Stephan Siemon - 2015-09-23 10:28:20 - Top Watch - V4202
Davy Van Ruyskensvelde - 2015-09-22 17:05:27 - Van Ruyskensvelde - C9045-004
Ilse Vercammen - 2015-09-22 10:24:58 - Ilse Vercammen - C9052-001
Ilse Vercammen - 2015-09-22 10:22:20 - Ilse Vercammen - C4338
Ilse Vercammen - 2015-09-22 09:53:30 - Ilse Vercammen - C9052-001
Ilse Vercammen - 2015-09-22 09:50:45 - Ilse Vercammen - C9052
Ilse Vercammen - 2015-09-21 14:57:07 - Ilse Vercammen - C3658
Ilse Vercammen - 2015-09-21 14:53:19 - Ilse Vercammen - X4514
Ilse Vercammen - 2015-09-21 14:49:20 - Ilse Vercammen - C9045-003
Ilse Vercammen - 2015-09-21 14:36:44 - Ilse Vercammen - V7008-003
Ilse Vercammen - 2015-09-21 11:43:31 - Ilse Vercammen - C2826
Ilse Vercammen - 2015-09-21 11:40:57 - Ilse Vercammen - X2827
Ilse Vercammen - 2015-09-20 17:00:26 - Ilse Vercammen - B4980
Ilse Vercammen - 2015-09-20 15:34:20 - Ilse Vercammen - V5147
Sandra Van Sweeveldt - 2015-09-19 16:23:25 - Van Ruyskensvelde- C9045-004
Evelyne Coppens - 2015-09-19 15:58:25 - Paul - C4338
Evelyne Coppens - 2015-09-19 15:56:17 - Paul - C3658
De Greeve - 2015-09-19 15:13:49 - De Greeve - C3658
Evelyne Coppens - 2015-09-19 12:16:37 - Paul - C9042-001
Kurt De Block - 2015-09-19 09:44:25 - Kortrijkse Goudcentrale - T7039-001
Dries - 2015-09-17 17:07:24 - Dries - C5066
Dries - 2015-09-17 17:06:01 - Dries - T5082
Peter De Leus - 2015-09-17 13:59:51 - De Leus - F4130
Peter De Leus - 2015-09-17 13:58:59 - De Leus - C3953
Marc - 2015-09-16 15:13:41 - Yannick - P7014-007
Marc - 2015-09-16 15:07:24 - Yannick - V7014-003
Sofie - 2015-09-16 09:12:59 - Jema Design - C3238
Stephan Siemon - 2015-09-15 14:38:56 - Top Watch - T559A01G – 0.07ct.
Francis et Geraldine Barchy - 2015-09-15 14:14:47 - Barchy - F3731
N. Baurens - 2015-09-15 10:25:14 - Baurens - V7004-002
Elke Bosmans - 2015-09-14 09:37:53 - De Wolf - P7013-007
Elke Bosmans - 2015-09-14 09:35:57 - De Wolf - V7013-002
De Greeve - 2015-09-12 16:57:01 - De Greeve - C9045-004
De Greeve - 2015-09-12 16:55:30 - De Greeve - C9045-003
David Van Bellingen - 2015-09-11 10:04:51 - Van Bellingen - T4225
David Van Bellingen - 2015-09-11 10:03:46 - Van Bellingen - C5066
Team De Wilde - 2015-09-10 16:21:59 - De Wilde - C4338
Team De Wilde - 2015-09-10 16:20:11 - De Wilde - C3658
David Van Bellingen - 2015-09-09 14:04:37 - Van Bellingen - F5086
Laurent Vanstechelman - 2015-09-07 18:08:18 - Tempo d Oro - F4786
Laurent Vanstechelman - 2015-09-07 18:07:41 - Tempo d Oro - F5177
Sofie - 2015-09-06 15:06:07 - Jema Design - V4683
Evelyne Coppens - 2015-09-06 13:31:25 - Paul - C4385
Evelyne Coppens - 2015-09-06 13:28:35 - Paul - C4384
Evelyne Coppens - 2015-09-05 17:04:31 - Paul - A3028-001
Evelyne Coppens - 2015-09-05 17:02:00 - Paul - C3028-002
Davy Van Ruyskensvelde - 2015-09-05 16:22:04 - Van Ruyskensvelde - C3953
Anne De Peuter - 2015-09-05 11:05:23 - Goethals - C9045-003
Anne De Peuter - 2015-09-05 10:59:51 - Goethals - N4266
Stephan Siemon - 2015-09-04 15:48:45 - Top Watch - V1289
Stephan Siemon - 2015-09-04 15:46:21 - Top Watch - V1289
Elke Bosmans - 2015-09-04 15:06:22 - De Wolf - X4782
Annik De Mey - 2015-09-04 14:59:07 - Annik De Mey - C4791
Annik De Mey - 2015-09-04 14:57:02 - Annik De Mey - F4786
Sofie - 2015-09-04 10:22:51 - Jema Design - F2334
Sofie - 2015-09-04 10:20:28 - Jema Design - F2334
Bart Bourgois - 2015-09-03 16:02:30 - Bourgois - V5502-002
Patrick Peeters - 2015-09-01 18:31:12 - Peeters - V5080
Katrien en Hildegarde Huysman - 2015-09-01 16:34:41 - Huysman - C5058
Katrien en Hildegarde Huysman - 2015-09-01 16:32:27 - Huysman - V5046
Katrien en Hildegarde Huysman - 2015-09-01 15:59:35 - Huysman - V1293
Anne De Peuter - 2015-09-01 15:16:54 - Goethals - X3634
Marc - 2015-09-01 12:27:14 - Yannick - A3028-001
Frédéric Pirson - 2015-09-01 08:52:05 - Pirson - T7043
Frédéric Pirson - 2015-09-01 08:46:32 - Pirson - T7043-002
Nadia Souverijns - 2015-08-29 15:07:22 - Tibax - P7014-007
Nadia Souverijns - 2015-08-29 15:04:24 - Tibax - V7014-003
David Van Bellingen - 2015-08-28 15:40:14 - Van Bellingen - T4225
David Van Bellingen - 2015-08-28 15:37:09 - Van Bellingen - C5066
Frederik Bongaerts - 2015-08-28 15:24:13 - Bongaerts - C9054-002
Frederik Bongaerts - 2015-08-28 15:18:10 - Bongaerts - C9054-003
Elke Bosmans - 2015-08-28 11:03:04 - De Wolf - C3658
Elke Bosmans - 2015-08-28 10:56:54 - De Wolf - C4338
- 2015-08-27 16:13:22 - Jagre - M839A00G
- 2015-08-27 16:11:15 - Jagre - M839A01G
- 2015-08-26 19:04:28 - Jagre - C9045-003
- 2015-08-26 19:02:55 - Jagre - C9045-004
Vanhoutteghem - 2015-08-25 09:00:53 - Van Houtteghem - M387A02G
- 2015-08-21 12:10:39 - Mika - F5183
- 2015-08-21 12:07:21 - Mika - F5183
Juwelier - uurwerkmaker Devick Francis - 2015-08-20 13:30:18 - Juwelier - uurwerkmaker Devick Francis - C5055
Juwelier - uurwerkmaker Devick Francis - 2015-08-20 13:29:08 - Juwelier - uurwerkmaker Devick Francis - C5073
Pol-Henry Martin - 2015-08-20 12:59:19 - Bijouterie Martin - C4338
David Van Bellingen - 2015-08-19 16:37:05 - Van Bellingen - V5080
David Van Bellingen - 2015-08-19 16:36:00 - Van Bellingen - C5076
N. Baurens - 2015-08-19 16:08:05 - Baurens - X1296
N. Baurens - 2015-08-19 16:03:29 - Baurens - X1295
Eric De Waele - 2015-08-19 09:07:38 - De Waele - C2899
David Van Bellingen - 2015-08-18 22:08:10 - Van Bellingen - F5086
Katrien en Hildegarde Huysman - 2015-08-18 16:43:57 - Huysman - X2167-001
Katrien en Hildegarde Huysman - 2015-08-18 16:39:58 - Huysman - C3953
Patrick Peeters - 2015-08-18 09:01:09 - Peeters - V4206
Patrick Peeters - 2015-08-18 08:53:56 - Peeters - V5053
Christine & Marjolein - 2015-08-14 13:22:34 - Yolande - C5055
Frédéric Pirson - 2015-08-14 13:15:45 - Pirson - F3966
Verena - 2015-08-14 10:27:22 - Verena - C4807
Dries - 2015-08-14 10:02:52 - Dries - P7011-007
Dries - 2015-08-14 10:01:33 - Dries - V7011-002
Frédéric Pirson - 2015-08-13 16:31:27 - Pirson - U4686
Frédéric Pirson - 2015-08-13 16:28:31 - Pirson - U4686
Elke Bosmans - 2015-08-13 13:21:04 - De Wolf - C5919-006
Elke Bosmans - 2015-08-13 13:10:56 - De Wolf - C5919-006
N. Baurens - 2015-08-12 13:29:08 - Baurens - V4682
N. Baurens - 2015-08-12 13:27:00 - Baurens - V4682
- 2015-08-11 13:50:25 - Jagre - C5919-006
- 2015-08-11 13:42:33 - Jagre - C5919-007
Marc & Hilde Jehaes - 2015-08-10 18:24:41 - Jehaes - V7013-002
Marc & Hilde Jehaes - 2015-08-10 18:21:35 - Jehaes - P7001-007
Evy Uyttenhove - 2015-08-10 15:07:38 - Evy d Or - C2828
Evy Uyttenhove - 2015-08-10 15:03:47 - Evy d Or - T3758
Anne De Peuter - 2015-08-08 17:02:08 - Goethals - V5047
Pierre-Louis - 2015-08-08 16:27:44 - Pierre-Louis - C4296
Pierre-Louis - 2015-08-08 16:26:02 - Pierre-Louis - C4296
Frédéric Pirson - 2015-08-07 14:00:45 - Pirson - A3028-001
Frédéric Pirson - 2015-08-07 13:59:22 - Pirson - V4206
Dirk Dekempe - 2015-08-07 07:34:29 - Dekempe - U1678
Dirk Dekempe - 2015-08-07 07:32:40 - Dekempe - U1678
Frédéric Pirson - 2015-08-06 15:11:24 - Pirson - F4785
Frédéric Pirson - 2015-08-06 15:09:05 - Pirson - P4789
- 2015-08-06 12:22:16 - Jagre - C9052
- 2015-08-06 12:20:22 - Jagre - C9052-001
Viola Vetters - 2015-08-06 09:23:28 - Orion - D4294
Viola Vetters - 2015-08-06 09:22:32 - Orion - D1599
Maxime Vander Avort - 2015-08-05 16:37:09 - Maxime Vander Avort - C4338
Maxime Vander Avort - 2015-08-05 16:36:16 - Maxime Vander Avort - C3658
- 2015-08-05 16:09:19 - Jagre - C5919-006
- 2015-08-05 16:00:51 - Jagre - M387A02G
Juwelier - uurwerkmaker Devick Francis - 2015-08-05 13:11:02 - Juwelier - uurwerkmaker Devick Francis - C5078
Juwelier - uurwerkmaker Devick Francis - 2015-08-05 13:10:14 - Juwelier - uurwerkmaker Devick Francis - B5059
Dries - 2015-08-05 13:06:44 - Dries - V5171
Dries - 2015-08-05 13:05:03 - Dries - F5003
Dries - 2015-08-05 13:02:32 - Dries - V5046
Dries - 2015-08-05 13:01:38 - Dries - C5058
Nadia Souverijns - 2015-08-04 09:29:20 - Tibax - C5074
Frédéric Pirson - 2015-08-04 08:38:59 - Pirson - V4202
Frédéric Pirson - 2015-08-04 08:37:36 - Pirson - C3953
David Van Bellingen - 2015-08-01 10:29:12 - Van Bellingen - V5080
Kurt De Block - 2015-08-01 09:41:05 - Kortrijkse Goudcentrale - X3634
Kurt De Block - 2015-08-01 09:39:46 - Kortrijkse Goudcentrale - P7011-007
David Van Bellingen - 2015-07-31 15:56:49 - Van Bellingen - F5086
David Van Bellingen - 2015-07-31 15:55:11 - Van Bellingen - C5061
Team De Wilde - 2015-07-31 13:04:59 - De Wilde - U1676
Laurent Vanstechelman - 2015-07-30 16:53:04 - Tempo d Oro - X3634
Laurent Vanstechelman - 2015-07-30 16:49:14 - Tempo d Oro - C3633
Kristina Cuvelier - 2015-07-30 13:21:21 - Cuvelier - C4224
Kristina Cuvelier - 2015-07-30 13:18:56 - Cuvelier - C4224
Celine Vanstechelman - 2015-07-29 14:22:14 - Eye-C - V5053
Celine Vanstechelman - 2015-07-29 14:20:50 - Eye-C - C3963
Nadia Souverijns - 2015-07-29 11:26:12 - Tibax - C5074
Katrien en Hildegarde Huysman - 2015-07-28 17:20:01 - Huysman - V1293
Vicky Coens - 2015-07-28 15:38:55 - Coens Brugge - F5105
Vicky Coens - 2015-07-28 15:36:17 - Coens Brugge - F5104
Dries - 2015-07-28 12:44:57 - Dries - F5086
Dries - 2015-07-28 12:43:56 - Dries - C5071
Frédéric Pirson - 2015-07-28 08:55:02 - Pirson - V7040-002
Frédéric Pirson - 2015-07-28 08:52:20 - Pirson - V7040
Frédéric Pirson - 2015-07-28 08:48:02 - Pirson - F1618
Frédéric Pirson - 2015-07-28 08:46:31 - Pirson - F3966
Martine - 2015-07-27 10:59:05 - Toermalijn - V7042-003
Martine - 2015-07-27 10:53:58 - Toermalijn - V7042-003
Anneleen Eyckmans - 2015-07-25 16:41:33 - Anneleen Eyckmans - C4811
Annik De Mey - 2015-07-25 16:13:18 - Annik De Mey - V7014-003
Annik De Mey - 2015-07-25 16:08:16 - Annik De Mey - C3658
Kristina Cuvelier - 2015-07-25 15:52:35 - Cuvelier - P7001-007
Kristina Cuvelier - 2015-07-25 15:51:01 - Cuvelier - V7001-003
Kristina Cuvelier - 2015-07-24 13:39:32 - Cuvelier - C4338
Kristina Cuvelier - 2015-07-24 13:37:36 - Cuvelier - A3028-001
Katrien en Hildegarde Huysman - 2015-07-24 10:13:30 - Huysman - V5147
Katrien en Hildegarde Huysman - 2015-07-24 10:11:27 - Huysman - P407A001
Kurt De Block - 2015-07-24 10:04:29 - Kortrijkse Goudcentrale - C3953
Pierre-Louis - 2015-07-23 16:33:11 - Pierre-Louis - V5050
Pierre-Louis - 2015-07-23 16:30:43 - Pierre-Louis - C5065
Elke Bosmans - 2015-07-23 16:06:15 - De Wolf - P408A001
Elke Bosmans - 2015-07-23 16:03:46 - De Wolf - P407A001
Evi Vandeweyer - 2015-07-22 16:50:32 - Vandeweyer - A3028-001
Dries - 2015-07-22 13:17:48 - Dries - V7001-003
Evi Vandeweyer - 2015-07-22 12:47:35 - Vandeweyer - P7013-007
Jan Jacob - 2015-07-17 16:08:59 - Jacob - F4995
Jan Jacob - 2015-07-17 16:06:07 - Jacob - F5169
Pierre-Louis - 2015-07-17 16:05:46 - Pierre-Louis - F5086
Alain Van Vlierden - 2015-07-17 15:07:01 - Van Vlierden - C9163-007
Alain Van Vlierden - 2015-07-17 15:04:03 - Van Vlierden - T9163-006
Nadia Souverijns - 2015-07-17 15:00:46 - Tibax - C2899
Nadia Souverijns - 2015-07-17 14:59:27 - Tibax - F1137
Marc Drexeler - 2015-07-17 14:05:34 - Drexeler - C3658
Marc Drexeler - 2015-07-17 14:04:13 - Drexeler - C4338
De Greeve - 2015-07-16 13:14:49 - De Greeve - A3028-001
Laurent Vanstechelman - 2015-07-16 11:06:42 - Tempo d Oro - C3963
Anneleen Eyckmans - 2015-07-16 09:22:16 - Anneleen Eyckmans - T318A02G
Yves Vanbeveren - 2015-07-15 16:06:42 - Vanbeveren - C9021
Pierre-Louis - 2015-07-15 14:18:15 - Pierre-Louis - F4784
Christof en Evelyne Vande Walle en Mattheeuws - 2015-07-15 10:08:15 - Vande Walle - C3953
Dries - 2015-07-14 15:31:25 - Dries - X5085
Elke Bosmans - 2015-07-14 15:18:51 - De Wolf - X4782
Elke Bosmans - 2015-07-14 15:16:02 - De Wolf - C4166
Elke Bosmans - 2015-07-14 11:00:27 - De Wolf - C9055-006
Carlo Declerq - 2015-07-11 14:33:44 - Declerq - X2167-001
Carlo Declerq - 2015-07-11 14:31:37 - Declerq - E4480-001
Anne De Peuter - 2015-07-11 13:48:07 - Goethals - C9055-006
Anne De Peuter - 2015-07-11 13:45:07 - Goethals - C9055-007
Anne De Peuter - 2015-07-11 10:51:33 - Goethals - C9045-003
Patrick Peeters - 2015-07-10 17:45:44 - Peeters - V5080
Patrick Peeters - 2015-07-10 17:07:23 - Peeters - V5053
Dries - 2015-07-09 17:18:00 - Dries - V7001-003
David Van Bellingen - 2015-07-09 12:12:53 - Van Bellingen - F5086
Marc & Hilde Jehaes - 2015-07-09 11:06:01 - Jehaes - C9021
Sofie - 2015-07-09 07:42:32 - Jema Design - X4782
Sofie - 2015-07-09 07:40:31 - Jema Design - C5236
Pol-Henry Martin - 2015-07-08 15:18:04 - Bijouterie Martin - F1966
Pol-Henry Martin - 2015-07-08 15:13:38 - Bijouterie Martin - F3967
Elke Bosmans - 2015-07-08 13:44:51 - De Wolf - T4225
Vanhoutteghem - 2015-07-08 11:02:08 - Van Houtteghem - V7013-002
De Greeve - 2015-07-07 14:07:02 - De Greeve - X4782
Pol-Henry Martin - 2015-07-07 13:00:46 - Bijouterie Martin - X3778-001
Evi Vandeweyer - 2015-07-06 19:20:47 - Vandeweyer - C4338
Evi Vandeweyer - 2015-07-06 19:19:09 - Vandeweyer - C3658
Evi Vandeweyer - 2015-07-06 19:17:37 - Vandeweyer - C3760
Evi Vandeweyer - 2015-07-06 19:15:55 - Vandeweyer - C3755
Marc & Hilde Jehaes - 2015-07-06 14:42:25 - Jehaes - C3953
Marc & Hilde Jehaes - 2015-07-06 14:36:35 - Jehaes - C9052-001
Marc & Hilde Jehaes - 2015-07-06 14:33:26 - Jehaes - C9052
Anne De Peuter - 2015-07-04 14:15:52 - Goethals - C9045-003
Anne De Peuter - 2015-07-04 14:12:11 - Goethals - C9045-004
Anne De Peuter - 2015-07-04 13:30:44 - Goethals - C9045-003
Anne De Peuter - 2015-07-04 13:26:57 - Goethals - C9045-003
Anne De Peuter - 2015-07-03 13:32:18 - Goethals - C3755
Anne De Peuter - 2015-07-03 13:31:14 - Goethals - C3760
Sofie - 2015-07-03 13:27:34 - Jema Design - C3953
Sofie - 2015-07-03 13:25:34 - Jema Design - V4682
Juwelier - uurwerkmaker Devick Francis - 2015-07-03 10:37:36 - Juwelier - uurwerkmaker Devick Francis - C5077
Kristina Cuvelier - 2015-07-02 16:45:55 - Cuvelier - C4224
Kristina Cuvelier - 2015-07-02 11:15:20 - Cuvelier - X2167-001
Kristina Cuvelier - 2015-07-02 11:12:27 - Cuvelier - X2167-001
Frédéric Pirson - 2015-07-01 16:01:06 - Pirson - V4202
Frédéric Pirson - 2015-07-01 15:58:59 - Pirson - X5501
Dries - 2015-07-01 15:30:40 - Dries - V5048
Catherine Abeele - 2015-06-30 14:59:11 - Abeele - X4514
Christine & Marjolein - 2015-06-30 13:37:41 - Yolande - F5086
Christine & Marjolein - 2015-06-30 13:25:12 - Yolande - C5060
- 2015-06-30 13:10:38 - Jagre - C5636-001
Marc Drexeler - 2015-06-29 11:23:33 - Drexeler - X4782
Marc Drexeler - 2015-06-29 11:18:17 - Drexeler - C4788
Kurt De Block - 2015-06-29 08:37:14 - Kortrijkse Goudcentrale - F5101
Marc Buseyne - 2015-06-27 17:06:07 - Busseyne - C3953
Dries - 2015-06-27 16:49:54 - Dries - C5055
Dries - 2015-06-27 16:48:43 - Dries - C5073
Alain Van Vlierden - 2015-06-27 16:18:24 - Van Vlierden - C3963
Stephan Siemon - 2015-06-27 15:15:03 - Top Watch - V4683
Stephan Siemon - 2015-06-27 15:12:31 - Top Watch - V4683
Kristina Cuvelier - 2015-06-27 11:08:39 - Cuvelier - C9021
Laurent Vanstechelman - 2015-06-27 10:37:27 - Tempo d Oro - V1289
Laurent Vanstechelman - 2015-06-26 10:59:09 - Tempo d Oro - C9163-007
Laurent Vanstechelman - 2015-06-26 10:57:28 - Tempo d Oro - F2644
Evy Uyttenhove - 2015-06-25 14:22:19 - Evy d Or - T159B00G
Evy Uyttenhove - 2015-06-25 14:20:00 - Evy d Or - C2828
Evy Uyttenhove - 2015-06-25 14:18:32 - Evy d Or - C3658
Evy Uyttenhove - 2015-06-25 14:17:14 - Evy d Or - C9045-004
Evy Uyttenhove - 2015-06-25 14:15:40 - Evy d Or - C3963
Pierre-Louis - 2015-06-25 13:27:53 - Pierre-Louis - X5085
Pierre-Louis - 2015-06-25 13:26:17 - Pierre-Louis - C5070
David Van Bellingen - 2015-06-25 10:09:55 - Van Bellingen - C4338
David Van Bellingen - 2015-06-25 10:09:11 - Van Bellingen - C3658
Frédéric Pirson - 2015-06-24 11:47:39 - Pirson - V4202
Frédéric Pirson - 2015-06-24 11:44:24 - Pirson - C4163
Anne De Peuter - 2015-06-22 15:03:07 - Goethals - C9045-003
Anne De Peuter - 2015-06-22 14:59:18 - Goethals - C9045-004
Laurent Vanstechelman - 2015-06-22 13:52:08 - Tempo d Oro - C5077
Anne De Peuter - 2015-06-21 16:04:59 - Goethals - C9045-003
Anne De Peuter - 2015-06-21 16:01:52 - Goethals - C9045-004
Eric De Waele - 2015-06-20 10:03:23 - De Waele - C3238
Eric De Waele - 2015-06-20 10:01:22 - De Waele - X3962
Christine & Marjolein - 2015-06-19 13:30:20 - Yolande - C5077
Christine & Marjolein - 2015-06-19 13:28:54 - Yolande - B5056
- 2015-06-17 20:57:18 - Mika - F3789
Maxime Vander Avort - 2015-06-17 17:03:27 - Maxime Vander Avort - V7013-002
Maxime Vander Avort - 2015-06-17 17:02:16 - Maxime Vander Avort - P7013-007
Nadia Souverijns - 2015-06-17 16:15:53 - Tibax - V5054
Kristina Cuvelier - 2015-06-17 14:54:37 - Cuvelier - C4224
Kristina Cuvelier - 2015-06-17 14:05:51 - Cuvelier - C4223
Viola Vetters - 2015-06-16 15:49:52 - Orion - C2886
Viola Vetters - 2015-06-16 15:48:19 - Orion - C1668
Laurent Vanstechelman - 2015-06-16 13:39:05 - Tempo d Oro - U1678
Laurent Vanstechelman - 2015-06-16 13:37:46 - Tempo d Oro - U1678
Tim & Sandra Hendrickx - 2015-06-15 12:45:39 - Hendrickx - V7012-003
Elke Bosmans - 2015-06-15 10:43:26 - De Wolf - C3953
Elke Bosmans - 2015-06-15 10:41:31 - De Wolf - X3778-001
Frédéric Pirson - 2015-06-13 16:55:17 - Pirson - V3802
Frédéric Pirson - 2015-06-13 16:53:50 - Pirson - C3801
Eric De Waele - 2015-06-13 15:16:04 - Heursel - C3658
Eric De Waele - 2015-06-13 15:09:57 - Heursel - C4338
Alain Van Vlierden - 2015-06-13 14:17:27 - Van Vlierden - C3238
- 2015-06-13 12:48:04 - Jagre - X4514
- 2015-06-13 12:46:18 - Jagre - C4156
Vicky Coens - 2015-06-13 12:24:06 - Coens Brugge - C3760
Vicky Coens - 2015-06-13 12:21:32 - Coens Brugge - X4782
Nadia Souverijns - 2015-06-13 10:41:46 - Tibax - F4130
Nadia Souverijns - 2015-06-13 10:24:36 - Tibax - C4148
Isabelle Leblans - 2015-06-11 16:05:43 - Leblans - U4686
Isabelle Leblans - 2015-06-11 16:04:07 - Leblans - C3953
N. Baurens - 2015-06-11 14:57:22 - Baurens - C3768
N. Baurens - 2015-06-11 14:51:18 - Baurens - T4225
Elke Bosmans - 2015-06-11 09:30:53 - De Wolf - C4172
Christiaan Picard - 2015-06-10 13:14:27 - Christiaan Picard - X3962
Alain Van Vlierden - 2015-06-10 12:40:33 - Van Vlierden - V1722
Alain Van Vlierden - 2015-06-10 12:33:32 - Van Vlierden - C4156
Christine & Marjolein - 2015-06-10 11:53:15 - Yolande - C5055
Christine & Marjolein - 2015-06-10 11:52:42 - Yolande - C5073
Eric De Waele - 2015-06-10 10:45:14 - De Waele - U4510
Eric De Waele - 2015-06-10 10:42:52 - De Waele - U4510
Evi Vandeweyer - 2015-06-10 09:22:28 - Vandeweyer - X2167-001
Alain Van Vlierden - 2015-06-10 08:28:44 - Van Vlierden - C3658
Jan Jacob - 2015-06-09 15:42:06 - Jacob - C3658
Jan Jacob - 2015-06-09 15:39:42 - Jacob - C4338
Gallet - Claeys - 2015-06-09 09:50:34 - Gallet - Claeys - C4338
Gallet - Claeys - 2015-06-09 09:50:04 - Gallet - Claeys - C3658
Kurt De Block - 2015-06-08 16:20:39 - Kortrijkse Goudcentrale - T180B00G – (C3881 half set)
Kurt De Block - 2015-06-08 16:19:20 - Kortrijkse Goudcentrale - X4782
Pierre-Louis - 2015-06-08 13:53:21 - Pierre-Louis - T5082
Laurent Vanstechelman - 2015-06-06 14:40:18 - Tempo d Oro - T5084
Laurent Vanstechelman - 2015-06-06 14:38:32 - Tempo d Oro - T5084
Juwelier - uurwerkmaker Devick Francis - 2015-06-06 13:56:14 - Juwelier - uurwerkmaker Devick Francis - V5047
Juwelier - uurwerkmaker Devick Francis - 2015-06-06 13:53:11 - Juwelier - uurwerkmaker Devick Francis - C5061
Elke Bosmans - 2015-06-06 13:14:01 - De Wolf - X2889
Dries - 2015-06-06 12:30:14 - Dries - X5085
Dries - 2015-06-06 12:18:52 - Dries - C5636
Vanhoutteghem - 2015-06-06 11:36:43 - Van Houtteghem - C5919-007
Juwelier - uurwerkmaker Devick Francis - 2015-06-06 09:44:28 - Juwelier - uurwerkmaker Devick Francis - C7017-006
Juwelier - uurwerkmaker Devick Francis - 2015-06-06 09:39:46 - Juwelier - uurwerkmaker Devick Francis - C7017-002
Laurent Vanstechelman - 2015-06-05 17:15:28 - Tempo d Oro - U1678
Laurent Vanstechelman - 2015-06-05 17:13:30 - Tempo d Oro - C4807
Anne De Peuter - 2015-06-05 16:39:54 - Goethals - V5048
Christine & Marjolein - 2015-06-05 16:24:56 - Yolande - C5077
Christine & Marjolein - 2015-06-05 16:24:11 - Yolande - B5056
Vicky Coens - 2015-06-05 15:29:30 - Coens Brugge - V4206
Vicky Coens - 2015-06-05 15:26:36 - Coens Brugge - C3953
Davy Van Ruyskensvelde - 2015-06-05 11:06:31 - Van Ruyskensvelde - C9045-003
Davy Van Ruyskensvelde - 2015-06-05 11:04:12 - Van Ruyskensvelde - C9045-004
Frédéric Pirson - 2015-06-04 17:00:39 - Pirson - C4929
Dries - 2015-06-04 15:07:28 - Dries - V5054
Roger Borremans - 2015-06-04 11:15:59 - La coquille d Or - X2850
Roger Borremans - 2015-06-04 11:11:25 - La coquille d Or - X2850
Dirk Dekempe - 2015-06-04 08:46:58 - Dekempe - C5060
Dirk Dekempe - 2015-06-04 08:43:54 - Dekempe - V5079
Juwelier - uurwerkmaker Devick Francis - 2015-06-03 13:55:30 - Juwelier - uurwerkmaker Devick Francis - C5077
Juwelier - uurwerkmaker Devick Francis - 2015-06-03 13:53:53 - Juwelier - uurwerkmaker Devick Francis - B5056
Vanhoutteghem - 2015-06-02 16:16:00 - Van Houtteghem - C9052
- 2015-05-30 17:06:59 - Braem invest cva - V4206
- 2015-05-30 17:04:19 - Braem invest cva - C3801
Anne De Peuter - 2015-05-30 16:22:37 - Goethals - X3778-001
Anne De Peuter - 2015-05-30 16:17:45 - Goethals - C5919-007
Anne De Peuter - 2015-05-30 14:04:06 - Goethals - U4686
Anne De Peuter - 2015-05-30 14:01:01 - Goethals - V4206
De Greeve - 2015-05-30 12:15:05 - De Greeve - C5112
De Greeve - 2015-05-30 12:13:28 - De Greeve - C5113
Patrick Peeters - 2015-05-30 10:57:05 - Peeters - X5085
Patrick Peeters - 2015-05-30 10:53:36 - Peeters - C5081
Patrick Peeters - 2015-05-30 10:50:00 - Peeters - V5049
Dries - 2015-05-29 17:01:30 - Dries - C5074
Dries - 2015-05-29 16:49:02 - Dries - C3658
Elke Bosmans - 2015-05-29 16:03:37 - De Wolf - V4202
Elke Bosmans - 2015-05-29 16:00:51 - De Wolf - C4201
Viola Vetters - 2015-05-28 09:37:27 - Orion - X3778-001
Viola Vetters - 2015-05-28 09:36:18 - Orion - C3777-001
Isabelle Leblans - 2015-05-26 16:21:14 - Leblans - U1485
Isabelle Leblans - 2015-05-26 16:18:32 - Leblans - V1293
Viola Vetters - 2015-05-26 14:24:13 - Orion - X1476
Roger Borremans - 2015-05-26 12:45:43 - La coquille d Or - C5064
Roger Borremans - 2015-05-26 12:43:07 - La coquille d Or - V5053
Eric De Waele - 2015-05-26 10:54:32 - De Waele - B5059
Eric De Waele - 2015-05-26 10:52:17 - De Waele - C5078
Eric De Waele - 2015-05-26 10:01:03 - De Waele - V5080
Evi Vandeweyer - 2015-05-26 10:00:52 - Vandeweyer - B5059
Eric De Waele - 2015-05-26 09:58:22 - De Waele - C5061
Pierre-Louis - 2015-05-26 09:46:29 - Pierre-Louis - V5080
Pierre-Louis - 2015-05-26 09:45:33 - Pierre-Louis - C5076
Anne De Peuter - 2015-05-26 09:23:26 - Goethals - U4686
Evy Uyttenhove - 2015-05-26 09:17:25 - Evy d Or - X4782
Evy Uyttenhove - 2015-05-26 09:15:13 - Evy d Or - C4790
jan Van Brusselen - 2015-05-25 19:44:16 - Perles d Amour - F4786
jan Van Brusselen - 2015-05-25 19:42:27 - Perles d Amour - C4791
Elke Bosmans - 2015-05-23 16:14:04 - De Wolf - C3953
Anne De Peuter - 2015-05-23 13:46:26 - Goethals - V4202
Pierre-Louis - 2015-05-23 09:31:17 - Pierre-Louis - C5061
Laurent Vanstechelman - 2015-05-22 17:32:37 - Tempo d Oro - X3745
Laurent Vanstechelman - 2015-05-22 17:19:18 - Tempo d Oro - C2828
Vicky Coens - 2015-05-22 15:30:46 - Coens Brugge - T4685
Anne De Peuter - 2015-05-22 12:23:40 - Goethals - C3658
Marc - 2015-05-22 11:32:23 - Yannick - V7014-003
Marc - 2015-05-22 11:29:06 - Yannick - V7014-003
Viola Vetters - 2015-05-22 10:41:43 - Orion - U4686
Viola Vetters - 2015-05-22 10:40:22 - Orion - U4686
Stephan Siemon - 2015-05-21 11:14:44 - Top Watch - V1289
Annik De Mey - 2015-05-20 14:59:53 - Annik De Mey - C9045-004
Annik De Mey - 2015-05-20 14:56:11 - Annik De Mey - B5052
Christiaan Picard - 2015-05-20 14:54:44 - Christiaan Picard - X3962
Christine & Marjolein - 2015-05-20 12:42:39 - Yolande - X2889
Christine & Marjolein - 2015-05-20 12:40:30 - Yolande - P408A001
Vanhoutteghem - 2015-05-19 12:22:39 - Van Houtteghem - X4782
Vanhoutteghem - 2015-05-19 12:21:03 - Van Houtteghem - X4782
David Van Bellingen - 2015-05-16 17:23:08 - Van Bellingen - C9048
David Van Bellingen - 2015-05-16 17:22:34 - Van Bellingen - C9048-001
Elke Bosmans - 2015-05-16 16:26:58 - De Wolf - C3658
Elke Bosmans - 2015-05-16 16:26:03 - De Wolf - C4338
Vanhoutteghem - 2015-05-16 14:58:18 - Van Houtteghem - C3658
Dries - 2015-05-16 13:09:27 - Dries - V5079
Dries - 2015-05-16 12:38:49 - Dries - C5064
Dries - 2015-05-16 12:37:51 - Dries - V5053
Eric De Waele - 2015-05-16 10:34:52 - Heursel - E4427-002
Eric De Waele - 2015-05-16 10:31:18 - Heursel - E4427-006
David Van Bellingen - 2015-05-16 09:59:44 - Van Bellingen - C5077
David Van Bellingen - 2015-05-16 09:58:51 - Van Bellingen - B5056
Kurt De Block - 2015-05-15 15:27:49 - Kortrijkse Goudcentrale - V7011-002
Annik De Mey - 2015-05-15 14:55:03 - Annik De Mey - V5046
De Greeve - 2015-05-15 09:45:35 - De Greeve - V5080
De Greeve - 2015-05-15 09:43:03 - De Greeve - C5070
Pol-Henry Martin - 2015-05-14 10:49:43 - Bijouterie Martin - C3658
Juwelier - uurwerkmaker Devick Francis - 2015-05-12 15:04:26 - Juwelier - uurwerkmaker Devick Francis - V5079
Juwelier - uurwerkmaker Devick Francis - 2015-05-12 15:03:05 - Juwelier - uurwerkmaker Devick Francis - C5065
Juwelier - uurwerkmaker Devick Francis - 2015-05-12 14:58:36 - Juwelier - uurwerkmaker Devick Francis - T7029
Juwelier - uurwerkmaker Devick Francis - 2015-05-12 14:56:04 - Juwelier - uurwerkmaker Devick Francis - T7029-002
Vicky Coens - 2015-05-12 09:28:42 - Coens Brugge - F4785
Vicky Coens - 2015-05-12 09:23:13 - Coens Brugge - P4789
Frédéric Pirson - 2015-05-12 08:41:10 - Pirson - P4559
Kurt De Block - 2015-05-11 16:50:45 - Kortrijkse Goudcentrale - V7011-002
Kurt De Block - 2015-05-11 16:49:27 - Kortrijkse Goudcentrale - P7011-007
Kurt De Block - 2015-05-11 16:46:32 - Kortrijkse Goudcentrale - C9054-002
Kurt De Block - 2015-05-11 16:42:28 - Kortrijkse Goudcentrale - C9055-006
- 2015-05-11 14:37:19 - Jagre - M839A01G
- 2015-05-11 14:35:24 - Jagre - M839A00G
Evi Vandeweyer - 2015-05-10 16:07:25 - Vandeweyer - C4338
Evi Vandeweyer - 2015-05-10 16:06:40 - Vandeweyer - X4684
Evi Vandeweyer - 2015-05-10 16:05:37 - Vandeweyer - C3658
Katrien en Hildegarde Huysman - 2015-05-09 17:05:48 - Huysman - V5147
Nadia Souverijns - 2015-05-09 16:55:52 - Tibax - F4785
Nadia Souverijns - 2015-05-09 16:54:02 - Tibax - P4789
Christine & Marjolein - 2015-05-09 15:03:13 - Yolande - V5050
Christine & Marjolein - 2015-05-09 15:02:45 - Yolande - C5065
Marc - 2015-05-09 14:59:37 - Yannick - V7001-003
Viola Vetters - 2015-05-09 14:11:35 - Orion - V3802
Viola Vetters - 2015-05-09 14:10:23 - Orion - C3801
Evy Uyttenhove - 2015-05-09 13:43:24 - Evy d Or - V4206
Vicky Coens - 2015-05-09 13:32:59 - Coens Brugge - V4227
Vicky Coens - 2015-05-09 13:29:47 - Coens Brugge - V4227
Patrick Peeters - 2015-05-09 13:04:13 - Peeters - V5079
Patrick Peeters - 2015-05-09 12:57:22 - Peeters - V5053
Evy Uyttenhove - 2015-05-09 10:47:28 - Evy d Or - X4782
Evy Uyttenhove - 2015-05-09 10:33:52 - Evy d Or - C3658
Eric De Waele - 2015-05-08 15:33:16 - Heursel - B4980-001 ROSE
Christine & Marjolein - 2015-05-08 10:54:18 - Yolande - V7013-002
Christine & Marjolein - 2015-05-08 10:49:59 - Yolande - A3028-001
David Van Bellingen - 2015-05-07 19:54:31 - Van Bellingen - C4338
David Van Bellingen - 2015-05-07 19:53:47 - Van Bellingen - C3658
David Van Bellingen - 2015-05-07 19:37:32 - Van Bellingen - C4338
David Van Bellingen - 2015-05-07 19:36:30 - Van Bellingen - C3658
Christine & Marjolein - 2015-05-07 14:25:16 - Yolande - V4206
Christine & Marjolein - 2015-05-07 14:23:11 - Yolande - A3028-001
- 2015-05-07 13:44:30 - Jagre - C9045-004
- 2015-05-07 13:42:07 - Jagre - C9045-003
- 2015-05-07 13:36:56 - Jagre - C2864
- 2015-05-07 13:34:18 - Jagre - C2863
Patrick Peeters - 2015-05-07 10:00:08 - Peeters - B5056
Patrick Peeters - 2015-05-07 09:57:23 - Peeters - C5077
Patrick Peeters - 2015-05-07 09:45:26 - Peeters - V7001-003
Sandra Van Sweeveldt - 2015-05-06 12:02:03 - deani - W5334
Sandra Van Sweeveldt - 2015-05-06 11:59:39 - deani - W5260
Annik De Mey - 2015-05-06 08:50:53 - Annik De Mey - V5048
Marc - 2015-05-05 16:46:41 - Yannick - C4338
Marc - 2015-05-05 16:41:43 - Yannick - C3658
Isabelle Leblans - 2015-05-05 16:37:26 - Leblans - C2821
Dries - 2015-05-05 14:49:03 - Dries - B9056-002
Nadia Souverijns - 2015-05-05 14:23:03 - Tibax - T4225
Nadia Souverijns - 2015-05-05 14:20:17 - Tibax - C3768
Nadia Souverijns - 2015-05-05 14:16:17 - Tibax - V4206
Nadia Souverijns - 2015-05-05 14:12:15 - Tibax - C5066
Eric De Waele - 2015-05-05 13:17:05 - De Waele - C5925-007
Eric De Waele - 2015-05-05 12:57:31 - De Waele - C5925-006
Isabelle Leblans - 2015-05-05 11:17:58 - Leblans - X2822
Eric De Waele - 2015-05-05 11:16:12 - De Waele - F5104
Catherine Abeele - 2015-05-05 11:09:15 - Abeele - C5073
Eric De Waele - 2015-05-05 11:07:28 - De Waele - F5105
Catherine Abeele - 2015-05-05 11:07:07 - Abeele - C5055
Anne De Peuter - 2015-05-04 15:54:48 - Goethals - C3658
Anne De Peuter - 2015-05-04 15:52:58 - Goethals - C4338
Dries - 2015-05-02 17:05:06 - Dries - P408A001
Vanhoutteghem - 2015-05-02 16:42:18 - Van Houtteghem - C5919-006
Frédéric Pirson - 2015-05-02 16:31:35 - Pirson - V1289
Frédéric Pirson - 2015-05-02 16:29:27 - Pirson - U1678
Vanhoutteghem - 2015-05-02 13:22:06 - Van Houtteghem - C9052
Alain Van Vlierden - 2015-05-02 12:53:30 - Van Vlierden - V4202
Alain Van Vlierden - 2015-05-02 12:48:44 - Van Vlierden - C3963
Marc Buseyne - 2015-05-02 10:50:09 - Busseyne - C3963
David Van Bellingen - 2015-04-30 14:18:48 - Van Bellingen - C5078
David Van Bellingen - 2015-04-30 14:17:28 - Van Bellingen - B5059
Pierre-Louis - 2015-04-30 13:21:35 - Pierre-Louis - V5079
Pierre-Louis - 2015-04-30 13:20:34 - Pierre-Louis - C5060
Martine Van Emrik - 2015-04-29 19:47:59 - Martine Van Emrik - C4807
Martine Van Emrik - 2015-04-29 19:39:35 - Martine Van Emrik - V4535
Marc Brans - 2015-04-29 13:42:29 - Huis Claessen - C3963
Vanhoutteghem - 2015-04-29 13:35:16 - Van Houtteghem - C5919-006
Marc Brans - 2015-04-29 13:32:08 - Huis Claessen - U1812
Pierre-Louis - 2015-04-28 17:10:58 - Pierre-Louis - T5084
Pierre-Louis - 2015-04-28 16:59:41 - Pierre-Louis - C3768
Pol-Henry Martin - 2015-04-28 10:01:40 - Bijouterie Martin - P7011-007
Pol-Henry Martin - 2015-04-28 09:57:07 - Bijouterie Martin - X2167-001
- 2015-04-27 15:16:58 - Mika - X4543
Katrien en Hildegarde Huysman - 2015-04-27 15:04:33 - Huysman - C5299
Katrien en Hildegarde Huysman - 2015-04-27 15:03:20 - Huysman - C3658
Katrien en Hildegarde Huysman - 2015-04-27 14:09:32 - Huysman - F5104
Katrien en Hildegarde Huysman - 2015-04-27 14:07:24 - Huysman - F5105
Anne De Peuter - 2015-04-25 18:19:52 - Goethals - T5082
Carlo Declerq - 2015-04-25 14:54:05 - Declerq - V7014-003
Anne De Peuter - 2015-04-25 14:53:09 - Goethals - A3028-001
Carlo Declerq - 2015-04-25 14:52:48 - Declerq - P7014-007
Anne De Peuter - 2015-04-25 14:49:00 - Goethals - V4202
Frédéric Pirson - 2015-04-25 10:56:53 - Pirson - C9054-002
Frédéric Pirson - 2015-04-25 10:54:48 - Pirson - C9021
Isabelle Leblans - 2015-04-25 10:52:59 - Leblans - X5501-001
Isabelle Leblans - 2015-04-25 10:51:56 - Leblans - X5501-002
Pol-Henry Martin - 2015-04-23 16:23:47 - Bijouterie Martin - X2167-001
Pol-Henry Martin - 2015-04-23 16:22:10 - Bijouterie Martin - E4480-001
Pol-Henry Martin - 2015-04-23 15:55:08 - Bijouterie Martin - X2167-001
Pol-Henry Martin - 2015-04-23 15:52:10 - Bijouterie Martin - E4480-001
Viola Vetters - 2015-04-23 10:45:44 - Orion - C2265-003
Viola Vetters - 2015-04-23 10:44:27 - Orion - C2265-004
Stephan Siemon - 2015-04-23 10:14:09 - Top Watch - U1485
Stephan Siemon - 2015-04-23 10:13:09 - Top Watch - U1485
Catherine Abeele - 2015-04-23 08:43:35 - Abeele - X4514 ROSE
jan Van Brusselen - 2015-04-22 18:24:18 - Perles d Amour - X3745
jan Van Brusselen - 2015-04-22 18:22:03 - Perles d Amour - C4172
Frédéric Pirson - 2015-04-22 17:02:35 - Pirson - C4338
Frédéric Pirson - 2015-04-22 17:00:17 - Pirson - C3953
Patrick Peeters - 2015-04-22 16:27:05 - Peeters - V5080
Patrick Peeters - 2015-04-22 16:23:39 - Peeters - V5053
Jan Jacob - 2015-04-22 15:34:35 - Jacob - V7001-003
Jan Jacob - 2015-04-22 15:32:23 - Jacob - T159B00G
Christof en Evelyne Vande Walle en Mattheeuws - 2015-04-21 15:53:28 - Vande Walle - C3953
Frédéric Pirson - 2015-04-21 13:05:22 - Pirson - A3028-001
Frédéric Pirson - 2015-04-21 13:03:23 - Pirson - U4686
Frédéric Pirson - 2015-04-21 11:31:45 - Pirson - B4138
Frédéric Pirson - 2015-04-21 11:26:44 - Pirson - V4202
Catherine Abeele - 2015-04-21 11:10:22 - Abeele - F2263
Catherine Abeele - 2015-04-21 11:08:07 - Abeele - C2863
N. Baurens - 2015-04-21 10:44:26 - Baurens - C3768
N. Baurens - 2015-04-21 10:39:02 - Baurens - V1721
Sofie - 2015-04-21 09:56:53 - Jema Design - X4782
Kurt De Block - 2015-04-20 17:03:04 - Kortrijkse Goudcentrale - C9055-007
Eric De Waele - 2015-04-18 16:02:32 - Heursel - C4338
Anne De Peuter - 2015-04-18 16:01:02 - Goethals - U4686
Elke Bosmans - 2015-04-18 15:41:57 - De Wolf - X4782
Elke Bosmans - 2015-04-18 15:39:43 - De Wolf - T321A01G
Viola Vetters - 2015-04-18 15:28:33 - Orion - F9042
Christine & Marjolein - 2015-04-17 16:36:47 - Yolande - C5078
Christine & Marjolein - 2015-04-17 16:35:49 - Yolande - B5059
- 2015-04-17 16:11:33 - Jagre - V7013-002
- 2015-04-17 16:07:53 - Jagre - P7013-007
Isabelle Leblans - 2015-04-17 14:34:10 - Leblans - U4686
Jan Jacob - 2015-04-17 08:52:23 - Jacob - V4535
Jan Jacob - 2015-04-17 08:48:49 - Jacob - V1721
- 2015-04-15 10:07:40 - Jagre - X4514 ROSE
- 2015-04-15 10:02:09 - Jagre - C5423
Alain Van Vlierden - 2015-04-14 12:16:25 - Van Vlierden - V5046
Alain Van Vlierden - 2015-04-14 12:13:34 - Van Vlierden - C5058
Sandra Van Sweeveldt - 2015-04-14 07:52:15 - Jacob - A3028-001
De Greeve - 2015-04-11 17:40:10 - De Greeve - V5049
De Greeve - 2015-04-11 17:38:19 - De Greeve - A3028-001
Christine & Marjolein - 2015-04-11 14:10:02 - Yolande - V5053
Christine & Marjolein - 2015-04-11 14:06:34 - Yolande - C2821
Christine & Marjolein - 2015-04-11 13:43:32 - Yolande - C3953
Pierre-Louis - 2015-04-10 16:17:31 - Pierre-Louis - V5047
Pierre-Louis - 2015-04-10 16:16:19 - Pierre-Louis - C5061
N. Baurens - 2015-04-09 10:40:29 - Baurens - V1289
Anne De Peuter - 2015-04-08 17:06:32 - Goethals - X3634
Carlo Declerq - 2015-04-08 11:55:51 - Declerq - C3028-002
Carlo Declerq - 2015-04-08 11:54:48 - Declerq - A3028-001
Vanhoutteghem - 2015-04-07 13:09:53 - Van Houtteghem - C9054-002
Christof en Evelyne Vande Walle en Mattheeuws - 2015-04-07 10:55:00 - Vande Walle - T3796
Christof en Evelyne Vande Walle en Mattheeuws - 2015-04-07 10:47:43 - Vande Walle - T3796
Celine Vanstechelman - 2015-04-07 09:45:21 - Eye-C - C5055
Celine Vanstechelman - 2015-04-07 09:44:02 - Eye-C - C5073
Anne De Peuter - 2015-04-04 15:50:09 - Goethals - T3758
- 2015-04-04 14:12:34 - Jagre - M839A01G
- 2015-04-04 14:04:37 - Jagre - M839A00G
Vanhoutteghem - 2015-04-04 13:42:23 - Van Houtteghem - X3634
Vanhoutteghem - 2015-04-04 13:41:12 - Van Houtteghem - C3633
Carlo Declerq - 2015-04-04 12:12:58 - Declerq - C4148
Carlo Declerq - 2015-04-04 12:11:25 - Declerq - F4130
Carlo Declerq - 2015-04-04 09:10:04 - Declerq - C9045-004
Carlo Declerq - 2015-04-04 09:08:22 - Declerq - C9045-004
Vicky Coens - 2015-04-03 14:08:53 - Coens Brugge - C3953
David Van Bellingen - 2015-04-03 13:48:11 - Van Bellingen - C3953
Vicky Coens - 2015-04-03 13:33:12 - Coens Brugge - C3755
Pierre-Louis - 2015-04-02 13:55:41 - Pierre-Louis - X3692
Dries - 2015-04-02 13:33:05 - Dries - C4557-003
Dries - 2015-04-02 13:19:21 - Dries - C5636-001
Dries - 2015-04-02 13:17:50 - Dries - C5636
Dries - 2015-04-02 13:13:53 - Dries - F5105
Dries - 2015-04-02 13:12:05 - Dries - F5104
David Van Bellingen - 2015-04-02 11:21:26 - Van Bellingen - V4206
David Van Bellingen - 2015-04-02 11:20:38 - Van Bellingen - C9042-001
Anne De Peuter - 2015-04-01 13:08:38 - Goethals - V5048
N. Baurens - 2015-03-31 16:13:07 - Baurens - C4338
N. Baurens - 2015-03-31 16:03:26 - Baurens - C3658
Viola Vetters - 2015-03-31 10:38:30 - Orion - X2822
Stephan Siemon - 2015-03-31 09:32:02 - Top Watch - C3658
Stephan Siemon - 2015-03-31 09:25:56 - Top Watch - C4338
Stephan Siemon - 2015-03-31 09:23:37 - Top Watch - V1289
Bart Bourgois - 2015-03-30 13:30:28 - Bourgois - X5501-002
Bart Bourgois - 2015-03-30 13:29:00 - Bourgois - V4202
Bart Bourgois - 2015-03-30 13:27:32 - Bourgois - V4202
- 2015-03-30 12:15:12 - Braem invest cva - P4789
- 2015-03-30 12:10:21 - Braem invest cva - F4785
Elke Bosmans - 2015-03-28 16:19:20 - De Wolf - V7013-002
Elke Bosmans - 2015-03-28 16:17:16 - De Wolf - P7013-007
Vicky Coens - 2015-03-28 12:00:13 - Coens Brugge - C3953
Vicky Coens - 2015-03-28 11:58:16 - Coens Brugge - V4227
Sofie - 2015-03-27 16:50:10 - Jema Design - W5335
Sofie - 2015-03-27 16:49:07 - Jema Design - W5336
Carlo Declerq - 2015-03-27 14:52:39 - Declerq - P4789
Carlo Declerq - 2015-03-27 14:49:08 - Declerq - P4789
Sofie - 2015-03-27 10:41:14 - Jema Design - B9056-002
Sofie - 2015-03-27 10:39:31 - Jema Design - B9056-003
Dries - 2015-03-26 18:16:26 - Dries - X2167-001
Dries - 2015-03-26 18:10:54 - Dries - B9056-002
Dries - 2015-03-26 18:08:37 - Dries - B9056-003
Stephan Siemon - 2015-03-25 09:51:17 - Top Watch - U1485
Stephan Siemon - 2015-03-25 09:49:34 - Top Watch - U1485
Eric De Waele - 2015-03-24 17:10:20 - De Waele - V5053
Christine & Marjolein - 2015-03-24 15:54:11 - Yolande - V5080
Evi Vandeweyer - 2015-03-24 11:18:49 - Vandeweyer - C3777-001
Evi Vandeweyer - 2015-03-24 11:12:42 - Vandeweyer - X3778-001
Evi Vandeweyer - 2015-03-24 11:07:40 - Vandeweyer - F5086
Elke Bosmans - 2015-03-21 17:08:23 - De Wolf - C9045-004
Elke Bosmans - 2015-03-21 17:08:09 - De Wolf - C9045-003
Christine & Marjolein - 2015-03-21 16:39:14 - Yolande - X5501
Elke Bosmans - 2015-03-21 15:48:56 - De Wolf - X3778-001
Elke Bosmans - 2015-03-21 15:47:16 - De Wolf - T321A01G
Vicky Coens - 2015-03-20 15:29:47 - Coens Brugge - C4338
Laurent Vanstechelman - 2015-03-18 16:05:12 - Tempo d Oro - X4782
Laurent Vanstechelman - 2015-03-18 15:59:26 - Tempo d Oro - C3768
Davy Van Ruyskensvelde - 2015-03-17 17:25:20 - Van Ruyskensvelde - P7001-007
Davy Van Ruyskensvelde - 2015-03-17 17:21:05 - Van Ruyskensvelde - V7001-003
- 2015-03-16 12:50:11 - Mika - C3963
- 2015-03-16 12:46:47 - Mika - C4156
Eric De Waele - 2015-03-14 17:53:29 - De Waele - C3953
Eric De Waele - 2015-03-14 17:51:44 - De Waele - U5507-003
Eric De Waele - 2015-03-14 17:47:17 - De Waele - V1293
Eric De Waele - 2015-03-14 17:44:35 - De Waele - C3953
Eric De Waele - 2015-03-14 17:40:07 - De Waele - V5048
Christine & Marjolein - 2015-03-14 16:55:41 - Yolande - C5071
Christine & Marjolein - 2015-03-14 16:53:24 - Yolande - V5080
Christine & Marjolein - 2015-03-14 16:52:26 - Yolande - C5076
Elke Bosmans - 2015-03-14 16:45:49 - De Wolf - C4156
Nadia Souverijns - 2015-03-14 10:53:24 - Tibax - V7002-003
- 2015-03-14 10:38:18 - Braem invest cva - C5919-006
- 2015-03-14 10:36:17 - Braem invest cva - C5919-006
Dries - 2015-03-13 18:03:18 - Dries - C5073
Dries - 2015-03-13 18:02:24 - Dries - C5055
Christine & Marjolein - 2015-03-13 15:49:51 - Yolande - F4130
Christine & Marjolein - 2015-03-13 15:48:10 - Yolande - C4148
Anne De Peuter - 2015-03-11 12:23:05 - Goethals - X3634
Anne De Peuter - 2015-03-11 12:17:12 - Goethals - C3658
Evy Uyttenhove - 2015-03-11 11:10:25 - Evy d Or - X4222-001
- 2015-03-10 16:25:38 - Braem invest cva - V4512
- 2015-03-10 14:08:36 - Braem invest cva - A3028-001
- 2015-03-10 14:00:36 - Braem invest cva - C3028-002
Vanhoutteghem - 2015-03-10 13:21:58 - Van Houtteghem - C3658
Vanhoutteghem - 2015-03-10 13:20:30 - Van Houtteghem - C4338
Sandra Van Sweeveldt - 2015-03-10 12:53:57 - deani - C5066
David Van Bellingen - 2015-03-10 08:52:31 - Van Bellingen - F5086
Elke Bosmans - 2015-03-07 14:29:01 - De Wolf - C9055-006
Elke Bosmans - 2015-03-07 14:28:56 - De Wolf - C9055-006
Jan Jacob - 2015-03-07 12:06:21 - Jacob - E4480-001
Viola Vetters - 2015-03-06 16:12:27 - Orion - U4686
Viola Vetters - 2015-03-06 16:11:29 - Orion - V4202
Viola Vetters - 2015-03-06 16:10:03 - Orion - C3953
Vanhoutteghem - 2015-03-06 10:21:39 - Van Houtteghem - X3634
David Van Bellingen - 2015-03-05 17:29:07 - Van Bellingen - F4130
David Van Bellingen - 2015-03-05 17:27:46 - Van Bellingen - C4148
Elke Bosmans - 2015-03-05 14:58:09 - De Wolf - V7001-003
Elke Bosmans - 2015-03-05 14:56:09 - De Wolf - P7001-007
David Van Bellingen - 2015-03-05 11:11:09 - Van Bellingen - C3645
David Van Bellingen - 2015-03-05 11:09:18 - Van Bellingen - T4685
Juwelier - uurwerkmaker Devick Francis - 2015-03-05 09:45:59 - Juwelier - uurwerkmaker Devick Francis - F5086
David Van Bellingen - 2015-03-04 17:28:27 - Van Bellingen - C4224
David Van Bellingen - 2015-03-04 17:27:35 - Van Bellingen - C4224
David Van Bellingen - 2015-03-04 13:42:25 - Van Bellingen - C5074
David Van Bellingen - 2015-03-04 13:41:38 - Van Bellingen - C3658
David Van Bellingen - 2015-03-04 13:31:02 - Van Bellingen - X1476
David Van Bellingen - 2015-03-04 13:30:34 - Van Bellingen - P405A001
David Van Bellingen - 2015-03-04 13:22:36 - Van Bellingen - C3755
David Van Bellingen - 2015-03-04 13:17:08 - Van Bellingen - B4989
David Van Bellingen - 2015-03-04 12:55:30 - Van Bellingen - X4782
David Van Bellingen - 2015-03-04 12:54:17 - Van Bellingen - P7013-007
David Van Bellingen - 2015-03-04 12:44:03 - Van Bellingen - V5107
David Van Bellingen - 2015-03-04 12:43:06 - Van Bellingen - V5106
Anne De Peuter - 2015-03-03 17:53:25 - Goethals - X3778-001
Anne De Peuter - 2015-03-03 10:20:03 - Goethals - C9045-004
- 2015-03-02 13:04:51 - Jagre - F1137
- 2015-03-02 13:02:01 - Jagre - C2899
Gallet - Claeys - 2015-03-02 09:57:48 - Gallet - Claeys - C3963
Gallet - Claeys - 2015-03-02 09:56:01 - Gallet - Claeys - C3658
Gallet - Claeys - 2015-03-02 09:53:58 - Gallet - Claeys - C3953
- 2015-03-01 16:23:27 - Jagre - C5636-001
- 2015-03-01 16:19:59 - Jagre - C5636
Anne De Peuter - 2015-02-28 11:26:15 - Goethals - C9045-003
Anne De Peuter - 2015-02-28 11:21:38 - Goethals - C9045-004
De Greeve - 2015-02-28 10:34:19 - De Greeve - C2951
- 2015-02-26 15:23:34 - Mika - C5925-006
- 2015-02-26 15:17:52 - Mika - C4432
- 2015-02-26 15:16:01 - Mika - C4432
Nadia Souverijns - 2015-02-26 10:42:44 - Tibax - P7014-007
Nadia Souverijns - 2015-02-26 10:34:36 - Tibax - V7014-003
Nadia Souverijns - 2015-02-26 10:25:40 - Tibax - B7052-002
Nadia Souverijns - 2015-02-26 10:23:00 - Tibax - B7052
Nadia Souverijns - 2015-02-26 10:19:40 - Tibax - C4338
Nadia Souverijns - 2015-02-26 10:17:48 - Tibax - C3658
Nadia Souverijns - 2015-02-26 10:14:02 - Tibax - C5060
Nadia Souverijns - 2015-02-26 10:11:46 - Tibax - V5079
Laurent Vanstechelman - 2015-02-26 09:18:31 - Tempo d Oro - V1289
Martine Van Emrik - 2015-02-25 17:52:54 - Martine Van Emrik - B4988
Dries - 2015-02-24 17:15:04 - Dries - C3658
Dries - 2015-02-24 17:13:22 - Dries - C4338
Anne De Peuter - 2015-02-24 17:05:12 - Goethals - U4686
David Van Bellingen - 2015-02-24 14:14:05 - Van Bellingen - V5053
David Van Bellingen - 2015-02-24 14:12:48 - Van Bellingen - C5064
Davy Van Ruyskensvelde - 2015-02-24 12:05:42 - Van Ruyskensvelde - C9055-007
Davy Van Ruyskensvelde - 2015-02-24 11:51:25 - Van Ruyskensvelde - C3953
Evi Vandeweyer - 2015-02-24 11:27:27 - Vandeweyer - C5060
Evi Vandeweyer - 2015-02-24 11:13:04 - Vandeweyer - V5079
Evi Vandeweyer - 2015-02-24 11:10:43 - Vandeweyer - V5049
Evi Vandeweyer - 2015-02-24 10:51:04 - Vandeweyer - C5061
Evi Vandeweyer - 2015-02-24 10:48:30 - Vandeweyer - V5079
Evi Vandeweyer - 2015-02-24 10:46:35 - Vandeweyer - C5060
- 2015-02-23 15:36:49 - Braem invest cva - U4510
Pierre-Louis - 2015-02-21 15:41:04 - Pierre-Louis - V5053
Pierre-Louis - 2015-02-21 15:39:15 - Pierre-Louis - C5064
Anne De Peuter - 2015-02-21 13:38:06 - Goethals - C3755
Anne De Peuter - 2015-02-21 13:35:37 - Goethals - C3953
Sofie - 2015-02-20 11:36:06 - Jema Design - E2829
Sandra Van Sweeveldt - 2015-02-19 11:59:14 - deani - C5081
Nadia Souverijns - 2015-02-17 15:03:54 - Tibax - E2829
Nadia Souverijns - 2015-02-17 14:59:35 - Tibax - C2828
Sandra Van Sweeveldt - 2015-02-16 15:18:21 - - C2481
Vanhoutteghem - 2015-02-14 18:11:49 - Van Houtteghem - C9054-002
Anne De Peuter - 2015-02-14 17:29:36 - Goethals - V4202
Anne De Peuter - 2015-02-14 17:23:25 - Goethals - C3953
De Greeve - 2015-02-14 16:42:00 - De Greeve - C4224
Sandra Van Sweeveldt - 2015-02-13 17:56:03 - - P7001-007
Laurent Vanstechelman - 2015-02-13 17:52:27 - Tempo d Oro - V7001-003
Pierre-Louis - 2015-02-12 15:33:00 - Pierre-Louis - V5048
Pierre-Louis - 2015-02-12 15:32:21 - Pierre-Louis - C5075
Christine & Marjolein - 2015-02-12 15:30:27 - Yolande - V5053
Christine & Marjolein - 2015-02-12 15:29:22 - Yolande - C5064
Carlo Declerq - 2015-02-12 14:17:19 - Declerq - F9021-001
Carlo Declerq - 2015-02-12 14:15:19 - Declerq - C9021
Dries - 2015-02-11 16:25:35 - Dries - V4202
Dries - 2015-02-11 16:22:45 - Dries - C5071
Dries - 2015-02-11 16:21:17 - Dries - F5086
Dries - 2015-02-11 16:18:15 - Dries - C9204-002
Dries - 2015-02-11 16:16:43 - Dries - V1851-001
Dries - 2015-02-11 16:14:23 - Dries - C5074
Dries - 2015-02-11 16:12:38 - Dries - C5636-001
Dries - 2015-02-11 16:02:35 - Dries - C9045-004
Dries - 2015-02-11 16:00:54 - Dries - C9045-003
Vanhoutteghem - 2015-02-10 17:20:00 - Van Houtteghem - C9052-001
Vanhoutteghem - 2015-02-10 17:18:10 - Van Houtteghem - X2827
Vanhoutteghem - 2015-02-10 17:03:53 - Van Houtteghem - B9056-002
Catherine Abeele - 2015-02-10 12:12:23 - Abeele - F3966
Catherine Abeele - 2015-02-10 12:07:44 - Abeele - V4202
Vicky Coens - 2015-02-10 11:04:48 - Coens Brugge - C3953
Katrien en Hildegarde Huysman - 2015-02-09 16:24:01 - Huysman - C3777-001
Katrien en Hildegarde Huysman - 2015-02-09 16:20:57 - Huysman - V7013-002
Dries - 2015-02-09 10:54:57 - Dries - C5074
Dries - 2015-02-09 10:50:50 - Dries - C5061
Evi Vandeweyer - 2015-02-08 19:29:46 - Vandeweyer - F5104
Evi Vandeweyer - 2015-02-08 19:28:28 - Vandeweyer - F5105
Evi Vandeweyer - 2015-02-08 19:25:17 - Vandeweyer - X3962
Evi Vandeweyer - 2015-02-08 19:24:15 - Vandeweyer - C5064
Katrien en Hildegarde Huysman - 2015-02-08 16:10:50 - Huysman - X2167-001
Katrien en Hildegarde Huysman - 2015-02-08 16:09:23 - Huysman - A3028-001
Katrien en Hildegarde Huysman - 2015-02-08 16:05:45 - Huysman - V4512
Katrien en Hildegarde Huysman - 2015-02-08 16:00:20 - Huysman - C9045-003
Katrien en Hildegarde Huysman - 2015-02-08 15:59:07 - Huysman - C9045-004
Elke Bosmans - 2015-02-07 17:32:55 - De Wolf - V7013-002
Elke Bosmans - 2015-02-07 17:28:42 - De Wolf - P7013-007
- 2015-02-07 17:24:19 - Jagre - C2864
- 2015-02-07 17:22:37 - Jagre - C2863
Laurent Vanstechelman - 2015-02-07 16:10:54 - Tempo d Oro - P7014-007
Laurent Vanstechelman - 2015-02-07 16:02:42 - Tempo d Oro - V7014-003
Laurent Vanstechelman - 2015-02-07 14:53:50 - Tempo d Oro - V1290
Laurent Vanstechelman - 2015-02-07 14:50:00 - Tempo d Oro - B4980-001
Katrien en Hildegarde Huysman - 2015-02-07 10:44:31 - Huysman - V7002-003
Katrien en Hildegarde Huysman - 2015-02-07 10:43:06 - Huysman - P7002-007
Kurt De Block - 2015-02-04 16:18:30 - Kortrijkse Goudcentrale - W5333
Kurt De Block - 2015-02-04 16:08:18 - Kortrijkse Goudcentrale - C4338
Vicky Coens - 2015-02-04 16:00:16 - Coens Brugge - C4163
Vicky Coens - 2015-02-04 15:58:09 - Coens Brugge - E1152
Kurt De Block - 2015-02-04 15:44:06 - Kortrijkse Goudcentrale - C9021
Vicky Coens - 2015-02-04 14:37:39 - Coens Brugge - F9040
Vicky Coens - 2015-02-04 14:32:24 - Coens Brugge - C9040-001
Christine & Marjolein - 2015-02-03 14:51:57 - Yolande - V5047
Laurent Vanstechelman - 2015-02-02 19:04:37 - Tempo d Oro - U1678
Anne De Peuter - 2015-01-31 17:35:21 - Goethals - U4686
Catherine Abeele - 2015-01-31 16:50:06 - Abeele - C5064
Catherine Abeele - 2015-01-31 16:48:36 - Abeele - V5053
Anne De Peuter - 2015-01-31 16:45:48 - Goethals - X3778-001
Anne De Peuter - 2015-01-31 16:43:52 - Goethals - C3777-001
Anne De Peuter - 2015-01-31 13:51:41 - Goethals - V4206
Elke Bosmans - 2015-01-31 10:52:34 - De Wolf - C5919-006
Elke Bosmans - 2015-01-31 10:51:08 - De Wolf - C5919-007
Catherine Abeele - 2015-01-29 17:29:01 - Abeele - V3802
Viola Vetters - 2015-01-29 17:15:17 - Orion - C2885
Viola Vetters - 2015-01-29 17:13:20 - Orion - C2886
Jan Jacob - 2015-01-28 11:33:19 - Jacob - P4559
Jan Jacob - 2015-01-28 11:30:33 - Jacob - F3738
Pol-Henry Martin - 2015-01-27 15:39:40 - Bijouterie Martin - X4514
Pol-Henry Martin - 2015-01-27 15:36:36 - Bijouterie Martin - C3953
Pol-Henry Martin - 2015-01-27 15:31:29 - Bijouterie Martin - X2574
Elke Bosmans - 2015-01-27 15:24:58 - De Wolf - F5003
Pol-Henry Martin - 2015-01-27 15:23:12 - Bijouterie Martin - C3953
Pol-Henry Martin - 2015-01-27 15:20:06 - Bijouterie Martin - V7006-003
Elke Bosmans - 2015-01-27 15:13:06 - De Wolf - P7004-007
Evi Vandeweyer - 2015-01-26 11:08:40 - Vandeweyer - C5077
Evi Vandeweyer - 2015-01-26 11:08:05 - Vandeweyer - B5056
Evi Vandeweyer - 2015-01-26 11:06:40 - Vandeweyer - V7013-002
Evi Vandeweyer - 2015-01-26 11:03:57 - Vandeweyer - P7013-007
Evi Vandeweyer - 2015-01-26 10:59:43 - Vandeweyer - C5078
Evi Vandeweyer